GFSCGP_sfc_wetblb_003.txt.gz
Wetbulb
48.85 43.63 39.51 42.08 44.08 44.88 43.58 41.60 41.40 41.65 46.03 43.93 42.92 42.70 45.38 47.96 46.67 47.70 50.49 52.31 52.24 53.00 55.07 56.94 57.06 56.35 56.72 58.20 57.36 56.47 55.90 53.77 54.49 52.79 52.30 51.60 50.28 50.86 50.91 51.59 53.05 52.85 52.44 52.95
43.67 40.74 45.43 47.58 47.30 45.54 44.05 42.53 41.69 43.56 46.51 43.23 40.94 41.48 45.22 48.18 47.81 47.88 50.31 50.04 50.83 52.29 54.01 54.93 54.52 53.90 53.89 53.94 53.29 53.09 52.98 52.56 52.60 52.20 51.55 51.30 50.69 50.88 50.65 51.06 51.57 52.73 52.23 51.51
42.51 44.87 48.76 47.52 45.78 44.66 43.75 42.30 41.67 42.13 44.51 43.48 41.83 40.18 43.60 47.04 48.91 50.02 49.55 49.80 50.64 50.97 51.58 53.12 53.23 51.71 52.00 51.23 51.02 51.40 51.06 51.09 51.41 51.63 50.48 49.85 49.09 49.11 49.65 50.84 50.96 51.49 51.84 50.56
44.66 48.34 47.99 46.26 45.15 44.78 41.94 46.67 45.60 43.80 40.43 35.28 41.11 32.60 40.84 45.04 46.18 47.77 48.32 48.10 48.87 50.24 52.19 52.84 51.98 50.50 50.78 50.26 50.40 50.74 51.11 50.89 51.33 50.23 48.95 47.82 47.71 48.16 49.63 49.04 48.83 49.72 48.98 48.46
44.20 45.45 45.65 44.91 45.07 46.61 44.40 47.24 44.77 43.77 39.82 37.94 39.84 36.02 40.55 45.91 43.59 44.98 45.92 47.59 47.80 48.84 49.69 50.07 50.54 51.20 50.84 50.59 49.68 49.53 50.26 50.63 50.70 49.12 48.55 48.47 47.21 47.28 47.67 47.61 45.72 45.05 45.69 46.42
45.46 48.61 46.61 45.55 48.35 47.49 47.85 45.98 45.16 43.61 40.54 31.18 40.03 38.51 39.40 42.05 43.75 45.31 47.62 48.80 48.55 48.29 49.14 50.15 51.14 51.57 50.34 49.70 49.40 49.31 49.10 49.62 49.74 49.10 48.57 48.28 46.11 45.67 45.27 43.57 42.65 42.99 43.38 44.56
45.04 45.60 47.06 48.71 44.91 47.63 45.26 41.05 31.19 30.41 28.53 28.69 43.14 39.99 39.38 44.14 46.48 46.98 47.07 47.06 48.21 48.89 48.75 48.96 49.57 49.15 49.35 48.40 48.97 49.07 49.84 49.75 49.18 48.42 47.48 46.53 45.73 44.31 42.78 41.78 41.13 41.62 42.56 42.66
39.33 35.81 44.28 47.68 44.77 41.82 42.89 41.40 31.02 27.34 24.79 31.46 39.41 35.40 37.45 45.46 47.01 47.64 48.05 47.88 48.77 48.56 48.82 48.30 49.14 48.62 49.20 49.76 49.72 49.69 50.17 50.26 50.43 48.23 46.45 45.37 45.13 43.99 43.29 43.92 43.41 43.22 42.09 41.88
39.99 39.59 46.23 46.69 46.70 45.69 43.87 36.05 41.81 34.95 32.03 28.73 35.05 39.37 43.64 45.78 45.90 46.89 46.42 47.10 46.99 47.28 47.68 48.48 50.65 51.53 51.18 51.08 49.96 49.29 49.53 49.11 46.53 45.95 44.66 44.74 46.27 46.14 44.71 44.50 42.87 41.75 42.41 44.01
43.11 37.61 44.26 46.12 47.37 47.41 43.83 44.77 35.41 33.74 25.94 24.35 31.88 36.17 36.59 42.65 43.93 45.90 44.44 44.83 45.76 47.22 48.28 48.72 49.42 48.87 48.16 48.10 48.58 48.21 47.65 46.62 45.63 43.99 45.73 47.12 46.77 46.32 45.86 42.54 41.62 41.37 41.07 41.41
44.12 41.95 40.11 44.93 42.06 40.90 42.03 40.80 40.57 39.03 32.66 25.47 23.29 30.61 42.13 42.59 44.09 43.62 44.48 45.31 45.54 45.90 46.03 46.78 46.73 47.16 47.37 46.98 46.85 46.56 46.77 46.54 44.67 45.94 46.74 45.70 45.35 43.44 42.70 41.43 40.14 39.95 39.78 39.48
43.62 39.78 30.33 39.68 44.96 46.17 43.64 41.86 41.34 28.80 31.16 29.80 26.86 29.43 43.55 44.14 45.02 44.81 45.78 46.55 46.21 46.15 45.66 45.96 46.37 46.17 45.11 44.41 44.61 44.25 44.75 44.87 44.67 45.10 44.47 43.24 43.10 42.54 40.87 39.90 39.00 38.80 38.62 38.74
43.96 37.43 29.40 36.22 41.59 44.23 41.04 43.17 43.71 40.25 31.59 29.05 23.83 29.31 45.45 46.53 46.28 47.19 44.56 45.00 45.23 45.89 45.74 45.35 45.21 44.92 43.88 43.49 43.73 43.35 43.41 44.40 45.00 44.78 43.64 42.60 43.66 40.78 38.58 37.93 37.86 37.60 37.19 36.31
46.05 41.64 33.67 28.95 35.20 38.89 35.86 40.01 41.17 39.60 28.66 30.38 30.49 36.03 40.20 43.73 43.59 43.81 44.18 44.38 43.90 44.44 44.68 44.14 43.80 43.23 42.96 42.31 41.85 41.14 41.30 41.71 43.18 44.63 43.70 43.47 43.11 41.83 38.13 38.93 38.11 37.29 36.96 34.87
43.95 35.14 38.11 39.18 40.07 40.68 39.49 39.05 39.52 37.52 36.67 30.35 34.48 37.78 40.70 41.65 42.35 43.14 44.59 44.87 44.48 43.50 43.43 43.04 42.46 41.21 40.59 39.63 38.76 38.81 39.19 40.14 40.63 42.41 42.97 42.38 42.14 40.22 39.75 38.64 38.49 38.14 36.63 34.43
44.73 34.16 31.58 31.40 40.52 39.61 36.17 38.39 38.43 38.80 39.36 38.61 38.38 38.03 43.73 43.83 43.87 43.45 43.50 43.12 41.77 41.74 42.18 42.13 42.36 41.27 39.65 38.64 38.34 38.69 38.25 38.45 39.52 38.79 39.32 41.70 40.91 40.33 39.97 39.92 38.66 37.35 34.90 32.61
37.07 31.36 30.27 29.12 36.01 33.84 28.10 34.41 39.82 40.22 40.85 39.33 31.36 39.21 42.43 41.26 41.75 41.20 40.52 41.21 40.65 40.78 40.98 41.26 41.21 39.33 38.78 37.76 38.03 36.17 36.81 37.93 38.17 38.32 39.50 40.50 40.04 39.46 39.84 40.09 38.40 34.84 33.09 30.90
33.91 33.61 29.97 24.62 27.73 20.13 38.68 43.57 42.77 40.73 41.48 42.50 42.50 41.85 41.62 40.98 41.73 41.16 41.21 39.64 39.78 40.54 41.13 41.02 38.71 37.81 37.40 36.48 36.13 36.31 36.58 37.03 36.95 37.01 38.38 39.06 38.51 38.57 39.89 39.82 35.98 33.72 32.32 30.23
42.31 31.69 25.58 26.02 24.08 31.10 37.51 41.27 39.09 36.52 36.63 43.60 41.50 41.50 41.91 42.06 41.72 39.16 41.97 41.43 39.96 39.82 40.07 38.06 37.60 37.16 35.28 35.22 35.62 35.68 35.43 35.41 35.79 37.10 36.96 37.00 37.24 37.67 37.02 36.23 34.80 33.80 30.24 28.50
41.33 33.43 30.19 24.39 21.03 17.28 33.22 43.06 45.46 43.78 29.82 43.55 42.48 40.97 40.15 39.51 28.65 35.21 41.83 41.70 40.15 39.05 38.80 37.50 36.89 36.01 34.85 34.96 35.46 34.90 34.25 34.31 35.40 37.17 36.86 37.28 36.62 36.79 36.46 36.24 34.10 30.55 29.73 29.67
27.89 27.15 24.04 27.86 18.74 28.24 40.00 44.12 45.33 29.44 31.41 43.50 42.31 40.90 39.81 36.42 36.11 40.30 42.79 39.86 39.07 39.01 37.79 38.48 36.13 34.83 34.72 35.56 35.57 34.24 34.01 33.60 36.27 37.55 37.37 37.27 36.90 36.09 35.28 34.70 31.64 29.42 27.89 28.29
29.77 27.28 29.64 28.43 24.65 22.30 43.81 42.85 34.06 38.34 42.49 43.02 42.28 41.67 41.58 40.43 41.51 42.78 39.45 38.70 38.95 37.32 37.09 37.16 35.27 34.70 35.65 35.79 35.17 33.91 32.90 35.20 36.10 35.69 35.89 35.22 35.16 35.53 34.94 30.72 29.74 29.02 26.81 26.21
32.07 35.36 32.11 32.89 31.36 40.03 44.28 42.44 45.48 45.32 42.95 42.50 41.26 42.30 42.00 41.74 41.32 38.81 38.24 38.27 38.03 36.35 35.29 35.98 34.36 34.98 35.19 35.29 35.20 33.45 34.13 35.07 34.51 33.62 32.85 32.73 33.59 33.57 32.88 30.78 28.13 26.47 25.36 22.41
39.76 43.95 34.02 34.99 41.57 42.56 44.14 46.24 46.59 45.57 44.07 44.01 43.97 44.36 43.23 42.04 38.55 37.71 37.76 36.18 35.58 34.21 33.70 34.70 34.64 33.70 33.71 35.16 35.62 34.67 34.53 34.43 33.29 31.69 31.67 31.35 30.26 31.06 31.00 30.17 27.83 25.85 20.93 19.93
38.29 42.88 38.77 36.33 41.54 43.07 44.35 45.00 45.30 44.90 45.36 45.44 46.35 45.67 44.92 39.17 37.83 36.26 34.85 34.53 33.95 32.95 33.91 34.13 33.43 33.95 34.57 34.94 34.53 34.76 34.22 33.40 32.18 31.66 31.23 29.47 28.37 28.62 28.84 28.33 26.20 25.72 24.47 23.92
43.35 39.75 34.28 33.15 42.85 42.18 42.33 44.78 45.85 44.41 44.27 45.34 44.93 41.44 39.97 37.03 34.86 34.86 33.27 33.48 33.25 33.06 33.90 34.27 34.57 34.52 34.95 34.42 33.85 34.54 34.72 32.36 30.08 29.34 27.83 26.64 26.70 25.66 27.91 27.58 26.08 29.64 28.65 28.17

GFSCGP_sfc_wetblb_006.txt.gz
Wetbulb
47.00 42.32 38.17 40.24 42.04 42.95 43.06 40.10 38.54 39.14 43.61 42.18 41.29 41.21 42.49 46.17 48.99 48.38 49.17 50.85 50.90 50.19 51.85 53.08 53.64 53.78 53.66 53.21 53.29 52.76 53.08 54.80 52.59 51.43 51.49 51.22 49.03 49.23 49.33 49.87 51.25 51.47 51.76 51.41
42.78 39.07 43.83 46.00 46.15 44.54 43.51 41.41 39.92 42.49 45.23 42.01 40.96 40.17 43.53 47.03 46.99 48.49 49.17 49.69 49.83 50.00 50.53 51.32 51.46 51.41 50.50 50.53 51.99 52.19 51.16 50.97 51.57 52.34 51.33 50.29 48.65 48.48 49.51 52.61 51.88 50.89 49.91 49.35
40.58 43.26 47.04 46.36 43.94 43.24 42.08 40.54 39.67 40.28 41.92 41.91 42.56 39.11 42.54 45.41 46.67 47.40 47.32 49.06 50.05 50.04 49.45 50.33 50.51 48.69 48.26 48.27 49.12 49.37 49.16 49.45 50.38 50.09 49.11 48.63 48.68 49.25 49.59 48.54 47.85 48.04 47.47 47.33
43.10 46.93 46.36 44.44 43.23 42.86 39.67 44.52 43.53 41.61 38.09 33.39 38.93 30.58 38.72 42.45 44.04 46.14 47.39 47.65 49.12 49.51 50.49 50.35 49.03 48.12 48.20 47.34 47.44 48.19 49.07 48.83 49.03 49.13 47.90 48.39 47.44 46.29 47.27 46.50 44.92 44.09 45.15 45.53
42.21 43.79 43.79 42.73 43.09 44.63 42.61 45.19 42.77 41.71 37.53 35.98 37.16 33.92 37.28 43.03 41.11 42.85 43.82 46.51 47.01 48.32 48.93 48.55 48.67 48.91 48.43 47.92 47.57 47.80 48.72 48.82 48.39 48.00 47.56 47.14 45.87 45.01 45.30 43.85 42.22 42.28 43.46 44.46
43.96 46.58 44.62 43.57 46.13 45.67 45.90 43.96 42.96 41.22 38.11 29.77 37.93 36.13 36.17 38.54 41.71 43.99 44.82 45.65 46.91 46.77 47.58 48.59 49.19 49.47 48.50 47.80 47.47 46.77 47.53 48.43 48.43 47.49 46.89 47.21 44.59 43.77 42.20 40.93 40.41 41.05 42.10 42.68
43.27 43.51 45.55 46.82 43.58 45.57 43.39 39.40 29.94 29.33 27.10 27.63 40.55 36.72 37.27 43.49 45.23 46.06 45.27 45.23 46.02 46.46 47.14 47.80 48.06 48.01 48.06 47.99 47.86 47.76 48.13 48.57 48.28 47.11 45.07 44.21 42.83 41.73 40.63 40.91 42.46 42.33 43.39 42.43
37.01 34.22 42.30 45.81 42.79 40.02 41.09 39.19 29.96 26.66 23.96 29.56 38.41 32.89 35.98 44.65 47.35 48.00 48.19 46.91 47.16 47.12 47.21 47.15 47.16 46.93 46.95 47.73 47.62 47.52 46.37 44.62 45.42 44.54 43.71 43.78 43.54 44.29 44.38 44.17 40.89 42.78 42.27 41.41
37.36 37.69 44.24 44.28 44.64 44.39 41.57 34.42 40.36 32.59 29.40 27.40 32.74 37.07 41.33 44.77 44.89 46.57 46.76 48.12 45.22 44.91 45.06 46.12 46.44 46.61 47.00 46.93 46.06 47.23 46.40 44.88 44.25 44.42 44.11 44.18 45.56 45.47 45.12 45.45 43.21 42.79 40.69 41.88
41.49 35.60 42.41 44.17 46.59 45.67 41.02 42.91 34.75 31.43 24.78 22.89 29.78 33.28 34.79 39.98 41.66 42.85 42.29 42.52 43.95 44.77 45.12 45.57 45.76 45.50 45.48 46.05 47.15 47.75 46.82 44.80 43.62 43.79 45.29 46.91 45.96 45.00 43.89 41.59 40.08 39.25 39.20 39.72
42.89 38.74 38.24 43.52 40.29 38.72 40.12 38.34 38.12 36.44 30.08 24.47 21.80 28.76 39.76 41.57 42.26 41.42 42.03 43.21 43.46 43.76 43.90 44.46 44.49 44.50 44.10 44.27 43.68 44.00 43.72 44.59 43.68 43.49 43.66 42.80 42.40 42.00 41.29 39.69 40.19 39.04 39.01 39.91
42.25 36.86 28.77 37.61 42.97 44.22 41.57 39.75 37.98 27.47 30.71 27.37 25.00 28.53 41.57 41.64 43.08 44.28 44.09 44.03 44.55 44.23 44.53 44.01 43.43 42.91 42.17 41.71 41.58 40.75 41.79 42.64 42.86 42.90 43.03 42.58 42.19 41.39 40.03 38.91 38.15 38.53 38.47 38.10
41.63 34.49 27.86 34.33 39.78 41.97 39.73 40.88 41.58 36.47 29.64 28.51 22.46 26.65 43.07 43.13 42.69 43.50 41.95 43.07 43.24 43.14 42.66 42.38 42.07 41.27 40.85 39.92 39.33 37.99 37.92 37.76 38.71 39.94 41.08 41.75 42.08 41.35 38.53 38.00 37.58 36.95 36.14 37.12
44.57 39.04 32.68 29.18 33.51 36.37 33.24 37.54 39.81 36.48 26.74 28.93 28.69 33.58 38.55 40.13 40.77 41.71 41.88 41.83 41.16 41.31 41.41 40.95 40.66 39.74 38.43 37.48 36.85 36.58 36.99 37.04 37.16 37.29 37.51 37.31 38.36 40.55 37.28 36.28 36.80 39.00 39.25 39.32
41.71 33.61 35.60 36.41 38.10 37.94 36.70 36.14 36.13 35.43 35.16 30.11 33.35 34.68 39.09 40.02 40.50 41.71 42.42 41.87 41.45 40.69 40.89 41.16 40.08 38.24 36.01 36.25 35.88 36.17 36.04 36.62 37.10 36.41 35.86 37.28 39.29 38.24 38.00 38.91 38.90 39.24 39.21 39.09
41.29 31.71 30.32 30.55 38.50 37.81 33.64 36.25 36.42 36.44 37.32 36.18 36.97 36.15 41.12 41.30 41.72 41.05 40.62 40.09 39.87 40.71 40.35 39.98 39.76 36.88 36.99 36.09 34.77 35.56 35.63 36.05 36.52 35.52 36.83 39.25 39.48 39.28 38.32 37.97 37.95 37.62 37.69 33.72
35.08 29.80 27.62 27.16 32.79 31.74 26.56 33.65 37.59 37.70 38.81 37.39 31.16 37.45 40.35 39.45 40.10 38.73 38.46 39.25 39.21 39.15 39.44 39.27 38.15 36.90 35.62 34.48 35.13 34.11 34.80 35.82 35.62 35.29 37.31 37.57 38.79 37.94 37.85 38.24 37.96 37.21 33.55 34.49
33.19 32.22 26.78 22.19 23.93 17.51 36.29 41.18 40.83 39.41 40.30 40.06 39.38 39.06 39.47 39.68 39.90 39.11 39.47 38.56 38.69 39.35 39.50 38.49 36.13 35.46 34.68 34.21 34.15 34.66 34.73 34.45 34.42 35.73 36.09 36.65 36.33 36.02 36.41 36.54 35.82 35.33 34.03 31.49
38.28 27.89 25.94 20.73 22.37 27.92 35.02 39.28 38.02 35.35 36.51 41.38 39.78 39.70 39.82 40.02 38.48 37.05 40.36 40.11 39.38 38.84 37.87 36.71 35.90 35.37 33.78 33.72 34.08 33.98 33.65 33.64 33.71 35.41 35.25 35.67 35.80 35.22 34.74 35.19 34.72 35.15 31.82 27.40
38.05 30.39 27.19 26.29 17.10 15.68 30.66 40.84 43.35 41.43 29.85 41.73 41.03 39.69 39.12 38.08 28.30 33.90 40.41 40.39 39.14 37.61 37.21 36.24 35.05 34.15 33.02 33.98 33.90 33.41 32.84 32.82 32.82 35.14 35.39 35.86 35.78 35.35 34.79 34.10 33.07 31.75 28.29 29.09
26.29 23.89 23.09 23.16 16.10 25.91 35.78 41.14 42.87 29.13 30.61 41.73 41.18 39.83 39.07 35.60 35.08 38.37 40.69 40.04 37.54 37.23 36.54 36.14 34.29 33.14 33.68 33.79 33.80 32.88 32.52 32.22 33.84 35.20 35.04 35.11 34.74 33.87 33.64 32.52 30.00 28.59 28.06 28.05
28.99 25.68 23.29 22.98 18.75 22.35 40.20 41.40 33.60 37.07 39.99 41.86 41.14 40.61 39.69 39.59 40.21 40.83 40.23 36.58 36.43 34.03 34.09 34.39 33.49 33.01 33.47 33.93 33.71 32.35 31.39 33.43 34.07 33.63 33.04 32.56 32.15 32.25 32.39 29.94 28.82 28.24 27.19 24.92
30.91 32.48 29.89 32.36 31.44 38.27 41.16 41.10 42.46 43.55 41.59 41.68 40.69 41.36 41.30 40.18 40.04 38.28 36.21 34.60 33.59 32.32 32.00 33.46 31.74 32.44 33.30 33.85 33.45 31.57 32.41 33.66 33.21 32.05 31.14 30.82 30.87 30.94 30.38 27.66 25.51 25.03 23.84 20.74
38.56 41.71 32.99 34.44 39.93 40.79 42.38 44.33 45.28 44.49 43.01 42.94 42.69 42.51 43.01 40.27 37.63 35.27 33.53 32.67 31.88 31.26 31.27 31.90 32.08 31.51 31.63 33.13 33.45 32.76 33.60 33.51 32.03 30.71 30.35 29.91 29.18 29.41 28.67 27.12 26.78 24.59 19.60 18.55
35.81 40.47 37.26 34.50 39.29 41.31 43.28 43.71 44.19 44.01 43.83 43.54 44.48 43.65 43.50 37.14 33.64 33.04 32.12 31.85 31.77 31.04 31.84 32.02 31.47 31.55 31.93 32.88 33.10 33.34 33.34 33.12 30.71 30.75 30.31 28.98 26.90 27.32 27.41 25.96 25.48 25.32 25.04 23.84
40.50 38.38 33.80 34.52 40.32 40.83 40.99 43.82 44.49 43.46 43.41 44.60 44.22 36.92 36.57 35.59 32.67 32.59 31.32 31.70 31.42 30.84 31.37 31.07 31.69 31.64 32.05 32.57 31.71 32.36 32.51 32.13 31.28 29.63 28.90 27.27 25.28 23.74 26.74 26.59 26.37 29.36 29.54 28.15

GFSCGP_sfc_wetblb_009.txt.gz
Wetbulb
44.74 41.39 36.99 38.32 39.95 41.09 39.91 37.54 36.84 36.84 41.68 40.43 38.80 39.29 42.68 45.38 47.51 47.17 46.78 46.93 47.62 48.34 49.47 50.71 51.01 52.11 52.22 52.57 53.65 54.01 55.03 55.78 53.61 51.23 51.57 51.51 48.17 48.79 48.95 49.72 50.92 49.62 49.81 49.07
41.76 38.05 41.82 44.86 44.39 42.68 41.60 38.70 37.25 40.48 42.73 41.64 41.11 39.26 42.62 44.89 45.49 47.42 46.89 46.69 47.05 47.88 48.80 49.54 49.89 49.74 49.79 51.27 52.28 52.13 51.62 51.19 51.61 51.80 50.46 50.26 49.30 48.62 51.65 50.95 48.87 48.16 46.97 45.91
39.11 41.28 45.65 44.51 42.47 42.15 40.78 38.05 37.79 38.91 40.73 41.45 41.33 38.32 39.71 43.93 45.31 47.18 47.20 47.55 47.64 47.84 47.90 48.77 48.83 46.78 47.15 48.00 48.50 48.55 48.64 49.27 50.16 51.54 49.83 47.84 47.90 48.20 47.15 45.90 44.54 44.40 45.66 44.97
42.16 45.85 44.37 42.59 41.46 41.29 38.08 42.77 41.43 40.08 37.41 33.62 38.05 29.20 37.13 40.50 42.47 44.88 45.99 46.60 47.57 48.10 48.55 47.83 46.92 46.14 45.97 45.33 46.26 46.93 47.59 47.88 48.31 47.90 47.18 46.86 46.00 45.61 45.40 43.86 41.85 42.10 43.96 43.48
40.92 42.03 42.27 41.34 41.06 42.96 41.09 43.41 40.84 39.92 35.46 34.43 35.28 31.95 35.02 40.77 39.77 42.18 43.86 46.89 48.14 48.33 47.11 47.08 47.02 47.22 46.75 46.28 45.92 46.12 47.36 47.86 47.46 46.87 46.68 46.41 44.96 43.47 43.38 41.15 40.50 40.96 42.13 42.57
42.59 44.60 43.19 41.99 44.38 43.79 44.32 42.51 41.04 39.06 36.22 28.45 35.47 33.68 33.68 36.68 39.95 41.82 44.31 46.54 48.02 46.67 46.04 47.09 47.82 48.00 46.69 45.82 45.32 45.13 46.32 46.55 46.99 46.13 45.13 44.62 42.52 41.81 39.80 39.56 40.29 40.14 41.03 41.98
41.29 41.54 43.45 44.77 41.88 43.65 42.01 37.63 28.91 28.44 26.18 26.74 37.54 34.83 35.31 41.72 42.90 43.87 44.44 44.48 45.43 45.82 46.58 48.33 48.19 46.53 45.74 45.02 45.18 46.64 45.30 44.05 43.56 43.04 42.58 42.08 40.77 40.20 40.89 42.89 43.43 42.65 42.37 42.51
35.40 32.86 40.68 43.94 41.23 38.49 38.96 37.85 30.07 26.05 23.33 28.58 36.56 31.16 35.39 42.73 45.31 46.13 45.70 45.15 44.82 46.77 47.06 45.38 44.70 44.53 44.21 44.14 42.86 42.52 43.00 42.70 43.32 43.34 42.83 42.46 43.01 42.73 44.17 44.92 44.08 42.26 40.95 40.59
35.58 36.18 42.74 42.67 43.09 42.75 39.32 33.50 38.39 31.07 28.22 27.10 30.89 34.90 40.25 42.39 43.51 44.35 44.95 44.79 43.09 43.27 43.72 44.18 44.61 44.43 43.98 44.14 44.18 43.56 42.87 42.80 43.55 43.81 43.62 43.61 43.54 43.63 43.23 42.96 41.68 40.03 39.54 40.75
40.64 33.96 40.63 42.79 44.36 43.41 40.34 41.98 33.19 30.22 23.66 21.91 28.48 30.74 31.76 37.91 40.28 41.56 40.96 41.49 42.18 42.79 43.16 43.56 43.56 43.17 42.99 43.40 43.67 43.72 43.95 43.05 42.82 42.48 42.74 43.73 42.94 42.59 42.09 41.47 39.79 38.79 38.52 40.91
41.34 36.69 36.60 41.36 38.90 36.94 38.96 36.42 35.50 34.53 28.79 23.30 20.95 28.91 37.59 39.48 40.31 40.09 40.29 41.75 42.03 41.84 42.51 42.89 42.90 43.03 42.23 41.24 40.90 40.40 41.56 41.06 39.29 39.56 40.57 40.80 41.13 41.13 40.51 39.18 38.64 37.93 37.92 39.60
40.79 35.59 28.58 35.69 41.57 42.53 39.65 37.58 35.53 26.02 28.66 26.01 23.13 27.70 39.57 40.63 41.46 42.15 41.36 41.77 41.97 42.24 42.13 42.24 41.85 41.61 40.86 38.67 37.50 37.52 36.96 36.62 37.12 37.98 38.43 38.63 38.95 38.98 38.59 38.52 37.31 38.33 38.49 36.76
39.98 33.28 27.90 33.64 38.42 40.08 37.50 39.43 37.84 33.87 29.15 28.84 20.55 25.69 41.02 41.27 41.17 41.48 40.91 41.72 41.50 41.24 40.87 40.97 40.31 39.85 38.02 37.08 37.18 36.14 36.08 35.25 35.47 35.47 35.20 35.55 36.52 37.24 38.15 37.42 36.51 37.38 36.62 37.62
43.23 37.00 31.66 28.76 32.24 34.66 31.87 35.95 37.24 34.48 25.69 27.58 27.37 30.79 37.12 38.14 38.92 39.55 40.18 40.17 39.57 39.86 40.23 39.77 39.18 38.35 37.90 36.56 35.54 35.17 34.90 35.15 35.24 34.86 34.82 36.32 37.36 37.57 35.77 34.61 35.44 36.22 37.00 37.19
39.91 32.14 34.03 34.60 36.25 36.02 34.82 34.74 35.98 34.90 33.73 29.84 32.31 32.78 36.85 38.72 39.14 39.76 40.22 39.72 39.51 39.23 39.91 40.03 38.33 37.35 36.30 34.89 34.77 34.46 34.56 35.16 35.41 34.68 34.98 36.24 37.73 37.35 36.78 36.31 36.46 36.27 36.99 37.44
38.18 31.37 29.76 30.49 35.95 35.56 32.28 34.58 34.34 34.42 34.72 34.91 34.68 34.53 39.55 40.09 40.51 39.87 39.78 39.07 38.39 39.12 40.68 40.33 39.87 37.90 35.91 34.62 33.58 34.45 34.51 34.68 35.18 34.12 35.19 36.74 36.58 37.46 37.36 37.10 36.77 38.29 37.41 37.11
32.48 29.16 26.03 24.14 30.88 30.17 24.88 31.81 36.05 35.69 37.03 35.66 31.34 36.47 38.97 38.61 39.56 38.45 38.09 38.51 38.22 39.32 39.16 38.68 38.32 35.88 34.96 33.79 33.90 32.99 33.67 34.40 34.06 33.65 35.85 36.16 35.70 36.08 35.55 35.92 36.37 35.62 34.61 33.02
32.42 28.59 24.08 21.41 22.71 17.52 32.91 37.97 38.96 37.08 37.96 38.08 37.34 38.24 39.31 39.59 39.32 39.06 38.80 38.25 38.28 38.33 38.47 38.24 36.75 34.62 34.02 32.96 32.72 33.28 33.34 33.31 32.93 33.24 34.86 35.08 34.76 34.33 34.32 34.56 34.45 33.49 34.22 32.56
36.02 27.44 26.11 20.01 20.93 27.07 33.25 37.73 37.46 35.32 35.07 39.60 37.80 37.82 38.41 39.01 37.20 36.62 39.39 38.93 38.41 38.21 38.21 36.75 35.09 34.06 32.80 32.43 32.89 32.36 32.16 32.17 32.32 32.57 33.75 34.40 34.41 34.02 33.82 33.19 32.74 32.50 31.74 28.44
34.86 28.70 25.61 23.99 15.99 15.98 29.56 38.40 41.48 39.54 29.25 40.80 39.56 38.12 37.39 36.72 28.98 34.80 39.09 39.16 39.40 39.41 36.13 35.11 33.68 32.53 31.98 32.35 32.16 31.36 31.67 31.73 31.53 32.27 33.64 34.18 33.94 33.40 32.53 31.55 31.05 30.71 26.34 28.01
26.24 22.15 19.96 18.91 14.99 25.02 33.68 40.14 41.31 29.74 30.17 40.54 40.70 39.59 37.69 36.06 36.06 37.58 39.82 40.48 37.79 34.99 33.62 33.55 32.80 31.77 31.79 32.20 32.74 31.89 31.29 30.68 32.43 33.46 33.27 32.67 32.25 30.96 30.65 29.39 28.64 27.47 27.80 27.66
29.67 26.25 21.58 24.58 18.69 22.57 38.51 39.10 33.92 37.32 38.06 41.65 40.56 40.21 39.56 38.90 39.34 39.93 40.64 35.76 33.37 32.13 32.04 32.29 31.62 31.36 32.20 32.65 31.75 30.49 29.68 31.79 32.48 32.50 32.09 31.17 30.64 30.61 30.75 27.73 26.37 26.78 25.48 24.55
29.11 31.24 29.05 30.87 30.37 37.32 39.15 39.74 40.45 41.48 40.89 40.78 40.79 41.07 41.17 40.52 39.78 39.82 33.43 32.22 31.66 31.24 30.46 31.35 30.72 31.44 31.97 31.91 31.46 29.73 30.99 32.23 32.07 31.26 30.68 30.02 29.81 29.49 28.60 26.42 24.66 24.37 23.30 19.92
36.59 38.89 31.76 33.15 37.94 38.73 39.76 42.01 43.76 43.14 42.51 42.34 42.46 42.05 41.62 40.47 38.19 33.58 31.79 31.58 31.22 29.87 29.71 30.46 30.52 29.73 29.95 31.28 31.79 31.89 32.12 32.45 31.43 30.52 30.20 30.78 29.71 28.74 27.97 26.55 26.33 24.21 20.34 19.96
35.58 38.84 35.91 33.48 37.88 39.88 42.15 43.04 43.89 43.88 43.02 42.72 42.99 42.64 42.04 38.03 32.91 33.56 32.69 31.28 30.45 30.06 30.57 30.42 29.41 29.74 30.05 31.03 31.19 30.86 30.92 31.34 30.19 29.90 31.17 29.68 28.94 27.48 26.41 26.08 25.45 25.05 25.47 25.29
38.95 37.12 32.14 32.16 38.84 39.96 39.35 43.00 44.12 42.84 42.69 43.42 41.93 38.49 36.20 36.03 33.73 33.30 30.64 30.54 30.31 29.64 29.73 29.06 29.63 29.65 29.93 30.83 29.83 29.79 30.75 30.55 30.44 31.31 30.80 30.15 30.66 27.20 27.18 25.74 24.84 29.35 29.51 29.73

GFSCGP_sfc_wetblb_012.txt.gz
Wetbulb
44.29 40.66 36.56 37.55 39.22 38.87 38.55 36.33 34.44 34.46 39.19 39.98 38.71 39.04 41.40 44.77 44.55 43.86 44.41 45.36 45.87 46.88 48.28 50.67 52.10 53.33 53.30 53.90 55.73 54.86 54.82 54.39 53.12 50.97 51.56 49.75 48.98 49.72 49.37 48.09 47.83 48.64 48.62 47.07
41.21 37.65 40.95 43.35 42.66 41.22 39.79 36.84 35.40 37.89 41.30 40.80 39.47 37.66 40.44 42.60 43.53 44.12 44.62 44.89 45.71 46.09 47.20 48.44 49.31 50.22 51.12 51.57 53.71 53.82 52.41 51.27 51.51 51.07 50.23 50.64 48.56 48.29 47.66 45.93 44.68 45.03 44.70 44.31
38.42 39.93 44.07 42.68 41.13 40.90 38.98 37.32 35.90 36.69 41.04 40.53 39.42 37.19 38.66 43.04 45.39 46.10 45.86 45.31 46.22 46.54 46.65 47.41 47.32 46.47 49.01 49.50 48.24 48.47 48.62 48.65 49.41 50.23 47.72 46.57 46.89 47.26 45.44 44.19 41.71 42.65 43.49 43.63
41.17 43.89 42.58 40.94 40.42 39.98 36.19 41.02 39.41 38.39 36.41 32.94 37.26 30.09 35.70 39.60 41.80 43.94 44.56 44.38 45.09 45.84 45.89 46.19 45.17 45.19 45.36 44.24 45.10 46.02 46.81 46.56 47.13 46.62 46.19 45.48 44.32 43.87 43.47 41.27 40.13 41.04 42.49 42.94
39.28 40.39 40.83 40.09 39.43 41.84 39.42 42.44 39.81 37.75 34.76 33.30 33.96 31.83 33.36 40.39 39.76 42.00 43.41 44.92 44.92 44.84 45.26 46.88 45.24 45.37 44.68 45.05 44.65 44.80 46.10 46.35 45.96 45.26 45.57 44.70 42.49 42.64 40.64 39.75 40.36 40.22 41.30 42.33
40.77 43.06 42.03 40.40 42.87 42.14 42.87 41.10 39.34 37.33 34.78 27.64 33.09 32.20 31.73 36.02 39.80 41.91 43.38 45.33 45.49 45.02 44.57 45.61 46.14 47.10 46.81 45.41 44.32 44.36 44.51 43.70 44.10 43.70 43.53 42.74 41.88 39.53 39.57 40.33 40.62 40.20 40.35 40.79
40.16 40.28 42.05 43.05 40.34 41.95 40.97 36.38 28.32 27.74 25.13 26.10 35.23 33.05 34.08 40.01 41.84 44.00 44.20 44.39 44.66 44.25 44.19 44.78 45.27 45.90 44.37 43.21 43.41 43.81 42.64 42.14 42.74 42.49 41.86 41.47 40.79 40.12 40.91 41.17 41.02 41.06 40.86 40.76
34.41 31.56 39.12 42.42 39.66 37.65 37.07 36.63 29.18 24.70 22.79 27.94 34.81 30.35 34.84 41.04 43.23 45.28 44.94 44.31 44.17 44.78 45.83 45.06 43.46 42.05 41.74 41.66 41.24 41.71 41.87 41.92 42.51 42.42 41.82 41.70 41.21 40.92 41.59 41.72 41.60 41.12 40.22 39.70
34.24 34.60 40.77 41.21 41.68 41.54 37.37 32.25 37.10 30.43 27.66 26.45 29.68 34.24 38.70 41.11 41.60 42.82 43.37 43.51 42.99 43.04 42.10 42.61 42.95 42.62 42.56 42.81 42.47 41.56 41.94 42.22 42.25 41.80 41.40 41.51 41.99 41.61 41.37 41.22 40.95 40.01 39.41 40.02
39.34 33.02 38.92 41.01 42.74 42.30 38.43 40.44 31.76 29.32 22.86 21.35 26.82 29.46 31.01 36.96 39.84 41.71 41.38 41.24 41.41 41.88 42.03 42.32 41.72 41.46 41.35 41.64 41.77 42.83 42.20 39.50 38.76 38.14 39.38 39.59 38.81 39.03 38.92 38.78 38.46 38.69 37.98 38.54
39.09 35.94 35.31 39.31 37.56 35.57 37.63 35.14 33.78 32.90 27.75 21.94 19.37 27.17 36.18 38.76 41.82 39.63 39.76 40.93 41.25 41.12 41.06 40.68 40.39 40.30 40.12 41.11 40.47 40.42 38.27 37.78 36.60 36.79 37.41 36.86 36.95 37.36 37.66 37.53 37.88 36.99 36.94 38.15
39.26 35.03 28.53 34.32 39.71 41.04 38.16 35.76 33.77 25.25 26.52 25.03 22.08 26.08 37.18 38.82 40.32 40.72 40.23 41.00 40.43 40.86 40.49 40.06 39.89 40.13 38.65 37.71 38.30 36.57 36.50 36.71 36.58 36.22 35.84 35.49 36.26 36.73 36.58 36.70 36.57 36.07 36.25 36.56
39.20 32.79 28.08 32.24 36.13 38.07 35.70 37.73 35.21 32.09 29.06 27.77 21.63 26.14 39.46 39.59 39.55 40.14 39.10 39.70 40.01 39.93 39.64 39.28 39.07 39.40 37.63 36.49 35.99 36.73 36.98 36.23 34.78 34.24 33.55 34.81 35.60 35.90 35.64 35.04 35.12 35.04 34.24 34.45
42.14 34.99 31.35 27.86 30.76 33.25 32.09 35.61 35.13 33.23 24.84 26.73 26.54 29.00 36.14 37.32 38.09 38.63 39.23 39.06 38.68 38.71 39.24 38.48 37.91 37.58 35.34 36.37 37.19 36.40 35.16 34.36 34.19 33.83 33.53 34.43 34.86 35.81 35.38 35.05 34.32 34.16 34.87 36.51
37.94 31.92 32.75 33.16 34.42 34.31 33.09 33.29 34.87 33.08 32.09 29.25 30.46 30.76 34.70 38.13 38.17 38.74 39.50 38.51 38.30 38.31 38.25 38.26 37.75 35.45 36.47 36.74 35.43 34.07 33.73 34.08 34.29 33.52 33.28 34.25 35.18 35.48 35.84 35.82 35.86 35.88 35.75 37.92
36.12 29.22 29.35 30.56 34.19 33.39 31.59 33.67 33.47 33.30 33.51 33.27 32.76 33.03 37.97 38.28 39.07 38.61 38.84 38.38 37.68 37.92 38.92 39.93 39.11 38.08 36.74 34.97 33.79 33.20 33.23 33.46 33.72 33.16 32.94 34.70 35.08 35.14 34.94 35.23 34.92 35.26 35.34 34.82
30.39 28.32 25.83 23.06 28.79 27.53 24.44 31.13 32.92 32.92 33.99 34.08 30.22 34.94 37.82 37.29 38.71 38.76 38.05 38.20 37.97 38.07 39.49 39.35 39.67 38.32 36.10 34.33 33.14 32.10 32.62 32.95 32.84 32.65 33.31 34.34 34.38 34.16 34.00 33.91 33.67 33.95 33.19 32.32
29.02 26.76 23.07 20.96 21.86 16.74 31.72 35.71 35.78 35.36 36.20 37.23 36.04 36.84 38.31 38.24 38.13 39.40 39.17 38.59 38.19 38.61 39.08 38.69 37.94 36.56 34.24 32.55 32.12 32.14 31.80 31.86 31.75 32.07 32.37 33.55 33.55 33.05 33.07 32.86 32.70 31.97 32.21 31.68
33.56 26.64 23.69 20.25 19.70 26.69 31.98 35.91 35.75 34.57 33.95 38.57 37.34 36.94 37.84 37.65 37.99 37.68 39.68 38.97 38.83 38.39 37.99 38.03 36.62 34.11 32.29 31.69 31.68 30.97 30.90 30.96 31.12 31.39 31.24 32.18 32.86 32.27 32.19 31.58 30.63 29.97 29.92 29.13
32.91 27.99 24.95 18.60 16.22 15.92 29.92 35.21 39.32 38.15 29.51 38.87 38.75 37.21 37.14 36.90 30.24 37.97 38.98 39.15 38.36 38.60 37.40 35.84 33.65 31.89 30.93 30.72 30.83 30.83 30.71 30.58 30.27 31.20 31.36 32.49 32.16 31.54 30.29 29.17 28.93 29.34 26.58 27.58
26.63 24.76 18.93 19.10 14.24 24.35 32.55 38.38 40.01 29.39 31.04 38.87 39.43 38.24 36.69 35.72 37.80 37.95 38.33 38.38 38.07 35.66 33.22 32.86 32.14 31.09 30.76 31.48 31.46 29.94 29.50 29.49 30.79 31.19 31.61 31.65 31.33 30.20 29.20 28.37 27.48 26.55 25.96 26.47
29.45 25.39 20.64 21.42 15.38 21.37 36.58 38.35 33.45 37.13 36.05 39.48 39.38 38.69 38.90 38.29 37.27 38.68 40.38 36.01 32.87 32.06 31.70 31.74 31.07 30.84 31.09 30.82 30.37 29.38 28.79 30.57 31.05 31.34 30.84 30.78 30.21 30.18 30.40 27.55 25.99 26.39 25.27 23.69
29.06 30.63 27.12 28.36 28.51 35.54 37.83 37.80 39.62 39.68 38.95 39.69 39.72 40.31 41.18 38.29 38.71 40.20 34.79 33.09 31.43 31.41 30.80 31.20 30.65 30.65 30.96 30.62 29.97 29.02 30.19 30.65 30.32 30.06 29.95 29.91 29.66 29.87 29.04 26.88 24.76 24.04 23.00 19.30
34.98 36.20 29.98 32.18 36.35 36.79 38.29 39.89 41.46 42.06 41.04 41.37 41.80 41.37 41.12 39.81 39.84 35.50 32.21 31.61 31.93 31.44 31.12 30.60 29.88 28.91 29.37 30.05 30.34 30.36 30.17 30.03 29.81 29.65 29.49 29.37 28.91 29.49 28.83 27.08 26.56 24.00 19.13 18.74
34.61 36.94 34.20 32.31 37.03 37.35 39.70 41.28 41.97 42.37 42.94 42.38 42.67 42.11 41.58 39.78 35.37 34.42 32.61 31.78 30.87 31.00 30.37 30.02 29.42 28.79 29.06 29.63 30.06 29.93 29.24 29.21 29.03 29.92 30.17 29.72 28.48 29.71 28.41 26.41 25.44 25.14 25.11 24.20
37.39 36.07 31.79 31.12 38.15 37.89 38.33 40.71 42.50 42.71 42.84 43.11 41.76 40.40 38.27 37.03 34.24 33.26 31.20 31.86 31.65 29.56 29.61 29.29 29.44 28.98 29.10 29.09 28.41 28.58 28.96 28.74 28.48 30.74 30.91 30.68 30.24 31.06 27.91 26.42 26.03 28.87 29.56 29.71

GFSCGP_sfc_wetblb_015.txt.gz
Wetbulb
47.01 44.45 42.14 43.66 43.00 41.57 41.38 40.53 39.93 41.00 43.68 44.86 42.77 43.60 45.23 47.80 48.46 49.13 50.07 50.94 51.52 51.78 53.59 56.24 57.75 59.47 59.67 60.15 60.25 60.14 59.31 57.52 56.85 55.49 56.17 55.86 56.34 55.07 53.12 52.60 52.43 52.21 51.57 51.42
45.66 42.10 44.83 45.92 45.39 43.64 42.79 40.88 39.58 42.48 44.59 44.94 43.71 43.10 46.13 47.25 47.04 48.14 49.60 50.45 51.38 51.93 53.05 54.42 56.31 58.22 59.60 59.56 59.02 58.96 58.01 56.67 57.33 57.86 57.29 57.54 55.83 54.35 51.68 50.77 50.71 50.40 50.61 50.45
43.28 44.09 46.28 45.17 43.92 43.49 42.22 41.54 40.17 41.15 44.06 45.02 44.43 42.21 44.05 46.88 48.20 48.78 49.34 50.27 51.36 52.55 53.11 53.42 54.60 56.93 57.66 58.16 56.87 55.59 55.59 56.01 55.83 55.55 54.57 54.06 54.13 53.23 51.80 50.04 49.23 48.98 49.86 50.01
44.89 46.12 44.55 43.83 42.98 43.64 41.02 44.21 42.82 42.12 41.56 38.88 41.93 37.47 41.49 45.10 46.12 47.84 48.83 49.94 50.85 51.52 52.59 52.35 51.53 51.50 52.28 51.85 53.25 53.58 53.23 52.69 52.21 52.59 52.94 52.62 52.30 51.62 49.75 48.56 49.08 50.26 49.72 50.33
43.26 44.47 43.72 43.08 43.13 45.42 42.60 44.60 43.62 41.25 40.02 39.87 39.92 40.17 39.42 45.08 44.27 46.79 48.33 48.93 49.62 50.17 50.68 49.62 49.58 49.66 50.09 50.90 51.70 51.60 51.34 51.07 50.98 51.90 52.31 51.46 50.02 49.16 48.79 49.49 49.04 48.77 49.28 48.69
44.04 46.94 45.84 44.93 45.22 45.08 45.62 44.27 42.97 41.59 40.26 35.66 37.95 38.62 38.50 41.66 45.46 46.87 48.35 48.92 49.12 49.31 49.74 49.58 50.40 50.83 49.88 50.41 50.57 50.43 49.89 49.52 50.67 51.04 51.22 50.89 49.52 48.15 48.77 49.08 48.84 49.12 49.10 49.28
43.12 43.22 45.27 46.43 44.59 45.52 44.77 42.09 35.95 34.94 35.22 33.41 38.20 37.15 40.93 44.19 46.41 48.92 48.12 49.07 49.63 50.10 49.60 49.31 49.76 49.73 49.51 49.48 49.26 49.07 48.97 47.74 48.62 48.58 48.23 48.20 47.75 47.75 47.67 48.12 48.19 48.07 48.10 48.55
38.08 36.62 42.97 45.21 44.41 42.96 41.70 42.09 36.70 28.99 30.67 34.44 38.28 36.04 41.57 44.47 47.34 49.89 50.43 50.27 49.71 49.71 49.52 49.59 48.89 47.90 47.51 47.81 48.05 48.27 48.21 47.64 48.31 48.33 48.08 48.82 48.86 48.08 47.11 46.30 45.70 45.56 45.83 46.42
38.86 38.36 44.33 44.36 45.55 45.71 41.14 38.54 41.35 34.49 31.53 32.36 36.02 39.16 43.49 43.83 44.62 47.12 47.44 48.35 48.71 49.22 49.02 48.43 47.24 47.30 47.07 47.26 47.49 48.00 47.20 45.80 44.99 45.89 45.86 45.15 44.96 44.38 44.02 44.53 44.87 44.58 45.39 45.05
42.39 37.33 42.30 44.14 45.87 44.92 43.40 42.80 37.31 36.22 29.04 26.88 32.40 34.26 38.15 40.83 42.85 45.50 45.86 47.18 48.06 48.20 47.63 47.19 46.96 46.55 47.40 47.94 47.80 46.76 44.97 43.42 43.54 44.02 43.94 43.04 43.24 43.51 43.71 43.57 42.63 43.17 44.29 44.68
42.46 41.35 39.94 42.77 41.41 41.03 41.41 39.27 37.01 37.31 33.77 29.79 27.98 34.20 41.93 43.55 45.00 44.91 47.30 47.55 47.53 47.00 46.93 46.14 45.23 45.83 46.10 46.74 45.38 43.26 41.05 43.02 42.43 42.55 42.52 42.69 42.75 43.11 43.25 42.74 42.70 42.70 43.59 43.93
42.65 39.79 36.73 38.80 43.02 44.57 43.04 40.42 39.06 34.38 30.88 30.46 31.16 34.92 41.74 43.39 45.42 46.06 46.03 45.67 46.70 46.65 45.83 44.87 44.73 43.94 43.59 42.88 42.09 39.99 42.84 42.54 42.16 41.56 41.59 41.80 42.32 42.57 42.14 41.88 42.10 42.80 42.04 42.40
42.82 38.44 34.31 37.17 40.13 42.45 41.19 40.52 37.78 35.97 34.66 31.43 33.68 35.04 42.03 42.69 43.10 45.09 45.68 44.67 44.37 44.99 44.06 43.85 43.30 41.97 40.54 39.72 40.77 42.08 41.23 40.87 40.51 40.23 40.73 41.23 41.24 41.45 41.51 41.51 41.91 42.03 41.42 41.22
43.87 37.53 36.84 34.16 35.84 38.26 37.20 38.90 38.10 38.11 34.03 32.57 34.57 37.02 39.44 42.21 42.04 42.65 43.27 43.84 44.19 43.82 43.13 43.66 43.12 42.10 40.34 40.59 41.44 40.03 41.28 40.86 40.29 40.04 40.16 40.10 40.93 41.24 41.26 41.35 41.46 41.22 41.44 41.21
42.00 36.90 36.77 36.29 36.75 37.50 37.25 37.52 37.47 36.83 36.98 35.75 36.44 35.36 39.75 42.76 43.70 43.40 43.44 43.04 42.29 42.18 42.35 42.46 42.26 41.38 40.44 39.72 39.94 41.56 40.70 40.17 40.34 39.67 39.53 39.87 40.70 40.98 40.95 40.79 40.63 40.56 40.77 40.95
38.88 34.59 34.23 34.66 35.91 35.42 35.41 36.94 37.25 37.58 37.30 36.88 36.61 37.34 42.43 42.68 43.18 42.12 42.16 41.82 41.59 41.78 42.57 42.60 42.55 41.56 39.12 40.75 41.68 40.27 39.42 39.39 39.62 39.19 38.95 39.44 39.55 40.03 40.31 40.08 39.52 39.44 39.83 39.78
35.46 33.04 32.06 29.45 31.42 31.68 30.64 34.81 36.79 36.91 37.93 39.71 35.70 41.21 41.93 41.24 41.23 42.86 42.35 42.36 41.93 42.49 42.91 42.55 42.36 42.86 41.98 41.85 40.27 39.58 39.11 38.77 38.20 37.97 38.22 38.37 38.47 38.75 39.21 38.75 38.32 38.06 38.11 38.20
32.58 31.09 28.52 30.49 27.52 26.93 37.03 39.84 38.94 38.05 38.40 39.68 39.38 40.74 42.10 42.15 42.46 43.16 44.43 43.07 42.62 42.79 43.08 42.52 42.58 42.89 42.92 40.67 39.24 38.48 37.66 37.11 36.80 36.90 37.18 37.72 37.67 37.62 38.19 37.74 37.00 36.95 37.03 37.10
35.97 32.45 27.68 30.78 28.03 31.12 36.25 36.37 37.95 37.55 38.78 41.90 40.69 41.33 40.77 41.20 42.41 43.13 44.27 44.55 44.75 44.30 43.93 42.76 43.21 41.83 39.02 38.39 37.32 36.77 36.63 36.11 36.03 36.16 36.57 36.78 36.91 36.98 36.99 36.40 36.04 36.00 35.80 35.32
35.05 32.28 33.80 26.85 28.35 26.02 34.88 37.65 42.84 42.22 35.33 42.19 42.77 40.75 40.15 42.03 40.08 43.93 44.43 44.31 43.45 43.62 42.70 41.07 38.41 37.16 36.90 35.91 36.69 36.49 35.35 35.00 35.29 35.82 35.87 36.21 37.06 36.23 35.98 36.00 35.24 35.41 35.21 33.25
32.44 30.06 29.69 23.10 29.90 31.01 36.65 40.49 42.67 34.30 36.98 40.83 42.59 42.15 40.79 41.34 45.08 43.93 43.44 42.56 43.39 41.44 36.85 35.61 36.52 36.15 35.77 36.02 35.94 34.73 34.75 34.53 35.33 35.46 35.59 36.21 36.49 35.86 36.04 35.32 35.17 34.42 33.62 32.44
32.98 30.93 29.29 24.84 26.00 28.26 38.58 41.41 38.05 42.55 42.36 42.35 43.01 43.09 42.58 44.38 41.40 41.72 41.40 39.71 37.49 35.78 35.60 35.96 35.52 35.15 35.36 35.44 35.04 34.28 34.02 35.14 34.97 34.91 34.99 35.16 35.17 34.79 34.37 34.38 34.48 32.98 32.42 31.30
33.35 35.72 34.50 33.10 34.36 39.90 40.67 42.78 43.59 43.03 42.72 43.61 43.47 44.04 44.14 41.92 41.08 41.79 38.61 36.11 34.96 34.82 34.41 35.75 35.32 34.08 34.44 34.70 34.84 33.69 34.62 34.40 33.92 33.90 34.23 34.44 34.79 34.26 34.65 34.05 33.31 32.01 31.18 30.42
37.09 37.52 35.56 35.96 39.62 38.02 40.29 42.79 43.10 44.12 44.74 44.84 45.22 45.51 43.83 42.97 41.83 39.42 35.26 34.56 34.33 34.79 34.46 34.39 33.61 32.89 32.87 33.89 33.46 34.08 34.00 33.53 33.02 32.82 33.53 34.38 33.53 32.72 34.42 34.04 32.50 31.40 30.61 30.09
37.95 38.14 36.59 35.90 39.12 40.39 41.96 43.06 45.38 45.38 44.73 44.87 45.56 45.24 44.15 43.68 41.49 37.53 34.91 32.31 32.22 31.95 32.82 33.59 33.08 32.72 32.71 33.18 33.10 33.77 33.25 32.82 32.35 32.98 32.83 32.28 32.27 31.32 31.79 33.52 32.39 30.96 31.83 31.64
39.14 38.79 37.41 37.44 42.46 42.28 42.67 43.80 44.94 44.69 45.09 45.85 44.97 43.10 42.42 41.85 37.80 35.05 32.79 33.90 32.82 33.16 33.00 32.63 32.58 32.52 32.38 32.56 32.39 32.46 32.50 32.52 32.20 31.78 33.09 32.72 32.81 32.05 32.55 32.39 31.94 30.53 30.53 29.97

GFSCGP_sfc_wetblb_018.txt.gz
Wetbulb
50.48 47.29 44.75 46.94 47.21 45.84 45.56 44.61 43.81 45.96 48.97 49.01 47.88 48.44 49.46 52.54 55.33 55.99 56.70 57.56 58.28 58.74 59.82 61.60 62.76 63.81 64.49 65.29 65.15 64.94 63.55 63.54 63.23 62.13 60.71 59.61 59.50 59.55 58.41 57.82 56.76 56.26 55.97 55.47
47.61 45.29 48.03 49.37 47.82 46.68 46.28 44.46 44.94 46.02 48.36 49.32 48.98 48.47 50.42 51.22 53.04 55.24 56.47 57.16 57.82 58.21 59.45 60.60 62.33 63.30 63.85 64.20 64.43 64.14 63.56 63.01 62.70 62.42 62.11 62.35 60.86 58.92 57.18 56.70 55.48 55.06 54.45 54.31
46.67 47.68 48.63 48.56 47.62 46.29 46.13 45.36 45.39 45.07 47.42 49.31 48.95 47.06 48.98 50.54 51.97 53.13 54.88 56.99 57.86 58.45 58.92 60.00 61.33 63.05 63.64 62.72 63.58 63.28 62.54 61.63 61.63 61.05 60.27 59.27 58.88 57.33 56.95 56.14 55.94 54.17 54.42 54.10
47.68 49.07 48.04 48.25 46.51 47.44 44.43 47.13 47.50 46.42 45.70 42.27 48.26 40.99 47.73 49.77 50.32 52.17 53.54 55.54 56.79 58.23 60.00 60.47 60.05 60.21 61.76 61.43 60.74 60.54 60.15 59.47 57.93 57.33 57.82 57.39 56.75 56.07 54.70 54.59 54.62 55.21 54.26 53.91
46.19 47.24 47.22 46.66 46.43 48.13 45.93 48.59 48.54 47.09 46.85 45.41 45.14 43.00 46.81 49.80 48.70 51.30 53.70 55.50 57.37 58.95 58.03 56.94 57.36 58.55 58.55 58.60 58.25 57.85 57.05 56.33 56.90 57.20 57.46 56.37 54.70 54.02 54.20 54.72 53.02 53.61 53.78 53.63
48.27 50.55 49.80 48.63 48.89 49.20 49.59 48.45 47.46 47.23 46.33 39.96 43.92 43.33 43.93 47.60 49.68 51.68 53.91 54.73 55.93 56.34 55.70 55.34 55.79 55.57 55.59 56.40 56.49 56.53 55.97 55.40 55.83 55.62 55.18 54.31 53.07 51.92 51.53 51.05 50.23 49.46 49.49 49.70
47.20 47.21 49.27 50.35 48.03 49.78 49.08 46.67 40.41 38.09 38.73 37.67 43.41 42.03 44.64 48.89 51.04 53.53 53.29 53.76 55.02 55.08 54.17 53.80 53.38 53.83 54.03 54.80 55.20 55.12 54.37 53.39 53.68 53.07 52.13 51.66 51.31 50.73 48.60 47.64 46.81 46.23 46.07 46.49
42.77 40.85 46.29 48.85 48.22 46.46 47.07 46.47 40.68 31.86 34.64 38.72 42.86 39.46 45.77 49.47 51.74 54.92 55.47 54.57 54.59 54.25 54.26 54.14 54.39 54.42 54.35 54.06 54.04 54.05 53.33 52.07 51.57 51.04 50.68 49.74 47.70 46.45 47.06 46.53 46.31 45.96 45.60 45.81
43.20 41.83 47.90 48.13 49.39 49.02 45.23 43.29 46.80 40.56 38.83 38.61 41.50 44.71 48.50 48.87 49.82 52.42 53.77 53.54 53.33 54.17 54.06 54.25 54.04 54.01 53.83 53.51 53.71 53.09 51.46 49.80 49.06 47.59 46.70 46.74 46.31 46.91 46.31 46.47 46.62 45.77 45.85 45.18
47.12 41.51 46.00 47.19 49.31 48.94 47.47 48.20 41.80 43.12 33.21 31.66 38.98 39.98 42.23 45.94 47.66 50.52 52.21 52.39 53.30 54.15 54.20 54.06 53.18 52.70 53.31 53.45 52.53 51.35 49.73 47.67 46.01 45.70 46.36 47.19 46.69 46.54 46.43 46.36 45.28 45.00 45.26 45.32
48.63 45.89 43.78 46.61 45.78 45.32 44.96 44.26 42.99 43.85 41.01 34.78 33.32 39.38 47.54 47.32 49.63 50.03 52.12 52.96 53.74 54.14 53.97 53.39 52.65 52.73 52.72 52.43 50.40 48.66 47.91 45.31 43.82 46.67 46.91 46.41 46.37 46.59 46.04 45.45 44.88 44.50 44.82 44.60
48.03 47.01 42.37 44.04 47.07 48.31 47.38 45.70 44.81 39.20 36.36 39.05 38.40 39.26 47.42 49.10 50.01 51.68 52.29 53.11 54.55 54.68 54.39 53.38 51.85 51.48 51.36 50.35 48.52 47.51 46.82 44.58 47.16 46.24 45.56 45.14 46.31 46.11 44.91 44.71 44.30 44.58 43.90 44.35
48.27 45.19 40.10 41.00 44.49 46.73 45.21 46.06 45.05 43.48 42.48 37.28 37.46 39.51 47.34 49.03 49.34 51.13 51.93 53.55 53.41 53.43 53.19 51.80 50.71 49.63 49.32 48.15 47.09 46.14 45.29 45.93 45.87 45.22 44.78 45.25 45.18 44.57 44.26 44.39 44.01 43.82 43.40 43.46
47.33 45.52 43.58 40.09 41.56 44.95 42.54 44.26 44.85 44.12 38.91 39.01 39.93 41.33 44.46 46.70 48.12 49.98 51.10 52.71 52.55 51.80 51.16 50.44 49.68 48.72 47.95 46.40 45.32 44.15 44.86 47.66 46.44 44.98 44.36 44.07 44.41 44.29 44.33 44.05 43.57 43.33 43.26 42.70
48.21 43.00 42.90 42.11 42.14 42.22 42.61 43.42 43.71 42.23 43.20 39.19 41.56 41.57 43.98 46.63 48.13 49.92 51.30 51.38 50.66 49.93 49.44 49.27 49.15 48.37 46.90 45.33 44.20 44.83 48.16 47.87 45.79 44.39 44.11 44.32 44.51 44.37 44.03 43.68 43.07 42.98 42.68 42.49
45.41 42.57 40.80 39.15 41.08 40.93 40.15 43.16 43.87 44.23 44.34 43.33 43.63 43.05 48.68 49.51 49.55 49.63 49.51 49.36 48.79 48.76 48.81 49.21 49.19 48.84 46.83 45.85 43.54 47.52 47.22 45.60 44.99 43.98 43.61 43.99 43.56 43.38 43.11 42.87 42.32 42.06 41.58 41.60
43.69 40.96 38.87 36.31 37.82 38.46 36.05 40.86 42.93 43.63 45.15 44.53 41.17 45.79 48.13 46.82 47.50 48.79 49.45 49.05 48.68 48.98 49.09 49.00 49.14 48.75 47.50 45.49 47.24 46.41 46.06 44.80 43.46 43.14 42.68 42.49 42.63 41.96 41.72 41.79 41.52 41.04 40.57 40.94
39.82 39.70 38.16 37.43 34.17 32.05 41.37 44.21 43.67 43.73 44.86 46.23 45.68 46.48 46.96 47.60 49.22 49.56 51.05 50.65 49.42 49.52 49.34 49.81 50.06 48.15 47.89 47.08 46.73 46.41 44.42 43.00 42.30 41.57 41.27 41.45 41.08 40.45 40.93 41.22 40.78 40.80 40.55 39.83
43.26 41.17 35.58 37.13 35.43 38.71 40.50 41.02 40.61 40.98 42.02 46.69 46.03 47.03 47.16 47.25 47.87 49.45 50.30 51.35 51.31 50.77 51.14 51.00 50.31 48.44 45.26 45.01 44.37 42.94 41.92 41.52 40.84 39.96 39.38 39.82 40.01 39.69 40.00 39.75 39.94 40.39 39.66 39.39
40.95 40.85 41.72 35.24 35.93 33.86 40.63 42.44 46.56 46.09 39.03 46.03 46.98 47.34 46.67 47.25 44.52 47.44 51.35 50.91 50.70 51.58 51.38 49.20 47.48 45.35 43.89 42.49 41.35 41.25 41.01 39.93 38.40 38.59 38.78 39.25 39.49 39.42 39.09 39.18 39.31 39.90 39.63 38.11
38.67 38.65 37.44 36.29 36.87 38.67 43.17 43.58 46.80 36.62 39.78 47.59 47.67 48.43 47.72 46.67 49.52 49.91 50.76 51.10 51.41 51.12 49.35 47.21 44.19 43.16 41.63 41.12 41.35 39.57 38.85 37.55 38.75 38.57 38.74 38.97 39.24 38.68 38.84 39.22 39.65 39.19 38.77 37.32
39.16 38.06 36.84 34.64 35.07 33.31 43.72 45.16 41.39 46.70 48.90 47.97 48.61 49.86 49.43 50.70 49.29 47.95 48.24 49.62 49.46 47.84 44.71 43.76 41.86 39.83 38.73 38.96 39.10 37.98 37.28 38.70 38.36 38.35 38.29 38.27 38.50 38.16 38.28 38.64 38.92 38.75 37.74 36.14
38.70 42.89 42.42 40.84 42.45 44.76 46.41 48.18 49.56 48.54 48.03 48.82 49.12 50.15 49.98 49.37 49.18 48.07 46.83 46.05 44.77 42.74 42.03 40.17 37.62 36.90 37.84 38.80 38.10 36.64 37.67 37.89 37.61 37.53 37.44 37.77 38.24 37.81 37.75 37.75 37.71 37.25 37.06 35.26
43.02 43.53 42.24 40.56 44.78 45.27 46.29 47.89 48.58 48.88 49.01 49.87 50.39 49.94 50.10 49.27 49.93 48.22 45.70 43.32 40.98 40.67 37.76 38.32 34.81 37.03 36.94 37.18 36.63 37.55 38.00 37.60 36.86 36.13 36.57 37.10 35.92 34.82 34.85 35.41 35.98 36.51 35.93 35.05
44.63 43.69 42.55 42.01 45.17 46.37 47.45 48.37 48.86 49.16 50.37 50.46 50.95 50.43 50.05 49.73 49.19 47.73 43.89 41.78 39.27 34.40 36.77 36.59 35.81 36.00 35.85 36.56 37.19 37.97 36.86 36.26 35.26 36.19 35.93 35.90 35.76 34.66 33.98 33.45 33.52 35.35 36.54 35.12
44.38 44.15 42.48 42.45 47.07 46.54 47.22 48.70 49.53 48.80 49.21 49.78 49.41 49.47 47.71 47.83 47.22 45.28 40.12 37.12 37.48 37.60 35.13 33.59 34.92 35.60 35.90 35.14 35.89 35.89 35.76 34.82 34.77 34.33 35.31 36.09 35.53 35.00 34.20 33.42 33.82 32.28 31.42 30.85

GFSCGP_sfc_wetblb_021.txt.gz
Wetbulb
51.87 47.21 44.44 47.14 48.58 47.71 46.84 45.52 44.06 46.87 49.24 47.79 46.66 48.29 50.56 54.18 55.37 56.03 56.98 58.45 59.69 60.37 62.47 63.44 64.17 64.74 65.14 66.65 67.02 65.01 64.13 64.31 62.99 63.84 63.24 62.68 60.25 60.63 60.50 59.55 58.87 58.41 57.77 57.05
48.62 45.75 49.05 49.41 48.56 46.48 45.94 44.59 45.20 47.19 49.03 49.25 47.55 47.89 50.86 52.97 54.31 56.05 56.59 57.36 58.53 60.05 61.07 62.45 63.74 64.52 65.04 65.53 66.06 64.61 64.44 64.18 64.68 64.50 63.39 62.23 62.08 60.52 59.13 58.66 57.74 57.22 56.77 56.45
46.22 48.10 50.38 48.72 47.32 45.92 46.20 44.77 45.60 45.67 48.77 50.00 48.92 47.30 50.30 52.95 54.82 56.33 57.78 58.65 59.18 59.61 60.20 61.43 62.82 64.07 65.04 64.15 63.95 63.84 64.08 64.52 63.96 63.53 62.32 61.41 60.31 58.70 57.55 57.48 57.03 56.14 56.26 56.08
46.59 50.81 49.01 47.02 46.16 47.57 44.69 49.07 47.98 46.99 46.47 42.24 49.10 40.34 47.71 51.34 51.71 53.41 55.61 57.63 58.95 59.73 61.20 62.12 62.73 63.48 64.00 64.35 65.31 64.65 63.71 62.74 62.16 61.22 59.58 58.84 58.72 57.21 56.71 56.59 56.22 56.42 56.08 55.14
46.81 48.80 48.45 46.53 47.92 49.87 46.87 50.19 49.32 48.34 46.90 46.05 46.27 43.17 42.53 51.32 49.91 51.88 54.34 55.91 57.83 59.58 61.06 61.63 62.23 62.53 62.94 62.41 62.11 62.11 61.14 59.01 59.04 59.48 59.45 58.19 56.90 56.31 56.13 55.65 53.46 53.48 52.86 51.77
47.19 52.76 51.28 50.46 50.49 50.46 50.94 49.36 48.76 48.85 46.31 40.64 44.11 43.33 44.22 48.45 50.63 52.74 54.94 56.60 58.45 60.11 60.52 59.64 60.30 60.22 59.63 60.19 59.60 58.82 57.89 57.53 58.22 57.89 57.49 56.45 54.43 53.06 52.08 50.67 49.16 48.66 48.39 48.58
48.41 48.81 50.98 51.72 48.48 50.69 49.63 47.12 40.33 38.82 39.08 38.36 45.80 43.81 45.31 48.72 52.69 53.88 54.92 56.60 58.81 59.18 57.79 57.02 56.94 56.88 57.18 57.30 57.64 57.69 57.15 55.99 56.42 55.19 53.87 53.41 52.15 50.07 48.72 47.85 47.08 46.62 46.65 46.69
42.73 41.66 48.54 51.28 50.01 47.14 47.91 46.75 41.20 33.26 35.59 39.33 45.87 40.43 44.91 52.27 52.61 54.46 57.05 57.46 58.09 57.47 56.34 55.91 55.88 56.27 56.47 56.79 56.73 56.48 55.90 54.69 53.86 53.03 51.49 49.96 48.58 47.29 47.54 47.72 47.33 46.62 46.01 46.18
43.61 42.64 49.79 49.90 50.98 49.96 46.95 44.29 48.82 43.19 43.22 39.39 41.54 44.62 49.91 51.48 51.53 53.58 55.80 56.28 56.48 56.12 55.44 55.44 56.21 56.55 56.56 56.42 56.08 56.31 55.40 53.37 51.74 50.70 50.42 48.09 47.20 47.90 48.39 47.66 47.89 46.44 46.49 45.78
47.61 42.47 47.72 49.17 50.96 50.96 48.95 50.22 42.61 43.22 34.01 33.07 39.79 41.39 43.91 47.84 48.86 52.15 54.28 55.02 55.78 55.91 55.54 55.91 56.18 56.36 56.57 56.34 56.43 55.99 54.00 51.17 50.59 49.61 48.40 46.59 48.14 48.40 48.74 48.54 46.65 45.84 46.00 45.88
49.50 46.51 45.93 48.34 46.97 45.83 47.02 45.24 45.62 45.52 44.16 36.71 34.88 40.54 48.14 46.83 49.84 51.18 53.66 55.56 55.77 55.81 55.94 55.97 56.00 56.01 55.94 56.14 54.98 53.30 51.25 50.75 49.93 47.99 46.91 48.28 47.63 47.67 47.91 47.28 46.67 45.70 45.55 45.32
50.00 47.23 43.39 45.39 49.99 50.79 49.87 47.73 47.38 40.92 39.03 41.45 40.46 40.20 49.12 49.94 51.18 52.50 53.32 55.35 56.44 56.87 56.73 56.62 55.98 55.37 55.14 54.44 53.27 51.31 50.86 50.77 48.58 48.44 46.79 47.56 47.72 47.81 47.00 46.85 46.34 45.91 44.89 44.98
51.01 45.65 40.81 42.71 46.91 49.08 46.17 47.51 47.69 46.51 44.97 39.81 37.86 40.75 49.81 50.03 49.93 51.46 52.73 54.66 55.72 56.39 56.75 56.69 55.96 54.46 54.40 53.77 51.99 50.70 50.66 49.69 48.61 46.51 46.88 47.18 47.12 46.88 46.51 46.18 45.88 45.40 44.62 44.05
48.98 47.38 44.06 40.02 43.45 47.07 44.95 46.06 47.16 45.98 41.00 40.91 41.96 43.12 46.27 47.91 48.42 49.72 51.74 53.60 55.30 55.80 56.21 56.44 55.55 54.23 54.09 53.70 51.58 50.21 49.74 49.97 47.91 47.18 46.67 46.40 46.43 46.57 46.46 46.25 45.33 45.03 44.43 43.44
50.47 44.44 46.42 46.64 46.37 45.80 45.39 44.93 45.96 44.34 44.78 42.01 43.46 43.27 45.49 47.47 48.31 49.96 51.38 52.58 53.15 54.43 54.99 55.36 54.57 53.84 53.50 52.65 50.89 49.75 49.52 49.91 48.51 47.00 46.10 45.91 46.51 46.56 46.18 45.29 44.88 44.54 43.90 43.32
50.39 44.63 44.61 42.66 46.10 45.01 43.21 45.15 45.11 45.12 45.51 44.97 44.95 44.47 49.24 50.25 50.63 50.11 50.47 51.57 51.71 53.02 54.13 54.37 53.90 53.52 52.33 51.34 49.47 48.31 49.29 48.62 48.72 46.56 45.59 46.01 45.75 45.44 45.13 44.34 43.99 43.48 43.14 42.78
47.98 45.47 41.69 37.82 41.81 42.10 37.53 43.04 44.82 45.34 46.48 46.18 42.85 46.90 49.33 48.85 48.92 49.49 50.26 51.27 51.59 52.49 53.31 53.70 53.45 53.08 52.61 51.38 49.50 47.90 49.33 48.85 46.89 45.59 45.43 44.90 44.65 43.91 43.41 42.97 42.18 42.05 42.24 42.40
45.40 44.57 42.68 38.80 36.19 30.66 42.74 46.70 45.66 44.86 46.14 47.54 47.08 47.71 48.54 48.71 50.69 51.68 52.51 52.03 52.07 52.54 53.07 53.58 53.64 53.36 53.46 52.60 49.72 49.51 48.63 47.11 45.53 44.33 43.57 43.77 43.25 41.71 41.62 41.33 41.53 41.80 42.09 41.50
47.81 44.93 39.20 38.21 36.92 40.84 42.70 44.17 43.20 42.44 43.08 47.53 46.87 47.41 48.58 50.06 50.50 50.60 52.90 52.94 52.64 53.22 54.04 54.35 54.48 54.22 53.60 50.78 49.66 47.80 46.15 45.10 43.57 43.10 42.88 41.93 41.23 40.58 40.41 40.44 40.67 41.06 41.13 40.79
44.42 45.23 42.70 38.19 35.73 32.58 42.88 45.38 48.24 47.75 39.71 47.24 47.48 47.38 47.56 48.96 45.07 47.45 52.07 52.22 52.49 53.77 54.18 54.01 54.39 53.87 52.22 49.88 48.00 45.18 43.14 43.13 42.48 41.88 40.75 40.51 40.26 39.91 39.65 40.00 39.81 40.85 40.71 39.56
40.68 41.62 38.87 38.90 37.81 40.94 45.55 46.17 48.48 37.88 41.72 49.04 49.30 48.95 49.25 47.41 49.12 52.27 52.96 52.33 53.45 53.61 53.84 54.24 53.28 50.54 49.10 45.42 43.66 42.18 40.91 39.78 40.52 40.59 40.10 39.51 39.98 40.01 40.24 39.75 39.82 39.95 39.19 39.58
41.03 39.96 39.26 40.40 35.83 33.42 46.83 47.14 42.15 48.27 49.94 49.82 50.13 50.23 50.28 51.42 51.82 52.22 52.27 51.69 52.54 52.57 52.33 51.18 48.42 46.33 43.48 42.73 42.32 40.62 39.43 40.03 39.53 38.98 39.07 39.11 39.65 39.57 39.62 39.26 39.47 39.21 39.36 38.23
41.48 45.51 44.54 43.20 43.85 48.13 48.71 48.08 50.04 50.74 49.64 49.69 49.69 50.56 51.14 50.82 50.83 51.50 51.26 50.80 51.04 51.18 48.60 46.93 44.31 39.82 39.37 39.59 38.24 37.86 38.53 39.03 38.59 38.07 37.95 38.71 39.28 39.19 38.31 37.59 36.86 37.53 37.74 36.73
46.78 47.44 44.37 43.23 46.14 47.06 48.35 49.81 50.13 50.53 50.18 51.25 51.80 51.72 51.82 50.66 51.51 51.35 51.67 48.93 48.16 46.00 42.59 41.56 40.61 38.65 35.80 38.10 38.22 38.63 38.52 38.03 37.50 36.63 37.14 38.07 36.89 36.25 37.13 37.31 36.81 35.77 36.83 36.38
47.75 47.10 44.99 45.01 47.27 48.02 48.78 50.34 50.56 50.91 51.81 51.92 52.59 52.49 51.72 51.02 51.03 51.43 49.53 46.13 44.41 40.79 40.30 38.43 35.73 35.42 36.51 37.75 37.36 37.77 37.23 37.34 36.11 35.91 36.13 36.32 36.47 36.87 36.21 36.89 35.88 35.15 37.06 35.80
48.31 45.95 44.58 43.35 48.38 47.77 48.59 50.81 51.17 50.54 49.94 49.97 50.23 50.47 48.30 49.18 49.28 47.81 42.26 40.06 39.43 36.80 35.09 34.88 35.47 35.49 36.13 36.45 36.58 37.24 37.25 35.90 35.13 34.95 35.35 36.17 36.56 36.83 36.51 35.44 34.79 34.34 33.69 33.31

GFSCGP_sfc_wetblb_027.txt.gz
Wetbulb
48.46 42.05 39.36 42.86 45.78 45.79 44.93 42.07 40.16 42.20 45.34 46.22 44.30 43.55 45.30 47.37 50.66 50.12 51.85 53.68 54.11 53.71 56.20 56.81 56.54 58.05 61.47 61.50 62.00 61.95 60.60 60.55 59.97 58.46 57.62 57.40 57.20 56.51 54.15 53.46 53.63 53.12 52.58 52.49
44.72 40.22 46.07 48.49 48.12 45.88 45.43 43.34 42.14 43.30 45.71 43.76 43.14 41.91 45.09 47.21 48.53 51.96 49.99 51.55 53.21 54.18 55.80 57.80 58.10 58.40 61.89 61.51 61.57 61.54 61.36 61.11 60.28 59.25 59.69 58.70 56.50 54.50 52.40 52.45 51.65 51.97 51.45 51.39
42.61 45.30 49.99 47.86 45.69 44.40 44.81 42.11 41.67 41.61 41.58 40.83 42.23 39.36 43.46 46.82 49.65 52.26 52.90 54.27 55.45 55.00 56.02 57.29 58.17 58.08 61.36 61.37 60.91 61.44 60.92 61.19 61.06 60.31 60.86 55.74 53.61 51.36 50.55 50.04 49.76 50.71 51.77 51.38
44.56 49.51 47.56 46.17 44.52 45.76 41.27 47.15 45.58 44.78 41.71 34.42 42.69 32.41 42.57 45.88 47.54 49.48 50.64 51.30 54.67 55.01 57.73 58.14 58.30 57.83 60.87 61.15 61.45 61.21 61.79 60.90 61.32 61.13 54.93 53.45 51.70 50.18 49.83 50.06 50.01 50.05 51.02 48.15
44.09 46.25 45.25 44.29 44.85 47.45 43.48 46.92 45.28 45.83 42.36 40.67 40.68 35.95 38.98 46.26 44.47 47.69 47.49 50.44 50.83 55.73 57.26 57.53 58.23 59.85 61.01 62.02 61.36 61.26 60.33 60.82 60.17 58.48 56.19 52.02 50.13 49.56 49.14 48.08 45.54 43.48 44.17 45.53
46.87 49.31 48.05 46.75 48.61 48.12 48.61 46.44 45.78 44.36 40.68 31.65 39.80 38.01 38.10 41.17 45.35 46.86 49.87 51.96 52.74 52.57 55.48 57.36 59.09 59.91 60.17 60.84 59.58 58.44 55.64 54.35 53.22 52.30 51.73 50.54 49.21 45.08 43.34 41.93 41.48 43.43 44.79 42.61
44.24 45.93 48.15 50.55 45.80 47.87 46.24 40.83 32.55 30.53 29.23 29.82 42.80 38.60 40.21 45.80 47.34 49.70 50.21 50.73 49.91 54.12 55.56 57.06 58.01 57.84 57.34 55.01 55.52 54.16 52.09 51.70 50.44 48.84 46.72 45.69 44.44 42.87 42.13 41.88 41.73 43.39 41.36 40.43
39.15 36.27 45.22 48.50 45.12 44.02 42.80 41.55 33.77 27.28 29.18 31.93 43.01 36.56 40.52 47.90 50.58 51.44 51.76 50.34 51.49 53.71 55.41 55.59 54.65 54.08 53.42 52.52 51.41 51.04 51.47 50.07 49.03 47.94 44.74 43.94 43.73 42.88 42.71 42.47 42.27 42.59 41.78 40.71
38.38 39.52 47.95 49.38 49.11 46.84 43.53 37.89 45.69 37.12 37.30 32.99 36.06 40.53 46.10 47.84 47.81 48.67 48.79 49.72 52.20 53.01 52.56 53.57 53.49 52.91 52.19 51.41 51.28 50.22 50.31 49.13 47.98 44.82 43.89 43.51 43.09 43.23 43.55 42.70 43.04 42.50 41.72 41.87
43.51 38.26 45.25 47.22 49.23 47.95 44.38 45.92 37.20 36.87 28.07 26.47 32.71 34.94 38.07 43.28 45.23 48.04 47.50 50.82 52.17 52.56 51.45 52.32 52.43 52.12 52.39 51.65 51.68 50.47 49.64 48.28 45.42 44.69 43.91 43.89 43.08 43.84 43.27 43.21 43.39 41.22 40.75 41.01
44.95 43.00 42.56 46.46 44.09 41.86 42.06 40.30 40.62 39.87 34.87 28.17 25.75 32.24 41.68 43.18 45.58 46.44 49.48 52.57 53.05 52.66 51.45 51.45 51.36 52.10 52.46 52.03 51.11 50.71 48.15 45.48 44.53 44.50 44.08 43.05 42.75 44.05 44.74 43.74 42.87 42.20 42.10 40.59
45.54 41.90 35.38 42.30 47.13 48.01 45.29 43.10 42.53 30.53 32.07 31.76 29.08 31.86 43.90 43.79 45.74 46.96 47.28 52.13 53.21 53.28 51.88 51.11 51.21 51.52 51.67 51.62 51.17 50.23 45.64 45.21 45.27 44.50 43.89 43.39 43.82 45.59 44.90 44.73 43.57 42.26 40.45 40.09
46.33 39.48 29.70 35.21 41.13 45.48 42.40 43.78 43.83 43.22 36.41 31.82 25.81 31.57 44.56 45.33 44.20 46.06 46.00 48.13 52.06 52.50 51.07 50.83 50.84 51.47 51.65 51.18 51.08 49.68 46.13 45.94 45.11 43.57 43.01 42.94 45.38 44.98 44.29 43.77 43.07 42.07 40.19 39.58
47.83 42.66 36.44 29.95 36.77 42.53 39.96 43.43 43.76 40.39 30.17 30.94 32.07 37.77 42.09 42.64 43.77 44.78 45.94 45.92 48.77 51.89 52.39 51.34 50.98 51.60 51.81 51.62 51.04 49.17 46.41 46.58 44.88 43.96 42.68 44.25 44.58 44.56 44.14 43.17 42.08 40.65 41.48 39.52
45.21 37.74 40.33 42.39 44.28 44.50 43.08 43.04 43.69 40.65 39.82 34.00 37.65 39.86 42.77 42.38 43.25 43.93 45.75 46.56 47.10 48.07 49.96 50.71 50.90 50.54 50.98 50.50 49.75 48.95 47.46 45.92 45.18 43.67 43.64 44.08 44.68 44.85 43.35 43.02 42.28 42.07 40.75 39.89
45.87 37.85 38.15 36.55 43.23 41.87 38.84 41.67 41.84 41.41 41.71 39.67 40.02 39.56 44.11 45.01 45.01 44.80 45.45 45.86 46.53 46.94 47.70 48.93 51.42 51.05 50.66 50.08 49.25 48.84 46.85 45.87 46.04 45.77 45.21 45.17 44.26 43.47 42.57 41.84 41.04 40.75 38.97 39.44
41.89 36.14 32.87 30.61 37.18 36.05 28.40 36.09 39.98 41.29 42.02 40.75 35.19 40.00 43.52 43.80 44.98 44.36 44.82 46.24 46.34 46.99 47.68 49.01 49.90 50.86 50.34 50.21 50.18 47.15 46.26 47.26 46.67 46.38 45.63 43.74 42.76 41.82 39.90 39.25 38.85 38.01 37.59 38.29
39.36 37.53 32.29 28.65 29.08 20.65 36.96 43.90 42.62 41.39 41.24 41.49 41.30 41.96 43.22 43.03 44.17 45.89 45.40 45.32 45.80 47.10 47.79 48.27 48.61 50.05 50.48 49.43 48.02 47.50 47.87 47.33 44.86 43.04 42.20 40.25 39.32 39.33 39.21 38.55 37.74 37.85 38.06 37.30
45.97 35.64 31.56 26.82 27.17 33.47 38.65 41.75 41.05 38.69 37.84 42.74 41.49 42.57 43.34 44.26 43.29 44.61 47.80 47.51 46.46 46.36 46.68 47.35 48.55 48.63 46.76 46.33 45.64 45.10 44.09 42.00 41.52 40.01 38.85 38.63 38.67 38.19 37.98 37.40 37.08 37.44 36.48 35.70
42.83 38.80 31.06 28.48 25.04 21.16 35.87 42.62 45.51 43.78 31.51 43.84 43.93 42.96 43.30 43.18 32.94 40.95 47.08 48.19 47.67 47.83 45.48 41.26 41.34 41.00 39.77 40.09 41.45 38.50 37.30 37.17 37.02 37.83 37.43 38.47 38.61 38.12 37.53 37.29 36.88 36.09 36.20 36.42
31.03 30.82 27.61 25.33 23.63 31.39 43.59 44.70 45.61 30.24 32.70 43.99 44.44 43.68 43.23 40.85 42.84 46.19 47.48 47.74 44.95 42.51 40.12 40.15 39.32 37.69 37.68 38.86 38.80 36.89 36.70 36.17 37.76 38.29 38.39 38.36 38.51 37.99 37.85 36.68 36.21 35.55 34.59 33.55
33.13 30.45 27.18 30.92 29.00 26.96 45.03 43.39 35.67 41.14 43.53 44.38 43.74 43.35 43.44 44.56 46.33 47.09 47.54 43.25 40.46 38.45 38.20 37.91 36.99 36.82 37.84 38.97 38.21 36.88 36.48 37.61 38.43 38.17 37.81 37.90 37.38 37.26 37.44 35.38 34.48 33.91 32.78 30.29
33.54 38.72 33.74 35.70 33.74 42.99 43.91 43.24 45.23 45.15 43.80 44.14 44.92 46.05 46.97 46.40 46.82 47.59 42.69 37.92 37.36 37.38 36.81 36.84 35.87 35.71 36.82 37.41 37.13 36.15 37.32 38.51 38.10 36.94 35.95 36.03 36.41 36.34 35.11 32.93 31.93 30.79 30.58 27.37
41.89 45.27 37.11 37.68 42.06 43.01 43.75 46.39 47.66 47.59 46.57 46.77 44.95 44.17 45.62 44.52 43.26 38.94 38.45 37.93 37.39 36.46 36.45 36.98 35.58 34.71 35.07 36.90 37.26 36.44 36.65 36.58 35.25 34.30 34.09 34.37 33.24 33.10 32.51 32.68 32.05 30.06 25.65 25.15
41.26 42.73 40.79 39.14 42.20 45.36 45.68 46.34 46.48 45.24 45.52 42.71 41.85 41.19 40.00 39.22 38.15 37.56 36.20 35.15 34.61 35.18 35.65 35.82 35.70 35.22 35.12 35.62 35.61 35.89 35.12 35.11 33.57 33.33 32.84 32.13 29.41 30.82 31.04 32.11 31.25 29.56 29.83 29.32
43.10 41.18 35.00 32.48 44.61 42.85 42.11 43.80 44.56 42.45 41.73 42.19 40.59 39.09 39.84 39.56 37.54 36.09 34.12 34.44 35.01 35.00 35.79 34.97 33.79 34.24 34.56 34.73 34.39 34.42 34.75 33.65 32.22 31.37 30.38 28.49 27.46 28.37 30.36 30.06 29.67 32.45 33.00 33.21

GFSCGP_sfc_wetblb_033.txt.gz
Wetbulb
45.31 39.97 36.63 38.88 41.41 42.57 41.19 39.22 37.47 40.41 44.90 43.53 42.55 42.24 47.01 48.17 48.82 48.77 49.01 50.98 55.55 55.99 57.71 59.33 59.76 60.04 61.19 59.93 59.38 59.90 58.30 57.51 56.91 56.43 55.91 54.90 54.91 54.83 54.47 54.13 51.90 51.36 51.98 50.61
41.35 37.82 43.04 44.97 45.00 44.02 42.46 40.13 40.61 42.13 43.54 42.18 41.04 41.36 44.86 47.60 49.22 50.50 49.62 49.90 51.41 56.09 57.28 58.91 59.51 60.33 60.49 59.84 59.63 59.56 58.81 57.56 56.96 57.12 56.05 56.51 55.37 53.78 52.79 51.69 49.91 50.12 49.69 49.21
38.71 42.07 46.59 45.53 43.13 41.95 40.14 39.15 39.49 40.57 41.44 39.64 39.83 37.73 40.68 44.07 48.70 49.93 50.97 51.91 52.33 53.28 55.64 57.32 58.80 59.62 59.15 58.52 59.04 59.48 58.97 58.06 57.28 56.96 56.91 53.58 51.06 50.03 48.52 47.59 47.34 48.27 49.18 48.85
41.13 45.07 44.30 42.63 41.44 41.96 37.57 42.64 41.86 40.94 37.87 32.25 37.60 30.29 37.75 41.42 45.82 48.39 50.55 49.56 51.36 52.29 55.14 55.94 58.02 58.60 58.38 57.94 59.37 59.93 59.46 58.41 57.53 57.34 56.62 54.31 52.49 50.67 47.80 47.18 47.20 47.63 47.74 45.27
40.34 42.54 41.59 40.64 41.91 44.04 40.85 43.86 41.87 41.62 38.12 34.90 35.69 32.20 35.24 40.26 40.22 45.96 48.98 50.03 51.60 52.19 53.35 53.76 56.27 58.23 58.70 58.27 58.86 59.28 59.02 59.45 58.57 57.40 56.99 54.42 51.25 48.68 47.60 46.97 46.29 41.45 42.28 42.87
42.51 45.89 43.71 43.03 45.40 45.00 45.18 42.29 40.60 39.29 37.07 29.15 35.79 33.25 33.50 38.28 41.96 44.61 49.69 50.63 50.73 50.00 51.29 53.26 54.60 57.34 57.61 58.44 58.86 58.73 59.17 58.93 58.75 57.77 55.69 54.04 50.38 47.67 46.88 44.22 40.87 40.42 40.84 41.36
40.56 42.01 43.93 46.63 41.50 43.97 42.40 36.89 29.15 28.46 27.39 27.19 37.69 34.37 36.80 41.55 43.83 45.01 45.50 48.19 48.68 51.08 52.06 54.13 56.63 57.16 57.71 58.03 58.54 58.73 58.91 58.32 57.98 57.73 53.83 51.35 49.21 48.03 47.04 43.98 41.00 41.44 40.72 40.25
34.84 33.14 42.10 45.83 42.44 39.92 39.11 37.36 29.96 26.06 24.85 29.34 37.95 32.94 37.84 44.39 45.55 46.14 46.19 46.23 46.94 49.19 53.44 55.36 57.33 58.22 57.94 58.16 58.50 59.20 58.09 52.62 52.05 53.21 49.98 47.58 47.47 47.60 48.69 46.86 44.06 42.93 42.09 41.63
34.71 36.00 43.18 45.28 45.88 44.44 40.70 35.43 39.73 32.73 31.69 29.30 32.48 37.13 41.39 44.05 44.46 44.90 44.74 47.10 48.33 49.60 52.62 55.35 57.49 58.41 58.01 58.40 57.89 57.03 52.18 49.56 47.72 46.95 45.36 44.10 45.42 45.58 45.91 45.52 43.74 42.50 42.16 42.11
40.22 34.56 41.84 44.03 45.72 45.60 42.13 43.24 33.63 32.99 27.34 26.28 29.82 31.02 34.30 40.76 42.84 43.62 44.24 45.20 48.31 50.38 52.35 53.71 55.75 55.29 55.87 54.75 51.90 51.14 49.43 47.52 45.48 45.15 45.36 45.01 45.60 45.31 44.16 43.17 42.32 41.90 42.15 42.41
42.37 38.01 37.19 42.85 40.45 39.52 39.32 37.30 36.78 36.29 31.09 26.27 23.95 30.41 38.12 41.41 43.20 43.46 44.59 45.27 47.15 50.44 52.09 53.27 54.48 54.23 53.35 51.56 50.40 49.18 47.10 44.71 44.09 45.03 44.11 43.32 42.59 43.01 42.38 42.65 42.41 42.34 42.52 41.76
42.96 37.79 30.88 38.62 43.12 44.51 41.46 38.98 37.84 29.23 30.18 28.37 26.91 30.21 40.77 41.08 42.42 43.23 46.19 46.42 47.74 50.65 52.08 53.25 53.16 52.04 50.46 50.76 50.20 48.94 48.00 45.84 45.39 44.89 44.17 43.73 42.81 42.64 43.24 42.93 42.49 42.17 41.55 40.98
43.20 36.41 29.03 34.04 38.63 40.94 38.70 40.15 40.34 37.28 31.53 29.53 25.18 30.13 41.59 40.83 41.20 42.82 44.82 46.50 48.39 50.27 50.65 51.06 50.96 50.89 50.56 50.35 49.91 49.57 47.86 45.95 44.65 45.07 44.36 42.13 42.92 43.67 43.22 42.68 42.30 40.58 38.89 38.94
44.33 37.61 34.83 30.59 34.74 37.78 35.19 39.16 39.28 37.67 29.11 29.75 29.31 34.34 39.82 41.63 41.13 42.17 42.23 43.78 46.84 49.82 49.51 49.61 49.46 50.46 51.34 50.83 49.35 48.15 46.96 45.15 45.50 45.47 43.84 43.07 43.57 44.08 43.45 43.33 41.79 40.93 40.09 38.81
42.63 35.72 35.63 36.51 37.74 39.99 39.11 39.20 39.44 37.12 36.28 32.01 35.52 35.12 39.84 39.78 40.77 40.73 41.23 42.28 44.49 48.27 48.11 47.39 47.98 48.78 49.39 49.35 48.80 47.22 45.96 46.75 46.97 44.27 43.37 44.16 44.16 44.56 43.34 42.25 41.06 40.38 39.94 39.67
41.72 34.35 35.75 34.03 37.72 37.11 35.50 38.34 37.85 37.66 37.93 37.28 36.98 36.49 39.38 39.85 39.80 40.88 41.19 42.63 42.86 44.24 46.77 47.60 47.90 48.48 48.93 48.58 47.61 46.18 45.77 46.14 44.62 44.15 43.90 43.85 43.97 41.89 41.36 40.12 39.09 38.42 38.34 38.76
38.06 33.81 31.56 30.15 32.91 32.31 28.63 33.68 36.43 37.69 38.91 38.53 33.33 37.59 38.71 38.97 40.40 39.63 41.00 42.62 43.13 43.86 44.75 45.74 46.88 46.68 47.11 47.19 47.52 45.26 44.43 43.69 42.97 44.12 44.05 41.98 39.94 38.54 38.27 38.77 38.63 38.31 38.39 38.59
34.92 32.75 29.76 26.91 27.35 20.77 36.07 39.35 39.18 37.17 36.75 37.51 38.04 38.48 39.65 39.97 40.00 41.18 41.38 40.94 41.20 41.58 41.09 39.71 39.31 43.66 45.37 45.28 43.71 43.36 43.38 42.34 40.94 39.42 38.64 38.82 38.57 38.45 38.83 38.77 38.64 38.56 38.31 37.57
40.76 32.84 29.06 26.24 26.09 31.24 35.63 37.27 37.48 35.66 34.19 38.87 37.94 39.34 40.70 41.73 41.17 41.55 42.97 40.63 38.94 37.92 37.36 36.78 36.75 37.17 37.62 38.63 39.47 37.79 36.87 37.05 37.16 37.35 38.87 39.43 39.65 39.29 39.16 38.31 37.88 37.89 37.42 36.55
37.28 34.75 32.74 25.72 23.21 22.54 33.83 38.35 41.52 40.47 29.96 40.46 39.98 39.70 40.20 38.78 31.14 38.26 39.91 38.51 37.37 36.99 36.99 36.30 36.28 36.11 35.57 35.91 36.91 35.97 35.60 36.19 36.28 38.30 39.20 40.04 39.67 38.92 37.72 37.65 37.32 36.53 35.90 34.44
29.80 28.68 27.34 21.74 22.32 28.21 36.35 41.16 40.96 30.52 32.11 40.73 41.21 40.90 40.21 37.88 38.74 39.01 37.61 36.66 36.88 36.64 36.27 36.87 36.76 36.14 36.09 37.01 37.48 36.57 38.15 38.28 39.62 40.93 40.77 39.91 39.51 38.45 38.31 37.30 36.56 34.96 32.42 30.69
32.72 29.06 25.81 25.24 21.68 25.16 40.44 40.21 34.23 36.55 39.14 41.34 40.86 40.97 40.88 39.60 37.43 37.08 36.75 35.87 36.07 35.10 35.49 36.13 35.68 35.52 36.32 37.48 38.46 38.22 37.52 38.94 39.52 39.68 38.90 38.43 38.11 37.04 35.78 33.47 32.05 31.01 29.66 28.09
32.21 33.76 31.55 32.98 31.95 39.06 40.51 39.71 40.96 41.82 41.10 40.94 41.99 42.59 42.95 37.18 36.17 36.55 35.33 34.98 34.27 32.86 32.48 34.16 34.14 34.30 36.24 37.36 37.92 36.50 37.39 36.87 35.87 34.25 33.38 33.12 33.17 33.18 32.55 30.92 29.65 28.69 28.21 26.00
37.46 40.58 34.85 34.72 38.65 39.78 41.24 42.32 42.63 43.00 42.06 42.35 43.45 43.21 40.01 35.79 36.23 35.06 34.78 34.20 33.39 32.44 32.41 34.17 35.08 34.84 34.40 35.66 35.74 35.01 34.84 33.64 32.66 31.49 31.39 31.49 30.76 30.69 30.67 30.40 29.89 28.68 26.13 25.57
37.74 40.43 37.40 36.01 39.35 40.91 40.94 39.92 38.91 38.69 39.03 38.44 38.40 38.05 37.22 36.41 35.52 35.07 33.79 33.32 33.42 33.82 35.39 35.73 34.75 34.31 34.09 34.84 34.04 32.72 31.99 32.39 31.18 31.17 31.01 30.71 28.67 29.12 29.18 29.56 29.65 29.44 29.29 29.25
39.74 38.52 35.15 33.62 41.51 39.98 40.12 39.67 40.14 38.80 37.75 37.80 36.64 35.52 36.01 35.74 33.71 33.60 32.84 33.72 34.06 34.41 34.90 34.39 34.23 33.64 31.66 30.71 30.61 31.36 32.07 30.99 30.32 30.30 29.88 28.70 28.26 28.42 28.75 28.52 28.99 31.80 32.36 32.21

GFSCGP_sfc_wetblb_036.txt.gz
Wetbulb
43.82 39.16 35.57 38.26 40.19 41.49 39.92 37.48 36.44 37.81 42.28 41.85 43.38 41.93 45.51 49.02 50.95 51.25 51.60 52.75 54.21 53.86 55.88 55.81 57.25 57.25 58.02 59.26 59.24 58.86 57.71 56.91 56.97 55.93 55.50 54.24 54.34 54.64 54.03 54.53 52.97 53.37 51.71 50.34
40.52 36.85 41.80 43.42 42.57 42.05 40.53 38.19 37.57 40.81 41.33 40.83 39.02 39.92 46.32 47.43 49.63 51.14 51.72 51.56 53.29 55.27 54.74 55.66 57.08 57.11 58.48 59.31 59.26 58.61 58.11 56.81 57.14 57.63 55.03 55.51 54.25 53.51 52.74 51.21 49.68 51.01 49.80 48.76
37.82 40.14 44.73 43.44 41.07 40.37 38.72 37.23 38.15 38.21 40.69 38.60 38.73 36.04 41.35 45.31 48.21 49.46 51.26 51.89 52.89 54.20 55.09 55.97 57.32 57.46 58.35 59.26 58.99 59.20 58.24 57.09 57.00 56.40 55.71 52.33 51.23 50.21 49.41 47.69 47.15 48.14 48.66 48.01
39.59 43.49 42.83 40.81 39.98 40.96 35.62 41.72 40.22 39.35 36.35 31.75 36.45 29.73 35.98 40.69 46.34 47.04 49.57 48.82 50.65 52.04 54.63 56.39 57.35 57.52 58.19 58.98 59.02 59.22 58.30 57.23 56.85 56.64 55.79 53.45 53.28 50.34 48.94 47.33 46.59 46.93 47.23 45.11
40.06 40.37 40.80 39.13 40.75 42.47 39.83 42.54 40.67 39.56 35.98 34.27 34.61 32.12 34.40 39.01 39.70 45.91 48.03 49.78 50.15 51.51 52.33 54.71 56.50 58.27 58.99 58.09 57.03 58.52 58.40 58.02 57.98 57.11 56.76 54.72 52.98 51.84 50.17 46.61 45.20 42.23 41.89 41.94
40.71 43.70 42.31 41.67 43.38 43.41 43.80 40.67 38.86 37.86 35.52 29.02 33.77 32.24 32.85 36.29 41.02 45.20 48.20 50.02 51.26 50.79 50.81 53.41 55.23 56.80 57.86 56.25 56.83 57.77 57.88 58.29 57.94 57.13 55.89 54.62 51.36 48.87 48.15 45.66 41.88 40.64 40.25 40.43
38.91 40.57 42.37 44.69 40.02 41.98 39.94 35.67 28.44 27.22 27.23 27.16 35.91 32.91 35.43 40.44 40.78 43.56 44.00 48.09 50.50 51.47 50.50 50.34 51.33 54.43 55.38 55.95 56.81 57.57 58.26 58.21 58.13 56.99 55.11 53.58 51.52 50.81 49.94 46.17 42.73 40.65 39.74 39.32
33.82 32.31 40.98 44.09 41.72 38.81 37.69 36.36 28.77 25.10 23.90 28.37 35.98 31.48 37.17 41.81 44.23 44.98 44.59 44.56 47.39 47.65 50.57 51.05 52.52 53.97 55.72 56.45 57.11 57.51 58.08 58.62 58.05 57.29 55.85 54.36 54.33 51.49 50.15 46.51 42.83 42.66 41.19 41.74
33.03 34.34 41.51 43.64 43.83 41.97 38.19 34.21 38.04 31.53 30.34 28.58 30.77 36.14 39.70 41.41 42.93 44.49 44.21 44.06 43.74 46.15 49.62 51.78 53.12 54.83 55.74 56.55 57.26 57.47 58.28 58.80 57.33 57.01 54.59 52.02 51.51 50.53 48.33 45.58 45.06 42.27 42.02 41.40
39.46 32.96 39.84 42.18 43.95 43.12 40.08 41.68 32.84 31.52 26.91 25.50 28.53 29.36 32.45 38.66 40.21 42.15 43.14 44.50 45.53 46.65 49.43 51.73 54.46 55.77 56.44 56.64 57.12 57.39 58.34 56.83 53.93 52.54 51.10 49.71 48.86 49.14 48.31 45.45 43.19 41.97 40.55 41.58
39.78 36.28 35.27 41.31 39.01 38.17 37.56 35.58 34.84 34.81 30.37 26.16 23.03 29.31 37.50 39.47 41.68 41.57 41.52 44.23 45.14 48.10 49.84 52.04 54.14 56.17 56.81 56.73 55.81 55.43 53.29 50.36 46.53 46.63 45.56 45.16 45.79 47.34 47.14 45.85 43.63 42.86 41.97 42.85
41.22 36.62 29.28 36.76 41.12 42.08 39.71 37.77 36.21 28.90 29.25 27.68 26.31 28.98 39.72 39.61 39.92 40.80 42.88 43.92 44.69 47.74 50.29 51.27 52.41 52.62 52.78 53.33 52.24 52.44 49.45 46.81 45.86 46.12 45.72 45.88 45.77 45.32 44.56 43.40 42.19 41.62 42.04 42.57
41.87 34.63 28.32 32.77 36.68 39.14 37.50 38.76 38.14 35.28 30.81 28.95 24.21 29.54 40.33 40.14 40.64 41.09 41.62 43.53 45.28 48.15 49.65 50.45 50.58 50.80 51.63 50.79 50.36 49.83 47.88 45.89 44.74 46.00 46.10 46.23 42.99 43.45 41.37 41.49 42.21 41.72 41.04 40.08
43.78 36.34 33.71 30.13 33.86 36.52 34.13 37.69 37.71 36.13 28.56 29.36 28.98 33.38 38.48 40.20 39.98 41.55 42.05 40.80 42.26 47.27 49.23 49.36 49.45 49.61 49.55 50.02 49.96 48.14 46.83 44.85 44.71 45.11 44.41 41.88 43.54 43.26 42.61 41.56 40.77 40.46 40.44 39.45
41.15 34.37 35.04 35.60 37.08 37.60 37.23 37.50 36.93 35.52 34.85 31.70 34.55 33.58 38.58 39.45 39.64 39.69 40.18 40.18 42.24 46.26 47.56 47.99 48.42 48.51 49.16 49.24 48.48 48.06 46.48 45.10 45.98 43.91 42.13 42.00 43.45 42.14 40.98 41.01 40.44 40.21 39.69 39.22
39.67 34.31 34.11 32.93 35.90 35.89 34.87 36.26 36.10 36.39 35.89 35.32 35.30 35.06 39.79 38.37 38.16 39.26 39.37 41.80 42.89 44.40 45.83 46.32 46.59 47.42 48.42 48.76 48.09 46.89 45.17 44.54 44.92 43.10 42.13 42.59 41.96 41.10 40.95 40.53 39.29 38.39 38.74 39.18
36.51 33.36 31.09 30.03 32.09 32.66 29.01 32.95 35.97 35.72 36.83 37.45 33.12 37.55 38.76 37.29 38.84 38.43 39.97 41.45 41.01 40.86 40.59 40.44 42.46 44.40 45.23 46.00 46.58 44.40 43.50 43.18 42.24 42.33 42.12 40.62 40.16 38.82 38.03 38.16 39.49 39.40 38.90 39.20
33.64 32.36 30.40 26.32 26.89 21.19 35.20 37.55 37.60 36.35 36.37 36.90 36.37 36.23 38.14 38.73 38.55 39.88 39.67 39.23 38.94 38.00 37.48 36.69 36.98 38.44 39.05 41.17 41.23 41.44 41.39 39.46 38.19 37.44 37.87 38.90 39.52 39.79 40.12 39.48 38.73 38.63 38.92 38.34
38.21 32.42 28.74 27.17 25.71 30.20 34.22 36.31 35.94 35.05 34.47 37.92 36.10 37.89 38.83 39.91 39.77 38.89 37.70 37.43 36.26 35.81 35.53 34.98 35.20 35.34 35.30 35.43 36.56 36.77 36.53 36.84 37.50 37.87 38.80 40.01 40.37 39.46 39.02 38.50 38.18 38.24 38.14 37.38
36.56 33.83 31.88 24.49 23.53 22.26 33.16 37.87 39.63 38.76 29.86 38.91 39.19 38.67 39.05 38.63 30.06 36.34 36.60 36.55 35.27 35.33 35.20 34.97 34.89 34.98 34.88 34.91 36.10 36.07 36.08 36.85 37.11 38.71 39.63 40.13 39.96 39.54 38.54 37.89 37.64 37.68 37.47 36.33
29.95 28.38 27.25 21.22 22.08 29.04 36.60 38.58 39.66 30.25 32.09 39.23 40.33 39.46 38.64 36.96 36.39 36.28 35.99 35.13 35.28 35.04 35.35 36.10 35.46 34.59 34.61 36.10 37.75 37.09 37.66 37.63 38.75 39.63 40.07 39.99 39.81 39.41 39.36 38.40 37.01 35.21 33.52 31.46
34.38 30.26 26.01 24.74 21.88 26.78 38.94 38.38 34.09 36.89 37.53 39.49 39.69 39.87 38.91 36.81 36.00 35.51 35.31 34.69 34.36 33.67 34.30 35.20 34.88 34.84 35.96 36.79 37.47 36.12 36.56 38.02 38.95 39.54 39.01 38.32 36.99 35.32 34.49 32.47 31.53 31.36 29.95 28.63
33.25 35.85 32.58 33.74 33.05 39.00 39.43 38.49 39.91 39.87 39.87 39.96 40.06 40.79 39.78 36.42 35.46 35.26 34.14 32.98 32.24 32.10 32.04 33.28 33.73 33.52 34.22 34.72 35.36 34.12 34.72 35.24 34.12 32.61 31.76 31.37 31.60 31.60 30.55 30.04 29.38 29.07 28.33 25.63
36.53 37.88 33.87 34.41 37.63 38.00 39.81 41.15 40.58 40.89 40.14 41.49 41.74 41.17 38.60 35.80 35.53 33.72 32.44 31.95 31.53 31.69 32.26 33.42 33.32 32.91 32.64 33.88 34.13 33.74 33.95 32.16 31.15 30.28 29.97 29.89 29.69 29.94 29.27 29.51 29.42 28.21 26.44 25.89
36.95 38.60 35.74 34.28 38.44 39.57 40.83 40.35 39.09 38.50 39.30 38.48 37.94 37.16 36.50 35.70 34.08 33.38 32.08 32.11 32.44 33.07 33.82 34.44 34.00 32.99 31.80 32.50 32.07 31.95 30.54 30.66 29.93 30.28 30.08 29.71 27.93 27.99 28.56 28.61 28.51 28.71 28.83 29.42
39.12 37.79 35.11 35.08 40.25 39.63 39.54 38.98 39.15 38.50 37.03 37.15 36.47 35.17 35.83 35.59 33.64 33.24 32.28 33.05 33.36 32.77 33.61 33.07 31.94 31.32 30.70 29.54 28.67 29.48 30.10 29.66 29.35 29.10 28.89 27.20 26.70 25.95 27.59 27.39 27.77 31.17 32.15 32.48

GFSCGP_sfc_wetblb_039.txt.gz
Wetbulb
47.62 44.80 41.76 43.16 44.39 43.88 43.49 42.30 40.96 43.16 45.79 46.13 46.95 46.53 49.27 52.42 53.14 53.24 54.32 55.26 56.10 56.87 59.05 58.65 59.58 60.09 60.28 61.07 61.75 62.37 62.78 63.19 62.14 61.22 60.54 60.78 61.40 61.81 61.78 61.64 61.67 60.79 59.00 56.61
44.96 42.35 45.10 45.06 44.82 44.45 43.71 41.79 41.28 43.41 44.15 44.05 43.42 43.79 47.34 51.24 52.50 53.97 54.61 55.14 56.26 57.43 57.86 58.34 58.80 59.33 59.92 60.11 61.44 63.01 62.92 62.48 62.32 62.22 61.46 61.53 61.32 60.56 60.21 59.38 58.73 59.42 57.23 56.13
42.75 44.04 46.81 44.93 43.69 42.70 42.56 41.89 40.96 41.43 43.15 43.26 42.59 41.91 44.40 48.88 51.57 53.31 54.68 56.08 56.30 56.61 57.42 57.15 57.91 58.90 59.95 59.92 60.81 62.09 62.74 62.08 62.18 62.42 61.04 58.48 57.99 57.19 56.66 55.59 55.84 56.70 55.59 54.94
44.03 45.95 45.19 44.35 43.16 43.70 40.61 44.41 43.17 41.88 40.75 37.55 41.32 36.54 40.14 45.63 48.76 50.48 53.25 54.09 55.32 56.25 57.71 58.84 58.23 58.67 59.56 60.02 61.55 62.11 62.58 61.93 61.71 61.23 60.64 59.50 59.56 57.46 57.32 55.92 55.16 54.46 54.17 53.15
43.50 43.89 43.73 42.57 43.56 44.88 43.23 44.90 43.71 42.98 40.47 39.82 39.50 38.54 40.86 42.72 44.41 49.15 52.11 53.10 54.46 56.16 56.75 58.23 59.32 59.95 60.77 61.39 61.92 62.45 62.65 62.39 61.87 60.84 61.27 60.23 59.31 58.76 56.24 53.79 52.70 52.32 52.07 51.71
44.49 46.94 46.02 45.61 45.70 45.56 46.16 43.88 41.57 41.49 40.63 35.84 38.15 38.95 40.21 42.20 44.83 48.08 51.44 53.72 54.19 55.56 55.87 57.38 60.11 61.19 61.30 61.98 62.03 62.43 61.98 61.64 61.21 59.74 59.82 59.28 58.90 55.61 54.04 52.16 50.28 49.70 49.34 48.52
42.28 43.83 46.41 46.90 44.33 45.51 44.19 41.14 36.01 33.73 34.47 34.00 39.30 37.90 41.85 45.40 45.40 47.21 48.74 51.43 54.71 56.35 56.53 56.21 56.95 58.81 60.74 60.77 61.28 61.69 61.51 59.62 59.53 59.21 58.62 58.39 57.16 55.83 55.18 52.26 49.53 47.17 46.74 46.98
37.48 35.96 43.64 46.67 45.60 43.43 41.99 41.74 36.43 28.80 30.31 33.97 38.45 36.13 41.94 46.74 47.98 48.56 48.86 48.90 49.70 53.59 55.96 56.23 56.79 58.15 59.79 60.65 61.13 61.17 60.90 60.12 58.97 58.85 58.70 58.89 57.64 56.28 56.09 53.43 49.78 47.90 47.86 46.41
36.97 37.41 44.79 46.31 46.74 45.92 41.71 39.54 41.78 35.64 34.15 34.64 36.60 40.21 44.53 45.90 47.36 48.66 48.86 49.35 48.97 50.40 53.11 55.21 56.09 56.93 58.47 59.88 60.32 60.97 61.09 61.07 59.39 59.17 59.51 58.50 57.78 56.47 55.23 52.24 49.62 49.13 47.31 46.17
42.88 37.33 42.70 44.84 47.14 46.21 44.19 44.52 38.25 37.38 30.71 28.86 34.22 35.20 38.05 42.94 44.88 46.31 47.97 49.63 50.57 51.60 51.38 53.22 55.07 56.20 57.71 59.47 60.55 61.02 61.26 60.90 60.92 60.38 59.58 57.84 58.15 57.47 54.82 50.71 49.23 49.17 47.36 46.39
43.08 41.20 39.08 44.36 42.84 41.84 41.46 40.62 38.84 39.60 36.57 32.45 30.23 35.36 43.38 44.51 45.72 46.98 47.22 48.11 50.39 51.53 53.60 54.29 55.50 57.73 58.54 59.39 59.79 60.09 60.60 60.93 60.56 59.22 58.45 57.83 55.97 55.54 53.38 51.02 50.01 47.67 47.00 46.89
44.66 41.13 36.35 39.87 44.05 44.98 43.58 42.56 41.47 37.34 33.84 33.61 33.21 35.55 44.50 45.64 45.31 45.26 46.74 47.22 50.30 51.41 53.51 55.09 56.43 57.71 58.61 59.15 59.21 59.12 59.42 58.96 58.16 57.05 54.84 55.03 54.21 51.90 50.90 50.15 49.11 47.69 46.96 46.32
43.96 38.76 34.51 36.84 40.56 42.80 42.20 42.13 40.68 38.52 37.03 33.56 34.81 37.01 43.94 44.69 46.00 46.21 45.83 47.32 48.27 51.31 53.33 54.78 55.60 56.39 57.12 57.22 56.56 57.03 56.78 56.36 53.69 52.31 52.33 51.62 50.50 50.88 50.99 50.58 49.96 47.93 46.64 45.60
45.80 39.73 37.81 34.25 37.93 41.04 38.88 40.21 40.63 40.93 35.60 36.23 36.53 39.83 43.83 46.01 45.17 47.09 47.26 46.77 46.89 47.92 52.23 53.85 54.23 54.83 55.14 55.24 56.05 55.69 53.65 51.89 50.62 50.76 50.60 50.39 49.62 50.00 49.62 47.25 45.82 44.29 43.96 42.20
45.06 38.45 38.68 39.10 40.01 40.33 40.28 40.61 39.78 39.18 40.11 38.27 40.55 37.87 43.13 45.74 46.14 46.30 45.04 45.41 48.06 49.82 51.10 51.79 52.92 53.76 54.03 54.03 53.64 52.94 51.56 50.20 50.00 48.88 48.50 47.84 47.91 47.18 46.11 44.75 42.67 42.40 41.89 41.51
42.49 38.69 38.20 36.79 38.87 39.65 38.97 39.96 40.28 40.16 39.36 39.39 39.65 39.98 45.02 45.29 44.60 44.17 43.57 46.49 46.53 46.13 46.80 47.75 49.10 51.04 51.88 52.55 52.87 50.88 49.88 49.15 49.40 48.26 46.67 46.45 44.80 43.69 42.77 41.78 40.96 40.11 40.11 41.62
40.33 37.43 35.98 33.97 35.51 37.16 33.63 37.66 39.85 39.86 40.85 41.96 38.31 43.99 43.99 42.92 43.24 43.82 44.42 44.69 43.50 42.69 43.22 43.68 44.71 45.81 47.07 48.47 49.90 49.07 48.28 47.86 46.97 46.19 45.36 44.44 42.32 40.29 40.20 40.72 41.05 40.16 40.98 41.32
37.77 37.59 35.58 32.43 32.15 29.58 40.36 41.12 41.82 41.15 41.66 41.90 41.26 42.18 42.94 43.29 42.59 42.61 43.46 43.90 41.43 40.97 40.86 40.69 41.79 42.14 42.67 44.72 44.79 44.87 44.67 43.75 43.08 42.32 41.80 42.28 41.99 40.99 41.00 40.78 41.41 40.20 40.68 40.70
40.79 36.74 32.10 32.36 32.23 35.45 37.89 39.58 39.84 39.13 40.62 42.89 41.69 41.59 42.03 42.76 43.37 40.51 39.78 40.84 40.02 39.37 39.16 39.05 39.89 40.16 40.95 41.52 42.12 42.12 41.96 42.07 41.93 41.49 41.71 42.03 41.61 41.91 41.90 40.01 40.59 41.95 41.15 41.74
37.49 38.21 38.54 30.03 31.06 29.72 39.25 41.86 42.74 43.17 35.65 43.13 42.46 41.85 42.14 42.90 41.24 43.09 39.57 39.11 38.51 38.78 39.23 38.79 39.10 39.71 39.82 40.20 41.68 41.11 40.90 41.23 40.71 41.72 42.25 43.00 43.32 42.88 41.73 41.68 40.30 39.17 38.69 38.38
34.76 33.57 33.82 28.86 33.67 35.15 40.66 41.72 43.48 35.65 39.54 43.08 43.52 43.75 43.78 42.26 42.92 42.02 39.08 37.84 38.58 38.58 38.27 39.19 39.54 39.07 39.97 41.57 41.88 40.73 40.82 40.20 41.71 42.33 42.50 41.75 41.16 40.08 39.46 39.41 40.23 39.60 38.87 38.08
36.46 34.28 33.52 31.09 32.66 32.92 41.99 40.49 39.19 44.29 43.11 43.72 44.36 44.72 43.72 40.14 38.50 38.36 37.69 37.06 37.50 37.49 38.04 39.32 38.92 39.10 40.17 41.04 40.57 38.99 38.31 40.44 40.83 38.88 37.28 37.23 37.66 36.93 36.88 37.02 37.21 36.97 36.63 35.60
37.14 39.63 37.74 38.83 39.38 44.60 42.72 45.57 44.96 43.97 44.82 43.61 45.08 44.45 42.11 38.87 37.96 37.58 36.24 36.45 36.72 37.08 37.66 38.70 38.10 37.10 37.71 38.34 38.70 36.54 36.59 37.00 36.27 35.71 35.08 35.21 35.28 35.18 35.33 35.38 35.33 35.07 35.30 34.29
38.63 40.13 40.10 40.53 42.74 42.21 43.16 43.78 45.08 44.52 45.02 44.48 45.71 44.68 42.59 40.01 38.17 36.31 35.65 35.56 35.81 36.87 36.43 36.74 36.08 34.84 34.01 35.22 34.88 35.32 35.07 35.63 35.46 34.81 34.33 34.32 33.95 33.74 34.16 34.28 33.87 33.46 33.13 32.63
39.97 40.80 38.39 39.20 40.65 42.61 44.04 44.47 44.97 42.93 43.61 43.08 42.53 42.43 41.25 39.07 36.70 35.92 35.15 35.29 35.62 35.79 35.80 35.98 34.48 33.58 32.89 32.90 32.35 32.63 33.32 34.73 33.34 32.84 32.03 31.51 31.17 30.95 30.99 31.23 31.16 30.60 31.72 31.25
41.20 40.42 38.43 38.51 43.95 44.14 44.54 46.05 42.96 41.96 42.10 42.12 39.98 38.72 39.38 38.70 36.19 35.88 34.99 35.71 35.70 35.07 34.82 33.81 33.11 30.96 29.99 29.52 28.45 30.11 31.24 30.90 30.28 28.76 28.62 27.54 27.82 28.15 28.16 27.75 27.94 28.91 28.06 28.20

GFSCGP_sfc_wetblb_042.txt.gz
Wetbulb
52.40 48.66 45.20 46.45 47.25 47.74 46.84 45.15 44.50 47.07 49.62 48.23 48.47 49.54 51.71 55.91 56.16 55.40 55.52 56.83 57.26 57.66 59.62 61.61 63.23 64.05 63.70 63.71 63.05 63.03 63.61 64.57 65.05 64.71 63.35 61.67 60.89 63.07 65.20 66.07 66.50 64.97 64.86 63.82
48.90 46.10 48.75 49.11 48.79 47.47 47.01 45.29 44.68 47.37 48.13 47.62 47.91 47.10 50.84 54.97 55.88 56.43 56.39 57.05 57.61 58.30 59.67 59.85 62.02 62.86 63.31 63.51 64.07 63.80 63.51 64.25 65.23 65.60 65.24 62.83 63.48 63.25 64.39 65.49 65.68 65.41 64.93 63.12
46.92 47.98 49.75 48.44 47.59 46.20 46.89 45.41 44.86 44.73 47.35 47.91 46.55 45.35 47.97 52.94 56.25 57.26 58.20 58.42 59.09 59.04 59.28 59.97 59.84 61.83 62.98 62.74 63.32 63.76 64.33 65.27 65.73 65.74 65.32 63.64 64.59 64.83 64.22 63.69 63.22 63.79 63.37 62.31
48.32 50.20 47.99 47.84 46.43 47.82 43.90 47.91 46.64 46.06 45.08 41.56 46.17 39.52 45.84 49.90 52.19 54.84 56.37 58.17 58.35 59.09 60.47 61.05 60.86 61.05 61.82 63.02 64.17 64.15 64.85 65.64 66.01 66.28 65.12 63.30 61.71 61.13 62.94 63.22 62.38 62.28 61.99 61.29
46.42 47.56 47.36 45.93 46.89 48.72 45.62 48.29 47.18 46.84 45.61 44.41 44.04 41.79 45.24 47.92 47.74 51.57 55.14 57.25 58.86 59.17 60.19 60.89 61.82 62.13 62.66 63.16 63.49 64.28 64.66 65.82 65.71 65.66 65.47 64.18 63.28 63.59 64.36 62.90 61.15 60.54 60.15 59.51
48.57 50.80 49.75 48.39 49.26 49.37 49.46 47.47 46.77 47.20 46.14 39.34 42.93 42.65 43.95 46.07 47.15 49.49 53.01 56.08 58.15 59.61 60.53 61.21 62.41 63.48 63.61 64.15 64.16 64.31 64.26 64.50 65.74 65.20 64.78 64.49 64.42 64.15 61.80 60.74 59.09 58.41 57.78 57.29
46.97 47.49 49.89 49.93 47.30 49.29 48.41 45.60 39.49 37.49 38.03 37.32 44.04 42.11 44.56 48.31 50.01 51.37 51.97 53.51 56.89 59.36 60.44 61.21 61.57 62.63 63.76 64.25 64.56 64.67 64.42 63.13 63.59 63.40 61.90 62.60 63.09 63.51 60.69 60.50 59.17 56.69 55.95 54.25
41.48 39.46 46.58 49.81 48.29 45.99 46.61 46.06 40.29 31.57 34.09 38.53 42.71 39.25 45.02 50.13 51.72 52.69 53.98 54.95 55.41 56.34 59.65 60.88 62.04 62.76 63.47 64.47 65.25 64.80 63.63 62.47 63.50 62.99 59.91 61.82 62.04 61.21 60.66 61.79 59.68 57.12 53.65 53.44
41.59 41.31 48.35 49.46 50.14 49.45 45.82 43.08 46.98 40.84 40.91 38.83 41.49 43.68 48.01 49.19 49.62 51.01 52.25 53.95 54.90 55.39 56.87 58.78 60.97 62.78 63.16 64.11 65.12 65.44 64.78 63.64 64.24 63.11 61.00 61.02 61.58 60.69 60.28 60.81 59.84 55.99 53.33 51.25
46.22 41.02 46.75 48.40 50.38 49.54 47.74 49.11 41.61 43.21 33.54 31.97 39.07 40.12 43.09 45.35 46.83 49.58 50.18 52.20 54.82 56.27 56.02 57.33 58.89 60.27 61.80 63.32 64.75 65.60 65.60 65.08 65.15 63.85 62.16 60.89 61.52 61.11 60.51 60.00 58.12 54.22 52.76 51.41
48.07 45.34 43.74 47.62 46.13 45.56 45.74 44.56 44.84 44.52 42.41 35.78 34.32 39.20 47.83 47.41 48.70 50.02 51.01 52.31 54.36 56.06 57.16 57.73 58.83 60.38 61.40 62.21 63.31 63.89 64.32 64.32 64.78 64.64 63.98 61.01 61.24 61.38 60.54 59.64 58.12 55.91 54.18 50.92
48.67 45.89 41.44 43.47 47.97 48.86 47.94 46.09 46.28 40.51 38.46 41.10 39.87 40.17 49.15 50.33 51.01 50.93 51.19 51.81 54.15 56.01 56.90 59.11 60.02 61.00 61.49 61.81 62.44 62.65 63.28 63.55 64.25 64.78 64.31 62.76 60.91 59.60 58.31 56.58 55.56 54.16 51.19 48.22
48.35 44.12 39.07 40.36 43.78 46.62 44.98 46.54 46.53 45.74 43.75 40.55 38.48 41.00 49.59 50.08 50.46 52.08 52.13 52.50 52.45 53.91 56.75 58.65 59.91 60.81 61.71 62.17 62.33 62.37 62.81 63.08 63.30 62.71 61.52 60.49 58.23 55.82 54.40 53.35 51.86 49.90 48.94 49.09
49.01 45.91 42.32 38.03 41.38 44.86 42.76 44.67 46.10 45.30 41.09 41.35 41.95 43.54 47.55 49.15 50.01 51.37 52.02 52.69 52.32 52.69 53.82 58.07 59.29 60.03 60.80 61.26 61.44 61.79 61.35 60.76 58.67 58.65 58.24 57.12 56.82 56.33 56.27 54.85 53.02 50.76 49.59 48.12
48.73 42.74 44.54 44.36 44.64 44.68 44.07 43.80 45.24 43.95 44.91 41.77 43.88 43.87 46.91 48.61 50.27 51.00 51.10 50.53 51.47 52.68 54.47 56.59 58.42 59.53 59.96 59.96 59.52 59.70 58.58 58.03 57.91 56.77 56.36 55.21 55.09 54.38 53.24 51.77 51.39 50.20 50.59 47.05
48.78 42.83 44.65 41.79 44.56 44.22 42.71 44.65 44.97 45.53 45.50 45.45 45.55 44.69 49.86 51.19 51.85 50.85 49.59 50.37 51.45 52.16 53.33 54.90 56.50 57.46 57.41 57.57 57.59 56.33 55.83 55.29 55.86 54.42 52.80 52.31 51.27 49.44 48.62 47.16 46.30 43.11 42.46 42.67
46.23 44.31 41.43 37.80 42.94 42.67 38.09 42.92 44.72 45.72 47.16 46.70 43.09 47.35 50.31 49.64 49.81 50.77 50.50 51.29 50.89 50.70 51.18 51.56 52.20 52.86 54.03 55.00 55.59 54.34 53.64 53.54 52.71 51.61 50.50 49.23 48.09 45.79 44.82 43.65 42.35 41.54 43.36 42.00
45.38 44.17 43.51 39.40 37.28 32.87 43.85 47.61 48.37 46.51 47.35 48.81 48.07 49.01 49.66 49.84 50.60 49.92 51.62 51.03 49.05 48.89 48.77 49.33 50.21 50.92 51.93 52.50 52.12 52.13 51.80 50.67 49.81 48.73 47.72 47.28 46.80 45.04 44.79 44.07 44.00 42.80 42.93 42.12
48.80 45.50 40.21 38.22 36.90 41.52 42.21 43.62 44.72 44.71 45.46 49.50 48.51 49.23 49.39 48.52 48.24 46.38 47.81 50.19 48.92 48.21 48.16 48.34 49.12 49.59 49.94 49.77 50.16 49.57 49.13 48.63 47.74 46.78 46.39 46.35 46.51 45.85 45.56 44.82 44.89 45.57 45.68 44.80
44.71 45.34 44.39 37.17 35.83 34.00 43.62 48.23 49.57 48.26 42.02 50.05 49.71 48.99 48.54 47.78 44.39 48.32 46.55 46.30 45.90 46.86 47.16 47.01 47.70 48.07 48.23 48.48 49.09 48.20 47.21 46.84 45.61 46.03 46.03 46.44 46.39 45.82 44.99 44.87 42.77 40.13 40.27 40.05
38.79 39.54 39.26 39.32 38.99 42.26 47.06 47.55 48.78 40.27 44.05 50.03 50.51 50.26 49.31 47.14 49.89 49.34 46.83 45.75 46.43 46.11 45.69 46.78 47.38 46.79 47.12 47.96 47.92 46.33 45.92 44.65 45.42 45.60 44.85 43.76 42.10 40.20 41.32 42.72 42.99 42.99 42.50 41.60
39.40 38.97 38.63 40.66 38.43 36.48 47.24 45.62 44.71 50.61 50.46 51.17 51.12 51.29 50.39 50.12 47.53 46.09 45.48 44.39 44.37 44.30 44.65 45.96 45.49 45.53 46.35 46.71 45.82 43.50 41.59 42.86 43.39 41.58 40.12 41.29 40.80 39.60 40.13 40.27 40.66 40.27 40.15 39.06
38.96 44.50 43.74 43.40 43.82 50.96 49.13 51.42 51.88 53.21 52.11 50.70 51.54 51.56 51.55 46.75 45.60 45.21 44.21 44.11 44.20 44.74 45.07 45.43 44.68 44.00 44.74 45.33 44.96 42.04 41.01 41.09 40.82 39.87 39.29 39.37 39.55 39.48 39.76 39.62 39.20 39.23 38.86 37.70
44.64 44.32 43.31 43.35 48.51 48.53 50.37 51.71 51.08 51.00 51.49 51.28 51.82 51.75 49.72 47.06 45.77 44.67 44.08 43.59 43.62 44.52 44.06 44.02 42.47 40.93 40.09 41.40 41.29 40.70 40.23 40.42 39.68 38.77 38.19 38.38 36.96 37.45 37.30 37.66 36.41 35.55 34.72 33.64
47.59 44.02 44.87 45.71 49.27 47.45 49.43 50.91 51.76 50.29 49.79 49.22 51.20 51.10 49.21 47.68 45.56 44.64 43.42 42.94 43.55 43.37 42.53 42.29 40.86 39.37 38.36 38.59 38.14 38.86 38.93 39.34 37.85 36.69 35.64 34.82 34.31 33.75 34.34 33.86 33.26 32.24 32.83 29.85
46.67 45.98 43.76 44.99 51.00 50.31 52.06 52.97 52.88 50.54 48.40 49.45 49.52 48.76 49.43 47.64 45.26 44.50 43.15 43.38 42.61 41.38 41.13 40.22 38.93 37.28 36.06 35.46 35.10 35.12 35.80 36.65 35.07 32.98 32.47 31.21 32.49 32.84 32.69 32.15 32.45 27.72 27.22 26.72

GFSCGP_sfc_wetblb_045.txt.gz
Wetbulb
53.20 49.29 46.77 48.41 48.96 48.01 47.54 46.42 45.73 47.76 50.40 48.31 48.79 49.37 50.42 56.51 56.75 55.13 56.18 55.57 56.91 57.22 58.05 60.69 59.82 60.87 60.25 60.93 61.95 62.21 61.83 62.54 63.90 63.47 62.14 61.04 59.84 61.12 62.41 64.37 65.37 66.22 66.19 65.37
50.51 47.00 50.44 50.22 49.41 47.63 47.50 45.79 45.64 47.94 49.52 48.81 48.36 47.98 50.48 55.09 55.97 56.24 55.67 56.65 56.15 57.40 59.51 60.51 61.86 62.09 62.69 62.32 62.61 62.46 62.13 62.80 64.35 64.59 64.41 62.83 62.06 61.17 62.72 64.45 65.78 65.87 66.19 65.60
47.54 49.57 51.31 48.63 47.54 46.85 47.32 46.29 45.80 45.55 49.06 50.00 48.29 46.59 48.34 52.62 56.08 56.90 57.04 57.06 57.98 57.63 57.84 59.52 61.01 62.22 62.83 62.31 62.68 62.91 63.48 64.09 64.62 65.07 65.13 64.33 62.84 62.67 61.50 63.14 64.30 65.13 65.62 65.68
48.76 51.56 49.00 48.15 47.37 48.16 44.96 49.14 47.38 46.80 45.97 41.80 48.75 38.87 45.17 50.44 52.45 55.28 56.45 56.77 57.33 58.52 59.28 59.34 60.09 61.93 62.79 63.44 64.41 64.66 64.65 64.78 64.14 65.64 64.73 63.58 60.94 60.69 63.03 63.87 64.17 64.42 65.43 64.93
47.14 48.66 48.28 46.95 47.76 49.54 46.72 49.61 48.19 47.94 46.58 46.12 45.43 42.30 45.99 49.27 48.78 52.23 55.65 56.90 57.82 58.75 59.32 59.85 59.69 60.11 63.13 64.33 64.18 64.80 64.84 64.84 65.67 65.92 65.37 64.88 62.96 62.91 64.04 64.38 64.15 64.29 64.46 63.98
49.25 52.47 50.79 49.70 50.33 50.09 50.93 48.68 48.35 48.55 46.77 40.33 44.29 43.82 42.29 46.39 47.64 49.65 54.19 56.69 57.94 58.29 59.39 60.47 61.66 61.80 61.34 62.93 64.63 65.79 64.32 64.32 65.19 65.82 65.50 65.31 64.12 63.93 64.31 64.39 62.83 62.76 62.67 62.38
47.08 48.28 50.72 51.22 47.87 50.51 49.25 46.62 39.79 38.52 38.90 38.10 45.36 43.18 44.97 48.07 50.34 51.02 51.77 54.07 57.48 59.23 59.26 59.76 60.42 61.58 62.36 62.56 63.61 64.76 63.94 63.07 65.03 65.88 64.61 65.20 64.83 64.77 61.46 62.45 62.02 61.20 60.91 60.14
42.65 40.78 48.04 50.85 48.63 47.07 47.33 46.91 41.37 32.10 36.05 39.11 45.55 40.26 44.23 51.12 52.05 52.65 53.91 55.17 55.79 57.79 59.65 60.21 60.54 61.46 62.67 63.76 64.15 64.43 63.99 63.78 64.31 64.61 63.59 64.23 64.88 64.01 63.03 61.63 61.05 59.86 59.33 58.65
43.35 43.05 49.68 50.24 50.76 50.22 47.36 44.34 49.31 42.10 44.05 39.96 42.73 45.52 48.45 50.07 49.59 51.08 52.21 54.35 56.12 57.13 58.13 59.89 61.08 61.89 62.76 63.99 65.72 66.58 65.22 64.58 64.70 64.81 62.18 63.15 63.94 63.37 63.15 62.22 61.98 59.71 58.58 58.50
47.37 42.18 47.93 49.29 51.37 51.25 49.00 50.71 43.11 44.20 35.29 33.73 40.15 42.13 42.80 46.63 47.83 49.41 50.38 52.36 54.52 57.00 57.36 58.58 60.19 61.84 63.19 64.41 66.40 68.27 66.80 65.77 65.06 63.90 64.55 63.79 63.44 62.82 62.55 62.07 61.00 59.03 58.82 56.10
48.94 46.14 45.35 49.12 46.85 46.14 46.78 46.01 46.65 45.90 43.22 36.89 35.97 40.87 48.67 47.92 49.41 49.55 51.46 52.21 53.57 54.95 58.38 58.71 59.87 60.90 62.25 64.09 65.02 65.93 66.69 66.61 65.15 65.05 64.49 64.25 63.05 62.66 61.88 60.98 60.74 59.15 56.80 54.06
49.21 47.09 42.63 44.86 50.14 50.92 49.16 47.26 47.16 41.51 40.18 42.96 41.66 41.68 51.16 50.96 51.50 51.67 52.47 52.74 54.40 55.38 56.81 59.29 60.63 61.65 62.13 62.58 63.55 64.76 65.58 65.88 66.05 64.61 63.96 63.79 62.85 62.82 60.67 60.00 59.01 58.15 56.32 55.77
49.21 44.81 40.40 42.10 46.35 49.00 46.61 48.28 48.19 47.92 46.61 41.75 39.43 41.62 50.69 51.01 50.91 51.86 52.10 53.41 53.96 55.14 56.49 58.72 60.77 61.45 62.12 62.90 63.37 64.02 64.56 64.76 65.35 65.42 64.33 62.47 60.76 59.09 58.45 56.93 55.90 54.33 53.64 52.03
49.96 46.36 43.27 39.89 43.29 46.37 43.78 45.48 46.97 46.27 42.32 41.90 42.46 44.30 48.12 49.70 50.36 51.44 52.54 53.96 54.04 54.80 55.08 57.72 59.99 61.13 62.15 62.93 63.09 63.39 63.90 64.80 64.55 64.16 63.50 61.91 58.40 56.95 56.38 54.94 53.09 51.22 50.23 49.40
49.18 43.20 45.02 45.60 46.75 46.37 45.77 45.47 45.80 44.60 45.23 42.20 44.48 44.83 47.89 50.04 50.88 51.14 53.40 53.15 52.47 53.58 54.46 56.25 59.47 60.93 61.87 62.17 62.81 62.90 61.93 61.48 61.53 61.04 60.59 58.37 57.91 57.81 56.81 55.96 54.32 52.69 51.00 48.66
49.66 43.68 45.11 42.93 46.24 45.84 43.58 45.08 45.34 45.45 45.84 45.58 45.80 45.33 50.67 51.24 51.64 51.35 51.94 52.24 52.82 54.00 55.57 57.53 59.62 60.68 60.82 60.84 61.06 59.96 59.46 59.16 59.31 58.00 56.26 56.17 55.06 53.81 52.78 52.01 50.75 50.30 49.27 47.52
46.84 45.58 42.77 39.60 44.65 44.37 40.28 43.86 44.83 45.68 46.95 46.93 43.69 47.92 51.03 50.25 50.41 51.55 52.36 52.77 53.64 54.60 55.58 56.93 58.15 58.98 59.49 59.13 58.83 57.57 57.10 57.12 55.69 54.40 53.23 52.12 51.04 49.47 48.44 47.78 46.96 45.94 45.68 45.88
46.77 45.15 44.35 40.04 39.87 33.27 43.98 48.94 48.34 46.43 47.28 48.52 48.62 49.57 50.55 50.78 51.67 52.70 53.76 53.65 53.96 54.12 54.38 54.79 55.44 56.10 56.90 57.19 56.36 55.75 55.33 54.26 52.99 51.66 50.56 50.14 49.11 47.69 47.45 47.36 46.48 46.51 46.10 45.53
47.95 46.94 42.41 39.03 38.63 41.59 44.07 46.60 46.67 45.63 45.44 49.36 48.84 50.10 51.01 51.73 51.67 51.16 53.11 54.86 54.21 53.60 53.77 54.02 54.62 54.42 54.49 54.15 54.33 53.42 52.44 51.80 50.81 49.80 49.27 49.11 49.13 48.07 47.66 46.88 46.07 46.11 45.55 45.48
47.69 47.93 44.49 41.02 36.17 33.57 43.89 48.40 51.06 50.22 42.52 50.31 50.47 50.57 50.45 50.59 46.39 49.73 52.29 53.52 52.85 52.56 52.31 52.05 52.71 53.00 52.68 52.70 52.95 51.61 50.47 49.81 48.66 48.65 48.66 48.80 48.53 47.84 46.29 45.69 45.05 44.84 44.39 44.36
39.50 41.01 40.25 40.49 38.83 42.60 48.23 49.58 51.56 41.59 43.65 51.75 51.38 51.22 50.73 49.22 51.22 53.45 52.41 51.24 51.62 51.37 51.15 51.80 51.92 51.36 51.45 52.04 51.60 49.76 49.18 47.98 48.44 48.66 47.84 46.91 46.70 45.73 45.65 45.01 44.37 43.68 43.16 42.94
39.54 39.19 39.80 41.84 39.16 36.77 50.31 49.09 45.23 50.45 54.29 53.91 53.85 52.98 52.42 52.77 52.56 51.43 50.51 50.10 49.86 49.56 49.65 50.90 50.18 49.87 50.94 51.29 50.29 48.43 47.04 47.25 46.95 46.14 44.97 44.41 43.07 41.84 42.41 42.44 41.91 41.58 41.81 41.12
39.04 44.30 42.89 44.22 44.39 51.70 51.33 51.93 53.23 54.46 53.78 54.69 54.39 53.85 53.46 53.22 51.09 50.28 49.41 49.29 49.17 49.13 49.80 50.25 49.56 48.76 49.21 49.21 48.25 45.99 45.45 45.74 45.01 43.50 41.68 41.21 41.38 41.35 41.43 41.16 40.54 40.73 39.79 38.19
45.85 48.33 45.43 46.21 49.33 50.25 52.02 51.98 53.62 54.64 54.82 55.63 55.25 54.22 54.12 52.83 51.28 49.80 49.37 48.75 48.63 49.62 49.27 49.55 48.18 47.00 46.48 47.39 46.71 45.51 45.03 44.37 42.81 41.31 40.97 40.56 39.86 39.13 39.02 38.95 37.79 36.94 35.96 34.64
47.27 48.05 46.14 46.45 48.75 50.53 51.88 52.95 53.98 54.53 54.70 54.38 54.20 54.17 54.01 53.19 50.53 49.80 48.81 48.75 49.11 49.10 48.66 47.82 46.48 45.45 44.37 44.52 43.53 43.38 43.01 42.76 41.06 39.70 38.76 37.75 36.54 36.71 36.18 35.77 34.67 33.49 31.37 29.48
48.45 47.07 45.99 44.78 49.53 51.07 51.93 54.34 54.56 54.48 53.97 53.40 52.61 52.83 54.16 52.82 50.59 50.03 48.95 49.07 48.56 47.71 46.71 45.54 44.58 43.23 42.23 41.56 40.66 41.21 41.76 41.12 38.81 36.20 35.43 35.14 35.14 34.95 35.10 34.44 32.34 27.91 28.17 27.21

GFSCGP_sfc_wetblb_048.txt.gz
Wetbulb
50.63 46.64 44.19 46.93 48.74 47.79 46.08 44.92 45.12 48.01 50.82 49.54 47.53 48.42 49.36 50.58 53.53 53.94 54.14 55.12 54.89 55.63 57.35 58.12 57.72 57.77 57.56 55.76 56.32 55.73 54.57 56.04 58.89 58.85 57.70 58.91 58.05 59.87 60.55 60.79 61.61 64.15 63.98 64.38
47.93 45.42 49.68 50.79 50.06 47.77 46.17 44.36 44.72 47.41 50.50 48.33 46.58 47.11 50.89 50.80 53.78 54.25 54.26 54.85 54.47 55.84 57.22 57.49 56.53 57.60 57.45 56.99 57.15 57.94 58.54 58.59 59.78 60.12 60.50 60.70 59.71 59.17 60.29 61.19 62.62 64.40 63.76 63.87
45.69 48.36 51.95 49.59 47.84 45.75 45.70 44.52 45.15 45.68 48.58 49.64 47.58 44.91 48.30 53.16 54.46 54.85 55.69 56.16 56.25 55.64 56.01 56.99 57.26 57.44 58.49 58.53 58.40 58.97 59.84 59.70 60.69 62.01 62.46 62.09 60.75 59.47 58.39 59.90 62.50 63.66 64.16 63.54
47.75 50.83 49.60 48.44 45.75 46.54 43.11 48.10 47.44 46.26 44.73 40.29 47.63 38.34 45.82 48.61 50.62 53.27 54.26 55.39 55.85 56.29 57.92 58.19 58.76 58.45 58.95 59.81 60.79 61.38 61.20 61.15 61.11 63.03 62.10 61.62 59.41 57.77 58.02 58.81 61.96 63.30 63.73 63.14
46.22 47.90 47.42 46.71 46.63 48.69 45.67 49.95 48.29 47.15 44.79 44.34 44.20 41.57 44.60 48.58 47.93 51.35 54.04 55.21 56.50 57.26 57.66 58.68 59.30 60.59 60.76 61.56 61.70 61.80 61.68 61.80 62.48 62.80 62.92 61.37 60.60 59.38 60.74 59.92 61.68 61.95 62.83 63.38
47.76 51.67 50.02 49.40 50.02 49.86 50.37 48.21 47.93 47.40 45.19 38.60 43.72 42.73 41.60 44.97 46.98 50.03 54.16 55.84 56.36 57.14 57.94 58.63 59.66 61.07 61.34 62.40 62.60 62.20 62.14 62.20 63.28 62.73 62.08 61.89 60.75 60.76 60.26 61.03 61.19 61.47 61.58 61.84
46.03 46.87 50.33 51.14 47.47 49.72 48.27 45.39 38.59 37.07 37.44 36.98 45.34 42.42 44.42 48.45 50.21 51.44 53.36 55.12 56.70 57.54 57.55 58.56 58.56 58.37 60.39 61.43 61.86 62.46 62.75 62.14 62.93 63.38 62.73 62.45 62.25 62.64 61.46 61.24 60.41 59.60 59.38 59.13
40.59 39.37 46.71 50.50 47.75 46.19 46.21 45.16 40.15 32.27 33.06 37.35 44.99 40.02 44.04 50.61 52.15 52.50 52.87 54.27 56.87 57.53 58.05 58.40 59.46 59.38 59.09 60.13 62.18 62.48 62.56 61.94 62.70 62.88 63.39 62.91 62.66 62.36 62.23 61.77 60.98 59.54 59.00 59.16
40.72 41.68 49.01 49.91 50.14 48.97 46.30 42.90 48.15 41.27 41.57 38.22 41.34 44.43 49.13 50.52 49.64 50.60 51.82 53.43 54.92 55.70 58.24 58.61 59.49 60.59 60.71 60.65 60.98 61.91 62.43 62.56 62.49 63.02 63.20 62.04 61.27 61.91 62.23 61.55 60.82 60.08 59.23 58.86
45.75 41.67 47.84 48.87 50.27 49.98 47.42 49.72 42.22 43.45 34.49 32.79 39.19 40.84 41.55 46.16 47.50 49.02 49.83 52.47 54.93 56.81 57.66 58.29 59.56 60.16 60.78 61.85 61.97 62.17 62.51 62.13 62.79 63.03 63.45 62.54 59.95 60.71 62.74 62.38 60.98 60.63 59.56 57.91
47.14 44.85 44.68 47.95 45.43 44.29 45.66 44.84 46.07 46.04 42.89 36.07 34.78 39.40 47.13 48.12 49.96 49.71 51.90 52.39 55.29 56.57 57.30 58.05 58.80 60.31 60.97 61.79 62.43 63.01 63.51 63.27 63.11 63.84 63.74 62.72 62.23 61.72 62.10 60.83 60.23 60.33 58.29 54.45
47.59 46.35 41.05 43.81 48.62 50.06 48.73 46.50 46.93 40.78 38.95 42.86 41.45 40.42 51.58 50.53 51.45 52.29 51.99 53.26 54.73 56.44 57.13 58.64 59.58 60.23 60.27 60.95 62.85 64.54 64.69 64.76 63.56 63.49 63.36 62.90 62.73 61.98 59.97 59.60 58.99 57.93 54.07 52.79
47.62 43.21 37.97 41.02 46.02 48.70 45.70 47.43 47.37 47.44 46.14 41.32 36.38 39.97 51.06 51.45 50.65 51.88 53.16 53.08 53.78 54.60 55.42 57.45 59.55 60.13 60.62 61.34 61.86 63.06 64.54 64.66 63.16 64.26 63.09 62.56 61.30 59.65 58.55 56.99 55.59 55.37 54.25 53.19
49.22 44.94 41.45 37.42 42.21 46.08 43.73 45.79 47.30 46.14 39.94 40.32 41.79 43.64 47.61 49.21 49.92 50.79 52.16 52.76 53.09 54.55 54.62 55.52 58.58 60.09 61.17 61.78 62.24 62.85 63.19 64.16 63.59 63.29 61.94 59.21 57.81 56.58 54.94 53.51 51.64 50.38 49.51 47.90
49.01 42.77 44.11 44.40 45.55 46.38 45.53 45.19 45.30 43.94 44.69 41.47 43.79 43.73 47.23 49.28 50.37 51.63 53.44 53.73 53.15 52.85 53.73 54.82 56.77 59.64 61.10 61.62 62.15 62.56 61.77 61.74 61.94 61.26 58.98 56.95 56.74 56.39 55.00 53.27 52.46 50.86 49.88 48.26
48.56 42.42 43.93 41.27 44.96 45.06 43.85 45.75 45.62 45.23 45.34 45.13 45.63 44.93 49.97 50.95 51.26 51.51 51.27 51.75 52.14 52.55 53.17 55.24 56.64 59.83 60.57 60.93 61.43 60.90 59.82 59.78 60.17 57.61 56.54 56.29 55.82 55.38 54.59 53.33 51.66 50.21 47.47 45.52
45.92 44.80 40.87 36.51 43.44 42.86 37.71 44.45 45.39 45.71 46.46 46.07 42.54 47.36 50.35 49.76 50.40 50.92 51.65 52.32 52.39 52.95 55.10 56.55 57.90 60.00 60.46 60.46 59.71 58.79 58.47 58.34 56.59 55.10 54.31 53.05 51.56 49.39 48.33 47.28 46.51 45.59 44.15 44.25
45.19 43.91 42.59 35.51 38.27 31.37 43.44 48.90 48.13 46.01 46.42 47.53 47.39 48.30 49.62 50.31 51.65 51.95 53.75 53.88 53.78 54.76 55.34 56.99 58.46 58.92 58.74 58.66 57.91 57.10 56.43 54.68 53.26 51.85 50.89 49.80 48.43 46.86 46.23 45.85 44.85 44.00 43.94 43.23
47.24 45.15 40.97 35.85 34.63 40.62 43.32 46.29 45.64 44.65 44.14 48.50 47.46 48.51 49.60 50.77 52.63 52.78 54.23 55.27 55.39 55.31 55.90 56.24 57.00 57.47 56.97 55.62 55.42 54.37 52.99 51.81 50.51 49.41 48.88 48.46 47.78 46.86 46.43 45.21 44.58 44.90 44.89 44.33
45.81 46.40 41.39 40.00 33.06 30.77 42.81 47.89 50.02 49.53 39.75 49.66 49.56 49.76 50.27 50.97 45.87 49.20 52.98 54.72 54.71 54.96 54.73 54.39 54.82 54.63 53.87 53.46 53.23 51.53 50.19 49.76 48.64 48.69 48.54 48.81 48.28 47.06 45.72 45.07 44.69 43.85 43.66 43.21
38.92 39.02 37.58 37.74 36.32 41.02 47.16 48.86 50.19 39.30 41.27 51.38 52.04 51.09 52.07 49.74 51.13 53.39 53.42 53.75 54.09 53.58 52.92 53.33 52.91 51.79 51.89 52.39 51.66 49.77 48.96 47.85 48.63 48.68 48.10 47.34 46.68 45.52 45.13 44.39 43.95 43.36 41.84 41.30
37.28 36.51 36.86 39.12 36.58 34.15 50.18 48.48 43.41 48.49 52.70 53.92 53.19 54.16 55.17 54.39 52.91 52.32 52.65 52.20 51.93 51.14 51.30 51.84 50.88 50.66 51.15 51.45 50.25 48.32 46.95 47.80 47.33 46.50 45.08 44.85 44.91 43.96 43.18 40.98 40.06 39.57 39.29 37.42
36.94 40.39 39.33 42.05 42.26 49.75 50.72 49.45 52.19 53.72 54.26 54.23 54.14 54.92 54.86 53.41 51.91 51.75 50.87 50.67 50.43 50.40 49.99 50.94 50.21 49.63 50.09 50.39 49.66 46.97 46.12 46.38 45.34 44.66 42.50 40.58 40.98 41.09 40.97 39.61 38.20 37.55 36.81 33.71
44.75 47.61 42.83 42.00 45.27 48.24 50.63 51.28 52.88 53.01 52.87 54.69 55.27 55.41 55.82 52.78 52.06 50.81 50.62 50.02 49.49 49.93 49.46 50.01 49.27 48.05 47.67 48.53 48.19 46.56 46.03 45.62 43.34 40.47 39.81 39.66 38.46 38.05 37.86 37.08 36.03 34.81 31.57 30.40
44.26 46.05 45.00 44.78 46.93 48.10 48.86 49.59 51.86 53.53 54.71 54.84 54.29 54.35 53.19 53.43 52.11 51.06 50.07 49.56 49.45 49.31 49.70 49.36 47.80 46.72 46.37 46.88 45.52 45.35 44.73 43.30 41.09 39.98 38.67 36.60 35.80 35.29 34.36 30.94 31.35 29.06 27.45 27.85
46.89 45.08 42.74 43.69 48.79 48.32 49.75 51.70 53.72 52.55 51.83 53.37 53.71 53.10 53.28 53.62 52.56 51.40 49.92 49.77 49.40 49.10 48.85 47.80 47.02 46.02 44.88 43.98 42.88 42.52 42.65 41.61 39.04 36.28 34.68 33.56 32.91 32.35 33.38 30.60 28.32 29.63 27.98 27.73

GFSCGP_sfc_wetblb_051.txt.gz
Wetbulb
46.38 40.62 37.97 40.48 43.26 44.82 43.70 41.98 39.66 42.86 47.76 46.00 44.44 45.82 45.75 49.72 50.79 49.45 51.24 52.36 52.49 52.19 54.62 54.36 54.08 53.05 52.90 53.19 52.88 53.27 53.63 53.78 54.73 54.90 53.84 53.24 53.36 56.04 56.17 57.73 58.57 59.97 61.73 62.02
43.26 39.79 44.87 47.33 47.19 46.51 45.41 41.09 39.82 46.62 49.58 46.16 43.54 44.10 46.51 49.43 49.84 50.74 51.26 51.14 51.58 52.92 53.64 54.14 53.68 53.49 53.46 53.73 53.21 52.92 53.14 53.66 53.54 56.69 53.70 53.52 55.29 56.25 58.53 58.56 58.05 59.81 61.98 61.95
41.34 44.47 48.44 47.26 46.18 44.77 43.19 40.90 40.67 42.96 45.55 45.15 42.15 41.26 45.04 48.94 52.37 53.54 53.26 52.96 53.31 53.18 53.04 53.59 53.27 53.63 53.00 52.60 52.87 52.59 52.73 53.61 54.90 57.38 56.84 55.81 57.42 56.46 54.78 55.74 57.48 59.72 62.49 61.79
43.93 48.08 46.81 46.64 45.45 45.06 38.99 44.91 46.03 45.11 41.25 34.91 40.99 31.53 43.38 48.27 49.06 51.52 52.42 51.92 52.58 54.02 54.34 54.40 54.05 53.62 53.49 52.81 54.48 54.93 53.84 53.89 55.95 58.03 57.01 55.89 56.78 55.79 56.00 54.76 56.95 60.78 61.78 61.24
42.82 45.28 45.32 44.41 45.66 46.79 42.51 47.60 46.38 44.99 40.40 38.29 39.11 34.90 39.27 47.71 45.49 47.58 50.73 52.19 52.23 54.90 54.45 54.28 53.74 54.38 55.05 54.93 54.65 55.95 55.91 55.78 57.12 58.12 58.44 58.40 58.25 57.82 55.98 56.06 56.14 60.14 60.31 60.55
44.72 48.75 47.25 46.08 48.49 48.06 48.20 46.63 44.97 43.40 40.02 31.66 39.41 38.21 37.54 42.52 44.68 48.68 51.18 52.12 53.03 53.57 55.19 55.69 56.01 55.87 55.99 56.95 56.26 56.58 56.92 57.39 58.08 58.15 58.76 60.11 60.06 58.79 56.38 56.06 57.03 60.23 60.23 60.32
43.50 44.64 47.96 48.44 44.59 47.00 44.80 40.00 32.41 31.40 29.74 29.25 42.40 39.84 39.18 45.15 47.65 50.00 50.49 51.82 53.34 54.41 54.71 55.43 56.07 56.33 56.56 56.72 57.43 57.88 58.32 57.98 58.65 58.33 58.59 60.30 59.66 59.45 58.36 57.50 57.98 57.85 58.67 57.56
36.54 34.92 44.26 47.93 45.79 42.45 42.68 40.55 32.93 27.93 27.33 33.38 42.32 36.35 40.07 47.62 48.98 49.55 50.63 53.57 53.64 54.35 55.51 56.06 56.78 57.59 58.15 58.20 58.63 58.46 58.64 58.42 59.07 59.04 59.83 60.63 60.31 59.99 59.84 58.81 57.99 58.58 58.76 58.46
37.22 38.05 46.53 47.25 48.44 46.07 42.16 38.45 43.86 38.82 38.73 34.12 37.52 41.02 46.20 48.03 46.54 46.79 47.52 48.53 51.73 53.01 54.67 55.64 57.13 57.94 58.24 58.93 58.95 59.14 59.17 59.31 59.98 59.97 60.37 59.96 60.20 59.87 60.11 58.79 58.99 58.50 56.80 56.26
42.55 37.45 45.20 46.61 48.03 47.37 44.61 45.94 37.26 39.12 30.31 30.20 35.71 36.86 37.69 42.78 45.57 45.64 44.88 46.14 48.98 50.63 53.84 55.48 56.37 56.74 57.99 59.40 59.87 60.04 60.56 60.61 60.84 59.85 60.94 60.97 60.87 59.11 59.54 59.47 57.84 57.84 57.60 56.26
44.44 41.12 40.55 45.23 43.96 42.67 41.98 41.02 42.25 41.50 37.62 29.63 27.80 33.50 43.75 44.33 47.41 45.83 45.19 47.68 49.03 50.27 51.13 52.52 55.12 57.12 57.59 57.92 58.85 60.15 60.48 60.07 60.46 60.36 60.62 60.97 59.39 58.54 59.60 59.43 58.80 58.40 56.76 54.84
45.27 41.93 35.56 39.48 46.59 48.29 45.48 42.54 42.43 34.81 35.06 36.51 30.67 34.04 47.26 46.10 47.49 47.81 47.57 48.32 48.19 51.43 52.22 53.03 53.72 54.44 55.38 57.99 58.26 59.08 59.93 60.57 60.72 60.32 60.45 60.68 59.69 59.36 59.02 58.16 58.16 57.84 56.12 53.44
44.92 38.72 33.47 35.75 41.55 45.90 43.03 44.15 45.14 43.88 41.90 35.16 30.17 34.80 48.76 48.61 47.90 47.20 46.57 47.59 48.88 49.54 50.84 52.87 54.10 54.95 55.64 55.96 58.54 58.67 59.47 59.15 59.54 61.08 61.59 60.67 60.05 59.93 58.53 57.56 56.32 55.04 53.00 52.17
46.83 41.16 36.93 32.31 37.60 43.84 41.16 43.24 44.13 42.21 33.87 35.59 35.15 39.14 44.54 47.27 46.32 46.14 46.34 47.57 47.38 49.16 50.16 53.03 53.56 54.88 56.09 57.05 58.31 59.76 60.49 60.75 60.97 61.56 60.54 57.80 57.06 55.90 55.62 54.42 53.08 52.11 52.61 50.46
45.11 37.29 40.55 41.02 42.94 44.35 44.28 43.72 43.39 42.06 42.15 36.92 39.95 41.95 44.70 45.83 45.21 47.18 48.94 49.29 48.81 49.07 49.65 50.37 53.59 54.57 55.78 57.10 58.16 58.31 58.76 60.08 60.74 59.58 57.50 55.38 54.68 54.03 53.40 51.93 51.07 50.28 49.13 48.04
44.96 37.52 40.11 38.56 42.66 43.35 41.41 43.43 43.41 42.88 43.69 43.60 43.24 42.37 48.19 47.91 48.48 47.55 49.17 49.55 48.22 47.99 48.72 49.81 52.21 56.75 57.76 58.38 57.62 57.33 57.05 56.80 57.33 56.18 55.24 55.29 54.89 53.97 52.54 51.08 49.92 48.80 46.58 45.34
42.38 38.62 36.52 32.43 40.61 39.94 33.71 39.50 42.96 43.86 45.31 43.37 38.44 42.29 46.75 46.78 46.84 47.68 47.42 48.53 48.73 48.66 49.38 51.21 53.17 56.89 56.96 57.81 57.29 55.87 55.47 55.41 54.51 54.26 54.75 54.09 51.90 50.74 50.81 50.25 47.68 44.38 41.88 40.79
41.27 39.23 36.30 31.20 35.13 28.23 39.59 45.70 46.13 45.13 45.49 44.85 43.16 43.06 45.00 46.59 46.88 47.25 47.65 47.55 48.10 50.32 51.51 52.74 55.91 55.77 56.50 56.40 55.84 54.50 53.32 51.96 50.87 49.43 49.25 48.95 47.25 45.50 45.27 44.43 43.30 41.58 40.91 39.74
44.53 39.08 33.54 31.79 31.97 36.26 40.69 43.98 43.86 42.38 41.31 45.36 43.40 44.13 44.91 45.99 46.68 45.29 49.24 49.84 50.00 50.62 51.61 52.83 54.20 54.95 53.72 53.83 53.56 52.24 50.93 49.27 48.32 47.51 46.84 45.84 44.53 43.68 43.21 42.08 41.29 41.32 40.89 40.24
44.05 43.29 36.22 31.08 28.80 27.52 37.53 45.13 48.54 46.90 36.57 45.87 46.04 45.12 45.60 45.33 37.55 41.76 48.00 50.83 50.68 51.09 51.07 51.63 52.03 51.91 52.26 50.86 51.14 49.73 47.78 47.26 46.43 46.42 45.86 45.56 45.30 44.24 42.95 42.12 41.82 41.09 42.41 42.14
36.84 34.70 32.90 28.89 27.86 34.29 43.51 47.00 48.64 35.96 36.96 46.86 48.10 46.85 46.20 42.88 44.02 47.34 48.75 49.29 50.48 50.57 50.25 50.41 50.10 49.28 48.71 49.14 48.99 46.85 46.43 45.47 46.46 46.66 46.02 45.03 44.34 43.23 43.14 42.69 41.63 41.01 40.22 38.74
35.11 33.18 30.43 33.98 31.11 29.39 45.17 45.96 40.68 43.18 47.13 48.13 48.44 47.67 48.92 47.66 47.66 48.09 49.00 49.28 49.15 48.11 48.54 48.50 47.62 47.03 47.20 47.56 47.32 44.88 44.00 44.79 45.11 44.29 43.62 43.52 43.37 43.63 42.83 40.86 38.93 37.92 36.59 33.42
34.43 38.00 34.98 36.60 34.95 44.42 45.15 46.13 49.22 49.50 49.25 49.31 48.63 49.98 50.07 48.31 47.35 47.72 47.30 47.43 47.24 46.80 46.31 46.86 46.38 46.01 46.10 46.15 46.40 43.66 43.08 43.82 43.26 42.95 42.57 42.06 40.63 40.34 38.25 35.66 34.77 34.94 33.35 29.96
39.49 42.66 37.45 38.71 42.20 43.29 44.99 47.55 49.38 50.15 48.13 49.84 50.53 49.06 50.44 49.67 49.06 48.12 46.94 46.49 45.76 44.93 44.99 45.54 45.63 44.68 44.08 45.07 44.69 43.85 43.45 43.60 42.57 38.62 36.91 36.41 35.68 35.23 33.70 34.30 32.75 29.75 26.88 26.43
38.51 41.90 40.83 39.94 43.02 44.94 46.44 47.29 48.81 50.31 50.66 49.95 50.86 49.62 48.49 49.25 47.73 47.94 46.96 46.27 45.36 45.45 45.24 45.88 44.78 43.68 42.97 43.71 43.26 43.23 43.01 40.40 37.82 37.04 35.87 33.82 32.59 29.49 28.49 29.24 27.69 25.07 26.60 28.13
40.98 39.20 37.14 35.03 45.15 44.64 45.64 48.19 50.52 49.38 49.08 50.50 49.86 49.89 50.09 49.68 47.72 47.43 46.53 46.48 46.00 44.97 44.82 44.71 43.96 43.21 41.71 41.72 40.67 40.45 39.60 38.29 35.69 32.78 31.51 29.30 29.03 28.73 28.04 26.88 25.87 28.55 27.84 28.15

GFSCGP_sfc_wetblb_054.txt.gz
Wetbulb
44.98 40.96 36.72 38.76 40.17 41.50 41.32 39.62 38.32 41.74 45.86 46.54 44.06 43.22 45.26 47.95 49.39 50.88 51.54 50.35 51.01 52.12 52.96 52.17 52.87 53.39 54.38 54.50 54.34 54.25 54.34 54.96 55.58 54.85 54.03 54.07 53.52 54.20 54.94 56.15 56.89 57.40 59.26 59.55
41.36 39.42 43.24 44.36 43.91 42.97 42.05 40.03 39.83 42.51 46.86 45.15 42.28 43.03 43.92 46.25 48.33 48.98 50.57 51.29 51.47 52.37 52.04 51.97 52.02 51.93 53.33 52.96 53.59 53.98 53.51 54.30 55.10 55.36 54.57 53.71 53.27 52.83 54.96 55.80 56.35 57.11 58.52 59.77
39.27 42.84 46.02 44.34 42.88 41.85 41.97 40.52 39.54 39.94 44.53 43.10 42.91 39.94 43.74 47.80 49.81 51.52 52.52 52.90 52.71 52.02 51.66 51.96 52.08 50.78 52.71 52.16 52.22 53.23 53.22 53.21 53.89 55.13 54.06 51.23 51.59 54.46 54.29 55.23 55.49 56.49 58.14 59.49
41.74 45.88 44.37 43.42 42.38 43.17 38.76 44.77 42.53 42.57 39.34 33.82 39.46 30.94 40.14 44.89 46.01 49.91 51.34 50.63 50.98 52.23 52.66 52.73 52.30 51.09 51.68 52.40 52.71 53.22 53.60 53.05 53.20 54.28 54.72 51.39 51.70 51.78 54.57 55.11 55.83 56.18 58.16 59.69
41.02 43.38 42.72 41.84 42.96 45.26 41.83 45.65 43.43 43.43 38.72 36.11 37.09 33.45 36.67 45.08 43.70 47.29 50.18 50.92 50.98 52.52 52.76 52.09 52.42 52.21 52.57 53.23 52.40 52.76 52.69 53.32 53.46 53.46 56.25 53.75 51.75 53.77 55.84 55.04 53.68 55.61 58.31 59.91
42.93 46.56 44.57 44.22 46.31 46.24 47.24 44.29 42.62 40.79 37.77 30.87 37.29 35.34 34.34 41.51 45.54 47.87 50.01 51.71 51.89 52.60 53.08 53.51 53.61 53.43 53.16 52.74 52.33 51.96 51.60 52.79 53.56 53.27 55.47 54.99 53.23 53.94 55.25 54.66 53.51 54.65 58.10 59.17
41.46 42.17 45.29 46.54 42.77 45.05 43.82 38.39 30.67 29.47 28.90 28.65 39.56 37.18 37.85 44.78 48.34 50.02 49.84 50.74 52.05 53.46 53.32 53.53 52.70 52.65 53.18 52.05 52.02 53.15 52.13 51.50 52.61 52.96 54.49 55.48 55.18 55.15 56.56 56.73 54.79 54.57 57.58 57.33
34.95 33.40 42.36 45.76 43.49 40.85 40.86 39.53 31.34 26.83 26.77 31.36 39.77 34.41 39.20 45.71 47.31 51.56 52.11 51.98 52.82 52.41 54.34 53.71 53.48 53.56 53.64 53.77 53.25 53.50 53.85 52.66 53.16 53.51 54.80 55.74 56.12 57.10 58.73 58.98 56.68 55.85 57.48 58.17
34.67 36.13 44.91 45.79 46.25 44.53 41.28 37.77 42.01 36.16 36.52 31.44 35.06 39.68 43.87 45.18 45.12 46.52 49.52 51.31 51.10 52.02 53.12 54.52 54.78 54.19 54.31 54.60 54.78 54.34 54.69 54.76 55.01 55.37 56.03 56.43 56.93 57.54 59.10 59.24 57.45 57.54 57.27 56.89
40.13 34.83 43.19 45.07 45.69 44.86 43.22 45.12 35.91 36.71 29.09 27.04 33.86 36.56 36.39 41.43 43.18 44.05 44.55 48.56 50.53 52.42 53.22 54.18 55.48 55.77 55.93 56.05 56.32 56.37 56.44 56.05 57.02 57.53 57.55 57.52 57.68 58.99 59.46 58.31 57.92 57.37 57.21 55.79
42.29 38.36 39.09 43.61 41.05 39.94 40.45 38.79 40.67 39.88 36.16 28.92 26.94 32.82 41.63 42.36 45.22 43.77 43.31 46.53 48.29 51.44 53.06 54.12 55.63 56.55 57.48 58.06 57.60 57.17 57.39 57.88 58.21 58.82 58.61 58.40 58.56 59.12 58.40 58.82 58.43 58.09 57.99 56.61
42.84 39.38 34.64 38.15 43.89 45.21 42.02 41.17 40.76 34.25 33.38 34.20 29.78 34.00 44.43 44.47 45.92 46.57 46.56 46.60 47.93 50.42 52.71 54.27 54.66 56.29 56.93 57.55 57.87 58.21 58.36 58.45 59.12 59.39 59.66 59.20 59.70 59.18 59.22 58.43 58.21 58.81 57.31 56.09
43.20 37.32 30.37 34.86 39.74 42.68 39.95 42.31 43.10 41.74 38.50 34.25 29.80 33.60 46.02 45.16 45.95 47.29 46.08 45.11 46.44 49.26 49.21 51.07 52.08 53.53 55.02 55.87 56.66 57.96 58.87 59.15 59.88 60.37 59.63 59.34 59.03 59.03 59.30 58.97 58.68 57.15 55.73 54.48
45.23 39.38 36.88 32.30 35.25 39.84 38.51 41.24 42.99 40.98 32.21 34.79 35.07 38.11 43.14 45.58 46.14 48.00 46.40 46.81 46.39 47.16 50.51 50.45 51.20 52.42 54.24 55.41 55.89 56.65 58.72 59.79 60.21 59.68 58.89 59.13 58.17 58.76 59.80 58.94 57.05 56.31 55.25 53.19
43.94 36.63 39.47 40.34 41.83 42.16 40.97 41.26 42.16 39.50 39.31 36.01 38.79 40.04 43.48 44.56 45.10 46.16 46.71 47.35 47.12 47.18 47.21 50.40 51.56 51.82 53.58 55.10 55.65 56.70 57.49 58.48 58.80 57.92 57.28 57.44 58.70 58.48 57.98 57.73 55.35 53.27 52.89 51.40
44.11 37.01 37.67 36.55 41.07 41.69 39.34 41.04 42.50 42.07 42.32 41.79 41.53 40.82 46.28 48.17 46.51 45.34 47.09 47.42 46.67 46.84 47.53 49.74 52.64 53.21 55.59 57.03 56.78 57.12 57.38 58.05 58.44 57.90 58.26 57.01 55.79 54.75 54.38 52.80 50.94 50.05 48.31 48.66
40.47 38.46 35.28 32.84 38.61 39.44 33.38 38.47 40.12 41.13 42.70 42.43 37.84 42.87 46.58 46.03 46.35 46.06 46.13 47.16 47.29 46.94 46.66 47.31 51.79 54.60 56.66 56.69 57.00 56.13 56.71 56.89 57.93 57.33 55.77 55.09 53.88 52.49 51.27 50.57 48.89 47.00 45.75 45.68
39.18 37.74 36.52 30.01 32.77 27.87 39.06 44.70 43.33 41.90 43.73 44.41 43.62 43.51 44.74 45.32 46.10 47.50 48.26 47.06 46.51 46.64 46.92 47.00 51.09 54.50 56.17 55.84 55.16 54.64 54.74 54.76 54.95 54.36 53.31 52.95 52.13 51.16 49.59 47.42 45.32 43.32 44.03 42.10
42.55 39.22 32.86 28.23 30.25 34.51 38.77 41.63 41.20 40.26 39.43 44.50 43.32 43.84 44.57 45.41 44.50 43.41 47.23 47.20 47.48 46.91 48.24 51.49 53.53 53.88 54.23 54.45 53.10 52.26 51.28 50.18 49.78 48.91 49.47 49.40 48.04 46.94 46.41 45.28 43.65 41.24 39.50 39.03
43.31 42.16 34.99 32.64 28.30 26.79 36.15 42.82 46.05 44.85 33.74 44.11 45.04 45.56 45.11 44.13 36.57 41.22 47.28 48.87 48.86 50.14 51.77 52.77 52.38 52.12 52.05 50.47 51.19 49.36 47.63 47.42 46.48 46.88 46.15 45.81 45.73 44.92 42.73 41.81 40.56 39.27 39.39 39.07
34.95 34.93 32.83 31.84 29.06 32.02 40.86 44.11 47.00 35.31 35.80 44.44 46.66 46.83 46.31 42.29 43.53 45.59 47.62 48.79 49.22 49.90 51.03 51.09 52.25 52.15 50.37 49.97 49.11 47.02 46.25 45.33 45.39 44.96 44.21 43.52 43.09 41.80 41.26 40.82 40.82 40.60 40.25 39.42
31.90 32.75 31.82 32.71 30.96 27.64 44.04 45.24 38.87 41.60 44.31 45.76 47.54 46.30 45.52 46.27 45.57 45.93 47.81 48.11 48.28 48.68 48.78 49.47 48.72 47.66 46.98 48.05 47.56 45.21 43.93 44.67 44.85 44.13 43.19 42.60 42.37 42.56 42.01 40.70 39.40 39.00 36.91 33.11
31.35 35.00 33.89 35.54 35.08 42.91 44.68 45.19 47.35 47.57 46.04 46.19 46.26 47.69 48.22 46.38 46.15 46.68 47.01 47.42 47.66 48.14 46.86 47.39 46.72 44.97 44.66 45.59 46.18 43.30 42.20 43.60 43.29 42.84 42.10 41.59 41.47 41.02 40.08 38.24 35.81 34.42 33.27 31.05
37.16 40.85 36.64 37.68 41.15 43.23 45.57 46.26 48.88 47.71 47.03 48.41 49.03 48.47 48.75 47.34 46.74 46.67 46.17 45.48 46.05 45.99 45.96 44.90 45.62 44.33 42.67 43.36 43.82 42.97 43.10 43.55 42.76 41.12 39.67 38.70 37.02 33.28 32.79 32.72 32.75 31.16 28.67 29.02
37.59 41.34 39.79 38.60 41.21 43.44 44.59 45.14 46.34 46.90 48.50 49.12 50.02 48.38 47.32 46.94 47.78 46.30 45.72 44.89 45.79 45.64 45.10 46.29 45.14 43.45 41.83 42.58 42.31 42.71 42.47 41.83 39.18 36.55 34.36 31.01 30.21 29.99 27.75 25.97 26.54 27.28 27.67 28.64
40.79 39.19 36.99 34.63 42.31 42.56 42.60 45.14 46.92 47.01 47.96 48.83 48.95 47.38 47.71 47.48 47.46 47.40 45.56 45.94 45.72 45.05 44.66 44.36 42.92 41.95 41.20 41.51 41.20 39.95 38.92 37.55 34.96 31.86 29.66 27.93 27.54 27.66 26.00 24.89 24.89 29.12 29.20 29.13

GFSCGP_sfc_wetblb_057.txt.gz
Wetbulb
42.98 38.12 36.41 40.11 39.44 39.53 38.60 36.92 35.63 39.32 43.27 43.84 43.08 40.88 43.97 47.80 50.11 49.54 49.40 49.57 49.53 49.80 51.09 51.36 53.58 54.36 54.46 54.01 54.13 54.64 54.66 55.37 55.35 54.74 54.04 53.94 53.50 54.46 55.30 56.81 57.58 58.41 59.14 58.89
39.55 36.87 41.90 43.04 42.21 40.24 39.10 37.17 37.17 40.83 43.89 43.83 41.92 40.96 43.76 45.46 46.72 50.38 50.54 49.72 49.28 50.32 50.29 50.99 51.75 52.98 53.94 53.41 53.78 54.28 54.28 54.81 55.04 54.62 54.91 54.26 53.55 53.65 55.12 55.57 55.90 56.81 57.28 58.20
37.70 40.91 44.81 42.75 40.59 39.28 39.01 37.43 37.93 38.46 41.63 41.61 40.32 38.54 41.54 45.76 47.61 49.57 51.32 52.14 51.04 50.46 50.21 50.12 50.57 50.90 53.23 53.25 53.29 53.33 54.02 54.37 54.67 55.12 54.19 52.78 52.66 53.10 53.88 54.40 55.04 55.68 56.75 57.62
39.97 44.56 42.71 40.88 39.80 40.48 35.86 42.23 42.00 39.72 37.06 33.28 38.38 29.92 36.38 43.10 44.48 47.76 49.18 50.62 51.13 51.37 51.89 51.15 51.31 49.60 51.11 52.67 53.61 53.25 52.71 52.77 53.59 55.36 54.07 52.64 51.65 51.49 51.63 53.64 54.75 55.43 56.23 56.58
39.66 41.11 40.93 39.97 41.28 42.84 39.60 44.13 42.26 40.57 37.42 34.64 34.90 31.41 35.50 42.51 42.73 44.81 47.85 50.02 51.04 51.60 51.70 51.29 51.10 50.36 51.10 52.62 51.18 52.82 52.95 52.57 53.00 53.23 54.20 52.17 50.00 50.43 51.15 53.63 53.78 53.88 55.05 56.29
42.20 43.65 43.34 42.18 44.59 44.06 45.31 42.24 40.47 38.77 36.11 29.54 35.44 33.82 32.84 38.90 43.01 45.22 47.46 50.30 50.91 51.03 51.83 52.02 52.36 51.81 50.72 51.70 51.43 51.37 52.29 52.79 52.50 52.17 53.43 53.23 50.88 49.98 50.93 52.15 52.96 53.74 53.82 55.89
39.17 39.32 42.33 44.45 41.18 43.29 41.54 36.73 29.36 28.07 27.79 27.78 37.52 34.37 35.73 41.38 45.89 47.51 47.84 49.84 51.23 51.36 51.58 51.48 51.11 50.83 50.97 50.96 51.28 51.19 51.36 51.67 52.49 52.06 52.20 53.91 53.96 51.52 51.31 52.33 53.37 53.42 53.03 54.22
32.48 30.36 39.92 43.88 41.92 40.20 40.02 38.00 29.97 25.76 25.59 29.37 37.85 33.12 38.01 43.94 46.52 48.45 49.96 51.06 51.55 51.43 52.08 52.21 51.93 51.67 51.41 51.68 51.54 51.52 51.29 51.18 52.21 52.12 51.74 52.44 54.29 54.40 53.32 52.99 54.44 54.82 54.49 55.17
32.79 33.81 43.04 43.48 44.66 43.63 39.15 35.15 40.53 33.62 34.16 30.49 33.49 37.96 42.64 44.17 43.95 45.36 48.04 48.95 49.49 50.61 52.07 52.66 53.18 52.64 51.84 52.26 51.67 51.50 51.79 51.31 51.84 52.57 52.31 51.88 53.12 53.77 54.08 54.12 55.05 56.98 55.47 55.59
37.98 32.94 42.32 43.15 43.53 43.35 42.01 43.14 34.75 34.64 28.28 26.51 31.10 33.61 35.00 40.58 42.44 43.85 43.93 47.08 48.86 50.94 51.95 53.31 53.73 53.63 53.47 53.39 52.97 52.30 52.60 52.01 51.85 51.88 52.33 52.09 52.88 54.03 54.72 55.16 56.02 57.55 57.55 56.83
40.59 36.34 36.67 42.03 38.54 37.68 38.62 37.78 38.45 38.82 34.02 27.74 26.27 30.66 40.32 41.94 44.11 43.37 43.01 44.19 48.32 49.75 51.45 52.86 54.32 54.78 54.58 54.61 54.14 53.49 52.98 53.18 53.35 53.21 53.14 53.09 53.62 54.58 55.31 55.78 57.22 57.48 57.18 57.50
41.58 37.45 33.62 36.89 42.26 43.50 41.52 39.35 39.49 32.26 31.64 31.79 28.49 33.31 42.74 43.55 43.76 44.05 43.53 44.32 45.25 49.11 51.54 52.81 53.65 55.01 54.60 54.15 54.45 54.43 54.84 54.48 55.04 54.96 54.94 54.74 55.30 55.92 56.26 56.87 58.26 58.21 57.71 57.80
43.50 35.88 31.34 33.57 37.28 40.61 38.27 39.63 40.38 39.60 36.45 32.02 29.27 33.36 44.19 44.09 43.57 44.58 44.75 45.06 45.54 46.18 47.98 51.34 52.51 53.46 54.70 55.17 55.04 55.05 55.54 55.82 56.17 56.76 56.30 57.03 57.35 57.00 57.02 57.62 58.63 59.05 59.06 58.14
44.60 38.19 34.51 31.08 34.52 38.67 36.83 39.83 40.54 39.51 31.85 32.10 33.99 37.43 41.24 43.43 44.46 45.39 45.93 46.01 44.53 45.27 47.68 49.05 50.33 52.79 54.78 55.54 56.18 56.44 56.15 56.60 56.91 57.06 57.29 57.00 57.62 57.69 57.70 58.22 58.68 59.14 59.34 56.99
42.67 35.46 37.95 38.17 39.61 40.77 40.52 39.40 38.96 37.09 38.39 34.92 37.21 37.27 42.41 43.78 44.71 46.21 47.35 45.89 45.26 45.07 46.25 47.98 49.55 50.99 52.42 53.78 55.49 56.65 57.33 57.47 57.72 57.21 57.21 57.33 58.11 58.16 58.41 58.41 58.61 58.40 56.55 55.03
43.74 35.24 36.65 34.06 39.33 39.65 38.13 40.25 40.72 39.94 39.46 38.99 39.17 37.89 44.37 46.58 46.72 44.71 45.80 46.32 45.46 45.08 45.76 47.58 50.38 51.18 51.94 52.65 53.55 54.22 55.21 56.64 57.84 57.46 57.48 58.04 57.64 57.42 57.62 58.19 56.45 54.84 53.05 52.13
38.54 36.25 34.74 30.70 36.81 36.79 31.96 37.10 39.94 39.99 41.33 41.17 36.82 40.88 45.47 44.38 44.63 44.97 45.79 45.21 45.75 46.46 46.21 46.20 49.53 51.91 53.77 54.58 54.43 53.50 54.11 55.39 57.07 57.43 56.82 56.27 57.33 57.09 55.97 53.43 51.61 50.85 50.13 48.73
38.09 36.65 36.01 32.03 32.49 26.76 37.91 42.98 43.31 40.91 41.79 42.38 42.53 43.18 44.38 44.63 45.45 45.88 45.58 45.74 46.44 46.30 46.12 45.66 46.66 51.61 53.52 54.43 54.42 53.41 54.51 55.59 55.71 55.65 56.11 55.87 55.07 53.44 51.95 50.85 48.84 46.12 46.42 45.58
40.77 37.80 32.53 31.28 30.69 33.15 38.75 39.99 39.53 38.92 39.50 43.34 42.63 44.02 44.46 43.44 42.03 42.33 46.31 45.25 46.84 47.05 47.06 46.30 46.40 51.78 53.70 53.84 52.78 52.84 52.43 55.13 54.99 54.30 53.88 53.30 52.18 50.77 49.45 47.67 46.30 45.38 44.43 43.87
39.91 37.98 33.15 31.44 27.63 26.57 34.35 41.32 45.17 43.85 34.91 42.97 44.09 43.97 43.53 43.24 37.62 41.19 45.59 45.77 46.41 45.81 46.19 49.87 51.79 52.25 52.42 50.80 51.94 51.35 49.22 51.50 51.36 51.23 50.46 50.45 49.80 48.43 46.77 45.16 43.49 42.51 42.93 41.22
34.50 33.90 32.11 31.64 29.97 31.11 39.68 43.07 45.83 33.99 35.85 43.38 45.17 45.51 42.98 42.47 46.41 47.47 45.36 45.49 47.23 47.99 50.70 51.38 51.94 52.32 51.00 50.33 50.28 47.81 47.09 47.69 48.61 47.88 47.42 46.91 47.26 46.17 44.66 42.66 41.45 41.50 41.06 37.37
29.90 30.19 30.78 31.86 29.86 26.46 42.77 41.98 38.47 41.27 43.74 45.26 46.10 46.33 44.22 44.46 45.47 45.55 46.85 45.64 47.56 48.25 50.29 50.86 50.22 48.69 48.68 48.92 49.13 46.25 45.96 43.95 43.89 43.29 43.01 43.61 43.21 42.74 42.07 40.89 40.28 39.54 35.69 32.00
28.73 31.90 30.12 32.41 32.50 42.03 42.80 43.16 45.17 46.31 45.56 45.47 45.87 46.76 45.28 44.79 44.75 45.00 44.79 45.85 47.66 48.23 48.21 49.46 48.74 46.22 46.04 47.00 47.98 45.47 42.52 43.30 42.69 42.06 41.50 41.83 41.28 40.89 40.34 38.43 36.19 34.24 32.77 30.59
34.05 37.48 33.23 34.37 37.44 40.35 42.33 43.89 44.96 46.32 47.03 48.32 48.47 47.96 46.91 44.69 44.85 45.12 44.84 45.73 45.91 45.50 45.83 45.62 46.31 45.50 43.66 44.24 44.24 43.30 43.16 43.09 42.10 40.53 40.17 39.47 35.04 33.21 33.33 33.96 33.78 32.84 32.44 30.71
33.78 37.31 35.06 35.22 38.64 41.47 43.30 44.83 45.66 47.12 48.02 47.87 49.49 49.01 47.80 46.81 46.63 46.43 46.19 45.52 45.48 45.99 45.35 45.62 45.15 43.39 41.38 42.37 42.08 42.73 42.78 42.44 39.91 37.20 34.15 32.19 30.42 28.69 28.07 28.23 29.41 29.01 29.75 31.22
38.13 36.78 34.81 31.54 40.39 40.22 42.23 44.72 45.32 44.37 44.68 47.28 46.63 47.73 46.59 47.48 47.22 46.92 46.60 45.30 44.22 44.04 44.15 42.67 41.64 41.18 40.88 41.04 39.99 40.05 40.84 39.04 35.29 31.87 30.98 29.98 28.24 28.02 27.46 25.77 25.52 29.96 30.31 30.19

GFSCGP_sfc_wetblb_060.txt.gz
Wetbulb
41.81 37.30 35.05 38.86 38.54 37.87 36.77 34.56 33.26 36.56 39.99 39.66 39.05 39.71 43.29 44.78 48.30 46.81 48.38 50.20 49.26 48.54 50.06 52.14 53.26 54.83 54.64 55.19 55.41 55.49 54.95 55.49 55.45 55.80 55.60 55.27 54.80 54.71 56.11 56.94 58.77 59.33 59.26 59.38
37.99 36.24 40.88 42.49 40.84 39.30 37.71 34.65 34.78 38.69 41.93 40.33 38.36 39.50 41.54 44.11 45.91 48.22 48.61 48.57 48.72 48.90 50.74 51.94 51.94 53.68 53.48 53.45 54.42 54.84 54.85 55.27 55.33 56.89 57.00 55.42 54.36 54.19 55.22 55.97 56.65 58.16 58.70 58.93
37.39 39.36 43.22 41.29 38.74 37.67 36.70 34.97 35.33 36.59 39.44 39.19 38.15 37.36 39.19 44.11 45.22 49.13 50.59 50.45 49.94 49.37 49.63 50.58 50.60 51.81 52.97 52.87 53.56 54.38 54.48 54.83 55.09 55.51 54.96 52.60 52.93 54.27 53.36 54.14 54.45 55.61 56.57 57.27
38.49 42.67 40.86 39.00 38.45 39.07 34.29 40.31 39.85 38.29 35.21 30.88 36.91 28.99 35.44 38.96 43.06 46.16 47.60 50.18 50.08 49.80 50.87 50.68 50.30 50.15 52.55 53.11 53.77 54.22 54.47 54.58 54.55 54.87 54.26 52.82 53.18 53.05 52.94 53.57 54.46 55.24 56.36 55.72
37.80 39.12 39.49 38.03 39.02 40.73 38.29 41.75 39.87 38.81 34.59 32.46 33.48 30.01 34.23 41.26 40.90 43.34 45.49 48.07 50.44 50.81 50.84 50.39 50.27 50.46 51.90 53.58 53.25 53.50 53.00 54.19 54.49 53.67 53.27 51.94 49.57 51.23 51.40 53.70 54.00 54.64 55.25 55.16
39.93 42.13 41.57 41.55 42.60 42.23 44.44 40.83 38.76 37.07 34.50 28.00 34.31 32.42 31.52 35.63 41.11 43.13 44.80 47.79 49.77 50.87 51.02 51.39 51.36 50.37 50.34 51.10 52.02 52.79 51.59 52.13 53.17 53.37 53.06 52.42 51.27 50.11 49.55 49.93 51.39 52.46 53.22 53.81
37.61 38.86 40.33 42.80 39.14 41.00 40.09 35.77 28.53 27.17 27.57 27.35 35.42 32.57 36.21 40.83 42.46 44.77 45.27 46.37 49.12 51.01 50.87 50.68 50.09 49.35 49.61 49.55 50.32 50.95 51.95 51.19 51.61 51.77 52.92 53.02 51.64 50.64 50.01 49.28 49.89 50.94 51.76 51.93
32.36 28.93 38.10 41.52 39.80 37.29 37.67 37.61 29.41 25.58 25.19 28.33 35.81 32.13 37.39 42.85 44.80 45.39 46.19 47.16 48.92 49.61 51.05 50.90 51.13 50.77 50.01 50.25 50.65 50.99 51.10 51.40 51.83 51.03 50.88 52.10 53.31 52.54 51.46 50.61 50.50 51.25 52.00 52.47
31.72 32.01 40.81 41.51 42.62 42.40 37.35 33.88 39.66 31.93 31.86 29.38 31.92 36.46 41.69 43.79 43.59 42.82 44.77 46.68 47.33 48.91 50.03 51.17 51.30 51.37 50.69 50.52 50.90 50.87 51.05 51.20 51.64 51.69 51.06 50.74 51.67 53.11 53.15 51.80 50.85 52.43 52.88 53.36
37.58 32.25 41.10 42.30 42.37 41.36 40.63 41.95 33.68 32.66 27.28 25.90 29.31 31.71 33.77 39.64 41.71 42.88 42.94 45.97 46.90 48.49 49.74 51.00 51.78 51.61 51.90 51.59 51.57 51.71 51.49 51.05 51.42 51.71 51.98 51.63 51.38 52.00 53.09 53.14 52.67 52.86 53.78 54.27
38.34 35.01 36.25 40.49 36.82 36.36 37.13 35.34 36.24 36.35 32.16 27.45 26.10 29.70 39.04 40.97 42.99 42.93 42.68 43.75 46.61 47.27 49.08 51.16 52.19 52.91 52.80 52.45 51.84 51.30 51.41 51.33 50.83 51.19 51.64 52.20 51.90 51.61 52.09 52.63 53.47 53.83 54.59 56.38
40.38 36.49 31.70 35.81 40.75 41.65 38.45 37.21 38.29 31.30 29.90 31.12 29.06 32.72 41.03 42.29 43.16 43.03 43.32 43.22 42.53 46.90 48.75 50.60 52.26 52.57 52.70 52.25 51.95 51.37 51.36 51.56 52.03 51.98 51.50 51.92 52.65 52.68 52.21 52.34 53.13 53.75 55.24 56.91
43.03 34.79 28.60 31.68 36.28 38.17 35.92 37.94 38.72 37.53 34.44 30.20 29.64 31.88 43.29 43.01 43.40 43.30 42.96 43.72 44.28 44.19 46.57 48.67 50.33 52.48 52.88 52.76 52.89 52.57 52.40 51.99 52.77 53.09 52.15 51.76 51.82 52.22 52.23 52.55 53.31 54.46 55.85 57.06
44.88 39.16 32.96 29.18 33.12 37.37 34.38 37.29 38.78 37.79 30.11 30.17 31.21 35.22 40.31 42.55 43.08 44.64 44.05 44.28 44.82 44.61 44.71 46.70 48.76 51.51 53.30 53.45 53.30 53.34 53.56 53.88 53.45 53.22 53.11 52.53 52.40 52.80 53.03 53.93 54.79 55.56 56.99 56.82
41.50 34.82 37.29 38.07 38.93 38.96 37.97 37.90 37.27 35.34 35.26 32.32 34.61 35.50 40.64 42.33 43.34 44.58 45.68 45.96 45.70 45.94 44.84 45.47 47.94 50.14 52.11 53.25 53.68 53.92 54.05 54.40 54.86 54.09 53.68 53.62 54.27 54.65 55.39 55.91 56.00 56.60 57.02 57.26
41.84 33.44 35.14 34.04 38.52 38.19 35.39 37.45 37.93 37.38 37.20 36.62 37.52 36.73 42.83 44.56 43.97 43.91 44.97 45.20 44.99 45.46 45.66 45.35 47.32 48.54 50.48 52.87 53.65 54.56 54.72 54.64 54.91 54.71 54.51 55.10 55.15 55.54 55.93 56.25 56.37 56.54 56.97 57.71
36.44 34.04 31.61 29.60 35.81 34.89 29.52 34.51 37.09 38.76 39.97 38.73 35.66 39.26 43.74 42.97 43.69 44.18 45.34 45.28 45.75 46.18 46.22 45.37 46.36 49.02 50.29 51.05 53.05 53.67 54.76 54.98 55.29 54.96 55.13 55.31 55.54 55.52 55.83 56.47 56.76 56.94 56.74 54.39
36.40 34.62 33.16 29.86 31.64 25.37 35.98 40.73 40.63 38.35 40.00 40.63 40.43 41.29 43.75 44.23 45.93 45.18 45.42 44.99 44.88 45.12 46.50 46.06 46.13 46.74 49.83 50.84 50.84 50.89 51.29 52.44 54.52 55.07 55.25 55.39 55.43 55.89 56.24 55.72 54.88 52.65 51.34 51.10
41.46 35.96 31.93 27.25 27.01 30.95 34.61 38.26 37.66 36.76 37.29 41.38 40.08 41.76 43.40 44.19 41.21 41.88 44.30 44.25 45.00 44.90 45.36 45.96 45.50 46.58 48.47 51.06 52.39 52.38 51.99 52.64 53.05 53.53 53.72 53.99 55.89 55.71 52.43 51.48 48.12 47.04 47.20 47.06
38.10 36.98 31.45 31.55 25.20 22.76 31.76 40.57 43.54 42.92 32.90 42.12 42.66 42.08 42.02 42.49 35.97 40.30 47.23 45.92 45.48 45.24 44.23 44.38 45.46 46.81 50.07 51.06 52.43 52.59 53.62 52.53 52.85 52.77 53.60 53.86 52.96 50.74 49.15 47.18 46.44 45.52 45.20 42.09
32.79 32.62 31.14 30.24 28.72 29.83 37.53 41.43 44.02 32.01 31.67 41.85 43.09 43.70 43.21 39.73 40.80 43.93 44.90 45.59 44.62 46.92 48.10 49.14 50.02 50.22 51.01 51.29 52.32 50.56 51.32 53.06 50.79 50.03 49.62 49.40 49.31 48.10 46.48 44.36 43.48 42.17 39.95 36.61
30.99 30.38 26.83 30.68 28.11 23.66 40.07 40.29 37.91 40.16 42.28 42.97 43.71 44.13 44.60 45.00 45.45 44.90 45.03 44.98 44.89 47.00 49.18 49.78 49.96 48.99 48.48 49.51 50.45 46.62 46.52 46.27 47.22 46.63 45.62 45.18 44.73 43.47 42.47 41.23 39.85 37.99 35.57 32.62
26.87 31.10 28.84 30.75 30.48 38.14 39.93 40.95 43.51 44.31 43.45 44.16 44.39 45.38 46.19 45.13 43.54 44.26 44.99 44.59 44.95 46.60 48.05 48.11 48.26 46.72 46.93 47.90 48.26 45.80 41.84 42.96 43.69 43.57 42.47 41.52 41.31 41.40 41.01 38.86 36.74 34.99 34.21 32.07
32.23 36.04 31.81 32.09 34.29 37.42 38.92 40.63 42.78 43.51 43.98 45.62 46.88 46.66 46.04 45.80 44.72 43.77 44.29 44.13 44.15 44.60 45.91 46.67 46.68 45.28 43.23 44.29 44.54 43.06 43.10 43.68 42.73 41.25 39.60 38.29 36.61 35.48 35.78 35.78 35.57 33.69 32.59 30.94
31.77 34.87 33.19 32.55 36.95 39.41 40.13 41.51 42.58 41.73 44.53 44.86 46.12 46.84 46.55 45.57 45.52 45.27 45.47 44.45 44.17 43.78 44.64 45.22 44.26 42.18 41.83 42.81 43.18 44.15 43.25 42.16 39.35 36.92 35.17 33.33 32.56 31.45 29.77 29.63 30.57 31.38 31.93 32.94
36.70 34.63 31.51 29.59 38.26 38.34 38.76 41.12 39.96 40.16 41.18 40.37 39.84 43.02 39.93 38.15 39.72 43.03 44.47 43.75 43.76 42.69 42.53 40.24 39.05 37.91 37.01 37.13 36.83 38.99 40.04 38.44 35.25 32.38 31.04 30.11 29.55 29.17 29.39 28.62 27.34 30.76 30.83 30.04

GFSCGP_sfc_wetblb_063.txt.gz
Wetbulb
45.17 42.05 38.38 40.58 42.82 41.98 40.76 39.20 38.44 41.11 43.50 42.77 43.19 43.77 46.14 47.84 51.64 52.21 53.37 53.53 52.12 51.31 53.42 53.78 54.49 55.52 56.22 56.87 56.61 56.76 56.25 57.67 58.19 57.25 56.79 56.55 57.36 59.65 60.36 60.48 59.35 60.47 59.92 60.24
41.12 39.10 43.90 43.16 42.89 42.03 41.03 39.66 39.56 42.10 43.51 43.27 44.28 43.96 47.57 47.67 49.08 51.76 52.69 53.04 52.57 52.36 51.90 53.33 53.38 55.19 54.88 55.81 56.28 56.38 55.95 56.76 57.59 58.07 57.99 57.48 58.66 58.54 59.41 59.97 59.75 60.29 59.71 60.56
39.88 42.06 44.72 42.63 40.60 40.11 40.26 39.46 39.20 39.38 41.95 43.78 42.88 42.44 44.40 47.57 48.81 50.49 52.21 53.34 53.48 52.87 51.05 51.79 52.04 53.17 54.77 54.44 55.62 56.12 55.83 55.78 56.28 57.49 56.09 55.46 55.22 55.88 56.92 57.98 59.23 60.10 60.75 61.23
40.43 44.14 41.88 41.58 39.92 41.51 37.34 42.04 41.64 39.86 38.87 36.96 42.78 35.58 42.19 45.58 46.03 48.29 50.59 53.04 53.89 53.60 53.70 52.91 52.48 52.64 53.60 55.52 56.92 56.85 56.11 56.11 56.02 56.80 55.98 55.86 55.88 54.43 56.91 57.14 59.40 58.60 60.25 60.75
39.27 40.51 40.68 39.35 40.61 42.65 40.39 43.64 41.84 40.96 39.30 38.33 38.94 37.26 40.84 43.22 44.95 47.74 50.09 51.70 54.08 54.50 53.98 53.18 52.97 53.14 54.15 54.98 56.12 56.59 55.97 56.71 55.80 56.08 55.92 54.20 55.23 56.57 55.12 55.24 57.46 58.04 58.30 59.01
41.84 45.00 44.17 43.31 43.40 43.67 44.77 42.67 41.79 40.68 39.28 33.09 38.84 38.19 39.78 41.90 45.09 47.18 49.42 50.92 52.72 54.42 54.34 54.41 54.48 53.94 53.26 54.59 55.86 56.36 55.64 56.49 55.84 55.30 56.04 55.00 54.41 54.15 53.91 53.55 54.46 55.77 57.96 57.97
39.91 40.69 43.67 44.68 41.38 43.15 43.51 40.82 33.64 32.11 32.22 32.38 38.85 36.43 40.96 45.50 47.36 47.91 49.33 50.85 52.23 54.32 54.42 54.01 52.69 52.21 52.29 52.81 55.05 55.49 55.28 55.30 55.96 55.29 55.36 55.11 56.13 55.06 55.52 54.04 55.10 56.27 57.27 57.52
34.26 31.83 40.73 43.88 42.42 40.32 40.57 40.36 34.92 28.53 29.71 33.77 37.99 35.51 41.39 47.91 49.25 49.51 49.57 50.22 51.49 53.39 54.71 54.45 54.10 53.26 52.65 52.38 54.22 54.61 54.28 54.39 55.54 55.51 55.86 56.33 56.31 56.11 55.75 55.57 55.83 56.62 57.73 58.69
33.88 34.49 41.72 42.65 44.01 44.37 39.93 37.06 43.03 35.87 35.84 34.40 37.31 40.46 44.87 47.70 47.75 47.98 48.80 50.51 51.15 52.98 54.30 54.65 55.02 54.59 53.96 53.51 53.40 53.88 54.01 54.21 55.09 55.23 56.12 56.05 56.51 56.48 56.41 56.84 57.24 56.83 57.00 57.46
39.40 34.05 41.49 42.80 44.47 43.81 43.16 44.33 36.65 36.77 30.16 28.59 34.24 35.81 38.45 43.98 45.87 47.73 48.71 49.18 51.53 52.79 53.49 54.69 55.04 55.04 54.79 54.46 54.32 54.36 54.92 54.58 54.97 55.30 55.83 55.48 55.80 56.88 57.20 57.61 56.93 56.95 57.66 57.24
41.23 38.83 37.82 41.93 39.72 38.69 39.92 39.24 39.97 40.31 36.92 32.47 30.83 35.36 44.54 46.15 47.51 47.38 49.10 49.52 49.38 52.47 53.74 54.29 55.24 55.78 55.78 55.31 54.44 54.27 54.48 54.57 55.30 55.69 55.67 55.71 55.67 55.94 56.57 56.84 57.29 57.75 57.92 57.82
42.12 38.57 33.17 36.87 42.12 43.96 42.75 40.99 41.40 35.89 33.34 35.38 34.52 36.74 45.07 47.47 47.56 47.50 48.74 49.25 49.85 48.97 52.80 54.67 55.42 55.69 55.39 55.20 54.73 54.37 54.42 54.61 55.47 55.69 55.84 55.81 56.03 55.72 55.28 55.05 56.11 57.44 57.63 57.95
43.63 36.78 31.50 33.76 39.02 41.15 39.48 41.23 41.38 40.06 37.95 35.85 33.51 36.38 45.51 46.41 47.68 48.46 47.84 49.82 49.81 50.12 50.11 52.69 54.75 55.15 55.36 55.34 55.09 54.67 54.63 55.09 55.40 55.48 55.38 55.63 55.85 55.96 55.17 55.25 55.73 56.82 56.70 57.26
45.22 40.01 34.74 30.86 34.82 39.18 36.53 38.72 40.70 40.68 35.01 35.70 36.36 38.99 43.46 45.35 47.61 49.63 49.79 50.15 50.23 50.40 50.42 51.27 53.53 55.27 55.99 56.05 55.66 55.37 55.61 55.85 55.55 55.24 54.67 54.82 54.92 55.41 55.87 56.38 56.32 56.42 56.74 56.65
43.07 35.40 38.27 38.64 39.15 39.15 38.36 38.16 39.56 37.68 39.12 36.08 38.84 38.91 43.02 44.86 46.84 49.25 50.22 48.99 48.83 49.77 48.97 49.62 51.49 53.98 55.66 56.07 56.07 56.29 56.11 56.18 56.19 55.33 55.24 55.27 55.87 55.99 55.99 55.96 56.26 56.32 56.72 56.96
38.78 36.04 37.29 35.08 38.82 38.68 36.95 39.06 38.98 39.14 39.44 39.33 40.14 40.25 45.87 47.35 46.72 46.66 48.16 48.95 48.95 49.68 50.33 50.94 50.20 52.14 53.69 55.36 56.24 56.41 56.48 56.90 56.70 55.75 55.38 56.18 56.36 56.08 55.98 56.27 56.15 56.63 56.82 57.36
35.01 36.13 34.14 30.96 35.49 35.98 33.30 36.68 38.08 39.72 40.94 40.55 37.04 42.63 46.71 46.18 46.33 46.79 48.63 49.71 48.88 49.77 50.34 50.69 50.17 50.53 53.25 55.25 56.04 56.72 57.05 57.23 56.88 56.71 56.54 56.57 56.49 56.50 56.70 56.77 56.98 57.26 57.60 58.17
33.87 35.79 34.20 31.36 32.36 24.87 37.60 41.69 40.96 40.08 41.03 42.28 42.01 42.87 44.70 45.71 47.65 49.00 50.06 49.70 49.83 49.38 49.71 50.47 50.99 51.35 52.51 54.36 55.55 56.97 57.57 57.15 56.62 56.51 56.66 57.08 57.14 56.80 57.09 57.48 57.65 58.29 58.22 57.30
37.19 34.48 33.05 29.64 29.56 32.64 36.45 39.80 40.33 39.43 39.16 42.63 42.28 43.93 45.41 46.60 45.72 46.74 48.39 48.41 48.50 49.02 49.80 50.02 51.11 51.19 51.84 52.75 54.31 54.71 54.95 56.35 56.74 56.63 56.65 56.90 57.22 57.10 57.20 57.26 57.86 53.83 52.39 49.97
36.45 37.40 35.30 31.86 28.04 25.13 35.36 41.67 44.41 44.02 34.71 43.54 44.20 43.39 43.95 45.49 41.69 44.69 48.95 48.89 49.28 50.00 49.73 50.27 50.56 49.77 49.89 51.15 54.46 53.79 53.67 54.27 55.10 56.32 57.27 57.69 57.49 57.23 55.06 51.22 48.76 46.88 47.22 43.91
32.26 33.53 30.92 31.52 30.00 33.15 39.32 42.62 44.54 33.22 35.05 44.66 44.92 45.37 45.08 43.18 45.58 48.27 48.65 49.07 49.35 49.06 49.85 52.49 52.96 52.04 52.71 53.42 54.66 54.33 54.64 54.09 54.65 54.41 54.52 54.32 54.62 52.71 50.55 46.88 45.47 43.73 40.56 37.66
32.04 30.92 31.13 32.70 30.14 26.35 41.14 42.44 37.62 41.82 44.94 45.10 45.98 46.18 45.90 47.22 47.26 47.72 48.00 48.56 48.29 48.29 49.63 51.81 52.63 50.96 50.95 53.04 54.06 52.58 52.05 50.48 51.25 50.54 49.22 48.18 47.08 46.06 45.56 44.05 42.02 38.94 36.75 34.12
30.34 35.65 34.24 34.81 34.76 40.20 42.83 42.41 43.54 44.41 43.51 44.54 44.84 46.31 46.58 45.81 46.57 47.35 47.73 48.03 47.70 47.89 48.81 49.81 49.95 49.33 49.05 50.41 51.48 49.38 46.06 47.91 46.97 45.92 43.56 42.82 42.96 43.23 41.75 38.63 36.77 35.04 34.26 32.78
35.69 37.96 35.68 35.42 37.66 39.79 41.70 43.63 44.05 43.42 43.62 43.84 42.03 43.32 46.03 45.05 46.79 47.35 47.88 47.62 46.97 47.19 47.19 47.98 46.85 44.90 44.46 45.80 46.26 46.63 45.80 45.86 44.62 42.27 41.54 40.34 38.32 37.01 36.97 36.49 35.94 34.41 32.90 31.65
35.59 37.33 35.80 35.51 38.67 41.29 42.01 41.68 40.84 41.45 42.05 40.77 40.27 38.65 37.70 38.42 40.46 43.36 45.88 44.23 44.87 44.51 43.09 42.90 42.44 40.27 38.70 40.17 41.81 44.41 45.61 44.08 40.10 38.46 36.62 34.73 33.70 32.32 30.84 30.79 32.42 32.32 32.67 33.85
38.71 36.82 35.63 34.60 37.13 36.72 39.00 42.13 39.39 38.91 38.37 37.48 36.21 35.13 34.66 34.19 34.59 39.06 36.28 35.82 35.61 35.90 36.52 36.76 36.61 36.78 35.27 34.00 33.43 36.11 39.06 40.00 36.69 34.57 34.51 33.76 32.87 31.43 30.24 29.04 28.09 30.48 30.31 29.92

GFSCGP_sfc_wetblb_066.txt.gz
Wetbulb
49.19 45.37 42.41 45.37 46.80 46.30 45.26 44.15 43.64 45.41 46.94 45.08 45.71 47.18 49.93 52.23 53.54 55.34 56.46 57.60 58.13 57.87 59.34 58.35 57.72 56.78 57.72 58.00 57.71 58.82 57.54 57.62 59.67 59.36 58.31 58.45 58.67 60.10 59.62 59.52 60.28 62.39 61.44 61.94
46.51 42.48 46.08 48.18 47.33 45.51 44.34 43.22 43.50 45.53 46.95 46.38 45.53 46.77 50.41 51.74 52.35 54.42 56.44 57.36 58.04 57.97 58.27 57.14 57.15 57.05 57.32 57.64 58.44 57.81 58.24 59.45 58.96 59.37 58.90 60.16 60.49 59.97 60.03 59.47 59.97 61.18 62.23 60.57
43.16 43.78 47.45 46.80 44.69 42.76 43.51 42.64 43.46 43.13 45.32 47.14 46.27 45.33 48.04 50.77 52.79 54.31 55.84 57.38 58.55 58.11 57.88 56.74 56.39 56.97 56.73 56.95 57.62 58.01 57.87 58.25 60.02 59.58 59.71 57.86 58.06 58.27 59.17 59.54 59.38 60.29 61.04 59.40
43.13 45.41 44.49 45.23 43.99 44.42 40.82 45.84 44.73 43.99 42.36 38.87 46.55 39.15 46.19 48.69 49.53 51.67 53.88 56.31 57.22 58.25 58.62 58.45 57.44 56.97 58.16 56.74 58.07 59.07 58.09 57.75 58.45 58.99 57.69 57.75 55.25 54.34 60.13 60.12 59.82 59.15 61.33 59.90
42.01 41.85 41.65 42.28 43.93 46.16 43.03 46.56 45.02 44.70 42.98 41.85 42.54 41.29 44.31 47.69 46.87 49.17 51.84 54.98 57.54 58.87 59.23 58.65 58.14 58.04 58.46 59.17 57.81 59.50 58.98 57.67 57.71 57.72 57.22 56.48 55.43 56.09 58.66 59.04 59.99 58.41 59.91 61.12
42.91 47.42 44.85 44.32 46.21 46.92 46.72 44.43 44.30 44.63 43.10 36.82 41.71 42.21 42.74 46.07 46.98 48.94 51.41 53.60 56.40 58.81 59.44 59.93 59.69 59.25 58.68 58.91 59.45 59.00 59.43 58.44 57.64 57.20 57.83 56.59 58.04 58.08 58.05 57.23 58.25 57.49 58.00 59.93
39.17 42.57 46.29 46.80 43.52 46.49 45.36 42.48 36.77 35.34 35.82 34.61 43.85 41.76 44.16 48.21 49.60 51.25 51.83 53.38 56.07 58.73 59.41 59.65 59.10 58.32 58.17 57.97 58.54 57.81 58.51 58.22 58.54 56.84 57.46 57.30 57.47 56.92 55.88 56.85 56.66 57.20 57.33 57.49
32.65 33.00 43.04 46.33 44.73 42.63 42.76 42.69 38.71 31.44 33.91 37.68 43.54 38.54 44.47 49.82 51.51 52.79 53.64 54.18 55.04 57.52 59.39 59.67 59.77 59.45 58.30 57.96 58.80 58.84 58.84 58.67 58.64 58.80 58.58 59.10 57.93 57.32 58.55 57.36 57.42 56.50 57.65 59.08
35.30 35.45 44.69 45.85 46.72 46.08 42.97 40.48 46.14 39.91 41.02 39.06 41.67 43.90 47.91 49.90 50.36 51.17 52.53 53.54 55.23 56.63 58.65 59.46 60.17 60.18 59.65 58.08 58.65 59.03 58.96 59.26 59.54 59.38 59.23 58.51 59.24 59.10 59.63 60.16 59.75 58.92 58.61 59.07
40.95 35.88 42.90 44.15 46.62 47.67 45.94 47.36 39.35 40.64 33.14 32.22 38.75 40.57 41.30 46.17 48.04 49.57 52.00 53.49 54.95 57.01 58.29 59.37 60.11 60.21 60.16 59.43 59.13 59.65 59.60 59.12 59.83 60.02 60.30 60.06 60.18 60.16 60.34 60.68 60.45 60.70 61.24 61.13
42.80 41.08 40.27 43.61 42.00 42.30 43.15 42.16 43.43 43.80 41.39 35.93 34.35 40.04 47.52 48.14 49.56 49.75 52.02 53.56 54.18 56.54 58.31 59.07 60.05 60.88 60.87 60.56 59.27 58.83 58.93 58.96 59.23 59.77 60.03 59.90 60.48 61.17 61.22 60.81 60.81 61.12 61.12 61.08
42.92 41.39 37.66 39.96 45.12 46.89 46.09 43.93 43.83 38.63 37.55 40.46 40.23 40.68 48.64 49.78 51.46 51.40 52.10 53.08 54.67 54.21 57.03 59.46 60.19 60.37 60.49 60.36 59.67 58.86 58.67 58.70 59.28 59.78 59.91 59.93 60.21 60.08 60.00 60.23 60.96 61.61 61.11 61.37
44.04 39.31 34.42 36.07 41.35 44.23 42.88 44.20 44.20 43.90 43.15 38.97 36.72 40.13 48.99 49.05 50.77 52.06 52.39 53.39 54.46 54.87 54.87 57.29 59.38 59.93 60.05 60.45 60.08 59.42 59.07 58.80 59.27 59.58 59.45 59.62 59.57 59.70 59.73 59.52 59.90 60.39 60.21 60.98
44.91 41.56 37.40 33.36 36.58 40.96 39.51 41.91 43.90 42.77 38.16 38.74 39.64 41.80 45.43 47.01 48.51 50.31 52.09 53.86 54.92 55.39 55.19 56.32 57.83 59.20 60.30 60.49 60.65 60.13 59.81 59.86 59.45 59.09 59.04 59.00 59.51 59.73 60.05 59.95 59.86 60.06 60.21 59.56
42.17 36.79 39.70 40.63 40.96 41.20 40.53 40.55 42.23 40.94 42.00 39.00 41.52 42.20 45.37 47.49 48.70 50.49 52.11 52.87 53.21 53.45 54.23 55.18 55.62 57.96 60.01 60.41 60.73 60.64 60.70 60.53 60.25 59.30 58.71 59.35 59.91 59.81 59.87 59.56 59.51 60.02 60.56 59.53
40.90 35.74 37.67 35.88 39.89 40.60 39.14 41.90 42.46 43.06 43.18 42.51 43.17 43.01 48.96 50.01 50.82 50.60 50.32 52.06 52.48 53.55 54.39 55.12 55.79 56.29 57.41 59.53 60.59 60.38 60.54 60.62 60.71 59.60 59.35 59.60 59.43 59.26 59.43 59.57 59.93 59.70 59.77 59.28
35.96 35.12 34.92 31.38 37.76 36.91 34.46 40.32 41.46 42.14 43.85 43.71 41.05 44.88 48.56 48.35 49.15 50.37 51.10 50.88 51.80 53.07 53.32 54.54 55.41 56.40 57.01 58.33 60.01 60.70 61.11 61.44 60.32 59.63 59.94 59.74 59.81 59.16 59.14 59.13 58.89 58.66 59.12 59.40
35.24 36.92 35.95 32.81 34.53 25.16 39.82 44.72 44.27 43.15 43.96 44.96 44.73 46.28 48.16 49.10 50.63 50.97 51.89 51.08 50.74 52.49 53.06 53.62 54.95 55.82 56.28 56.84 58.46 60.57 61.29 61.35 60.77 60.14 59.60 59.73 59.58 59.39 59.73 59.44 58.84 59.15 59.88 59.14
39.85 36.96 35.36 30.37 30.73 36.13 38.85 41.95 41.84 40.96 41.06 44.84 44.86 46.83 48.28 49.76 51.29 50.49 51.73 52.23 52.35 53.50 54.58 54.97 55.35 55.37 56.60 55.58 55.47 56.66 58.90 60.58 60.44 60.00 60.02 60.26 60.25 59.34 59.34 58.97 59.56 60.09 59.92 59.62
39.02 39.34 36.28 33.75 28.53 26.16 38.01 43.80 46.55 46.07 36.94 44.65 46.06 46.16 46.35 48.27 44.38 48.19 51.86 52.32 52.73 53.55 54.27 54.47 55.08 56.64 57.02 57.40 56.60 55.13 56.15 58.09 58.75 59.64 60.08 60.74 60.86 60.29 59.79 60.14 59.67 59.49 59.37 54.88
32.00 33.90 31.16 32.37 31.51 35.11 41.99 44.30 46.29 34.52 37.32 45.35 46.10 46.44 46.48 44.80 47.77 51.18 52.15 52.03 53.28 53.43 54.67 55.32 56.35 56.19 55.68 55.85 57.19 55.86 55.80 55.81 57.67 59.08 59.86 60.07 60.20 60.09 60.39 59.36 55.23 49.48 43.88 41.44
32.91 31.76 31.40 32.98 29.89 28.84 44.68 43.78 38.51 43.24 46.34 47.06 47.59 48.29 47.93 49.03 50.18 50.22 50.74 51.42 52.52 52.76 53.69 54.36 54.28 53.85 53.60 54.48 56.68 55.92 55.44 55.12 56.57 57.31 57.07 56.44 55.51 50.93 50.76 47.19 44.02 42.48 40.17 36.04
33.66 38.00 36.60 37.02 36.77 44.79 46.33 44.90 47.24 46.84 45.69 46.79 46.46 46.67 46.55 47.76 49.11 49.68 50.21 51.69 52.08 52.19 52.52 52.97 51.68 50.79 49.28 48.32 51.16 52.02 48.46 48.94 47.23 46.54 45.53 44.34 43.03 42.51 42.80 41.51 39.17 37.67 36.61 34.82
39.41 41.47 38.72 37.90 41.14 42.96 44.80 46.46 46.39 46.58 45.74 45.39 45.27 44.85 44.23 42.92 44.99 45.37 48.46 49.39 49.53 49.78 48.27 49.12 49.63 47.74 45.26 42.79 42.02 43.33 46.03 45.93 44.29 42.14 40.64 40.31 38.65 37.86 38.14 37.81 36.65 35.50 34.08 32.83
40.03 40.62 37.74 38.28 41.64 43.61 44.46 45.24 44.11 44.54 45.38 44.00 43.41 42.38 40.55 40.20 41.44 42.73 43.88 42.54 42.74 42.48 42.17 43.14 44.21 43.52 41.65 41.20 38.13 38.03 40.01 41.96 39.53 38.49 36.70 34.99 34.16 32.72 31.09 30.91 32.92 32.86 33.98 34.18
42.89 39.67 38.10 37.13 39.97 38.78 40.85 42.78 41.91 41.58 41.97 41.82 39.71 38.67 39.30 38.04 38.04 38.79 38.30 38.39 37.93 37.80 38.07 35.73 34.73 33.72 35.83 36.29 35.32 34.19 35.96 37.22 36.55 34.28 34.40 33.45 32.80 31.79 30.41 29.15 28.29 30.91 30.70 30.33

GFSCGP_sfc_wetblb_069.txt.gz
Wetbulb
46.17 44.04 42.72 45.01 46.49 47.21 46.97 46.27 45.57 48.40 50.39 48.23 47.89 47.85 50.27 52.42 53.73 54.34 56.19 57.24 59.19 59.91 61.36 61.43 60.58 60.61 60.08 59.23 59.44 59.02 57.88 58.42 59.07 59.43 59.39 57.98 57.69 58.54 59.08 59.23 60.84 61.84 62.92 62.68
42.26 41.00 45.37 47.30 47.81 47.02 46.47 44.88 45.27 48.03 49.11 47.41 47.06 46.43 49.19 51.36 52.56 53.83 55.37 56.71 58.24 60.14 60.15 60.28 60.02 59.45 58.42 58.67 58.90 59.27 58.64 58.80 59.03 60.49 60.23 59.69 58.26 58.89 58.07 59.24 59.96 62.53 63.20 62.43
39.28 43.65 46.45 46.13 46.01 45.60 46.14 45.02 45.39 45.22 47.96 48.74 46.97 45.35 47.71 50.87 52.65 53.31 54.83 55.94 57.88 59.69 59.52 60.00 59.54 59.37 58.89 58.43 59.39 59.09 59.16 59.20 59.60 60.34 60.14 59.45 59.20 58.95 57.44 57.89 58.53 60.58 62.27 62.21
43.07 46.24 45.18 44.60 44.41 46.81 43.07 47.67 46.74 45.71 44.72 41.20 47.98 39.72 47.10 49.53 50.70 52.15 53.73 55.42 56.51 59.05 60.59 60.62 59.87 59.28 59.56 58.50 59.19 59.84 59.67 59.75 59.52 60.50 60.02 58.57 58.70 57.22 57.30 57.28 58.74 58.92 61.84 61.24
39.84 43.65 42.62 42.68 44.73 47.46 45.24 48.39 46.81 46.10 44.52 44.20 43.95 41.74 45.23 49.36 47.78 50.00 51.84 54.17 57.09 58.75 60.62 60.53 60.21 60.07 60.64 59.75 58.45 59.43 59.18 59.22 60.14 60.43 60.44 58.49 56.70 59.77 58.38 57.60 57.88 58.79 59.78 61.25
39.76 45.95 45.00 44.45 45.80 47.38 48.64 46.85 46.52 46.10 44.62 38.28 42.94 42.89 43.64 47.13 48.59 49.40 51.59 53.37 56.58 58.46 60.35 61.14 61.33 61.16 60.03 61.33 60.11 59.77 58.66 58.57 59.43 60.18 59.92 58.70 58.19 58.63 56.67 58.06 57.87 57.73 58.92 61.32
38.85 40.23 45.32 46.99 42.50 46.41 45.70 43.53 37.62 36.24 36.60 35.67 45.29 43.07 45.08 48.97 50.43 50.91 51.76 53.47 56.37 58.46 60.22 60.77 60.22 60.26 59.64 60.16 60.62 60.05 59.32 57.84 58.32 58.46 59.37 60.49 59.21 56.78 56.70 58.77 59.26 57.91 57.93 59.09
33.51 31.68 41.90 46.08 44.66 41.99 44.33 43.68 39.16 32.75 34.35 38.82 45.50 40.35 45.44 51.11 52.18 53.13 53.73 54.72 55.50 57.71 60.29 60.89 60.67 60.92 60.03 59.82 60.55 60.80 59.80 58.65 58.62 58.14 58.30 60.07 60.04 59.58 58.88 59.91 60.85 59.45 58.72 57.73
34.52 33.27 43.34 45.25 46.52 45.18 43.10 40.85 46.34 41.12 42.66 40.55 42.95 45.86 49.06 51.10 50.55 51.71 52.30 54.00 55.52 57.31 59.66 60.74 61.36 61.33 60.95 60.24 60.20 60.59 60.17 60.55 59.82 58.81 58.79 59.26 60.84 59.91 60.28 60.30 60.83 61.05 60.96 58.54
38.78 33.73 42.19 43.70 46.45 46.45 44.82 47.74 39.60 41.32 33.34 32.78 40.31 43.09 43.62 46.76 48.64 50.50 51.90 53.52 55.51 57.51 59.17 60.54 61.39 61.53 61.69 61.13 60.74 61.28 61.04 60.54 60.83 60.35 59.95 59.19 60.09 60.74 60.93 61.14 60.89 60.63 60.89 60.66
41.48 38.62 38.89 43.70 41.56 41.03 41.22 41.99 43.71 43.80 42.04 35.84 35.39 41.28 49.73 49.06 50.20 50.41 52.55 53.67 55.19 57.55 58.92 60.20 61.24 62.35 62.34 62.05 61.11 60.79 60.84 60.99 61.04 61.19 61.20 60.49 60.93 60.84 61.40 61.83 62.26 61.99 62.39 61.98
41.90 39.20 35.22 39.95 46.43 46.92 45.21 44.22 44.57 39.50 38.14 41.95 41.33 41.41 50.39 51.31 51.91 52.38 52.32 53.63 55.06 55.63 59.31 60.22 61.44 61.83 62.16 61.96 61.47 60.66 60.88 60.69 61.20 61.88 61.34 61.95 62.19 62.01 62.00 61.75 62.50 62.97 62.39 63.02
39.23 38.01 31.83 34.73 41.84 45.52 42.87 45.03 45.72 45.26 44.05 38.38 37.48 40.94 51.20 50.92 50.36 52.18 52.71 53.72 54.71 55.62 56.01 58.61 60.63 61.05 61.58 62.05 62.01 61.17 60.95 60.68 60.98 61.34 61.51 61.88 62.23 62.36 62.50 62.70 62.98 63.13 62.73 62.69
41.70 39.40 36.23 33.83 37.81 42.37 40.76 43.34 45.21 44.21 39.77 39.99 40.97 43.39 47.47 48.66 48.82 50.16 52.27 53.66 54.97 55.57 55.89 56.78 58.79 60.59 61.72 62.07 62.37 62.04 61.57 61.54 61.10 60.69 60.51 61.19 62.04 62.22 62.55 62.87 62.94 62.79 62.88 62.38
40.53 35.77 39.32 40.46 42.00 42.85 42.05 42.05 43.33 42.34 43.05 39.58 42.15 42.56 45.82 47.98 48.68 49.93 51.48 52.78 53.38 54.07 54.55 55.70 56.68 58.89 60.82 61.67 62.17 62.38 62.49 62.11 61.78 60.66 60.25 61.00 62.63 62.66 62.08 62.44 62.57 62.37 62.46 62.28
39.07 34.74 37.06 37.50 41.43 41.54 40.19 42.18 42.16 42.81 43.39 43.43 43.65 42.83 48.71 49.88 51.04 50.38 50.97 51.96 52.43 53.50 54.80 55.42 56.43 57.22 57.89 60.24 61.61 62.21 62.61 62.94 62.46 61.84 61.39 61.62 62.02 61.93 62.08 62.39 62.44 62.26 62.01 61.89
35.42 34.67 33.96 33.29 37.72 38.07 34.41 40.43 41.77 42.55 44.60 44.80 41.12 45.13 48.72 48.51 48.83 50.69 51.64 52.42 51.80 52.98 54.12 55.00 55.70 56.35 57.62 58.78 59.94 61.64 62.53 63.01 62.95 62.25 61.71 61.98 62.05 61.60 61.88 61.87 61.46 61.32 61.47 61.85
35.86 34.88 35.28 31.73 35.22 26.46 40.33 46.32 45.35 43.56 44.28 46.15 46.43 46.84 48.28 48.64 50.38 52.47 53.00 51.89 51.97 52.53 53.75 55.65 56.55 56.79 57.34 58.72 58.56 59.06 61.27 62.63 62.29 61.87 61.84 62.17 62.18 61.76 61.83 61.49 61.15 61.36 61.29 60.82
40.09 36.75 33.56 29.11 30.45 34.50 38.76 42.28 42.84 42.15 41.26 46.09 45.86 47.25 48.16 49.04 50.83 51.97 53.68 53.24 53.33 53.78 53.98 54.81 57.13 57.73 58.50 59.22 59.74 58.01 57.65 59.64 61.47 61.43 61.81 61.91 62.58 61.92 61.56 61.02 60.96 61.52 61.46 61.07
39.92 39.27 35.62 33.86 28.10 25.94 37.20 44.65 46.92 45.99 36.38 45.71 46.51 46.48 46.66 47.80 43.38 47.12 51.19 52.96 53.04 54.11 54.58 54.56 56.23 56.95 56.31 56.80 58.31 58.21 57.66 56.48 57.17 60.76 61.85 62.45 62.82 62.17 61.67 61.90 61.59 61.73 61.41 60.49
34.27 34.90 31.49 32.28 31.58 35.48 43.57 45.58 47.17 34.86 36.19 46.75 47.72 47.77 47.58 46.06 48.07 50.66 52.57 52.82 53.80 54.40 54.73 55.58 55.46 54.29 53.39 53.75 55.25 56.97 57.18 56.16 57.73 59.26 59.98 61.25 61.93 62.31 62.41 62.08 62.30 61.94 57.56 47.08
33.59 32.37 31.78 33.40 30.83 28.71 46.27 44.62 39.58 44.08 47.60 47.87 47.84 47.62 46.98 47.99 49.07 50.29 51.49 52.52 53.48 53.55 53.85 54.45 53.92 53.05 51.01 50.47 52.36 52.28 49.41 50.51 53.31 55.20 53.85 52.10 52.21 53.36 55.05 54.72 50.43 48.48 44.64 39.32
34.06 37.91 36.29 36.86 36.60 45.66 47.84 46.25 47.60 48.47 46.89 46.27 46.42 47.28 47.01 46.71 46.93 47.83 48.39 50.87 51.29 52.26 51.39 51.77 52.17 50.31 47.56 44.37 42.96 43.00 43.55 45.05 45.65 45.42 44.79 43.56 42.47 42.18 41.91 42.04 41.32 39.32 39.45 37.73
40.74 43.24 40.33 39.57 43.26 43.71 46.16 47.38 47.04 47.61 46.50 46.58 46.26 45.64 45.53 44.01 45.43 45.47 47.80 47.07 47.04 47.26 46.11 46.80 47.39 44.73 41.37 39.33 38.28 38.25 40.76 41.20 39.14 37.31 36.82 36.52 35.48 35.52 35.62 36.29 36.51 35.38 34.64 33.39
40.23 41.74 39.56 39.86 42.57 44.97 46.13 45.64 44.92 45.82 46.19 45.42 45.41 44.23 43.36 42.65 42.79 42.65 43.66 42.86 42.72 42.46 41.77 41.65 40.56 39.19 36.70 35.19 34.39 35.04 36.90 38.92 36.17 34.46 33.65 33.42 32.40 31.23 29.76 29.47 30.95 31.19 31.92 33.32
42.59 40.57 38.10 37.94 42.50 42.90 43.43 43.99 43.76 43.09 42.21 42.86 42.38 41.51 42.07 41.19 40.04 40.57 39.84 37.96 36.58 35.97 36.85 35.95 34.89 35.45 34.92 34.55 32.74 33.39 33.35 35.70 35.14 32.80 31.71 31.42 30.79 30.17 29.08 28.03 27.83 30.50 30.43 30.48

GFSCGP_sfc_wetblb_072.txt.gz
Wetbulb
44.32 40.85 39.39 42.68 45.25 45.65 44.86 43.34 42.90 46.49 49.45 48.50 47.61 46.91 48.49 51.24 51.84 53.06 53.88 54.93 56.99 58.88 61.02 61.42 60.62 60.79 59.84 60.87 59.25 59.58 59.38 59.33 59.46 59.13 58.10 57.96 57.80 58.27 57.61 58.57 59.79 60.16 60.77 61.20
42.28 37.23 43.06 44.46 46.02 44.82 43.89 42.48 43.05 46.89 49.26 48.06 47.32 46.53 48.79 50.01 50.86 52.55 53.55 54.58 55.93 59.00 59.90 60.18 59.55 59.66 58.78 58.61 59.33 58.59 58.54 58.87 59.21 59.71 58.86 58.53 58.61 58.68 57.81 58.00 59.41 60.25 60.41 60.57
39.72 42.33 43.39 41.24 42.43 43.15 43.46 42.55 43.41 43.56 46.87 48.61 46.38 44.41 46.85 49.66 50.91 52.05 53.81 55.03 56.49 58.63 58.94 59.14 58.84 58.62 58.28 57.57 58.84 57.79 58.52 59.18 59.51 59.66 59.25 58.63 58.37 57.98 57.09 56.80 57.44 58.98 60.25 60.34
40.43 44.57 41.82 39.93 40.49 43.19 40.17 46.32 45.82 45.16 43.87 39.77 47.34 38.08 45.53 48.36 49.08 50.72 52.12 53.65 54.59 57.07 59.84 59.83 58.99 58.39 57.93 58.38 59.15 59.24 58.75 58.76 59.35 60.03 58.64 57.36 56.27 54.77 55.66 55.39 56.52 58.42 59.97 59.89
38.73 40.96 40.68 38.96 41.08 44.90 42.24 47.41 46.05 45.66 43.53 43.24 42.97 40.23 43.83 47.89 47.48 49.53 51.73 53.52 54.98 56.19 59.77 59.36 59.30 59.22 58.96 59.07 58.50 59.55 59.23 58.91 59.37 59.32 58.68 57.85 56.80 56.82 56.86 55.41 55.45 57.72 58.51 59.30
40.57 45.00 41.65 41.46 44.45 45.52 46.91 44.59 44.15 45.52 43.66 36.58 41.51 41.19 41.75 45.29 47.96 50.07 52.10 52.87 55.03 56.39 59.60 60.19 60.51 60.15 59.20 59.51 58.35 59.64 59.59 58.99 58.85 58.94 58.83 58.66 57.83 57.00 56.34 55.33 55.05 56.81 57.32 59.27
38.44 38.85 42.49 43.64 39.23 44.29 43.22 40.19 33.75 33.41 34.41 34.22 43.13 40.89 43.41 48.72 49.90 50.34 50.77 52.39 55.18 57.24 58.76 59.49 59.17 58.79 58.73 58.46 58.32 58.82 58.47 57.95 58.96 58.75 58.64 58.70 58.62 57.92 57.18 55.58 55.21 56.24 56.57 57.28
32.11 31.34 39.04 43.61 41.20 39.30 40.40 40.30 35.18 28.86 31.69 35.75 43.20 38.57 44.03 50.90 51.69 52.54 53.04 53.97 55.70 56.57 58.82 59.46 59.61 59.23 58.35 59.30 58.67 58.41 58.42 58.15 58.67 59.04 58.55 58.79 59.02 58.04 58.32 57.54 56.53 56.29 56.97 57.81
33.20 33.97 43.37 43.68 44.37 42.98 39.60 36.59 43.02 38.96 40.84 37.90 41.57 44.24 48.99 50.41 50.15 50.98 51.41 53.03 54.00 55.62 58.34 59.40 60.06 59.76 58.89 58.94 59.39 59.16 58.75 58.19 58.12 58.24 58.63 59.13 59.15 59.12 57.89 58.09 58.76 58.14 57.99 58.04
37.26 32.02 40.48 42.57 44.53 44.08 41.72 44.10 36.64 39.47 30.22 30.23 39.61 40.84 42.19 46.97 48.35 49.76 50.74 53.43 55.56 56.73 57.62 59.48 60.09 60.05 59.87 59.40 59.82 60.58 59.69 58.92 58.53 58.17 58.16 58.67 59.02 59.25 58.43 58.15 57.88 59.16 59.28 58.69
39.55 35.76 36.51 39.56 39.04 38.41 39.69 39.22 40.54 41.49 39.54 34.85 34.17 39.30 47.66 48.74 49.96 50.07 52.14 53.73 55.89 58.12 58.10 59.01 60.12 60.80 60.65 60.33 59.82 59.72 59.80 59.35 59.55 58.51 58.28 57.85 58.36 59.39 59.66 58.99 58.93 58.80 59.68 59.37
40.38 36.84 31.82 34.91 42.24 45.24 43.77 40.28 41.02 36.33 34.87 38.88 39.01 40.18 51.46 52.11 51.98 52.72 52.17 53.41 55.16 57.62 58.96 59.59 59.87 60.80 60.35 60.22 59.55 59.33 59.63 59.51 59.98 59.99 59.05 58.60 58.64 59.09 59.05 59.04 59.05 59.33 58.83 59.35
36.90 35.47 29.06 32.36 38.93 42.90 40.28 41.47 41.66 41.90 42.07 37.49 35.44 38.80 50.93 51.33 51.10 51.82 52.96 53.61 55.06 55.78 57.15 58.94 60.07 60.14 60.41 60.46 60.09 59.40 59.77 59.71 60.54 60.80 60.11 59.41 58.75 58.81 58.83 58.77 59.26 59.49 59.42 59.13
40.28 35.53 33.63 30.02 34.43 37.86 38.16 40.82 42.46 41.74 36.02 38.23 39.05 42.48 46.28 48.64 48.93 50.86 52.71 53.20 53.65 55.04 55.87 57.09 58.70 59.83 60.83 61.36 61.34 60.63 59.97 60.22 60.18 60.22 60.15 59.46 59.55 59.35 59.58 59.46 59.45 59.31 60.05 59.19
38.50 34.33 36.97 37.18 38.04 39.76 40.18 40.18 40.99 40.29 42.02 38.82 41.74 42.24 45.96 46.58 48.45 50.27 51.49 52.10 52.15 52.71 54.26 55.37 55.74 57.82 59.85 60.91 61.78 61.85 61.40 60.51 60.41 59.53 59.35 59.48 60.23 60.72 60.54 60.05 60.32 60.20 59.73 59.92
38.68 32.54 34.49 33.02 38.27 39.18 37.59 41.51 41.82 41.70 42.60 43.16 43.40 42.16 48.66 50.03 50.67 50.71 51.25 51.50 51.19 52.16 53.73 54.98 55.66 55.86 56.33 59.59 60.86 61.80 61.97 61.63 61.15 59.87 59.15 59.66 59.79 60.51 60.11 60.19 60.41 60.34 60.09 59.96
35.77 33.55 33.39 29.18 36.40 37.41 34.29 39.17 40.63 41.66 43.45 43.08 39.46 43.61 48.38 48.00 48.39 49.46 49.95 50.85 50.43 51.24 52.57 53.99 55.37 56.35 56.59 56.77 58.19 58.10 61.56 62.59 61.71 60.36 60.44 60.08 59.84 59.46 59.76 60.18 59.87 59.57 59.23 59.55
35.68 33.76 32.83 29.90 32.78 26.74 38.21 43.94 43.77 42.78 43.76 44.90 45.16 46.32 47.72 48.15 50.49 51.22 51.60 50.85 51.09 51.76 52.47 53.58 54.90 56.20 57.36 57.79 57.51 58.30 59.11 58.20 61.57 61.28 60.98 60.82 60.43 59.72 59.74 59.46 59.18 59.13 59.31 58.74
39.75 35.87 30.47 29.24 28.93 33.30 37.89 41.05 42.12 41.09 40.63 45.44 45.10 46.80 47.41 47.59 50.05 47.91 50.56 52.07 52.06 52.62 53.35 54.08 55.39 55.41 54.86 54.04 54.96 56.99 58.10 58.19 56.84 59.80 60.88 61.41 60.95 60.17 59.71 59.08 58.84 59.01 58.74 58.48
39.21 38.54 33.46 31.85 27.51 25.58 36.01 43.21 44.61 42.93 33.86 44.17 45.35 45.86 45.56 47.28 42.86 44.55 50.30 51.58 52.16 53.34 53.90 53.79 54.28 52.71 50.33 50.24 53.18 54.15 52.07 51.48 51.78 54.37 56.23 56.91 61.16 60.77 59.91 59.54 59.16 59.01 58.97 58.13
32.87 33.42 29.90 31.09 30.10 34.44 42.33 44.98 45.98 32.40 35.47 45.30 46.22 45.36 44.61 42.79 45.04 47.89 50.22 51.21 53.21 53.41 52.50 53.17 52.58 48.26 45.67 45.54 48.98 46.70 46.29 45.55 47.75 50.30 49.83 48.51 49.65 51.93 55.75 59.21 58.75 58.51 57.54 46.23
32.38 30.93 30.61 31.94 29.78 27.95 45.30 44.18 38.86 43.00 46.01 46.02 45.81 45.43 44.96 45.64 46.29 46.74 48.70 49.13 49.35 48.43 48.08 49.41 49.51 45.63 42.80 41.35 41.84 41.54 40.88 42.84 42.87 41.65 40.50 39.55 39.54 40.69 43.95 48.40 46.02 45.37 42.63 38.71
32.40 36.78 34.66 35.10 35.32 44.54 46.25 44.80 47.08 46.95 44.64 44.24 44.41 44.60 44.68 44.18 44.21 44.82 45.91 45.71 45.92 45.07 44.19 44.17 43.59 41.86 39.50 38.17 37.21 36.48 37.59 40.48 39.09 36.90 35.40 34.55 33.97 33.15 34.28 36.51 38.34 37.97 38.28 36.04
39.82 42.69 38.38 39.24 42.14 42.87 43.89 45.38 46.14 45.75 44.36 44.59 44.62 43.95 43.37 42.46 42.77 42.98 42.67 41.49 41.06 40.71 39.49 39.92 39.36 37.62 35.79 35.54 35.50 35.27 36.01 39.05 37.22 35.31 33.83 32.61 31.07 29.90 29.68 30.64 32.06 32.34 33.24 32.49
40.27 40.69 39.85 38.83 41.04 41.03 41.88 42.75 43.94 43.33 43.87 43.33 43.70 42.67 41.05 41.01 40.35 41.23 38.54 36.76 36.16 35.28 34.88 35.42 33.77 33.38 32.61 33.12 32.69 34.01 34.42 36.24 35.29 33.79 32.67 31.13 30.13 29.02 28.28 28.62 28.89 29.40 30.09 31.70
41.09 38.91 37.74 35.76 40.06 39.98 39.40 41.02 42.86 41.05 40.64 40.97 39.81 38.72 38.92 37.51 37.39 38.30 34.31 33.50 31.84 30.13 30.28 29.94 29.45 29.07 28.96 29.01 29.26 30.50 32.81 33.45 33.41 31.45 30.24 29.96 29.13 28.37 27.87 27.03 26.76 30.44 30.89 31.20

GFSCGP_sfc_wetblb_075.txt.gz
Wetbulb
42.72 34.23 32.15 35.70 40.83 41.82 41.81 40.98 39.30 42.72 46.03 45.36 44.41 43.96 45.07 47.21 46.45 47.00 47.11 48.30 50.41 54.63 56.19 57.30 57.58 57.68 58.24 58.98 59.29 58.71 58.25 58.77 59.20 58.48 58.09 58.09 57.35 58.77 59.00 59.48 59.61 60.07 60.09 60.46
39.32 32.78 38.70 41.93 43.22 42.66 41.66 39.54 38.53 43.02 46.33 45.64 44.64 45.18 44.89 45.60 45.51 46.96 48.83 48.19 49.56 53.94 55.59 55.98 56.60 56.46 57.18 58.41 58.89 58.82 58.17 58.72 59.10 58.87 58.57 58.51 57.87 58.23 59.04 59.51 59.17 59.21 59.04 59.60
37.07 41.44 44.85 42.50 39.58 39.32 37.90 36.86 40.05 40.33 44.40 45.64 43.97 41.78 42.17 46.41 47.45 48.49 49.61 51.11 51.46 55.27 54.60 54.92 55.87 55.31 55.69 57.52 58.17 57.99 57.48 58.27 59.12 59.27 58.78 58.82 58.49 57.75 57.00 57.95 57.59 58.11 59.04 59.85
39.69 43.17 41.30 41.06 38.73 39.59 33.77 41.48 42.48 42.64 41.10 34.80 44.06 34.41 40.15 44.17 45.80 48.00 47.88 49.18 50.36 55.49 55.73 55.41 55.18 54.80 54.74 55.68 58.13 58.11 58.18 58.26 59.19 59.13 57.96 57.55 56.52 55.21 55.98 56.84 57.43 57.92 59.57 59.17
36.27 39.54 38.89 38.41 39.49 41.07 37.44 44.03 42.83 42.44 39.11 38.61 39.19 36.44 39.07 43.58 43.53 45.87 47.45 48.11 48.80 55.69 55.42 54.88 54.99 55.11 55.25 55.46 57.86 57.50 58.37 58.39 58.69 59.05 58.24 57.36 56.38 56.83 56.89 56.30 56.40 57.35 58.19 59.19
39.17 42.51 41.11 40.00 43.11 42.83 44.02 40.96 42.08 40.81 38.96 32.04 37.88 37.34 36.49 40.35 43.60 46.69 48.78 49.44 49.43 55.24 55.66 55.88 56.10 55.73 55.46 56.50 57.86 57.96 57.69 57.73 58.66 58.87 58.09 57.23 56.52 55.85 55.30 55.25 55.04 56.14 57.20 58.19
35.87 37.30 41.46 42.50 38.17 42.08 40.73 37.88 31.71 31.03 31.06 29.93 40.83 37.72 39.25 44.04 47.07 48.14 47.26 47.67 49.52 55.51 55.39 55.26 55.03 54.66 55.07 55.52 56.91 58.09 57.39 56.65 58.19 58.37 57.81 57.26 56.87 55.52 55.13 54.05 53.69 54.48 56.06 56.34
28.41 27.57 38.21 41.80 38.89 37.78 38.93 37.84 33.26 27.59 27.37 31.52 40.97 34.48 39.74 46.79 49.24 48.95 48.77 49.15 51.93 54.93 55.81 55.53 55.35 55.10 55.40 55.66 55.70 57.54 57.78 57.68 57.77 58.08 57.87 58.25 57.98 56.39 55.50 54.50 53.40 54.31 56.11 56.76
30.75 32.14 40.93 42.32 43.25 41.70 38.11 35.25 40.12 35.28 36.41 32.47 38.19 40.08 44.69 47.19 48.06 47.92 48.77 49.20 49.29 53.55 55.04 55.64 55.80 55.37 55.61 55.70 55.57 56.16 56.24 57.15 58.19 57.85 58.06 58.13 58.19 57.61 57.05 55.95 54.79 54.54 56.14 57.24
36.18 29.98 39.35 41.57 43.57 43.37 40.52 42.86 33.31 34.16 28.16 27.80 34.27 37.44 36.13 42.85 44.37 46.24 46.45 46.97 48.82 51.66 55.22 55.88 56.05 55.37 56.58 56.48 56.39 56.50 56.86 56.41 56.91 58.43 58.67 58.20 57.99 58.08 57.92 57.85 55.93 55.00 55.87 56.96
38.96 35.05 34.91 39.87 38.27 36.98 38.07 36.84 37.84 37.29 35.97 30.63 30.45 35.80 44.85 46.04 47.80 46.50 47.47 49.29 50.98 51.07 54.66 55.99 56.37 56.54 56.37 57.40 56.92 56.47 57.02 56.82 56.77 57.13 57.76 58.27 58.16 58.48 58.45 57.34 57.22 56.75 56.27 56.12
39.09 37.02 30.64 33.78 41.11 43.31 40.30 38.94 38.69 33.62 33.03 35.86 33.31 34.57 48.60 48.11 49.21 48.35 49.04 49.98 50.50 53.38 53.67 55.80 56.67 56.80 55.72 56.21 57.34 57.11 57.06 56.97 57.00 56.89 56.88 56.96 58.23 58.72 58.16 57.26 56.92 57.20 57.61 57.70
36.77 34.55 29.36 30.59 36.16 40.51 37.51 40.31 40.54 38.98 38.20 34.19 31.84 35.25 48.63 48.88 48.35 48.83 48.80 49.30 50.32 51.65 53.22 54.71 56.37 56.54 56.21 56.17 56.63 57.26 57.67 57.20 57.13 57.30 56.58 56.22 56.29 57.34 57.60 58.10 58.08 57.20 56.82 57.81
39.65 34.00 30.85 28.02 32.55 35.79 34.80 38.82 40.68 38.42 34.66 34.87 36.29 40.43 44.88 46.09 46.28 47.80 48.60 48.78 50.08 51.43 52.65 53.57 54.13 56.04 57.05 56.93 56.92 57.11 57.33 57.90 57.80 57.70 57.04 56.23 56.00 56.24 56.71 57.95 58.40 58.32 57.63 57.11
37.76 30.52 33.91 35.34 35.99 36.94 36.33 36.33 38.44 37.82 38.23 35.88 39.39 40.91 43.39 45.61 46.28 47.26 49.44 50.10 50.27 50.70 51.79 52.73 52.96 53.16 55.01 56.57 57.07 57.53 57.58 57.85 58.15 57.78 57.47 57.01 57.18 57.27 57.12 57.05 57.75 57.79 57.75 57.74
37.76 30.27 33.16 31.42 36.43 35.59 34.58 37.85 38.22 40.50 39.75 39.73 41.03 40.54 45.66 47.96 48.24 47.85 48.10 48.69 49.22 49.83 50.88 52.34 53.93 54.48 54.10 54.75 55.62 56.81 57.31 57.78 58.38 57.51 57.23 57.58 58.00 57.92 57.53 57.47 57.54 57.50 57.51 57.63
35.19 31.75 29.18 27.03 34.29 33.45 31.68 37.00 39.02 40.36 42.28 41.74 38.40 42.54 46.08 46.34 47.08 46.96 47.18 48.31 48.72 49.95 51.01 52.18 52.47 52.53 51.91 51.95 53.47 54.15 55.89 57.07 57.49 57.60 57.76 57.53 57.38 57.85 58.21 58.25 57.93 57.56 57.46 57.62
33.43 32.47 31.14 27.80 31.42 26.48 35.77 42.68 42.77 41.13 42.81 44.12 44.19 45.50 46.69 45.99 46.73 47.08 48.17 47.97 48.31 50.15 51.37 51.20 49.95 48.61 47.75 48.32 52.09 53.58 52.11 52.01 52.65 54.89 55.93 57.28 56.77 57.13 57.51 58.08 58.04 57.93 58.25 57.73
37.12 33.68 29.15 26.26 27.48 32.06 37.03 40.17 39.53 40.21 37.64 42.02 42.65 45.25 45.53 47.30 46.20 44.18 48.49 49.56 49.43 50.00 50.51 48.65 46.74 44.89 44.13 43.96 48.17 48.48 47.83 48.57 48.63 49.67 50.03 49.59 51.15 51.70 57.43 56.41 57.22 57.96 57.60 57.48
36.02 35.91 30.74 29.57 26.07 25.39 35.18 41.22 43.39 43.41 34.11 42.28 43.36 42.85 43.52 44.46 37.30 40.87 47.64 46.22 45.47 46.09 47.27 45.31 43.15 41.58 40.43 40.37 44.64 44.45 43.88 44.11 44.13 45.23 44.88 44.05 43.97 45.47 46.77 50.01 51.95 56.17 57.09 57.00
29.29 31.14 28.26 28.11 27.00 31.09 42.11 43.07 44.11 32.40 34.45 44.85 43.57 43.16 42.15 39.98 41.70 45.24 46.14 44.24 43.65 43.03 42.51 43.78 40.53 37.95 37.71 38.30 40.46 39.30 39.09 39.66 41.11 41.93 41.44 39.92 39.11 40.34 39.79 43.71 44.27 44.52 48.99 49.22
29.06 28.81 27.13 28.50 26.03 24.81 44.31 42.88 37.91 41.80 44.69 42.95 42.46 42.87 42.29 42.37 43.28 42.89 42.41 40.35 39.63 38.76 39.26 40.33 38.09 36.23 36.40 36.58 36.70 35.92 35.47 38.56 39.37 38.59 37.08 35.60 35.09 35.62 35.87 35.75 38.00 38.62 39.41 39.26
30.02 33.23 30.95 31.79 31.31 42.13 44.29 43.78 44.35 43.74 41.64 41.49 41.24 41.99 42.56 40.86 40.86 39.53 38.30 37.41 35.86 35.51 35.67 36.91 36.07 35.12 33.85 33.90 33.96 32.85 33.88 37.12 36.90 35.23 33.42 32.49 32.19 32.16 32.61 32.08 31.52 32.22 35.08 34.27
38.33 40.04 36.14 36.39 39.93 40.60 41.39 42.46 42.94 43.22 41.83 41.87 40.96 40.17 40.40 38.42 38.68 36.23 35.18 34.40 32.90 32.26 32.54 33.43 32.91 31.30 30.06 30.89 30.97 31.61 33.56 35.92 35.12 32.91 31.10 30.39 29.42 29.25 29.92 30.39 30.11 29.94 30.49 29.99
35.28 39.51 37.44 33.65 34.77 38.18 38.73 40.17 40.64 40.57 41.27 40.09 39.07 37.07 36.25 36.69 35.54 33.63 31.75 30.87 29.95 29.77 30.33 29.83 29.25 28.40 28.20 29.17 29.20 30.58 31.99 33.51 32.51 31.34 30.69 29.16 28.38 27.90 27.76 28.28 28.89 28.61 29.54 29.79
35.99 32.43 33.02 32.09 36.59 35.42 35.21 38.24 39.49 37.67 37.18 36.04 35.63 33.51 32.60 32.96 31.80 30.11 28.35 27.85 26.96 26.12 26.98 27.10 26.94 27.50 28.09 28.09 28.67 30.03 31.06 30.85 30.61 28.93 28.69 28.13 27.77 27.56 26.84 26.30 26.22 30.13 30.44 30.80

GFSCGP_sfc_wetblb_078.txt.gz
Wetbulb
40.86 33.79 30.67 32.23 36.55 39.28 39.06 37.52 36.32 39.49 44.23 43.62 41.75 41.91 44.55 47.85 47.21 45.36 45.24 45.11 50.49 53.88 54.81 56.97 57.26 58.37 57.93 56.49 56.21 56.16 56.85 58.79 58.83 59.11 58.63 59.04 58.79 59.72 60.17 60.64 60.53 60.62 60.67 60.28
37.95 32.35 37.55 39.01 39.27 38.35 38.36 36.68 36.34 40.40 44.40 43.65 41.18 40.73 44.88 46.97 46.66 47.05 46.76 45.27 48.89 51.42 54.03 55.82 56.22 57.68 57.52 57.04 56.51 57.07 57.01 58.47 58.13 58.42 58.68 58.60 58.74 59.41 59.71 59.98 59.67 59.82 59.76 59.54
35.59 39.38 42.03 39.32 39.25 38.59 36.61 35.81 35.96 36.13 41.60 43.47 41.24 39.41 41.34 46.24 46.77 46.13 46.16 47.79 48.68 52.92 53.14 54.70 55.39 56.19 57.02 56.60 56.49 57.41 57.71 57.68 58.11 58.54 58.56 58.25 58.02 58.09 58.13 58.51 58.54 58.90 59.54 59.57
37.98 41.93 41.10 39.29 38.21 39.51 34.70 39.90 39.54 38.93 38.24 32.70 40.13 30.11 39.54 43.69 45.34 45.79 45.39 45.67 47.57 53.47 54.44 55.10 54.95 55.36 56.01 56.25 57.08 57.48 57.67 58.46 58.28 58.14 57.74 56.99 56.38 55.63 57.26 57.97 58.39 57.82 58.70 59.16
35.63 37.52 37.68 37.30 38.73 41.24 37.61 41.09 39.86 39.81 36.74 36.08 36.84 32.41 37.77 43.15 42.03 44.45 45.45 45.02 47.85 53.89 53.99 54.41 54.39 55.13 55.77 56.19 56.25 57.64 57.83 58.23 58.88 58.35 57.24 57.08 56.28 56.58 57.00 57.58 57.30 57.36 57.84 58.79
37.64 40.65 40.19 39.09 41.29 42.32 43.11 39.12 38.99 39.63 36.82 29.06 35.44 35.25 35.99 40.01 42.91 45.48 46.56 46.62 48.50 53.53 53.98 54.76 55.10 54.83 54.29 55.61 55.77 57.35 57.29 57.79 58.71 58.28 57.79 56.83 56.12 56.06 55.58 56.05 55.80 56.26 57.13 58.08
34.23 35.45 38.97 41.71 36.91 41.18 39.74 36.53 29.66 27.80 28.23 26.76 39.07 36.48 38.01 44.36 45.70 45.96 46.92 48.12 49.08 53.76 53.43 53.02 53.34 53.44 53.57 54.64 55.31 57.01 57.45 57.02 58.02 58.31 57.85 57.17 56.16 56.32 55.70 55.27 55.52 55.56 56.03 56.79
26.53 25.56 36.42 40.72 37.68 36.59 36.41 37.05 31.42 24.41 26.47 29.72 39.56 32.91 38.70 46.77 48.81 48.62 48.42 45.97 51.58 53.25 53.62 53.16 53.61 53.86 53.87 54.81 55.57 56.26 56.98 56.82 57.63 58.21 57.53 57.62 57.31 56.53 56.15 55.78 54.91 55.49 56.24 56.95
28.94 30.11 38.31 40.54 40.86 40.07 37.60 35.45 40.00 34.70 36.30 30.83 34.98 39.10 44.40 46.74 46.25 46.65 45.96 49.01 51.64 52.77 53.38 53.46 53.78 54.09 54.58 54.66 55.45 56.15 56.60 56.70 57.06 58.10 57.73 57.34 57.49 56.81 55.22 55.20 54.93 54.14 55.71 57.12
35.02 28.18 37.11 40.47 41.65 42.55 39.03 42.13 33.70 34.66 27.08 26.61 33.03 35.68 36.79 43.65 44.22 45.49 44.48 46.97 51.65 53.22 53.60 53.96 54.09 54.23 54.87 55.13 55.62 55.98 56.56 56.93 57.70 57.91 58.07 57.82 57.70 57.44 56.09 54.82 53.41 53.79 54.67 56.31
36.99 33.61 32.90 39.36 37.15 36.55 37.50 36.79 37.81 37.11 34.45 30.67 28.56 34.46 45.02 44.38 45.91 45.78 45.27 47.01 50.45 52.76 53.53 53.97 54.01 54.82 55.22 55.26 55.18 55.65 55.57 56.12 57.25 57.68 58.03 57.88 58.02 57.83 57.30 56.02 54.60 53.61 54.08 55.17
38.45 35.10 28.93 32.02 39.26 42.58 40.99 37.28 38.43 31.46 31.25 34.77 32.74 33.75 47.58 47.17 47.10 47.50 47.61 49.02 48.01 53.60 54.07 54.31 54.24 55.02 54.98 54.97 55.25 55.45 55.80 55.85 56.07 57.09 57.30 57.65 57.93 58.00 57.54 57.37 56.97 55.65 53.94 54.33
35.97 32.73 26.52 28.74 35.12 40.07 36.46 38.47 39.19 39.71 38.00 34.36 31.21 34.00 47.03 47.86 46.98 48.43 47.21 48.61 49.73 50.52 52.19 53.20 53.76 54.01 54.99 55.27 55.41 55.48 56.09 56.01 56.52 56.61 56.61 56.62 56.82 57.26 57.50 57.61 57.65 57.50 56.03 55.02
38.91 32.84 28.95 25.12 30.21 35.10 33.53 35.89 36.48 37.88 32.93 33.08 34.15 37.83 41.41 45.08 45.91 47.28 47.95 48.79 49.85 50.94 51.72 51.93 52.03 53.27 54.18 54.79 55.78 56.05 55.99 56.69 56.71 56.67 56.05 55.88 56.10 56.55 57.04 58.04 57.91 57.17 57.48 57.19
36.41 28.91 31.73 33.28 35.09 35.28 34.87 35.54 36.52 34.73 36.14 34.03 36.92 38.33 42.88 45.59 46.37 47.26 47.89 49.18 49.75 50.71 51.30 51.63 51.29 52.09 53.82 54.30 54.95 55.63 56.16 56.45 56.64 56.51 55.99 55.46 55.77 56.32 56.39 56.67 57.17 58.00 57.62 57.01
36.44 28.07 30.69 29.44 34.38 36.01 34.04 36.13 36.07 36.68 37.31 36.72 38.51 39.42 45.25 48.40 48.61 47.24 46.81 48.44 49.21 49.74 49.01 48.38 48.69 48.56 49.15 51.92 53.64 54.32 55.52 55.83 57.14 56.05 56.23 56.65 56.37 55.89 55.79 55.93 56.02 56.41 56.87 57.72
33.71 32.75 27.80 23.30 32.83 31.98 29.30 34.14 35.89 37.17 40.01 39.91 36.14 41.01 45.97 46.45 45.51 45.32 46.10 48.04 48.61 47.99 46.86 45.63 44.88 44.69 45.50 47.17 48.94 48.59 49.86 51.61 53.80 56.08 55.90 55.65 56.76 56.39 56.27 56.42 55.99 55.76 55.94 56.59
32.30 31.00 29.19 25.16 29.08 22.84 35.69 39.94 41.77 40.66 40.64 43.31 43.87 45.05 44.58 43.74 44.64 44.22 47.60 47.76 46.28 44.79 42.86 42.34 42.23 41.68 41.64 45.08 45.63 46.08 46.49 47.16 47.64 47.91 48.21 48.33 48.10 50.59 52.87 56.99 56.45 56.24 56.46 56.18
35.74 31.15 25.62 22.12 24.60 28.76 34.51 38.31 39.87 34.97 35.55 43.49 43.26 44.65 44.88 44.87 43.06 40.20 42.24 44.92 43.37 42.13 40.90 40.18 40.16 39.61 39.71 41.61 42.65 42.44 42.01 42.73 43.47 43.99 44.25 44.37 45.59 46.30 47.95 49.01 49.55 54.44 56.58 56.62
34.87 33.71 28.04 26.34 23.10 20.77 33.85 40.39 43.62 43.19 32.79 42.47 44.40 43.86 43.37 43.46 36.02 36.40 39.99 40.86 40.26 40.84 39.00 37.62 37.23 36.78 36.47 38.42 40.45 39.33 39.02 39.13 38.72 39.21 39.39 39.56 40.72 42.05 42.48 44.26 44.45 44.80 47.10 52.28
27.01 27.83 26.83 25.76 25.44 29.70 38.80 42.87 44.53 31.96 34.54 42.04 42.17 42.02 42.05 39.53 39.19 38.74 38.94 37.42 37.69 38.20 37.58 37.33 35.23 33.69 34.19 35.92 38.20 36.44 36.61 36.60 36.78 36.19 35.53 34.54 34.68 36.28 36.68 38.88 40.27 40.91 42.96 40.31
28.49 26.63 25.77 27.06 26.14 23.92 43.62 42.10 36.39 39.89 42.50 42.36 42.06 41.71 40.95 39.47 38.33 36.83 35.50 34.12 34.21 33.74 34.78 35.40 33.88 32.48 32.75 33.38 34.57 33.88 33.30 36.69 35.45 33.27 31.97 30.89 31.12 32.08 32.56 32.75 34.51 36.65 36.90 35.41
29.84 32.21 28.12 30.47 30.39 41.22 42.68 42.17 43.62 43.20 40.48 39.56 40.40 40.63 39.84 37.24 35.27 34.76 32.77 31.74 31.61 31.05 31.64 33.16 31.93 31.31 30.79 31.35 31.45 30.82 32.26 35.56 33.95 30.76 29.20 29.78 29.63 29.83 30.24 29.86 30.15 31.20 32.70 31.95
34.65 38.98 34.45 34.81 36.30 37.59 38.62 40.90 40.86 39.66 37.81 37.22 37.49 37.98 37.95 34.50 33.23 31.61 30.39 29.36 28.89 28.99 29.34 30.41 30.05 28.57 28.36 29.89 30.40 30.88 31.71 34.29 32.43 30.47 28.98 28.80 28.32 28.18 28.96 29.45 29.40 29.17 28.91 28.78
32.41 34.81 35.40 33.12 33.65 36.55 36.44 36.86 37.76 37.76 37.30 34.67 33.81 33.82 33.86 32.05 30.02 28.80 27.72 26.54 26.37 26.88 27.80 28.33 28.25 28.12 27.90 29.42 29.68 30.28 30.60 32.14 30.25 29.24 28.86 28.35 27.87 27.33 26.87 27.16 28.30 28.63 29.67 29.88
32.34 29.76 32.44 30.59 33.92 34.01 34.03 35.30 35.58 33.03 31.48 32.36 30.90 28.98 29.60 29.45 27.69 27.42 25.55 25.19 25.00 25.19 25.88 25.68 26.15 26.21 27.34 27.98 28.05 29.22 29.84 29.60 28.84 27.57 27.47 27.53 27.12 26.49 26.18 25.33 24.94 28.69 29.54 30.16

GFSCGP_sfc_wetblb_081.txt.gz
Wetbulb
39.54 33.20 29.59 31.77 34.88 36.10 36.29 35.10 34.07 36.45 41.10 39.95 39.61 39.52 42.29 45.24 43.70 43.46 45.97 45.92 43.94 47.46 51.84 54.75 56.82 57.45 55.94 54.74 54.68 56.28 56.38 57.74 59.09 59.35 59.13 59.74 59.72 61.10 62.12 62.51 62.14 60.75 59.32 57.53
36.91 31.78 36.96 37.71 36.46 34.83 34.71 32.79 32.58 37.60 41.34 40.49 37.45 38.33 42.14 44.15 44.53 45.64 44.91 46.29 44.15 48.85 52.93 55.23 56.82 57.40 57.14 55.72 54.70 55.50 56.04 57.72 57.31 59.14 58.87 59.24 59.77 60.14 61.15 61.34 61.48 61.33 59.18 57.23
34.14 38.00 41.98 38.05 35.51 35.06 35.44 34.23 33.77 34.20 38.72 40.11 38.35 36.95 39.64 44.01 44.90 46.39 47.56 46.59 45.48 49.98 52.32 54.07 56.14 56.71 56.80 56.04 55.43 56.20 56.08 56.58 57.40 58.78 58.45 58.43 58.73 58.85 58.57 59.29 59.85 60.26 60.11 59.14
36.62 40.67 39.99 37.64 37.23 38.15 33.28 39.69 38.48 36.36 35.19 29.14 38.58 28.83 37.90 41.13 42.73 45.13 46.85 43.87 44.20 50.45 53.23 54.42 55.69 56.09 55.96 56.02 56.49 56.74 55.62 57.25 58.07 58.59 57.81 57.44 57.14 56.18 57.69 58.56 58.91 58.77 59.64 59.30
34.70 36.81 36.31 35.81 37.09 39.89 35.23 40.89 38.38 37.38 34.01 33.56 33.80 32.16 33.60 40.48 39.91 43.43 45.87 45.56 43.54 49.99 52.78 53.78 55.05 56.39 56.44 56.37 55.80 56.36 55.83 57.36 58.13 57.82 57.91 57.23 56.18 56.67 57.91 58.61 57.63 57.74 58.28 59.02
35.99 39.19 39.19 37.69 39.94 40.27 41.48 38.75 37.05 35.72 34.83 28.18 32.86 32.56 31.45 36.47 40.76 44.82 47.30 46.37 44.95 49.06 52.40 53.90 55.09 56.34 55.54 55.99 55.92 55.40 55.78 56.64 57.88 57.76 57.08 56.78 56.37 55.77 56.50 56.93 56.56 56.91 57.33 58.17
33.02 34.51 37.46 40.66 35.48 39.01 38.02 34.77 24.76 22.92 25.10 24.74 35.52 32.18 34.83 40.74 44.80 46.37 47.08 47.63 45.23 50.59 51.83 53.07 53.42 54.40 54.36 54.50 54.94 55.24 55.47 56.24 57.73 56.68 56.42 56.45 56.42 56.12 55.07 56.18 56.36 56.48 56.50 57.22
26.49 24.63 34.24 39.62 36.41 34.03 35.21 34.71 27.50 22.62 23.14 27.65 35.49 29.29 35.13 44.42 47.51 48.85 48.62 48.32 45.92 49.75 52.37 53.08 53.11 53.82 54.54 54.76 54.99 55.47 55.59 56.46 57.80 57.45 56.99 56.54 56.39 56.33 56.22 55.55 56.48 56.50 56.68 56.95
28.05 29.05 36.85 39.20 39.59 38.60 36.39 33.52 37.89 33.70 34.13 31.07 31.52 37.12 42.00 46.68 46.04 47.56 47.65 47.49 45.93 50.37 51.91 52.69 53.35 53.38 53.89 54.33 54.80 54.87 55.53 56.14 57.25 57.98 57.21 56.83 56.28 56.47 55.97 55.85 56.16 56.44 56.54 56.56
33.90 27.81 35.75 39.74 40.00 40.52 37.67 41.05 33.94 32.85 25.19 25.30 30.42 33.10 36.30 41.69 43.24 45.37 45.29 45.54 46.97 52.18 51.86 52.49 53.38 53.25 53.93 54.52 55.09 55.05 55.83 55.76 56.58 58.15 57.80 56.89 56.34 56.02 55.97 54.64 54.33 54.01 54.27 55.17
36.43 32.92 31.59 38.15 36.22 34.18 37.14 34.31 35.80 36.47 33.65 28.99 28.26 33.09 43.35 42.93 44.68 44.33 45.63 46.86 48.64 51.69 52.37 52.62 53.48 53.76 54.29 54.82 55.09 54.93 55.05 55.31 55.60 57.72 57.86 57.37 57.15 56.97 56.57 54.68 52.89 53.08 53.08 54.15
37.24 35.03 28.27 30.15 37.18 40.43 38.85 36.36 37.52 32.13 31.89 33.91 31.87 30.96 46.04 44.51 45.04 46.59 46.15 48.31 47.47 51.83 52.72 53.17 53.14 53.80 53.83 53.87 54.50 54.50 54.72 55.27 56.11 57.34 57.83 57.38 57.70 57.51 56.62 55.23 53.87 52.53 52.36 53.41
35.43 32.18 24.31 25.75 33.01 38.95 36.92 37.85 37.65 37.78 36.56 31.38 27.83 30.53 45.52 45.69 44.82 46.96 46.37 48.90 49.50 51.04 51.33 51.49 52.88 53.15 53.39 53.68 54.40 54.82 54.56 54.30 54.97 55.66 56.06 56.18 56.81 57.36 57.05 56.66 56.65 55.25 52.92 52.55
38.20 31.56 27.95 23.21 25.97 33.54 30.65 34.70 36.06 34.13 31.36 32.95 32.46 35.32 41.02 43.38 43.49 45.98 47.33 49.23 49.33 50.01 51.11 51.77 52.19 53.47 54.50 54.85 55.01 55.25 55.73 55.59 55.33 55.49 55.23 54.85 54.59 55.43 56.54 57.23 57.30 57.30 56.25 54.70
34.08 27.22 30.47 31.39 32.59 33.14 32.62 32.78 34.09 32.85 33.34 30.66 33.14 35.72 41.47 43.54 44.20 46.19 47.80 48.52 46.68 46.44 47.09 48.43 49.57 51.17 52.92 53.46 54.50 55.21 55.21 55.85 55.94 55.45 55.43 55.27 54.97 55.43 55.47 55.41 56.16 56.75 57.25 56.81
35.38 27.75 29.88 28.23 31.60 32.53 31.35 32.61 34.49 34.59 35.34 35.64 35.84 35.44 43.95 46.98 47.37 46.79 46.56 46.51 44.45 44.50 44.54 45.21 46.55 47.60 48.08 48.61 49.52 50.12 50.55 52.11 55.99 55.79 55.17 55.65 55.33 55.39 55.21 55.47 55.39 55.53 55.51 55.64
33.26 30.33 27.50 21.15 28.70 28.66 25.69 32.35 35.21 36.36 37.73 35.99 32.50 38.23 45.48 45.57 46.64 46.09 46.58 44.32 41.94 42.03 41.97 41.97 41.88 43.53 44.31 44.71 45.49 45.18 46.91 48.31 49.19 49.94 49.98 50.27 54.11 55.71 54.97 54.97 54.99 54.98 54.84 55.55
31.65 30.61 28.01 22.54 25.52 14.84 31.92 38.92 38.77 37.62 38.97 40.20 41.14 42.21 44.80 43.01 42.37 44.41 44.46 41.64 39.61 39.43 39.26 39.23 39.65 40.07 41.28 42.14 42.54 42.63 43.17 44.07 43.91 43.78 43.80 44.42 46.89 47.98 50.08 51.96 55.94 55.35 55.45 55.05
34.67 30.59 24.61 19.98 20.83 25.41 30.82 36.86 36.42 34.85 35.73 39.73 41.97 42.50 41.66 40.79 39.65 37.64 41.12 40.22 38.28 37.71 37.31 36.99 37.40 38.16 39.54 39.74 40.51 40.32 39.75 39.47 39.20 38.68 38.70 39.12 41.74 41.79 43.74 44.84 45.44 47.15 49.02 53.07
33.46 31.72 26.91 24.44 19.40 16.69 30.68 38.99 41.45 39.76 31.89 40.45 43.23 42.21 41.31 42.83 33.68 33.31 37.23 38.35 37.25 36.42 35.89 34.97 35.17 35.19 36.13 38.02 38.69 38.06 36.56 34.81 34.38 34.63 34.87 35.79 37.13 36.50 36.70 38.72 39.26 42.15 45.29 42.62
26.99 28.02 25.98 24.25 21.69 26.69 36.94 42.47 42.73 30.85 32.95 40.64 42.07 42.59 39.68 35.43 35.87 35.44 35.66 35.06 35.51 35.33 35.08 34.62 33.63 32.30 32.82 35.97 36.81 35.62 35.43 32.64 32.70 32.59 32.17 31.93 32.66 33.85 33.77 34.79 36.31 37.05 37.89 36.03
26.69 24.98 24.72 24.82 23.18 21.09 41.28 41.07 33.56 38.33 40.98 40.78 40.51 39.44 37.48 35.52 33.89 32.94 32.94 32.13 32.03 32.19 32.53 33.22 31.72 30.81 31.64 32.58 34.16 32.90 33.44 33.54 31.78 31.17 30.37 30.30 30.77 31.28 31.88 31.85 32.53 32.97 33.46 32.42
28.26 30.90 28.01 29.62 28.07 38.70 40.55 41.39 42.29 40.29 38.83 38.73 39.67 39.01 37.07 33.81 32.38 31.65 30.07 29.30 29.13 29.69 30.16 31.02 30.63 30.12 30.47 31.12 31.08 30.24 32.34 33.56 31.46 29.89 28.93 28.88 29.43 29.94 30.29 29.89 29.92 29.74 30.64 30.14
31.23 34.29 33.71 33.51 33.87 34.65 37.19 37.07 36.59 35.64 34.00 35.44 36.30 35.45 34.20 30.91 30.26 28.71 27.86 27.35 27.48 27.35 27.98 29.66 29.10 28.06 28.03 29.55 29.76 29.89 31.67 32.17 31.05 29.01 28.33 28.55 27.47 27.79 28.86 29.42 29.44 29.08 28.69 28.08
29.09 31.49 33.31 33.10 34.21 35.13 33.93 33.40 34.88 33.30 32.73 31.50 31.60 31.87 30.59 29.24 27.78 27.05 25.51 25.69 26.22 26.05 26.61 26.86 27.10 26.58 26.53 27.31 27.49 28.71 29.20 30.71 29.01 28.64 27.91 27.22 27.17 26.49 25.56 26.50 27.40 27.26 28.70 29.48
29.42 27.84 27.68 28.54 32.61 32.22 31.89 32.46 32.08 29.37 28.36 28.83 27.60 26.28 27.68 27.64 26.03 25.68 24.17 24.45 23.96 23.06 23.70 23.44 24.35 25.06 25.52 26.04 25.97 26.58 27.42 27.52 27.89 26.70 26.72 26.63 25.95 25.92 25.28 23.57 22.85 27.18 27.71 28.20

GFSCGP_sfc_wetblb_084.txt.gz
Wetbulb
38.30 32.47 28.15 31.33 33.86 33.81 33.75 32.13 30.41 32.09 38.01 37.22 36.82 37.75 40.65 42.48 41.25 40.86 41.66 42.71 43.32 43.71 45.77 49.30 54.22 56.04 55.43 54.99 56.42 56.70 55.45 55.47 58.52 59.17 59.91 60.34 59.93 60.11 60.45 61.93 62.51 62.16 61.77 62.31
36.93 31.03 35.31 36.20 34.83 33.54 32.15 29.86 29.40 33.97 38.04 37.15 35.47 35.93 40.22 41.20 42.25 43.57 42.72 43.43 43.56 42.95 49.83 52.79 54.70 55.64 55.98 55.62 56.40 56.34 56.77 56.54 58.81 57.70 59.36 59.89 59.91 60.95 61.17 61.82 61.09 60.27 59.47 58.58
34.36 37.13 40.91 37.31 35.45 32.91 32.17 31.18 31.96 33.08 37.30 37.33 35.52 34.17 37.07 41.35 43.04 44.28 44.01 45.16 45.02 44.99 47.57 53.32 54.82 55.06 56.34 55.26 55.32 55.28 56.05 56.63 57.56 59.16 58.63 58.75 59.31 59.09 59.91 60.80 59.95 59.24 58.19 56.99
35.77 38.94 38.78 36.16 34.53 34.36 30.97 38.17 37.63 35.30 32.67 26.29 35.91 26.58 35.06 38.29 40.69 43.07 43.69 43.63 45.26 45.08 49.13 53.67 54.81 54.80 56.25 55.78 56.06 55.76 55.73 56.23 56.93 58.09 58.11 57.43 57.52 56.98 57.78 59.37 60.36 58.54 57.72 56.76
33.77 36.63 36.88 35.62 36.63 38.75 34.93 39.81 37.31 36.21 32.33 31.75 31.55 28.22 31.38 37.58 37.87 40.37 42.66 43.82 45.03 45.32 50.02 53.19 54.31 55.13 56.94 56.32 55.87 56.02 55.28 55.67 57.92 57.71 58.13 57.89 56.96 57.28 58.18 58.97 58.73 58.92 58.43 57.20
35.06 38.66 37.93 36.61 38.75 39.40 40.01 36.82 35.89 34.80 34.80 25.71 30.11 29.89 28.63 33.76 37.38 40.74 43.52 45.22 46.52 45.37 51.07 53.72 54.09 56.06 56.21 55.89 55.50 55.75 55.50 55.95 57.32 57.50 57.77 57.15 56.18 56.94 57.26 57.14 57.08 57.92 58.20 58.01
33.15 34.59 37.69 40.17 34.86 37.98 36.20 32.40 23.28 22.55 26.27 23.67 32.74 29.80 32.20 39.04 41.80 42.93 43.98 45.45 46.54 46.67 49.98 52.92 53.61 54.55 54.94 54.53 54.67 54.93 55.04 55.51 57.22 56.06 56.78 56.82 56.43 56.08 57.00 56.84 56.94 57.22 57.44 57.54
26.16 24.43 33.78 38.68 35.30 33.06 34.13 32.80 26.66 20.88 22.66 25.91 34.21 26.49 32.38 44.48 46.59 46.80 47.33 46.97 45.97 45.21 51.02 52.66 53.60 54.55 54.65 54.52 54.50 54.54 54.34 55.02 56.24 56.87 56.33 56.50 56.49 56.65 56.89 57.46 57.37 57.48 57.79 57.97
27.27 27.40 35.89 38.16 38.24 37.73 35.42 31.78 36.30 31.72 31.64 29.09 30.49 34.14 40.81 44.91 44.81 46.09 46.19 47.04 47.04 46.66 49.13 52.29 53.31 54.52 54.55 54.30 54.54 54.55 54.26 55.33 56.00 55.92 56.69 56.39 56.17 55.73 56.05 56.02 56.88 57.34 57.62 57.87
32.47 26.84 34.69 38.07 38.62 38.41 36.37 40.31 33.10 32.90 21.92 22.29 28.02 30.05 34.80 39.85 41.15 44.30 44.82 45.91 48.67 48.90 48.58 51.93 52.93 54.04 54.67 54.80 54.83 54.81 54.95 55.22 56.28 56.65 56.45 56.71 56.21 56.24 56.11 55.90 54.26 54.82 56.21 56.99
35.40 31.86 31.04 36.88 34.64 32.86 35.84 34.15 35.72 34.91 33.58 26.16 23.07 28.93 43.01 41.92 42.39 43.64 45.10 47.70 48.84 47.66 50.77 52.37 52.80 53.48 54.55 54.87 54.78 54.39 54.12 54.42 55.02 56.93 55.84 56.54 56.63 55.68 54.80 54.35 53.45 53.53 53.61 55.05
37.29 33.41 27.37 29.95 35.34 38.82 37.21 34.79 35.31 31.17 28.31 31.86 28.26 28.49 44.79 45.80 43.52 45.84 45.97 47.84 49.15 50.65 51.66 52.74 52.24 53.05 53.32 53.44 53.81 53.87 53.33 53.68 54.02 55.12 56.44 57.01 56.47 56.10 55.81 55.30 54.30 53.00 52.93 53.79
36.49 31.01 23.69 24.84 31.57 37.27 35.99 37.15 37.22 35.06 35.19 31.06 29.35 29.11 44.13 44.59 45.25 45.48 45.71 47.45 47.74 49.95 51.28 51.58 52.56 52.49 53.13 53.67 53.56 53.62 53.00 53.18 54.18 55.30 56.58 56.89 56.73 56.53 55.42 54.69 53.89 52.21 52.10 52.58
37.47 30.85 26.85 22.46 24.69 30.48 27.14 32.39 34.66 34.29 27.89 27.26 30.71 32.28 37.24 41.67 43.16 44.58 46.66 46.81 46.53 48.34 51.20 51.87 51.93 52.43 53.19 54.24 54.24 54.55 54.41 54.25 54.41 54.36 54.01 53.71 54.06 55.48 56.49 56.30 55.50 54.10 53.11 51.82
33.10 27.64 29.71 29.67 31.12 31.33 30.72 30.44 31.69 30.92 31.89 28.55 30.08 31.68 36.50 40.41 43.81 45.09 46.89 45.21 44.86 44.78 46.43 48.09 49.28 51.00 52.26 53.28 54.27 54.57 54.84 54.78 54.80 54.24 53.81 53.65 53.72 54.08 54.18 54.32 54.79 55.36 55.03 54.04
34.93 27.16 29.36 27.68 29.95 29.87 29.13 30.50 30.00 30.19 31.52 32.22 33.08 33.09 40.75 43.79 47.21 45.92 43.43 42.08 41.67 42.02 42.64 44.14 45.07 46.34 47.04 47.80 48.38 49.25 49.79 52.12 56.08 54.16 54.08 55.75 53.94 54.12 53.74 53.62 53.74 53.79 53.95 54.27
31.90 28.23 25.14 19.53 26.66 27.07 23.08 28.85 32.31 33.01 35.62 35.23 31.88 36.44 42.70 44.05 45.85 45.38 41.83 39.93 38.86 39.12 39.50 40.22 41.01 42.27 42.56 42.86 43.77 44.10 45.38 47.84 48.38 48.26 47.66 48.21 51.32 54.55 54.56 54.76 55.10 55.04 55.38 55.20
30.50 29.60 27.58 23.27 24.30 12.57 27.18 37.31 37.77 34.92 36.14 36.94 38.91 40.53 40.65 42.48 39.97 39.19 39.98 38.76 37.01 36.84 36.38 36.65 38.48 38.90 39.47 40.41 40.44 40.89 40.82 40.87 41.11 41.01 41.02 42.77 44.06 45.06 46.61 47.92 47.84 51.25 53.65 55.10
32.93 30.05 24.40 19.16 20.32 24.19 28.31 35.52 33.57 31.72 31.84 38.68 37.45 40.58 42.26 38.81 37.30 34.54 38.06 36.80 36.01 35.50 35.08 34.67 35.72 37.09 38.04 38.40 38.10 36.92 35.90 36.19 36.41 35.88 36.22 37.92 38.84 39.61 40.60 40.16 40.89 43.39 46.71 44.39
32.83 31.07 26.69 23.91 19.22 13.44 25.69 37.51 40.82 39.93 28.94 36.84 40.37 41.92 38.86 41.58 33.60 30.63 35.21 35.78 34.66 33.91 33.95 33.14 33.43 33.61 35.26 36.83 37.20 33.99 32.74 32.25 31.75 32.51 33.20 34.54 35.77 35.73 36.01 36.77 37.70 39.53 38.82 35.79
27.35 27.90 25.08 23.62 22.94 25.09 34.20 39.19 41.59 29.41 30.32 34.95 36.64 34.43 33.94 31.03 33.52 33.83 34.95 34.14 33.63 33.10 33.08 33.23 32.15 31.13 31.77 35.07 35.84 33.49 31.73 29.72 30.91 31.59 31.96 32.02 32.91 33.20 33.68 34.12 34.88 35.44 34.69 32.95
26.23 25.46 24.95 26.68 23.66 19.86 38.08 39.48 33.60 37.28 36.56 34.17 33.96 32.59 31.48 31.62 31.62 31.34 30.91 30.29 30.41 30.05 30.80 31.68 30.45 30.14 30.69 31.73 33.23 32.40 31.20 31.68 30.97 30.21 30.09 30.12 30.59 31.20 31.93 31.85 32.03 32.43 32.36 30.93
26.60 30.71 28.04 28.82 28.08 35.45 35.43 35.42 36.53 36.33 34.08 35.96 33.90 34.11 33.09 31.04 29.31 29.42 28.20 27.47 27.95 28.89 29.47 30.11 29.23 28.36 28.89 29.46 29.65 29.68 31.07 31.66 30.68 29.53 28.49 28.49 29.20 29.76 29.91 29.80 29.81 29.41 30.02 29.41
26.78 33.16 29.06 32.66 32.32 31.49 33.13 34.03 33.33 32.95 31.58 32.88 33.40 32.86 31.77 28.65 28.11 26.86 27.02 26.38 26.33 26.43 26.82 27.80 27.14 26.20 25.95 27.15 28.01 28.25 30.76 30.88 29.50 27.63 26.90 27.36 26.84 27.06 27.83 28.04 28.46 28.58 28.59 27.85
26.25 28.79 27.09 31.47 33.28 32.67 30.53 31.20 31.29 30.50 30.66 29.10 29.48 29.65 28.59 27.13 25.79 25.65 24.65 24.13 23.92 23.97 24.85 25.68 25.31 25.05 24.83 25.75 26.26 27.29 28.14 29.90 28.42 27.69 26.94 26.11 25.73 24.61 25.02 25.99 26.28 26.46 27.93 27.93
27.27 25.40 24.43 25.52 31.68 30.21 28.18 29.47 29.96 27.62 26.21 26.79 26.26 25.56 26.03 25.81 24.26 23.77 22.03 22.04 22.10 21.89 22.86 22.58 23.12 22.81 23.75 24.25 24.48 25.08 26.14 27.05 26.32 25.39 25.40 25.23 24.19 23.96 22.36 21.60 22.40 26.99 27.22 27.86

GFSCGP_sfc_wetblb_087.txt.gz
Wetbulb
40.59 36.30 32.97 35.64 37.95 36.97 36.06 34.71 33.59 36.27 39.65 37.96 37.64 38.59 41.45 44.42 45.24 45.47 46.69 48.05 49.08 50.21 52.96 53.39 52.83 57.42 59.47 61.05 61.24 61.31 61.42 60.82 61.93 62.15 61.28 60.92 59.98 60.46 60.72 61.53 62.43 61.64 62.70 63.06
37.95 33.98 38.21 38.62 37.78 36.65 35.65 33.29 33.03 36.77 39.04 39.32 39.12 39.03 42.44 44.27 44.44 45.26 46.41 47.62 48.80 49.85 51.35 52.38 55.50 57.63 58.66 59.41 60.42 60.00 60.88 60.70 60.52 61.92 62.10 62.06 61.50 61.55 61.67 61.58 62.40 61.83 61.59 62.63
35.49 38.02 41.00 37.32 35.68 33.83 34.34 33.27 33.81 34.39 39.01 41.05 38.76 37.26 39.87 43.21 45.08 46.08 46.89 48.09 49.09 49.81 50.88 52.34 55.31 57.07 58.43 58.49 59.24 58.84 60.31 60.18 60.40 60.68 60.64 60.75 61.31 61.02 61.04 60.62 61.21 61.63 61.68 62.02
38.07 41.20 39.54 37.29 36.16 36.94 32.54 38.49 37.70 37.18 35.46 30.46 39.50 29.80 38.07 41.31 42.99 45.07 46.78 47.84 48.31 49.57 51.17 52.24 55.07 56.71 57.60 58.11 58.52 59.26 59.82 60.05 60.35 60.81 59.86 59.07 58.49 58.12 58.75 60.61 59.92 59.16 60.07 60.49
35.60 37.85 37.31 36.35 37.60 38.92 36.51 40.85 38.55 37.49 35.33 34.37 34.00 31.48 35.85 41.07 41.04 43.98 46.59 48.19 49.51 50.93 52.11 52.44 55.21 57.10 58.31 57.71 56.88 57.83 59.01 58.48 58.99 59.57 59.70 59.14 58.18 58.92 60.11 59.87 58.66 57.53 57.15 57.53
37.21 41.73 40.65 39.65 40.77 41.47 41.62 37.95 37.57 37.50 35.48 27.84 33.02 33.02 34.16 38.30 40.79 44.32 47.78 49.19 49.52 50.88 51.77 52.93 56.70 57.81 58.19 57.10 56.65 56.89 56.55 58.04 57.93 58.25 59.27 59.26 59.08 58.80 58.53 58.22 57.37 56.59 56.25 57.17
35.34 36.73 40.00 41.57 37.26 39.90 38.68 34.88 28.54 26.60 26.10 25.80 34.70 32.14 35.63 41.63 45.42 46.97 47.39 48.92 50.72 51.60 51.67 54.92 55.81 56.68 57.48 56.04 56.37 56.66 56.02 57.55 57.91 58.34 58.83 59.07 59.15 59.51 58.65 57.47 57.67 56.87 55.79 56.59
28.73 26.64 36.28 40.48 38.05 35.53 35.80 34.86 29.33 21.77 24.46 28.33 35.97 30.87 36.78 46.09 47.41 48.71 49.64 50.37 52.05 52.86 53.27 54.07 56.36 56.93 57.01 55.77 55.73 56.23 56.13 56.75 56.89 57.54 57.96 58.58 58.63 58.68 58.44 58.08 57.99 58.03 57.23 56.79
28.87 29.48 37.91 39.51 40.18 40.23 36.16 32.70 38.01 31.52 32.97 28.82 32.64 37.75 41.59 46.41 46.77 47.86 48.49 49.88 50.11 51.49 53.13 53.00 56.18 57.14 56.87 56.35 55.27 55.77 55.84 56.26 56.92 57.07 57.67 57.60 58.19 58.09 58.17 58.67 58.22 58.18 58.87 58.35
34.66 29.40 36.78 38.74 40.78 40.37 38.62 41.02 31.92 32.41 22.92 22.56 30.59 32.89 35.55 41.94 43.36 45.84 46.81 48.41 49.83 51.10 52.80 52.39 55.07 56.56 56.97 57.46 55.71 55.95 56.06 55.99 56.47 57.06 57.55 57.15 56.96 57.48 58.18 57.83 57.65 57.84 58.10 58.77
37.42 34.75 33.08 38.55 35.92 34.55 36.25 34.37 34.92 35.23 33.29 27.47 26.38 32.38 44.45 43.06 44.45 45.02 46.58 48.16 49.05 49.78 52.73 53.73 55.29 56.72 56.61 55.88 55.56 55.07 55.47 55.51 56.13 56.80 57.89 57.25 56.77 56.91 57.22 57.36 58.39 57.77 57.40 57.73
38.09 34.44 29.64 31.69 37.47 40.61 39.29 36.14 35.85 29.54 27.92 32.06 30.72 31.97 45.41 43.39 45.48 46.62 47.10 47.66 48.37 48.84 53.29 54.11 53.80 54.09 54.56 54.47 54.59 54.61 55.19 55.32 56.40 57.04 58.14 57.91 57.63 56.69 56.43 56.76 57.16 57.95 58.52 59.22
38.17 32.42 25.92 29.51 34.83 38.62 35.63 36.74 34.80 33.58 32.42 29.47 27.66 32.32 45.09 42.73 43.63 46.25 46.34 46.49 46.95 46.79 51.71 53.03 53.14 52.93 53.18 53.59 54.45 54.60 55.57 57.19 57.83 57.19 57.95 57.47 57.40 57.08 56.52 56.59 56.34 56.12 56.98 58.00
39.46 32.91 28.78 24.90 27.84 32.43 29.65 32.73 33.89 33.73 28.44 28.61 29.41 31.61 36.82 39.29 40.37 44.44 45.06 45.31 44.97 43.96 45.79 49.76 51.84 52.50 53.43 53.98 54.14 54.53 56.64 57.87 58.28 58.64 58.86 57.94 57.48 57.97 57.47 57.22 56.25 55.64 56.27 56.99
36.28 29.82 31.80 31.73 32.44 32.48 31.62 31.48 32.73 30.93 31.83 27.53 30.55 31.47 35.94 39.52 40.90 44.54 43.51 42.95 41.42 40.51 41.58 43.40 45.57 48.85 51.61 53.36 54.23 54.93 56.00 57.44 57.94 57.64 57.96 57.73 58.43 59.20 59.12 58.84 58.60 58.13 57.08 56.56
36.90 29.52 31.16 28.65 31.46 31.26 29.13 31.60 31.98 31.58 32.05 32.05 32.99 33.33 41.22 43.79 45.37 43.58 41.34 40.06 38.07 37.47 38.69 40.00 41.19 42.77 44.35 46.05 47.95 48.19 50.94 56.43 57.28 56.53 55.76 56.84 57.44 58.01 58.30 58.43 58.43 58.64 58.33 57.58
33.03 31.21 28.65 24.22 28.74 29.00 24.71 29.74 31.90 33.25 35.67 36.02 30.93 37.00 40.29 41.63 40.52 40.65 38.78 37.47 35.56 35.22 35.69 36.54 38.02 39.00 40.43 41.31 42.39 43.53 44.12 45.56 45.72 45.67 45.76 47.50 51.32 51.15 51.86 54.80 56.12 56.78 56.81 57.52
31.83 30.20 29.71 24.96 26.28 17.03 29.94 35.66 37.04 35.80 36.50 37.47 37.05 38.53 40.55 40.21 37.27 36.66 38.41 36.50 34.45 33.65 33.85 34.11 35.32 37.10 37.40 38.33 38.15 38.85 39.74 40.12 39.95 39.93 40.17 41.52 43.45 43.77 44.28 45.26 46.21 48.73 47.82 45.02
34.88 31.97 26.90 23.61 23.24 26.73 30.51 36.48 34.90 34.17 32.91 35.07 33.99 36.07 37.14 37.13 35.02 33.06 35.63 34.90 33.93 32.95 33.02 33.04 33.72 35.21 36.62 35.38 35.34 35.29 34.95 35.58 35.24 35.10 36.09 37.41 39.14 39.20 39.50 39.91 40.83 42.61 40.47 37.54
34.18 34.00 29.87 25.54 19.78 17.09 27.96 36.65 40.71 40.33 29.58 34.48 33.06 32.15 39.58 37.58 32.34 28.90 33.86 33.91 32.93 32.38 32.59 32.05 32.15 32.48 34.52 35.67 35.22 32.99 32.17 32.32 31.89 32.77 33.19 34.95 35.57 36.10 35.69 36.94 36.75 36.48 35.60 34.11
27.66 27.66 25.21 24.61 23.01 26.89 33.78 37.42 41.40 28.79 29.15 34.37 32.91 30.77 28.90 26.96 30.55 31.61 32.46 31.26 32.08 31.72 31.84 32.39 31.13 29.83 30.78 34.16 34.20 32.10 31.97 30.29 31.73 33.05 33.25 33.16 33.83 33.91 34.33 34.33 35.14 34.60 33.31 32.10
27.61 26.22 25.92 26.51 23.90 20.79 34.40 37.23 31.82 35.18 34.51 34.01 32.02 30.89 28.65 28.26 28.44 28.43 28.91 28.90 29.65 29.53 29.77 30.23 28.79 28.43 29.48 30.87 32.67 30.89 29.89 31.14 31.49 31.48 31.16 31.32 31.76 32.41 33.31 32.85 32.89 32.80 32.41 31.23
27.78 29.25 26.09 30.51 28.95 32.39 32.90 31.46 32.86 33.98 32.89 32.89 31.99 31.37 29.44 27.62 27.26 27.69 26.94 27.05 27.19 27.58 27.99 28.37 27.53 27.11 27.58 28.73 29.23 29.55 29.87 30.43 29.76 29.27 28.76 29.05 29.79 30.32 31.09 31.30 31.69 31.45 31.54 30.75
26.21 29.81 28.58 27.94 29.27 28.80 30.28 31.55 31.35 30.71 29.45 30.49 30.91 29.91 29.19 26.90 26.92 25.63 25.10 25.01 24.81 25.22 25.53 26.44 26.13 25.32 24.92 26.81 27.37 28.18 30.39 30.13 29.26 28.61 27.80 28.52 28.54 28.88 29.58 30.03 30.02 29.43 29.71 29.53
26.15 28.11 25.89 29.49 30.59 30.38 28.14 28.95 29.20 29.06 29.52 28.28 28.03 27.93 26.97 25.37 23.71 23.61 22.95 23.09 23.35 23.44 24.28 24.76 24.32 24.30 24.39 25.93 25.63 26.33 28.02 29.62 28.12 27.54 27.14 26.60 26.90 27.30 26.89 26.90 27.91 27.93 28.66 28.78
27.07 25.06 24.65 23.56 29.35 26.63 25.34 27.63 28.07 25.59 25.64 26.34 25.24 23.45 23.85 23.88 22.54 22.63 21.47 21.74 21.65 21.75 22.66 22.33 22.68 22.80 23.15 23.88 24.31 25.14 26.29 28.13 27.55 26.16 25.80 25.66 25.54 25.35 25.53 25.00 23.85 26.27 26.75 27.24

GFSCGP_sfc_wetblb_090.txt.gz
Wetbulb
40.84 37.88 36.64 39.14 39.51 39.36 38.03 36.97 37.45 40.97 42.99 40.78 40.53 41.08 43.58 46.67 47.56 48.14 48.87 49.90 50.73 52.33 55.50 57.06 58.09 59.11 59.97 62.95 64.73 65.73 67.19 64.91 64.84 65.01 64.38 63.99 62.87 62.89 62.55 62.90 62.62 62.79 63.30 63.33
38.59 35.72 40.44 41.42 40.59 38.75 38.06 35.65 35.74 39.27 41.69 41.45 41.35 41.89 45.79 47.08 47.66 48.76 49.12 49.97 50.99 52.19 53.32 55.38 57.12 58.34 61.27 62.41 64.13 65.02 66.46 63.63 65.60 66.81 66.54 64.96 62.95 63.08 63.00 62.59 62.21 62.62 62.57 63.53
36.63 39.78 41.99 39.76 38.13 36.31 37.37 36.03 36.91 36.92 40.57 43.14 42.34 40.66 43.48 46.02 48.20 49.05 50.06 51.24 51.76 52.11 52.51 53.86 55.47 57.56 61.44 62.24 63.54 64.46 65.88 64.71 66.45 66.30 65.64 64.12 63.61 62.75 62.39 61.52 61.19 61.73 62.66 63.21
40.35 43.47 40.92 40.07 38.11 38.49 34.54 40.38 38.84 37.99 38.12 34.96 41.67 34.17 41.04 43.92 45.04 48.04 50.08 52.23 53.04 53.66 53.94 54.08 54.79 56.71 60.34 62.63 63.88 64.64 65.30 65.82 65.55 65.75 64.58 63.50 62.21 59.84 61.54 61.04 62.03 61.94 61.46 61.98
38.20 39.10 38.64 37.88 39.04 40.72 37.51 42.35 40.90 40.30 39.12 38.20 39.02 36.34 40.35 44.03 43.88 46.86 51.01 53.26 54.55 55.31 54.52 54.86 55.28 56.65 59.85 62.82 63.30 63.86 65.00 64.97 64.92 64.65 64.54 62.60 61.12 61.54 63.48 63.28 61.34 60.88 61.33 61.23
40.49 44.58 42.31 41.58 42.75 42.86 43.77 41.17 40.48 40.26 38.65 32.33 37.94 37.57 39.44 43.41 44.34 48.28 51.78 53.52 54.76 55.84 56.84 55.96 56.83 57.78 60.43 62.75 60.68 62.01 63.73 63.94 64.33 64.04 63.29 62.80 61.75 60.50 61.47 59.84 59.57 58.49 57.93 59.87
38.12 38.94 42.63 43.60 40.02 42.73 41.59 37.35 31.12 30.02 29.82 30.14 38.87 36.81 40.51 44.91 48.46 50.22 50.92 53.09 55.27 56.53 57.41 57.39 57.61 59.28 60.44 60.59 57.93 60.04 62.69 62.53 62.84 62.64 62.19 61.66 61.34 61.99 61.81 59.12 57.20 56.34 56.04 55.88
32.15 29.55 38.22 42.54 40.29 37.37 38.44 38.43 33.00 25.47 28.46 33.45 38.58 34.03 41.37 48.31 50.71 51.79 52.85 53.47 54.79 55.73 57.59 57.97 57.81 59.76 60.56 58.36 56.79 58.40 59.98 61.73 61.24 61.05 60.79 61.05 62.36 61.51 61.36 59.43 58.32 56.28 56.64 56.36
32.13 32.20 40.50 42.02 42.86 42.26 38.20 35.02 40.77 33.99 35.80 32.38 36.44 40.26 45.61 48.37 48.94 50.21 51.03 52.16 53.09 55.05 57.34 58.01 58.09 59.91 60.99 59.24 56.75 57.55 60.19 61.81 61.16 60.18 59.57 60.78 61.49 60.77 59.91 59.37 58.85 57.50 57.58 57.16
37.67 31.18 39.11 40.99 43.34 43.16 41.12 43.14 33.30 35.87 25.54 25.74 33.97 36.20 40.21 42.98 45.15 47.83 49.08 50.53 52.33 54.47 56.67 57.94 57.01 58.95 60.85 60.08 57.14 58.03 60.53 61.11 59.99 60.02 59.35 60.35 60.22 60.32 60.70 60.41 58.89 58.45 57.62 57.26
38.11 37.42 35.92 40.04 38.15 37.30 38.15 36.95 37.73 37.58 35.71 29.33 30.49 36.51 46.37 44.23 45.35 45.50 48.41 50.44 51.74 52.52 54.25 56.36 57.58 58.52 59.87 59.21 56.84 57.02 58.84 58.71 58.63 58.73 58.79 59.99 59.11 59.64 59.53 59.22 58.72 58.12 58.68 57.40
41.01 37.77 32.97 35.03 40.95 43.23 41.34 38.66 38.69 33.09 30.72 34.63 31.91 35.32 47.34 47.15 45.55 45.70 47.67 49.73 51.13 48.99 49.68 54.02 54.67 56.83 56.81 55.96 56.16 56.39 57.05 57.11 58.92 58.15 58.50 58.68 58.38 59.68 58.45 58.62 59.06 58.11 58.35 58.86
40.86 36.39 30.35 31.69 36.29 40.18 37.62 38.53 38.29 36.41 36.37 32.23 29.98 36.47 47.28 45.89 44.46 46.50 47.32 49.14 48.76 46.08 46.03 46.81 53.15 54.28 54.78 55.11 55.34 55.68 56.41 57.06 58.92 57.76 58.36 58.02 57.97 59.14 59.46 59.84 60.37 61.02 59.81 59.05
40.42 36.69 33.48 30.08 32.93 37.27 33.80 36.01 37.84 36.67 32.29 33.11 34.29 35.99 39.57 41.73 43.75 46.39 47.67 48.40 46.82 43.30 42.44 43.88 44.41 50.55 53.97 54.69 55.18 55.30 56.33 57.30 57.32 57.42 58.01 58.23 58.72 58.35 58.78 59.32 59.59 59.71 60.53 59.80
39.96 33.19 35.30 35.15 35.91 35.62 34.71 34.39 35.64 34.48 34.96 30.70 34.43 34.51 38.92 42.46 44.28 45.63 47.25 45.53 44.10 40.07 39.24 40.22 40.35 42.46 45.44 53.46 54.64 55.58 57.45 58.12 59.15 58.87 57.53 57.34 58.29 58.59 58.61 58.61 58.55 58.17 58.09 59.20
38.67 31.89 33.55 30.80 34.07 34.06 31.42 33.78 35.14 35.23 35.40 35.67 36.32 36.19 42.74 44.97 45.83 43.76 40.82 40.49 39.45 38.26 36.04 37.08 38.31 39.33 40.79 42.80 48.42 49.45 54.43 57.53 58.47 57.52 56.73 58.64 58.81 58.99 59.46 58.97 59.24 58.98 57.96 57.79
34.82 33.62 30.64 26.41 31.69 31.32 28.01 32.43 34.01 35.17 37.27 37.40 33.49 38.55 42.33 40.81 40.06 39.45 38.76 36.80 36.35 35.20 34.31 34.09 35.97 36.58 37.50 38.86 41.60 43.06 44.63 46.12 46.66 46.61 46.50 48.00 49.91 50.16 50.72 55.60 57.37 57.85 58.34 59.17
33.86 32.78 32.56 28.43 29.42 19.50 34.64 39.48 39.06 36.40 37.53 36.58 36.14 38.49 39.16 38.76 36.32 34.68 35.11 35.91 34.60 34.27 32.66 32.43 33.26 35.57 35.41 36.57 37.42 38.71 39.24 39.96 40.26 40.14 40.66 42.31 43.31 43.72 45.26 46.01 46.51 44.43 44.00 42.87
38.53 35.03 30.28 27.31 26.47 29.67 34.04 36.64 36.24 34.85 33.57 33.71 33.10 34.34 35.40 36.55 33.59 31.22 33.51 33.78 33.12 32.88 33.18 31.60 32.37 33.28 35.01 34.63 35.17 35.29 34.85 34.98 34.96 35.60 36.38 37.82 39.34 39.89 40.19 39.35 39.39 39.69 37.56 35.93
36.05 36.32 32.22 29.31 20.16 19.56 32.34 37.98 42.20 41.97 31.13 32.74 33.43 31.12 28.90 36.57 30.67 26.13 30.89 31.81 31.47 31.67 31.67 30.99 31.25 31.14 32.71 34.09 34.83 32.97 32.70 33.12 32.64 33.64 34.38 35.75 36.50 36.36 36.35 36.12 35.57 35.09 34.47 33.19
31.00 29.63 27.93 28.71 26.63 31.07 34.31 37.66 41.47 31.26 29.43 33.73 32.93 30.54 26.73 24.25 27.32 29.36 30.43 29.85 30.42 30.09 30.25 30.77 29.98 29.17 30.25 32.65 32.88 31.75 32.11 31.20 32.35 32.99 33.75 34.40 35.11 34.67 34.76 34.70 34.41 33.62 32.47 31.85
29.61 28.95 29.71 28.80 26.09 22.99 32.56 37.76 31.92 32.06 34.16 33.84 32.06 30.40 28.72 28.66 28.51 28.14 28.09 28.01 28.25 28.39 28.70 28.76 27.89 27.98 29.44 31.12 31.41 30.00 29.46 31.64 31.96 32.02 32.49 33.22 34.31 34.93 35.07 34.26 34.31 33.79 32.98 31.88
29.52 29.01 28.69 27.86 26.33 30.75 31.83 31.03 32.57 33.35 31.33 32.29 31.66 31.19 29.84 27.25 26.57 27.27 27.09 27.48 27.99 28.19 28.72 29.36 27.79 27.50 27.98 29.01 30.40 28.77 30.15 32.19 31.69 31.20 31.01 32.61 33.17 33.18 33.67 33.94 33.84 33.92 33.86 33.06
30.85 32.69 31.40 30.77 29.52 29.08 30.43 31.51 31.60 31.52 29.93 30.77 30.94 29.83 28.59 25.70 25.63 25.07 25.55 25.57 26.09 26.67 26.51 28.35 27.85 26.60 26.71 27.86 28.42 29.92 31.67 31.84 30.42 29.19 30.18 30.28 29.37 29.75 31.24 31.36 30.99 31.25 32.14 31.81
28.76 30.32 28.27 29.05 30.77 31.29 29.09 29.27 29.80 29.67 29.89 27.89 28.03 27.94 26.48 25.39 24.29 24.43 24.38 24.32 24.47 24.79 25.26 25.60 25.01 25.04 25.00 26.20 26.39 27.75 30.07 30.91 29.47 29.15 28.68 28.23 29.81 28.52 27.09 27.16 28.38 28.39 28.78 29.54
28.84 26.79 27.40 26.91 30.15 29.11 26.74 28.33 28.77 26.29 25.73 27.20 26.06 24.59 25.58 25.45 24.27 24.43 23.28 23.77 23.66 23.28 24.02 23.82 24.01 24.19 24.51 25.02 25.10 26.35 27.57 29.35 29.24 27.64 27.62 27.46 27.73 27.89 27.60 25.54 23.61 25.65 26.50 26.67

GFSCGP_sfc_wetblb_093.txt.gz
Wetbulb
45.09 38.97 37.23 39.87 42.13 41.28 39.94 38.53 38.20 39.97 43.64 43.39 42.48 42.75 43.87 46.41 47.00 46.67 48.34 49.58 50.28 51.27 53.97 56.27 57.82 59.38 59.67 60.37 61.94 65.08 67.28 70.10 67.39 65.65 64.48 65.07 64.68 64.50 65.10 64.92 64.83 65.34 65.10 64.26
42.08 37.23 41.60 43.12 42.71 40.75 39.12 37.93 37.82 40.28 42.14 41.40 40.74 41.46 44.64 46.40 47.42 48.29 48.93 49.98 50.84 51.98 52.95 54.40 55.98 58.29 59.63 59.97 61.43 64.56 66.21 68.63 67.03 65.42 66.56 67.52 65.96 65.76 65.17 65.29 64.28 64.52 64.17 64.08
39.41 41.46 43.42 41.24 40.62 38.31 38.79 37.94 37.79 37.73 40.41 43.24 41.75 39.62 42.78 46.89 48.78 49.30 50.12 51.05 51.87 52.61 53.05 54.18 55.13 56.84 59.16 60.02 62.12 63.74 65.69 67.69 66.87 67.62 67.81 67.00 66.00 64.06 63.13 63.69 64.15 64.32 64.26 63.57
40.18 43.99 41.91 41.53 39.59 39.84 35.00 41.15 39.33 38.62 37.62 32.93 43.89 35.12 42.71 45.54 45.89 47.52 49.51 51.88 54.92 56.04 56.42 56.61 55.98 56.25 57.80 60.43 63.10 64.51 65.66 67.60 65.76 67.84 67.29 65.86 62.46 61.05 62.72 63.49 63.69 62.75 62.66 62.51
36.54 37.89 40.10 39.53 40.20 41.57 37.75 41.99 40.61 40.09 37.37 37.15 39.48 37.26 40.36 45.10 43.18 47.16 50.54 53.16 55.11 56.57 57.14 57.18 56.61 56.83 57.37 60.13 62.63 64.76 65.57 66.85 66.64 67.83 67.40 66.10 64.61 64.77 64.06 63.64 63.75 63.05 62.09 62.00
40.51 42.37 43.05 42.32 44.11 43.38 43.41 41.37 41.38 40.63 38.77 32.65 36.87 36.91 39.09 42.25 45.39 47.93 51.66 53.75 55.40 56.85 57.99 58.56 58.48 58.17 57.19 59.61 64.12 65.01 65.18 65.84 66.45 66.84 66.65 66.15 64.95 64.29 62.37 63.33 63.08 62.08 61.43 61.06
38.50 38.29 42.15 44.34 40.43 43.38 41.77 39.00 31.13 29.58 30.48 29.01 40.33 38.06 39.64 46.54 49.73 50.07 51.34 53.38 55.24 57.03 58.18 58.57 58.50 57.37 58.07 59.92 63.57 64.50 64.43 64.85 65.86 65.75 65.73 65.65 64.67 63.82 62.42 62.47 62.50 60.09 59.10 59.45
31.32 28.92 39.29 43.68 41.32 38.82 38.85 38.39 32.02 26.07 28.40 33.19 40.34 34.74 39.72 49.75 51.38 52.05 53.06 54.17 55.17 55.83 58.34 59.27 59.38 60.03 60.42 61.77 62.77 61.96 63.97 64.28 65.03 65.04 64.98 64.76 64.10 62.34 63.00 62.79 61.26 59.57 57.62 58.35
32.46 32.12 41.46 43.46 43.63 42.76 38.40 35.75 41.12 35.51 36.81 33.76 37.18 41.15 47.26 49.07 48.64 49.44 50.90 52.72 53.32 54.76 56.03 59.18 59.88 59.85 61.69 62.27 59.24 59.34 63.36 64.16 64.08 63.90 64.21 63.18 62.58 62.08 62.36 61.72 60.00 58.32 57.65 56.84
37.78 30.37 38.79 41.66 43.45 43.19 41.06 42.61 33.97 36.46 27.07 26.77 33.99 36.73 38.96 43.87 44.80 47.48 48.34 50.80 52.60 53.53 53.95 54.87 59.64 59.48 61.90 61.21 58.32 58.76 62.48 62.62 62.46 62.44 62.98 61.79 61.25 62.05 62.26 61.09 58.51 57.33 57.62 56.98
36.31 37.38 36.31 40.85 38.26 36.89 37.88 37.08 38.24 38.57 36.89 30.48 29.98 35.14 46.37 44.81 45.64 45.37 47.52 50.52 51.79 51.55 49.84 49.64 55.73 60.60 61.64 61.39 58.35 58.14 60.73 61.59 61.32 61.73 60.46 60.50 60.22 60.87 61.34 61.24 59.27 57.43 57.02 56.88
36.10 37.00 32.30 35.99 41.90 43.01 41.81 39.33 39.44 33.06 31.84 35.83 34.95 35.70 47.27 47.42 46.43 47.56 48.73 50.42 51.67 50.84 47.47 47.03 48.45 55.85 58.36 58.04 58.11 57.42 60.17 60.39 60.09 60.34 59.76 59.74 60.24 60.09 60.08 59.71 59.02 58.12 56.81 56.68
35.07 34.71 30.54 31.00 37.54 41.85 38.93 40.58 41.11 39.40 38.41 33.78 31.47 35.27 47.34 45.55 45.47 48.38 48.76 50.00 50.54 48.72 45.79 43.59 44.65 46.21 54.19 55.87 56.28 56.87 57.89 58.12 59.05 58.75 58.87 59.65 59.62 59.25 58.75 58.92 59.67 58.85 57.94 57.03
36.43 32.43 34.06 29.19 34.60 38.85 35.08 37.75 39.79 38.44 33.41 33.78 35.54 37.53 41.57 42.77 44.73 46.37 49.15 48.08 49.12 46.38 41.73 40.44 41.17 42.76 45.09 51.57 55.70 56.23 56.91 58.37 58.62 58.29 57.81 58.64 60.15 60.06 59.86 60.47 60.69 59.20 59.76 58.39
34.75 34.69 36.39 37.28 38.88 39.27 38.10 37.38 38.07 36.14 36.83 32.56 35.83 36.09 40.10 43.50 44.28 46.18 45.94 46.30 45.00 42.65 39.24 37.48 38.27 39.40 40.91 42.62 46.16 55.95 56.65 57.37 58.12 57.62 57.62 58.24 59.94 60.10 60.60 60.21 60.11 60.56 60.78 60.05
37.41 33.32 36.72 33.89 37.22 37.04 34.51 35.91 36.55 36.76 36.78 36.79 37.64 37.37 44.07 44.97 45.23 43.09 42.36 41.15 40.42 38.30 37.43 35.65 36.11 36.49 37.75 38.92 41.00 44.85 50.52 55.72 59.81 57.75 56.95 58.29 59.65 58.74 59.03 59.56 59.34 58.98 59.21 59.49
34.90 35.85 34.21 28.36 34.38 33.15 29.61 33.90 35.24 36.24 39.12 37.80 34.17 38.33 42.48 41.11 38.78 34.52 34.85 36.34 35.34 35.81 35.50 33.77 33.59 34.94 35.52 36.32 38.00 38.88 43.49 47.06 47.06 46.52 47.28 49.27 51.45 51.45 51.96 55.43 54.94 54.59 56.58 57.17
35.12 34.66 34.64 27.66 30.61 23.83 34.97 40.98 39.93 38.02 37.86 38.68 38.13 38.81 38.93 37.57 32.82 32.13 32.26 31.52 30.88 31.88 31.93 31.94 32.06 33.57 34.47 35.19 35.51 37.34 38.33 40.14 40.60 40.58 41.26 43.31 44.82 44.73 45.05 45.57 44.18 42.43 41.67 41.93
39.23 35.51 30.28 28.61 30.00 32.33 35.40 37.41 36.85 35.89 32.75 35.36 34.58 35.83 35.15 34.53 32.64 28.45 30.66 30.71 29.72 29.92 30.75 31.88 32.77 32.18 32.30 33.94 33.93 34.81 34.50 35.47 35.82 36.08 37.06 37.78 39.32 39.06 39.00 37.65 37.37 37.33 36.38 35.17
37.79 38.19 33.96 31.52 25.81 22.94 32.12 38.23 41.91 40.76 28.07 33.42 33.50 31.66 29.20 34.54 30.09 25.02 29.53 29.67 29.45 29.86 29.97 29.83 31.32 31.31 31.64 31.93 33.18 32.24 32.11 32.88 32.84 33.97 34.86 35.78 35.85 35.34 34.59 34.65 33.97 33.88 33.51 32.43
32.32 32.97 30.62 29.90 29.80 31.54 33.48 38.55 40.51 30.83 26.43 32.81 32.39 29.89 28.86 25.06 27.02 29.18 30.41 29.95 30.59 30.42 29.55 29.62 28.96 28.65 29.82 31.95 32.04 30.24 30.45 30.11 32.05 33.91 34.36 34.85 35.10 34.38 34.14 33.80 33.40 32.84 32.06 31.54
30.84 29.55 30.47 31.09 28.83 25.61 33.39 37.27 30.05 30.44 34.11 34.30 31.91 30.94 28.60 29.73 29.75 29.54 29.73 29.46 29.90 29.69 29.25 29.26 27.84 27.90 28.99 31.22 31.03 30.07 29.25 31.44 32.03 32.42 32.75 32.81 33.61 34.69 34.89 35.08 33.13 33.09 33.00 31.83
30.21 30.39 28.53 28.61 26.67 31.86 32.39 31.25 32.59 33.96 32.02 32.57 32.17 31.65 30.29 28.63 27.79 28.17 28.19 28.41 28.51 28.79 29.77 29.69 28.40 27.34 27.82 29.40 31.29 29.41 30.36 31.49 31.79 30.23 30.20 30.69 31.86 31.41 31.01 31.73 32.87 32.70 33.82 32.49
32.76 35.18 32.00 30.48 30.25 29.64 31.08 32.13 31.87 31.36 30.02 31.02 31.15 30.13 29.55 27.06 27.53 26.64 26.68 26.54 26.58 26.85 26.65 28.03 27.32 26.37 26.56 28.21 28.64 30.84 32.06 32.45 30.94 30.50 29.19 28.49 27.66 27.84 29.32 29.28 28.85 28.09 30.42 30.27
29.86 32.51 30.74 29.51 31.09 31.01 29.22 29.71 30.20 30.25 30.11 28.94 29.15 29.05 28.03 27.28 25.76 25.95 25.37 25.52 26.06 26.26 26.58 27.28 26.30 25.78 25.72 27.39 27.80 29.08 31.32 32.66 30.58 29.76 30.12 29.77 28.18 25.91 24.76 25.27 26.40 26.88 27.14 28.42
30.23 27.53 27.79 26.80 31.08 29.23 26.90 28.76 29.65 27.57 27.11 28.59 28.05 26.92 27.83 27.12 26.01 26.12 24.77 25.39 25.35 24.91 25.90 25.34 25.44 25.05 25.49 25.94 26.45 27.73 28.79 30.15 29.16 27.91 28.65 29.22 29.22 28.43 26.23 23.41 22.16 25.58 26.02 26.33

GFSCGP_sfc_wetblb_096.txt.gz
Wetbulb
45.08 39.00 35.12 37.98 39.94 39.73 39.63 38.90 38.03 40.93 43.04 41.99 41.34 41.16 43.32 47.19 47.39 45.87 47.24 48.54 49.04 50.38 52.61 53.83 56.98 59.28 59.00 59.62 60.14 62.86 67.18 69.22 68.20 67.12 65.85 65.41 64.72 65.40 65.76 66.85 66.61 66.40 65.68 65.16
40.16 37.57 41.68 41.93 40.58 40.07 39.56 37.86 37.72 40.61 42.56 41.19 39.99 39.78 42.26 43.79 44.45 45.83 45.98 46.86 48.09 49.61 51.15 52.58 53.89 57.14 58.84 58.66 59.94 61.98 65.86 68.86 67.60 66.94 66.47 65.62 64.68 64.97 64.99 64.74 64.90 65.08 64.81 64.48
36.21 39.40 43.34 41.69 39.71 37.71 38.83 37.95 37.60 37.21 40.22 41.12 39.85 37.56 40.82 44.26 46.08 47.04 47.60 48.86 50.14 50.61 51.41 53.52 55.11 55.93 57.34 58.87 60.55 61.59 64.06 68.78 68.19 67.17 65.91 65.58 65.46 65.40 64.39 63.72 63.02 63.65 64.30 63.92
38.83 41.45 38.81 38.75 39.02 39.43 34.99 41.13 40.09 38.55 36.68 31.60 39.76 31.14 38.36 43.84 45.15 46.27 47.12 48.27 50.64 55.00 56.34 56.73 56.66 56.97 57.05 58.91 61.06 61.10 62.94 64.78 68.17 66.66 65.29 64.92 64.01 62.09 62.44 62.59 62.81 63.05 63.56 63.42
36.06 37.99 38.13 36.07 38.38 41.65 38.25 42.00 39.97 39.28 36.57 35.77 35.75 33.25 37.74 43.31 42.46 45.00 49.37 52.62 55.27 56.70 57.08 57.08 57.55 57.74 57.64 57.92 60.97 61.89 62.66 63.82 67.06 66.03 65.85 65.30 64.07 63.05 62.58 62.59 62.30 62.41 62.53 62.78
38.01 41.59 40.32 39.86 40.04 42.00 43.37 40.25 39.53 39.02 36.72 29.24 35.05 34.67 35.52 39.57 43.10 47.11 51.04 52.97 54.67 55.68 56.85 57.99 58.78 58.57 57.41 58.11 60.71 62.40 62.81 64.35 66.31 66.00 65.87 65.78 63.30 63.00 62.13 61.50 61.76 61.38 61.44 61.51
35.71 37.17 41.27 42.20 36.56 41.54 41.26 36.99 28.37 26.98 27.86 27.00 37.24 35.11 37.66 42.62 48.68 50.01 50.50 52.10 54.06 55.54 56.00 57.39 57.27 58.12 57.60 57.42 60.55 62.70 62.76 63.23 65.39 64.93 65.42 65.95 64.42 63.99 63.07 61.72 61.51 61.47 60.39 60.25
28.52 27.76 37.29 41.73 39.55 36.57 37.96 37.51 30.25 23.47 25.57 29.65 37.50 31.84 37.97 46.40 50.61 51.51 52.01 52.79 53.47 53.49 54.51 54.86 55.43 59.19 59.35 59.48 62.49 62.60 62.92 63.04 65.06 64.56 65.15 64.75 63.33 63.35 62.39 61.33 61.97 60.80 59.64 59.79
27.93 29.68 40.72 41.55 41.23 39.64 37.58 34.22 40.16 33.41 34.26 29.64 34.26 38.59 45.02 47.39 48.11 49.67 49.92 50.80 51.29 51.70 51.98 52.37 53.93 56.92 60.35 61.95 62.04 62.09 62.18 62.84 64.55 63.77 62.95 62.73 63.11 62.07 61.27 61.50 61.08 59.95 58.83 58.73
31.90 25.50 37.99 40.06 41.61 40.69 39.65 41.88 32.87 34.38 26.66 25.14 31.76 33.46 35.62 41.59 44.78 46.29 46.58 48.98 50.09 50.50 50.06 49.37 51.54 52.38 58.34 60.20 59.97 60.63 62.12 62.22 62.78 62.16 62.01 61.55 61.12 61.47 61.48 60.91 59.35 58.08 57.96 57.62
34.41 31.19 31.99 37.92 34.80 35.11 37.78 35.48 36.71 36.54 34.39 26.98 27.91 33.33 42.84 40.66 42.91 44.73 47.59 49.12 48.96 48.25 47.28 46.07 46.75 49.14 51.54 59.46 58.56 59.01 60.29 60.53 60.35 60.66 60.75 59.99 60.16 60.49 60.70 60.19 58.79 57.87 57.09 56.97
34.92 34.14 27.96 33.78 40.37 41.83 40.37 37.96 37.65 31.15 30.43 34.65 33.45 32.92 43.43 44.36 45.09 47.22 47.87 48.81 48.27 47.11 45.36 43.71 43.17 44.08 45.06 49.52 57.77 57.74 58.92 58.68 59.54 59.88 59.47 59.49 59.57 60.10 60.40 59.16 58.50 57.51 56.71 56.96
34.44 30.45 26.52 29.44 35.61 40.78 37.45 38.81 39.23 38.14 37.77 32.36 30.02 32.86 42.50 43.11 45.44 46.49 45.33 46.33 46.65 45.12 42.82 41.28 40.55 40.76 41.38 43.41 48.28 57.21 57.16 57.87 58.76 58.77 58.79 58.67 58.88 59.06 59.02 59.13 58.39 57.04 56.65 56.51
36.26 29.79 26.74 24.12 31.35 37.68 34.81 37.54 38.85 37.34 32.12 32.19 33.21 33.96 38.59 41.51 42.37 43.13 43.39 44.35 44.55 43.10 40.59 38.54 37.98 38.07 39.10 40.34 42.06 45.36 56.46 57.95 58.13 57.93 58.13 58.18 58.11 58.25 58.47 58.97 58.61 57.69 56.82 56.09
34.98 28.75 31.47 32.50 33.29 38.65 36.84 36.28 36.20 34.59 36.10 31.97 34.33 34.81 38.01 40.02 40.28 40.35 40.96 41.19 40.23 38.48 37.36 36.33 35.33 36.16 36.98 37.31 38.67 41.22 45.00 56.83 58.11 57.57 57.20 57.71 58.67 58.76 59.26 59.62 58.69 58.88 57.86 56.89
36.33 31.64 33.22 30.94 36.28 37.28 33.91 34.78 36.21 36.86 36.81 36.25 36.91 36.09 39.81 40.52 37.07 35.35 35.08 34.88 33.56 33.01 32.91 33.28 33.39 34.24 34.49 35.14 36.25 38.41 40.11 45.25 57.24 54.79 55.78 57.62 58.50 59.09 58.96 58.83 59.20 59.00 58.67 58.35
33.97 32.66 32.76 28.05 34.49 34.47 29.41 34.51 36.08 36.53 36.17 35.46 30.72 34.02 36.77 35.25 31.04 29.83 29.87 30.30 29.64 29.87 30.74 30.85 31.31 32.11 32.96 33.89 34.32 35.63 37.39 41.12 45.08 46.60 47.55 49.52 50.88 50.48 49.51 49.86 49.12 47.92 49.55 47.63
33.91 33.26 34.41 28.25 31.85 23.71 34.19 40.34 39.79 34.45 33.21 33.69 33.96 33.66 33.92 31.15 28.95 29.05 29.61 28.66 27.87 28.42 28.94 29.23 30.31 31.39 32.07 33.06 33.47 34.54 35.35 36.43 37.98 38.98 40.86 43.22 43.71 42.90 42.54 41.93 41.00 40.00 40.01 39.87
38.06 36.35 32.12 28.62 28.31 30.85 33.76 35.40 35.47 34.76 29.59 32.23 31.45 31.15 32.26 32.83 31.28 27.05 29.64 29.94 28.71 28.58 29.04 29.01 30.22 31.22 32.10 31.95 32.81 32.83 32.42 33.39 34.20 34.75 35.56 37.13 38.95 38.04 37.00 35.72 35.90 36.05 34.63 33.83
37.82 38.56 34.47 32.26 26.08 23.04 28.70 33.62 39.40 39.44 25.15 32.07 31.00 28.89 29.45 30.45 26.26 24.93 29.68 30.62 29.67 29.39 29.23 28.84 28.97 29.50 30.41 31.29 32.27 31.13 30.64 31.29 31.76 32.95 34.29 34.92 35.09 34.82 34.14 33.89 33.28 33.19 32.50 31.33
32.42 33.29 30.50 29.29 28.80 28.04 29.97 35.15 39.65 28.10 25.14 31.91 30.51 28.25 27.10 24.74 26.77 29.03 30.45 29.87 30.80 29.73 29.21 29.40 28.40 27.66 28.29 31.26 31.39 29.93 29.44 28.67 31.41 32.43 32.27 32.33 34.42 34.04 33.84 33.61 33.33 32.69 31.74 30.93
27.69 27.85 27.31 30.26 27.11 22.42 31.09 33.51 26.83 30.32 33.07 32.47 30.17 29.21 27.46 28.18 28.46 28.67 28.58 28.07 28.28 28.45 28.27 28.16 27.26 26.79 28.13 29.33 31.05 29.06 28.64 30.14 30.03 29.56 30.10 30.55 30.65 31.07 32.54 33.67 33.52 33.34 32.61 31.67
26.45 29.59 27.84 26.75 25.80 30.53 30.84 30.12 31.75 32.23 30.07 30.28 29.97 29.89 28.54 26.93 26.36 26.97 26.70 27.12 27.07 27.13 27.50 28.14 26.44 26.26 27.14 28.24 29.42 28.78 29.78 31.20 29.97 28.00 26.73 26.52 27.93 28.97 29.14 28.00 29.55 31.02 32.24 31.07
32.94 34.48 30.89 29.64 28.79 28.27 29.65 31.32 30.89 30.14 28.85 29.65 30.22 28.95 28.28 26.17 26.53 25.77 26.05 26.09 26.17 26.71 26.70 27.38 26.75 25.20 25.46 27.31 27.84 29.14 30.99 31.42 30.83 28.31 27.22 25.59 25.01 24.98 26.47 26.81 26.32 26.21 28.04 26.66
29.66 32.28 30.34 28.39 29.45 28.96 27.83 29.17 29.91 29.72 30.16 28.69 29.16 28.87 27.53 26.58 25.77 25.79 25.52 25.78 26.24 26.82 26.98 26.92 26.20 25.95 25.00 26.80 27.84 28.60 30.18 30.74 29.10 29.35 28.92 26.73 25.66 24.06 23.77 24.62 25.07 24.89 26.19 27.40
29.75 26.09 26.60 24.82 30.44 27.39 26.23 28.79 29.12 27.26 27.29 28.47 27.51 26.52 27.53 27.36 25.76 25.44 24.28 24.62 24.72 24.34 25.16 24.71 24.46 23.94 24.37 25.37 25.62 27.25 29.36 29.07 29.38 28.13 27.65 27.71 28.67 25.66 23.88 22.51 21.78 26.23 26.56 27.10

GFSCGP_sfc_wetblb_099.txt.gz
Wetbulb
36.92 34.38 32.27 31.86 34.03 35.17 34.70 33.64 32.47 35.99 39.91 38.84 38.05 35.82 39.56 42.26 42.87 42.33 42.94 41.90 43.01 46.68 48.82 49.80 50.48 52.11 52.60 53.83 54.74 60.86 67.73 67.47 67.76 66.51 65.37 64.74 64.35 65.67 65.87 66.07 64.58 66.10 66.39 65.36
32.96 30.09 36.79 40.06 38.18 36.11 34.91 32.33 31.91 36.19 39.68 39.00 36.61 35.33 36.99 39.16 39.65 41.79 41.67 42.29 43.04 43.38 45.80 47.82 49.62 48.28 52.06 52.02 53.25 60.73 67.72 67.39 67.30 66.74 66.13 65.27 65.14 65.13 65.23 65.49 65.40 65.52 65.32 65.18
32.41 35.29 39.88 38.33 37.37 36.23 35.68 33.24 33.10 33.65 37.73 37.30 35.39 34.16 35.63 40.77 41.97 43.54 44.85 43.92 45.31 44.76 44.80 46.71 48.62 48.71 48.94 52.53 53.07 63.25 67.47 67.14 66.73 66.22 65.27 63.89 63.36 64.34 63.74 63.91 64.16 64.33 64.78 64.43
34.52 39.11 37.98 36.23 35.22 35.74 31.38 38.22 36.99 35.47 34.66 28.12 34.35 26.39 34.36 38.03 40.28 42.19 43.87 46.04 45.80 45.23 46.32 50.45 52.82 52.59 51.63 52.06 53.24 63.00 67.31 66.53 65.80 65.40 64.65 63.04 62.46 61.64 63.10 63.46 63.58 63.60 64.09 63.69
30.97 33.20 33.84 33.23 34.78 37.70 34.37 38.79 37.80 36.43 34.57 30.47 31.84 26.95 32.52 38.82 38.63 41.64 45.43 44.41 45.72 47.15 51.40 53.32 53.93 54.06 54.20 52.85 53.50 60.20 66.73 66.16 65.48 64.94 64.12 63.31 62.15 62.10 62.96 62.87 62.12 62.59 62.70 63.30
32.99 38.21 36.59 35.92 38.13 38.13 38.85 37.16 37.31 35.90 32.95 24.98 31.67 30.17 30.40 35.65 39.14 42.55 48.05 50.23 51.61 52.27 52.46 53.66 54.58 55.04 55.86 56.34 52.83 55.24 63.91 65.97 64.98 64.04 63.35 62.85 62.32 61.58 60.94 60.68 60.74 61.43 61.50 61.87
32.37 33.54 37.34 39.14 34.68 37.77 36.49 33.15 24.45 23.53 24.16 22.78 34.43 31.20 32.81 40.05 42.77 45.72 47.81 48.40 49.17 49.95 50.53 50.93 51.63 52.08 53.50 54.13 53.47 55.98 59.08 64.47 64.10 63.20 63.11 62.91 62.56 61.77 60.09 59.64 60.00 59.25 59.97 60.33
24.47 22.30 32.56 38.17 34.22 32.95 33.29 33.38 26.19 19.50 21.58 25.39 34.73 28.48 34.43 42.30 45.37 48.18 49.51 48.66 48.40 48.45 48.77 48.01 49.01 50.53 51.27 55.98 55.55 57.07 60.96 63.20 63.31 63.07 62.45 62.57 63.03 62.95 62.25 60.36 60.37 59.84 60.01 59.96
24.47 24.19 34.29 35.18 38.28 38.68 33.32 30.09 34.52 29.46 32.66 27.74 31.70 36.76 42.73 43.99 45.42 45.28 46.95 46.17 45.75 45.47 45.72 45.23 46.25 47.74 48.10 55.71 56.98 56.77 57.99 60.13 61.88 61.46 61.70 62.14 62.98 62.24 60.80 60.84 60.52 59.03 57.79 59.05
30.55 22.36 32.17 35.88 38.24 39.67 37.09 39.12 29.62 31.48 23.88 22.42 31.03 32.99 32.34 36.76 38.92 43.46 44.07 42.98 43.07 43.32 42.54 42.72 43.50 45.37 46.06 48.23 55.08 56.70 58.00 58.24 60.24 60.89 61.61 61.46 60.65 60.86 60.52 59.81 58.04 56.61 56.59 57.84
31.21 28.59 27.80 34.07 33.71 32.80 34.02 32.50 33.86 34.62 32.03 26.99 25.92 30.56 35.61 37.65 42.72 43.06 42.18 41.82 41.06 40.12 39.70 40.19 40.93 43.06 43.85 45.32 46.67 51.29 56.91 57.33 58.02 60.74 60.11 59.68 59.57 60.19 59.76 58.67 57.30 56.98 57.07 56.79
33.11 30.05 24.33 27.91 36.18 39.11 38.24 34.28 35.03 26.86 28.06 31.98 30.75 29.63 39.84 41.42 43.19 42.23 42.23 42.20 40.75 39.37 38.10 38.14 38.36 39.22 40.35 40.82 42.06 44.26 49.06 57.62 58.42 59.04 59.42 58.82 59.46 59.62 59.28 58.26 56.59 57.35 56.61 56.83
32.75 28.07 19.50 23.95 33.65 37.33 34.74 36.61 37.30 37.20 34.39 30.87 27.91 29.28 40.77 42.04 39.41 39.63 38.57 38.96 37.73 37.05 36.29 35.70 35.87 36.44 36.96 38.37 39.62 40.89 43.35 46.94 58.15 58.54 58.45 58.39 58.62 59.15 58.37 58.08 57.27 57.03 56.73 56.59
35.09 29.92 24.37 19.72 27.18 31.59 29.47 33.41 38.13 36.40 29.93 31.72 31.83 31.13 34.86 35.23 34.02 34.30 34.65 34.96 34.59 34.13 33.87 33.40 33.04 34.01 34.86 36.49 37.59 38.93 40.49 43.22 49.07 57.98 57.84 57.75 57.85 58.19 58.46 57.95 57.04 56.88 56.74 56.23
33.47 27.49 29.05 29.12 30.58 31.69 31.03 32.17 35.71 34.95 33.90 31.16 30.26 28.21 32.31 31.20 31.11 31.05 32.42 32.64 31.87 31.25 31.12 31.48 31.23 31.89 32.92 33.93 35.28 37.57 38.63 40.75 44.22 56.52 57.46 57.55 57.76 58.07 57.90 57.92 57.20 57.06 56.43 56.11
35.34 28.48 32.43 30.70 34.40 34.43 33.35 35.38 34.34 32.80 32.54 32.27 32.00 28.20 34.06 32.25 30.65 29.14 29.05 29.05 28.42 29.09 29.15 29.56 30.16 31.20 31.31 32.30 33.72 35.63 36.45 38.08 40.91 45.26 51.99 56.03 56.95 58.17 57.84 58.08 57.66 57.49 56.55 56.17
33.30 31.26 30.42 27.19 32.92 32.63 29.17 31.74 30.78 29.57 30.06 30.89 25.37 28.09 32.54 27.79 26.83 26.24 26.61 27.01 26.78 27.36 27.67 27.83 28.67 29.97 31.01 31.76 33.01 33.44 34.83 36.22 36.89 37.56 40.91 45.75 47.54 47.49 47.95 47.91 46.42 46.24 44.71 43.39
32.91 32.74 31.68 26.62 29.77 21.81 30.19 34.82 33.00 28.89 28.21 29.42 28.70 28.67 29.88 26.63 26.92 27.81 28.23 26.43 25.98 26.60 26.97 27.11 27.72 28.98 30.61 31.78 32.23 33.61 34.12 33.87 33.70 34.59 35.49 38.14 40.34 40.03 40.42 40.15 39.08 38.13 37.66 37.10
36.94 33.82 29.30 26.55 26.58 29.13 28.88 29.82 28.27 30.93 25.94 29.07 27.15 27.60 30.74 29.58 31.03 25.46 28.75 28.08 26.93 27.32 27.66 27.70 28.50 28.68 29.87 30.54 31.78 31.47 31.74 32.41 31.92 31.28 33.18 34.42 35.63 35.13 34.86 34.05 34.23 34.63 33.85 33.06
37.82 36.29 30.71 28.25 23.64 20.13 25.30 28.88 33.38 33.45 20.05 28.91 27.86 26.08 24.94 28.34 19.54 21.50 27.62 28.64 27.33 26.98 27.35 26.76 27.36 27.77 28.36 30.64 30.95 28.91 28.37 28.47 29.30 31.00 31.01 32.74 34.16 33.65 32.87 32.59 32.03 32.20 31.78 30.99
28.45 28.77 25.28 26.02 23.79 25.01 26.75 29.58 33.72 17.08 22.00 28.77 28.12 26.52 24.60 21.79 24.29 26.60 27.59 26.56 27.38 27.43 26.32 27.12 26.22 25.57 27.09 29.65 30.34 28.46 27.64 26.28 27.86 28.80 30.69 30.72 31.32 32.69 33.60 33.32 33.05 32.22 31.26 30.58
25.09 24.96 23.15 24.97 21.23 18.00 28.44 29.06 23.03 29.39 30.32 29.29 28.13 27.25 23.34 23.62 24.46 25.20 25.70 25.50 25.98 25.90 26.02 26.08 24.80 25.20 26.51 28.36 29.73 27.96 27.86 28.64 27.58 26.98 26.59 26.90 28.29 29.52 31.00 31.00 31.49 32.17 31.13 29.53
24.28 29.85 24.20 25.13 22.53 28.58 28.88 27.51 29.27 29.27 27.64 28.22 28.05 27.10 24.85 22.47 22.70 24.27 24.57 25.35 25.42 25.40 25.58 26.58 24.75 24.11 26.26 27.48 28.24 27.24 28.88 29.07 27.39 25.76 24.75 25.16 25.69 26.46 26.88 27.28 28.77 28.31 29.09 27.92
28.39 31.91 26.25 26.39 25.96 26.26 28.49 28.91 28.67 28.02 27.20 28.51 28.35 26.84 25.96 24.00 24.37 23.55 24.41 24.79 25.16 24.81 24.10 24.97 24.45 22.96 23.24 24.83 26.94 27.76 29.30 29.79 29.55 26.46 25.09 24.37 24.34 24.18 24.96 25.44 26.03 26.14 25.68 25.47
26.95 28.86 27.56 25.82 26.30 26.35 26.55 27.62 28.37 28.40 28.48 27.43 27.86 27.43 26.54 25.40 23.57 23.33 22.95 22.86 23.26 23.48 23.76 23.63 22.73 22.36 22.39 25.11 25.25 26.99 27.96 29.31 28.21 27.81 27.82 25.31 24.24 22.92 22.88 24.46 24.88 25.20 26.44 26.16
28.39 24.99 24.18 20.19 27.41 24.41 24.95 27.48 28.42 26.67 26.81 27.77 26.48 25.60 26.48 25.57 24.15 23.82 22.58 22.89 22.42 21.64 22.24 21.33 21.38 21.65 21.38 22.49 23.65 25.49 27.58 27.17 26.49 26.12 26.63 26.98 26.49 24.19 22.78 21.75 22.31 26.98 27.42 28.21

GFSCGP_sfc_wetblb_102.txt.gz
Wetbulb
34.82 28.99 26.34 31.66 32.19 34.14 32.47 30.35 28.76 32.47 36.81 35.64 34.68 35.20 38.27 42.05 38.33 39.08 41.45 40.40 40.99 42.85 46.27 47.47 48.35 49.48 50.29 51.16 52.02 58.90 65.31 66.80 67.71 66.89 66.04 64.86 64.84 65.44 64.78 65.19 65.58 65.54 64.62 64.24
31.55 27.35 32.82 36.26 36.63 34.10 32.53 29.89 29.43 33.53 36.49 35.44 34.12 34.19 38.28 38.14 38.89 39.28 39.10 39.06 39.97 40.85 42.66 44.48 45.42 46.21 47.92 50.38 51.38 55.91 64.56 66.41 67.46 67.08 66.67 65.80 66.01 64.75 65.07 65.09 65.44 66.62 65.79 65.01
30.60 33.71 38.43 36.57 33.95 32.47 32.77 31.43 31.67 31.71 35.64 36.71 33.65 32.34 35.50 39.20 39.18 41.02 42.19 42.31 42.05 41.71 42.65 44.07 45.06 44.75 44.49 46.81 49.32 55.31 63.09 66.21 67.20 67.28 66.61 63.88 64.10 62.85 62.26 64.17 64.83 65.08 65.50 65.12
32.50 36.62 35.77 33.49 32.07 33.58 28.54 35.12 34.61 33.32 31.29 26.51 32.89 24.26 34.03 37.20 38.43 40.66 41.77 42.38 42.98 43.84 45.32 47.17 51.17 51.49 51.62 49.91 48.14 54.74 62.09 66.04 66.76 66.90 65.44 64.14 63.73 62.74 63.82 63.90 64.56 64.53 64.50 64.70
29.24 30.89 30.07 29.71 31.30 33.92 30.59 36.37 34.37 33.93 30.82 29.99 30.83 26.27 32.60 36.06 35.66 38.08 40.28 46.32 47.94 48.93 50.40 50.71 50.77 51.94 53.03 53.58 53.55 61.02 63.97 65.88 66.64 66.01 65.36 64.15 63.19 63.38 61.91 62.52 63.31 63.34 63.75 63.77
31.22 33.96 31.94 31.86 36.02 36.22 37.51 34.36 34.20 34.74 31.28 23.01 28.68 28.42 29.58 33.24 36.24 39.03 46.68 47.95 47.59 47.45 47.87 48.65 50.30 50.85 51.23 54.36 56.56 57.67 65.46 65.75 65.79 65.46 64.80 63.78 62.53 61.52 61.41 62.16 62.03 62.24 62.80 63.11
30.52 31.63 34.51 36.71 31.70 34.93 33.70 29.05 22.30 19.36 21.94 21.19 32.12 28.61 31.14 38.11 41.14 41.92 44.44 45.46 46.00 46.02 45.23 45.01 45.90 47.07 48.10 49.27 55.05 53.34 64.94 64.97 65.17 64.49 63.89 62.98 62.16 61.37 61.34 61.17 61.08 61.41 61.33 61.48
22.63 20.49 30.50 34.88 31.30 28.14 28.53 30.35 23.11 16.85 19.25 24.10 32.34 25.51 30.77 42.32 45.31 46.36 46.20 44.82 43.34 42.29 42.47 42.47 44.39 45.27 45.86 46.94 48.58 55.73 60.36 64.15 63.81 62.87 62.55 62.57 62.25 61.64 61.36 60.91 60.08 60.53 60.58 60.11
24.25 23.76 33.38 34.07 34.74 35.49 32.00 28.83 33.62 26.81 28.47 24.98 30.16 33.93 39.99 42.63 42.45 42.35 41.89 40.98 39.61 38.75 39.29 39.54 41.51 42.44 43.33 44.03 45.46 48.09 56.69 59.01 62.02 61.56 61.82 60.98 61.15 61.15 60.97 60.03 60.64 60.63 60.15 59.75
29.44 21.16 30.71 33.07 35.17 36.04 35.08 38.01 25.43 27.87 19.29 19.56 28.07 31.54 32.62 34.91 38.96 40.19 37.34 36.64 36.68 36.46 36.40 37.48 39.37 39.40 41.13 42.12 43.57 46.00 48.26 52.78 58.41 60.12 61.20 61.63 61.16 60.17 59.79 60.03 60.12 59.47 58.71 59.03
30.47 26.65 25.80 30.75 31.33 31.13 33.69 31.76 32.31 31.71 30.01 23.21 23.87 27.54 33.51 33.90 36.45 36.32 36.32 35.52 34.73 34.32 33.96 34.52 35.98 37.53 38.67 40.17 40.65 42.62 44.92 47.29 51.45 57.97 58.40 59.30 58.98 59.37 58.94 59.25 58.44 57.64 56.82 56.30
32.20 27.60 22.24 25.63 33.18 35.67 36.33 33.55 32.99 24.70 26.15 30.47 28.71 27.84 36.16 34.61 34.40 34.38 33.74 34.11 34.02 33.43 32.35 32.29 33.93 35.16 35.67 36.77 38.21 40.75 42.88 42.80 46.30 54.79 57.28 58.54 59.61 59.45 58.53 57.96 57.64 57.06 55.38 55.90
32.25 24.57 19.43 21.52 31.60 35.63 33.43 35.20 35.54 35.25 33.40 30.05 27.49 27.43 35.78 33.97 31.92 32.21 31.33 31.94 32.10 31.42 30.97 30.72 31.43 32.58 33.58 34.87 35.98 37.48 40.08 41.02 43.90 47.68 57.28 58.40 58.68 58.55 58.10 57.64 57.20 56.26 56.48 56.38
35.23 27.55 23.95 19.57 25.32 30.22 28.21 31.39 34.08 34.46 28.83 28.33 26.23 27.78 29.27 29.19 28.16 29.16 29.39 30.30 30.77 30.19 29.33 29.54 30.06 31.01 32.26 33.52 34.48 35.76 37.66 39.81 42.18 46.58 57.66 57.56 57.92 58.18 58.14 57.80 56.72 56.04 55.98 56.28
33.36 27.89 29.09 27.84 28.96 29.55 29.00 32.39 33.34 32.23 32.44 27.75 26.84 26.33 27.30 26.97 26.99 27.05 28.30 28.99 28.63 27.65 27.83 28.36 28.76 29.74 30.71 31.96 33.06 34.73 36.04 38.04 40.57 41.75 44.75 51.11 57.88 58.31 58.02 57.04 56.70 56.60 56.68 56.30
32.85 27.60 30.09 27.23 31.08 30.33 29.70 32.56 30.15 29.78 30.65 30.03 28.16 26.02 29.07 28.07 27.45 25.90 26.17 26.03 25.83 26.12 26.68 27.29 27.81 28.93 29.84 30.79 31.47 33.52 34.41 35.71 37.49 38.04 38.53 41.61 47.35 56.72 56.68 57.06 56.98 55.44 52.31 53.61
29.16 29.41 29.64 26.93 31.80 32.15 25.06 27.81 27.20 26.83 27.85 27.26 23.43 27.59 27.53 24.34 24.09 23.91 24.02 24.48 24.19 24.97 25.37 25.53 26.85 27.90 29.59 30.15 30.53 30.90 32.90 34.86 34.86 34.77 35.61 36.82 39.33 42.73 44.23 45.27 43.81 42.93 42.21 41.54
30.28 30.67 32.02 27.75 29.66 17.97 27.63 32.10 30.00 26.16 26.40 27.23 26.96 28.91 25.62 24.25 25.12 26.29 26.31 23.93 23.22 24.22 24.51 24.92 25.98 27.18 29.72 30.23 29.86 30.24 30.26 31.52 32.45 32.84 33.00 34.46 35.54 36.10 37.21 37.62 36.68 36.17 36.12 35.62
35.65 32.67 29.02 26.93 24.80 26.66 27.54 27.10 25.82 27.33 22.77 27.21 25.22 26.39 27.97 27.61 26.17 23.11 25.79 26.41 24.56 24.58 25.34 25.90 26.66 27.26 28.68 29.73 29.93 28.94 27.97 28.25 28.19 30.09 31.25 32.06 34.31 33.26 33.29 32.76 32.92 33.15 32.60 32.37
34.96 35.68 30.70 28.61 22.06 18.41 23.86 26.12 30.93 31.40 17.22 27.41 26.07 23.56 23.05 28.00 17.52 19.29 24.74 25.62 25.19 24.78 25.59 25.00 26.21 26.63 26.61 28.97 29.96 27.41 26.19 25.73 25.61 26.83 28.59 30.81 31.77 32.19 32.22 32.00 31.40 31.47 31.28 30.48
26.79 28.05 23.83 25.30 22.40 23.75 24.63 27.78 32.72 18.03 18.82 27.29 25.58 23.33 21.63 19.31 21.39 24.13 25.64 24.78 25.69 25.47 24.54 25.05 24.35 24.68 25.90 27.98 28.89 25.88 25.38 24.03 25.85 26.88 27.28 27.46 28.40 30.24 31.14 31.70 31.85 31.32 30.67 29.98
24.71 23.63 21.40 23.35 19.91 17.51 26.36 26.85 22.52 26.03 28.44 27.23 25.16 23.31 21.28 21.51 22.24 22.07 22.96 23.13 23.50 23.40 23.95 23.62 22.68 23.18 24.31 26.73 26.97 26.45 26.19 26.95 26.45 25.64 25.31 25.55 26.33 27.03 28.21 28.93 29.59 29.88 29.37 28.61
22.82 27.27 22.58 23.24 20.72 26.84 27.13 25.55 27.96 28.94 26.93 27.14 24.63 24.04 22.41 20.10 20.79 21.61 22.64 23.44 22.94 22.71 22.43 23.16 21.60 21.83 23.66 24.55 25.93 24.50 27.74 28.64 26.88 25.25 23.81 24.27 24.96 25.77 26.35 26.12 25.87 26.01 27.42 27.39
26.26 30.43 23.90 23.39 24.53 25.73 27.25 27.43 27.39 27.62 27.24 26.55 25.62 24.88 23.84 20.88 21.09 20.64 21.45 21.83 21.96 22.15 21.46 22.27 21.78 20.46 20.66 23.29 24.79 26.13 26.12 28.59 28.31 25.72 24.58 23.72 23.15 23.49 25.14 25.78 26.18 25.52 24.84 25.04
25.67 26.80 25.43 23.23 24.90 25.33 26.14 26.81 27.43 26.68 26.48 26.22 25.96 24.95 23.83 22.93 22.13 21.69 20.96 20.68 19.98 19.84 19.57 19.84 19.57 19.75 19.66 21.36 22.15 24.50 25.55 25.96 25.96 26.23 26.55 24.44 23.54 22.76 22.90 24.56 25.49 25.41 27.13 27.63
27.87 24.10 21.58 20.12 25.37 23.77 24.37 26.66 27.26 26.05 25.92 25.96 24.30 23.90 25.42 24.74 23.12 22.24 20.25 20.19 19.09 18.40 18.63 17.84 18.42 18.71 19.21 20.00 20.54 21.97 24.98 26.06 24.67 24.59 25.02 25.29 25.57 24.11 22.98 21.67 21.94 26.93 27.77 27.98

GFSCGP_sfc_wetblb_108.txt.gz
Wetbulb
32.96 27.91 25.62 30.35 31.45 31.50 28.73 27.57 27.01 29.71 33.95 31.70 30.67 31.52 34.71 37.32 36.22 36.49 37.59 38.86 39.14 39.64 43.29 43.06 42.83 42.95 43.32 43.74 45.22 46.76 48.04 57.51 65.74 65.94 65.33 65.18 63.98 64.95 65.02 65.41 65.61 65.94 66.14 65.63
29.24 25.61 31.87 32.02 31.80 31.17 29.29 26.98 25.91 30.01 33.15 31.78 30.10 30.52 34.17 35.98 35.59 36.97 38.46 38.94 39.19 39.76 44.31 48.25 47.56 42.23 40.83 42.35 43.16 45.02 46.84 49.46 64.07 64.95 66.05 65.81 65.63 65.65 65.90 65.76 65.60 65.51 65.70 65.39
28.14 31.78 35.04 32.41 29.63 28.76 28.10 26.59 26.78 27.77 29.39 30.51 28.71 27.32 30.18 34.96 37.55 39.03 39.83 41.03 41.81 43.81 44.49 45.69 46.92 47.94 49.33 49.15 49.73 48.30 45.84 50.47 61.36 64.76 66.20 65.31 65.29 64.66 64.14 64.23 64.83 65.24 65.38 65.07
29.63 33.10 32.06 29.51 27.84 29.43 23.47 30.86 30.33 28.24 25.31 21.35 29.51 19.01 28.64 31.91 34.22 36.84 38.71 40.17 42.71 43.86 44.34 44.39 44.81 45.88 47.14 47.51 48.55 50.26 53.16 49.59 60.95 65.00 65.36 64.43 63.38 62.47 63.58 64.17 64.65 64.98 65.09 65.07
28.85 29.34 28.52 26.80 28.77 30.62 26.95 31.41 28.99 27.96 25.07 24.54 25.29 20.70 26.14 32.15 31.09 35.36 40.25 41.44 40.25 40.56 41.74 41.96 43.01 43.76 45.43 46.81 46.02 47.29 49.90 53.22 56.66 64.26 64.88 64.70 63.53 63.39 63.55 64.52 63.99 64.32 64.62 64.97
29.77 32.55 31.11 30.22 32.06 32.19 33.33 30.30 29.39 27.84 24.33 17.64 24.18 21.84 23.39 27.41 34.74 36.76 39.66 39.62 39.61 38.89 38.88 39.54 41.02 42.17 42.41 43.75 44.75 45.41 50.23 55.02 54.76 63.40 64.72 64.36 63.31 62.48 62.03 63.49 63.36 63.28 64.34 64.29
28.04 28.48 30.32 33.46 27.81 30.72 29.35 24.38 16.18 13.56 17.24 16.19 25.64 22.76 25.10 34.41 35.54 35.18 35.02 35.84 36.42 36.45 36.40 36.80 36.33 37.81 39.91 41.29 42.25 44.26 46.94 51.51 59.10 62.40 64.38 64.12 63.18 62.46 62.15 62.79 63.13 62.73 62.66 63.35
20.82 18.18 26.93 31.54 28.95 24.95 24.12 24.82 19.05 12.41 15.00 17.80 26.53 20.37 30.45 35.76 36.06 36.15 36.03 35.61 34.32 33.45 33.96 34.02 34.80 36.24 37.43 39.54 41.05 41.80 44.66 47.04 50.79 61.76 64.32 64.65 63.15 61.95 62.11 62.67 62.98 62.88 62.11 63.02
20.60 21.44 29.58 31.45 32.01 30.31 25.96 21.87 27.41 21.78 23.08 18.19 21.57 26.68 34.00 32.99 32.58 33.41 33.52 33.39 31.82 31.01 31.65 32.45 33.38 34.62 35.73 37.89 39.77 41.97 42.53 44.90 47.88 51.12 62.65 63.86 63.40 62.20 61.48 61.96 62.26 62.98 62.07 61.23
27.51 19.87 28.18 30.27 31.51 30.88 28.36 31.85 21.04 24.44 12.84 14.60 20.05 23.38 22.36 26.41 28.45 30.50 30.33 30.40 29.95 30.27 30.68 31.00 31.77 32.83 34.17 35.91 38.26 41.35 41.90 43.04 45.63 48.69 52.46 62.41 61.64 61.09 60.34 60.30 60.71 61.08 61.02 60.48
27.55 25.02 23.66 27.72 25.42 22.85 27.24 26.36 26.80 26.05 25.04 17.83 14.40 19.08 30.37 27.32 28.38 27.78 28.96 29.47 28.98 29.05 28.99 29.65 30.79 32.17 32.42 34.66 36.26 37.64 40.35 40.98 43.49 45.88 49.73 58.10 60.61 60.32 60.38 60.24 60.10 60.00 59.18 59.12
27.57 24.14 20.80 22.64 30.13 31.94 29.07 26.78 27.07 20.55 24.25 26.71 23.75 20.80 31.33 29.18 28.86 28.08 27.23 28.12 28.47 29.13 28.37 28.87 29.83 30.89 31.15 32.42 34.35 34.95 38.72 40.38 41.53 44.95 49.72 58.32 59.22 59.66 59.30 58.94 58.74 58.56 58.24 58.46
29.79 23.92 15.89 20.61 27.83 33.13 29.79 31.74 33.19 31.12 29.17 27.06 17.80 17.98 29.59 28.36 26.33 26.36 25.51 26.44 26.85 27.19 26.96 27.11 27.74 28.69 29.65 30.19 31.69 32.89 34.41 36.76 40.81 42.82 44.86 48.05 51.55 58.34 57.98 57.92 57.86 57.88 57.88 57.74
31.62 24.92 19.73 15.99 21.88 26.70 24.27 28.01 30.76 29.53 24.18 23.69 20.63 22.77 23.41 24.10 22.60 23.55 24.37 25.35 25.82 25.84 25.98 25.97 26.15 27.37 29.10 29.69 29.97 31.72 31.86 34.53 37.08 39.04 41.10 41.78 43.35 50.85 57.33 57.39 57.17 57.11 57.09 56.29
28.94 23.64 24.98 25.96 27.29 27.96 28.04 26.65 26.26 29.50 30.41 25.11 23.56 20.92 22.11 22.67 22.36 22.75 24.27 24.24 24.11 24.23 24.55 24.78 25.08 26.36 27.85 28.06 28.50 29.18 30.32 31.99 34.39 36.53 36.14 37.77 39.48 41.69 45.33 52.28 55.79 55.91 55.73 55.87
34.37 23.83 26.33 22.85 27.76 29.58 23.83 25.43 24.55 24.22 26.81 24.52 23.02 20.17 24.84 24.81 24.54 22.85 22.04 22.60 22.32 23.19 23.48 24.07 24.71 25.83 27.13 26.72 27.27 27.92 28.89 30.21 31.74 33.27 34.83 35.86 36.50 36.36 37.52 38.24 39.91 41.05 41.77 43.02
28.89 26.53 24.85 22.76 26.69 25.90 19.97 23.16 23.84 23.02 24.05 25.50 22.42 22.61 24.44 21.66 21.22 20.69 21.21 21.91 21.71 22.54 22.81 23.03 23.85 25.45 26.80 27.12 26.93 26.25 27.16 29.35 29.64 29.82 31.19 32.98 33.81 32.90 33.85 34.32 34.39 34.75 34.77 35.90
28.72 27.43 27.33 24.10 25.54 15.80 23.30 29.99 26.82 22.75 22.95 24.66 24.19 23.89 23.31 21.36 21.79 22.66 23.38 22.06 21.42 22.07 22.13 22.48 23.69 24.54 26.21 28.03 26.92 26.89 26.47 26.73 27.48 28.02 28.80 29.90 31.55 31.79 32.31 32.33 31.76 32.08 32.50 32.31
32.34 29.43 25.31 24.74 21.27 22.27 26.02 24.26 23.70 24.34 20.43 24.03 23.24 24.55 25.39 24.41 26.11 21.16 23.13 23.50 22.42 22.06 22.52 22.67 24.20 24.58 25.51 26.21 27.87 26.00 24.99 24.69 25.02 25.66 26.95 28.54 29.26 29.13 30.51 30.45 30.85 31.14 30.74 30.52
33.97 32.95 28.39 26.94 21.04 16.44 21.41 24.26 27.79 28.35 14.99 24.11 23.03 22.33 22.09 26.14 18.43 17.11 22.39 22.56 22.10 22.26 22.45 21.16 22.46 23.44 23.57 25.27 26.67 25.86 23.85 23.04 22.42 24.35 25.95 27.61 28.93 28.52 28.03 28.58 29.97 31.01 31.16 30.37
26.62 27.64 24.01 24.79 21.07 20.93 22.80 24.62 29.45 18.87 17.00 23.50 22.27 20.10 20.04 16.66 17.27 20.35 22.70 21.44 21.65 21.23 20.66 20.57 20.63 21.22 21.85 24.34 25.47 23.98 24.16 22.34 23.21 23.98 25.20 26.07 27.15 27.91 28.87 28.77 29.09 29.60 29.85 30.15
22.30 21.56 20.15 22.55 20.89 17.26 24.18 26.31 22.70 23.28 24.79 23.09 21.05 19.26 17.86 16.77 18.79 19.48 20.17 19.03 18.40 17.24 17.97 18.06 17.79 19.46 21.17 22.87 24.12 22.91 22.54 25.47 23.87 23.08 22.73 23.49 25.41 26.15 26.80 27.50 28.27 28.70 29.11 28.58
21.58 22.84 20.56 20.17 18.27 23.55 25.18 24.98 26.99 26.82 23.74 22.60 21.40 21.20 16.62 13.49 16.28 17.48 17.78 17.77 16.07 14.95 14.74 17.16 15.44 16.78 18.86 20.50 22.02 21.72 22.79 24.98 25.17 23.14 21.74 21.75 21.88 22.99 25.07 25.03 25.36 26.20 27.11 26.87
26.13 27.62 21.13 20.47 23.08 22.84 23.81 24.89 25.41 25.13 22.92 23.35 22.92 20.65 19.68 16.80 15.87 14.31 13.46 14.29 14.57 14.53 15.17 16.44 17.04 15.95 15.88 17.48 18.73 21.16 23.40 24.53 24.43 23.13 22.82 21.95 21.26 21.06 22.82 23.71 24.57 24.61 24.89 23.97
23.98 25.00 22.81 20.63 23.01 23.69 23.61 23.29 24.44 24.52 23.62 22.34 23.02 21.53 19.64 17.95 15.59 13.83 11.65 12.34 13.00 13.49 14.55 16.16 15.76 15.91 15.48 16.91 17.10 18.53 21.25 22.04 22.75 22.08 20.82 19.58 19.46 18.62 18.76 21.67 23.18 23.08 25.03 25.40
27.60 24.08 17.37 13.29 21.90 21.17 22.17 21.53 24.66 22.20 21.55 22.35 22.33 21.52 21.85 19.87 17.74 17.04 15.58 15.55 14.67 14.46 15.57 14.91 15.39 15.37 15.34 16.39 16.72 17.86 21.10 21.45 20.08 19.61 19.14 17.60 16.94 16.81 17.01 15.95 16.14 23.23 24.32 24.95

GFSCGP_sfc_wetblb_111.txt.gz
Wetbulb
37.07 35.03 32.66 35.35 36.16 35.32 33.43 31.41 30.99 34.26 37.38 34.97 35.01 35.05 37.01 39.42 39.55 39.77 41.35 41.79 42.69 43.91 46.52 47.52 51.26 52.97 51.44 50.22 49.86 50.97 52.65 55.76 62.03 65.48 65.56 64.95 64.03 65.40 66.91 66.91 67.28 67.16 67.13 66.69
34.82 31.77 36.03 35.38 34.54 33.33 32.46 30.72 30.81 33.89 36.01 35.02 33.93 33.01 36.30 37.57 38.56 39.64 40.01 41.54 42.81 44.32 47.00 49.68 50.28 50.55 51.31 52.41 53.57 54.63 54.58 52.19 54.60 63.56 66.40 66.50 65.66 65.58 66.76 66.24 66.29 66.58 66.65 66.47
32.41 34.66 36.36 34.43 33.17 31.51 31.42 30.22 30.05 29.82 32.96 34.04 32.59 31.34 34.37 37.31 38.72 40.20 43.41 45.01 45.16 44.67 44.50 46.26 47.15 47.94 48.40 49.70 50.56 51.34 53.24 55.34 56.38 56.13 64.49 67.20 67.41 67.26 65.01 64.99 65.49 65.33 66.13 66.20
33.20 35.02 33.58 32.39 30.58 31.83 27.54 33.04 31.99 30.26 28.52 25.11 32.98 23.26 31.66 34.56 36.29 40.85 41.56 40.96 40.01 40.21 40.85 41.68 43.13 44.03 45.70 47.43 48.62 49.70 50.77 52.12 55.13 57.70 59.66 65.25 64.29 63.00 64.10 65.11 65.86 65.51 65.75 65.91
31.20 31.42 31.19 30.17 31.46 32.66 30.51 33.48 31.56 31.38 29.17 28.14 28.68 24.80 30.56 34.49 33.90 35.21 36.72 37.34 37.16 37.02 36.45 37.00 38.15 39.49 41.34 43.30 44.24 45.66 48.08 51.00 54.68 57.40 59.77 65.34 65.32 65.75 66.21 66.63 66.48 65.53 65.20 65.53
32.14 35.70 34.25 33.23 34.28 33.96 34.69 32.30 31.75 31.39 28.59 20.78 27.00 26.30 27.48 31.23 32.31 33.32 34.83 35.97 35.63 34.81 34.25 34.98 36.95 37.43 38.43 40.33 41.24 42.93 44.83 47.70 53.09 58.08 58.83 64.76 65.69 65.15 65.49 65.87 64.66 64.62 65.06 64.52
29.34 30.61 34.26 35.39 31.56 32.86 31.79 27.96 21.48 19.50 19.85 19.60 28.60 25.78 29.02 33.26 34.86 33.96 33.45 33.57 34.73 34.76 32.99 32.96 33.46 34.73 36.21 37.65 38.71 40.83 43.22 44.39 48.40 53.23 58.28 64.53 66.02 66.39 65.99 65.65 65.44 64.34 63.78 63.59
23.03 22.05 30.75 33.16 31.38 27.89 28.16 26.87 21.56 14.09 17.38 21.35 28.17 22.68 29.57 34.44 35.63 35.64 35.08 34.14 33.57 33.06 32.10 31.60 32.53 33.60 34.02 35.76 37.97 38.72 42.22 42.84 46.15 49.64 55.70 63.88 64.05 64.24 65.74 66.19 65.86 65.35 64.84 64.07
22.73 22.47 32.35 32.42 32.70 31.76 26.99 23.99 30.47 23.64 25.02 20.29 24.13 28.56 32.03 33.32 32.66 32.81 31.86 32.09 30.96 31.07 30.98 30.56 31.59 32.44 33.39 34.08 35.06 38.31 40.50 42.39 44.59 47.11 50.65 61.58 63.98 64.00 64.68 65.81 66.51 66.42 66.04 64.56
27.85 21.15 29.66 31.14 33.46 32.78 30.55 33.11 24.29 25.19 16.21 15.53 23.61 25.57 27.99 26.81 27.86 29.39 28.86 28.80 29.48 29.92 29.43 29.81 30.13 31.28 32.83 33.73 34.38 36.96 39.33 41.29 43.25 45.32 49.02 53.07 64.31 63.58 63.87 65.06 65.26 65.48 65.52 64.16
30.82 26.30 24.80 29.62 27.51 26.27 27.65 26.37 28.00 27.77 25.32 20.68 20.05 23.79 29.78 26.58 27.37 26.66 27.60 28.33 28.49 28.51 28.46 28.51 29.44 30.61 31.88 32.65 33.15 34.29 35.43 38.59 41.84 43.38 46.52 52.74 61.71 62.57 63.24 62.99 64.93 64.93 63.89 62.60
30.80 27.39 21.85 24.48 31.31 33.64 30.78 28.52 28.17 22.67 21.93 25.77 24.89 23.55 29.29 28.25 27.73 27.37 26.87 27.52 28.38 28.69 28.35 28.64 28.44 29.39 30.14 30.33 31.09 32.25 33.29 35.10 38.86 42.89 45.38 47.66 51.65 60.81 60.76 60.82 60.85 61.42 60.80 62.42
32.10 26.10 19.08 22.35 28.98 33.03 28.86 30.66 31.01 31.62 28.51 22.81 21.31 22.34 28.65 27.56 25.95 26.06 25.43 26.28 26.90 27.08 26.84 26.87 27.27 27.55 28.28 28.66 29.55 30.27 31.82 33.22 36.03 40.48 42.82 43.97 45.35 50.08 58.98 58.74 58.74 59.30 59.38 59.38
34.33 27.21 22.45 18.85 23.41 27.28 24.31 27.69 29.97 29.25 25.05 25.17 24.87 21.43 22.93 23.96 23.23 23.65 24.32 25.73 26.07 26.01 25.35 25.47 25.40 26.53 27.73 27.60 28.04 28.57 30.15 32.18 33.82 37.42 38.44 40.57 40.57 43.54 47.20 55.63 56.73 57.41 57.91 57.57
31.66 23.87 25.26 26.17 27.40 27.79 27.89 26.44 26.50 23.08 27.75 25.88 22.36 20.23 21.87 23.07 22.50 22.89 24.03 24.28 24.04 23.84 23.69 24.33 24.67 25.62 26.76 26.93 27.04 27.60 28.66 30.56 32.10 33.81 34.73 36.76 38.74 38.81 41.02 41.82 43.88 45.61 44.43 44.75
32.58 25.29 25.77 21.78 28.16 28.56 23.45 25.30 25.72 24.05 26.04 23.70 22.46 19.96 24.65 24.86 24.51 22.75 22.74 22.75 22.40 22.94 23.12 23.62 24.40 24.98 25.63 26.90 26.52 26.52 27.29 28.67 30.44 30.98 32.35 34.10 36.36 36.27 35.55 36.80 37.60 39.03 38.45 38.21
29.76 27.38 25.25 22.24 26.63 25.68 22.14 23.74 23.90 23.66 25.16 26.02 22.91 22.97 24.57 22.34 21.60 21.20 21.56 22.48 21.73 22.17 22.51 22.76 23.78 24.89 25.67 26.70 27.29 26.03 26.63 27.81 28.23 28.75 29.59 31.54 32.64 33.70 32.43 34.23 34.30 33.25 33.67 34.32
29.85 28.17 27.70 24.20 25.47 17.96 24.71 28.74 26.65 23.38 23.27 25.71 24.64 24.43 24.13 22.33 22.64 23.00 23.21 21.96 21.27 21.45 21.77 22.38 23.20 23.98 25.74 27.05 27.85 27.41 27.15 26.10 26.75 27.06 28.13 29.23 30.26 30.72 31.74 32.13 31.64 31.76 31.76 31.52
32.10 29.87 25.11 24.53 22.22 22.84 25.07 25.56 25.24 24.39 21.01 24.50 24.34 25.66 25.27 25.08 26.31 21.94 23.29 23.24 22.09 21.62 22.21 22.15 23.98 24.19 25.00 26.75 27.58 27.65 26.37 25.85 25.52 25.18 26.65 28.22 29.03 29.19 29.73 30.27 30.98 31.45 31.07 30.46
33.77 31.95 26.96 25.65 20.60 17.51 23.14 24.83 28.05 28.38 20.30 24.34 24.50 23.84 25.82 26.73 21.76 19.24 22.26 22.44 21.64 21.50 21.84 20.69 22.59 23.03 23.46 25.09 27.05 25.59 25.51 24.65 23.38 24.77 25.37 27.31 28.59 28.91 29.06 29.88 30.37 31.14 31.21 30.39
26.57 27.57 25.02 26.21 22.10 21.59 23.61 25.34 29.22 21.42 21.21 23.84 22.92 22.62 23.78 20.24 20.88 21.24 21.95 20.77 21.11 20.16 19.69 20.00 20.75 20.93 21.71 23.81 25.73 24.09 24.54 24.12 24.97 25.31 25.78 25.46 27.05 27.94 28.90 30.07 30.57 31.74 31.22 30.83
23.12 21.73 21.97 24.31 21.18 18.41 24.88 27.18 24.36 24.69 25.10 23.22 21.92 20.82 19.21 20.01 19.96 19.91 19.81 18.86 18.48 17.77 18.56 19.00 18.34 18.93 20.45 22.13 23.70 22.59 23.08 25.44 25.68 24.92 24.26 24.49 25.66 26.58 27.83 28.27 29.22 29.29 30.03 29.83
23.01 23.68 21.47 20.81 20.12 24.20 26.20 26.04 28.23 27.65 24.26 23.14 22.37 21.26 19.62 18.29 17.96 18.41 18.15 18.87 18.40 17.99 18.40 19.31 17.77 17.73 18.72 19.88 21.40 20.90 23.04 24.14 23.26 22.79 22.08 23.02 24.28 25.60 26.33 26.24 26.75 26.83 27.45 27.03
26.97 28.17 22.45 22.14 22.78 23.32 24.59 26.12 26.45 26.49 24.29 24.30 23.81 22.33 20.86 17.97 17.02 15.62 17.06 17.90 18.10 18.27 18.32 19.32 19.02 17.47 16.89 18.85 19.80 21.19 22.41 22.84 22.03 20.60 20.81 22.53 22.03 23.00 24.31 26.21 26.21 25.93 25.65 25.54
26.16 27.07 23.75 21.35 23.13 23.67 23.95 25.48 25.30 24.54 24.27 23.27 22.93 22.22 20.24 18.88 16.69 16.50 16.05 17.11 17.56 17.93 18.06 18.59 18.23 18.10 18.10 19.53 19.89 21.36 22.65 22.83 22.55 21.34 20.86 21.07 21.80 21.28 21.67 22.55 23.88 24.20 24.47 24.63
28.29 24.39 21.73 22.16 24.56 24.16 22.92 25.43 25.69 23.57 22.92 23.15 22.38 20.92 20.86 20.04 18.19 18.64 17.55 17.97 18.11 17.68 18.16 18.26 18.48 18.52 19.02 19.86 19.69 21.39 23.09 22.83 21.53 21.08 20.46 19.39 20.14 20.27 20.27 20.28 20.54 21.54 21.93 22.72

GFSCGP_sfc_wetblb_114.txt.gz
Wetbulb
43.46 39.83 37.66 40.50 41.36 40.36 38.35 36.91 35.91 38.87 41.46 39.38 39.04 39.65 41.07 43.05 43.07 43.00 43.77 44.82 45.31 48.40 52.07 53.55 54.55 55.47 55.76 56.57 56.75 57.87 58.63 59.93 57.48 57.84 63.44 65.06 66.83 68.27 69.71 70.46 70.69 70.98 71.83 71.56
40.10 37.10 41.63 41.79 40.26 38.28 37.85 35.90 36.15 38.77 39.70 38.80 37.83 37.46 40.24 42.07 42.10 42.66 43.18 46.17 48.24 48.49 48.81 49.56 50.47 51.85 52.62 53.10 54.49 55.31 55.89 57.18 58.66 58.83 58.24 64.93 66.44 67.36 68.10 70.25 71.04 71.06 70.49 70.65
37.35 39.23 40.05 39.18 38.01 36.29 36.96 35.61 35.79 35.10 37.32 38.45 37.43 36.00 39.36 40.51 41.62 43.88 46.38 46.70 46.68 45.36 44.91 45.99 46.91 48.13 49.03 49.72 51.13 51.81 53.38 54.83 55.99 57.80 60.23 58.97 65.38 66.82 66.70 68.31 69.45 70.38 69.89 70.13
38.05 40.46 38.02 37.45 36.04 37.08 33.47 38.16 35.55 34.36 33.69 31.16 37.48 28.81 37.11 40.26 39.73 42.01 43.38 44.32 43.88 44.14 44.19 43.93 43.86 44.70 45.34 46.18 48.06 49.46 50.95 52.05 53.89 56.10 57.59 58.83 59.68 62.58 65.74 66.50 67.87 68.90 70.35 69.35
35.76 35.65 35.70 34.98 35.84 37.05 34.37 36.81 35.63 34.95 33.22 33.05 33.96 31.20 35.99 39.21 37.04 39.11 40.41 41.38 42.58 43.06 42.67 41.89 42.14 42.24 44.11 45.60 45.30 45.94 47.88 48.96 51.58 54.30 56.11 58.33 58.49 64.73 65.73 67.40 67.17 67.80 67.95 67.45
37.78 39.35 37.66 37.49 37.34 37.31 37.84 35.51 35.69 35.47 33.36 26.69 33.22 32.56 33.44 36.87 34.14 35.15 37.47 37.29 40.03 40.53 41.02 41.27 42.06 41.92 42.61 43.98 43.85 43.58 44.37 45.87 47.21 49.14 53.19 56.53 59.86 61.56 64.51 65.61 66.39 67.35 67.15 65.86
35.10 35.52 37.76 37.83 33.76 37.12 35.98 32.60 27.21 25.82 26.09 25.79 32.68 29.78 33.36 36.61 35.92 35.40 34.71 36.01 38.26 38.85 38.49 38.07 38.13 38.44 39.16 39.08 39.40 39.50 39.76 40.52 42.56 45.68 48.81 52.92 58.20 61.45 65.37 65.39 66.93 66.65 65.02 64.47
30.36 28.20 34.05 37.04 34.82 33.11 33.45 32.54 27.13 20.15 23.79 27.83 32.59 26.98 34.83 37.65 38.35 38.58 37.56 37.13 36.88 36.12 35.45 34.82 35.24 36.43 36.59 36.90 37.43 38.17 37.22 37.56 40.10 43.57 46.48 50.13 56.56 62.40 65.40 66.53 66.43 67.07 65.51 65.21
28.92 27.71 35.42 35.66 36.17 34.52 31.52 27.96 34.41 27.45 29.13 25.00 29.00 33.18 36.29 36.53 35.95 36.08 35.17 35.04 33.94 33.95 33.51 33.33 33.68 34.65 35.55 33.28 34.80 34.83 34.82 36.23 38.72 42.02 45.71 48.89 55.91 63.15 65.78 66.77 67.79 67.16 66.66 65.20
30.98 24.78 32.48 34.47 35.90 36.25 32.94 35.72 26.21 28.06 18.53 19.12 28.22 29.98 31.59 29.18 29.98 31.70 30.74 30.61 31.23 31.91 31.44 31.61 31.40 32.03 33.96 32.55 33.08 34.43 33.70 34.92 37.31 40.76 45.28 47.74 53.82 59.43 66.13 65.39 65.15 65.59 67.29 67.14
33.50 29.11 28.00 31.58 30.09 30.43 31.18 29.35 30.54 31.50 29.00 23.05 22.90 27.76 30.44 27.94 28.05 27.75 30.57 31.40 31.40 30.16 30.20 30.79 30.76 31.30 32.70 32.39 31.35 31.59 32.31 33.57 36.21 40.73 45.10 47.58 52.36 63.72 65.99 64.74 64.77 66.51 66.87 66.39
33.78 30.31 25.37 28.50 34.54 36.22 34.63 32.15 32.25 25.55 24.96 28.78 27.54 27.17 30.32 28.59 28.64 29.00 29.46 30.75 31.14 30.78 30.22 30.11 29.79 29.66 30.55 30.28 30.19 30.19 31.01 32.73 35.52 39.43 43.05 44.52 46.72 51.23 63.16 63.52 64.66 65.51 64.70 65.22
34.55 29.20 23.67 25.78 31.01 34.90 31.39 32.67 33.02 32.26 31.13 26.62 24.07 26.61 30.62 29.68 28.32 28.19 27.26 29.59 30.25 30.11 29.70 29.08 28.49 27.43 27.88 28.83 29.13 28.52 30.16 31.83 34.57 37.38 40.88 42.85 42.69 44.82 47.72 57.53 60.40 60.81 60.74 61.06
36.32 29.97 25.66 24.65 27.20 30.73 27.23 30.33 32.18 30.21 26.78 28.01 29.01 25.72 25.62 25.98 25.45 26.01 27.08 28.56 29.36 29.12 28.35 28.36 27.43 26.62 27.45 28.78 28.21 27.33 28.88 31.11 33.06 35.73 35.94 38.73 39.65 41.31 42.96 45.23 47.00 48.24 52.14 55.93
34.29 26.15 28.97 29.02 30.54 31.05 29.78 29.11 29.87 27.07 27.87 24.94 27.44 24.38 23.75 24.71 24.93 25.42 26.97 27.38 27.28 26.66 26.56 26.55 26.35 26.63 27.52 28.09 27.84 27.80 28.14 29.60 31.00 32.53 33.44 35.38 37.73 37.56 38.81 39.46 41.06 42.52 42.69 43.57
34.36 26.88 29.22 26.35 31.58 30.93 27.83 27.29 29.31 27.10 25.07 26.11 25.50 22.38 26.89 27.22 27.07 26.23 25.83 25.37 24.94 25.20 25.17 25.90 26.30 26.50 27.47 28.33 28.50 27.77 27.91 28.48 30.05 30.21 30.96 32.56 34.05 34.80 35.36 35.17 36.82 35.98 37.29 36.56
32.17 29.29 28.09 24.78 28.23 28.08 24.07 24.90 25.75 25.95 27.46 27.36 27.05 25.20 27.35 25.58 24.76 23.93 24.69 25.05 24.25 24.45 24.97 24.53 26.30 26.34 27.90 28.81 29.93 29.29 29.50 29.41 28.29 28.68 29.33 30.46 31.39 31.78 32.46 33.37 32.58 32.28 32.64 33.94
31.63 29.95 30.50 26.65 27.43 20.87 26.00 30.21 29.25 26.17 26.37 28.57 27.26 27.46 27.33 25.60 24.92 25.42 25.71 24.78 24.22 23.85 24.02 24.58 26.01 26.58 27.14 29.08 29.47 31.19 30.96 29.84 28.27 27.68 28.97 30.01 30.49 30.37 31.27 31.31 31.11 31.41 31.35 30.65
33.95 31.74 28.45 25.79 25.65 25.32 26.95 28.14 27.84 26.52 23.76 27.85 27.96 28.24 27.99 27.91 29.14 24.90 25.58 25.55 24.32 23.71 23.99 24.28 25.53 25.81 26.33 27.86 28.72 29.41 29.31 29.42 28.00 27.65 27.64 29.86 30.70 30.39 30.40 30.24 30.70 30.88 30.26 29.97
34.72 33.22 29.75 28.52 23.57 20.60 27.23 28.70 31.35 31.59 24.48 27.95 28.97 29.15 28.77 29.13 27.47 24.02 24.51 25.13 24.25 23.70 23.61 23.39 24.17 25.10 24.10 26.27 28.39 27.45 26.88 26.98 26.26 27.28 27.96 29.40 30.36 30.69 30.10 30.71 31.32 31.68 31.82 31.10
30.22 30.73 26.70 27.76 27.12 26.06 27.04 28.63 31.96 23.87 24.59 27.87 29.68 29.80 30.16 27.01 26.74 24.36 24.74 23.66 24.30 23.71 22.49 23.28 22.43 21.68 22.42 24.87 25.98 25.17 24.57 24.00 25.96 27.60 28.33 28.74 29.74 29.56 30.92 31.42 31.47 31.33 31.24 31.30
27.51 27.53 27.74 28.58 26.47 22.34 28.25 29.72 27.15 27.39 28.50 28.08 28.18 27.50 25.05 24.47 23.79 23.13 22.66 22.50 22.68 22.63 22.48 22.17 20.80 20.97 22.27 23.92 24.38 22.95 22.16 24.48 25.56 26.61 26.88 27.17 28.03 28.92 29.71 29.97 30.63 29.98 30.83 30.75
26.23 28.72 29.12 25.70 25.06 26.94 29.09 29.00 31.56 31.51 28.89 28.71 27.59 26.53 25.17 23.73 23.64 23.95 23.20 22.98 23.02 22.69 22.88 23.77 21.32 20.79 22.33 23.59 23.91 22.56 23.56 24.68 24.28 25.01 25.27 26.24 27.42 27.53 28.46 27.91 27.99 28.20 28.88 28.29
28.16 29.59 26.35 26.66 25.32 25.92 27.63 29.18 30.64 30.97 28.94 28.82 27.88 26.26 25.70 22.61 22.75 22.36 23.19 23.33 22.90 22.98 22.59 23.84 23.47 21.73 21.33 23.33 24.25 24.31 24.59 26.06 25.12 24.09 24.97 25.83 25.66 26.63 26.19 27.55 26.99 24.97 24.78 25.12
30.64 29.76 26.41 23.85 25.36 26.64 26.91 27.97 28.44 28.06 27.93 26.77 26.80 26.13 24.01 23.30 21.95 22.17 22.05 22.56 22.78 22.77 23.02 23.45 22.84 22.59 22.28 23.56 23.98 25.10 25.65 25.60 25.57 24.67 24.99 25.54 25.86 25.11 25.46 24.15 22.53 23.13 23.19 23.55
31.37 29.22 27.50 28.93 28.73 29.33 27.22 27.67 28.61 26.80 26.10 26.23 25.58 24.35 24.64 23.91 22.44 23.90 23.37 24.19 24.18 23.32 24.16 24.04 23.61 23.46 23.66 23.92 23.35 25.25 25.98 25.59 24.61 24.84 24.84 24.20 24.94 25.13 24.82 24.77 24.78 22.36 21.54 21.15

GFSCGP_sfc_wetblb_117.txt.gz
Wetbulb
45.19 41.60 39.72 42.56 44.26 43.66 42.22 40.42 39.04 41.44 43.70 42.14 41.43 41.57 43.31 45.21 45.36 45.25 45.59 46.19 46.74 49.23 53.20 53.48 53.69 54.38 55.10 55.89 55.92 56.47 57.40 58.96 59.77 60.63 58.24 61.29 66.73 68.78 70.49 70.70 71.81 70.99 72.15 73.06
42.87 39.48 43.88 44.24 43.57 42.11 40.83 38.58 38.40 41.22 43.11 41.72 40.76 40.31 42.48 43.95 44.52 45.42 45.42 45.68 49.46 49.99 50.18 50.47 51.30 51.92 52.45 52.75 53.56 54.27 54.63 55.84 57.11 58.40 59.93 60.08 61.89 66.53 69.61 70.66 71.10 72.17 72.49 72.73
40.43 43.13 43.84 41.20 40.85 39.49 39.18 37.78 38.16 38.00 40.64 41.49 39.60 38.16 41.49 44.68 44.05 44.68 47.98 48.34 48.00 47.86 47.54 48.35 48.54 49.12 49.91 49.95 51.03 51.08 52.28 53.34 54.98 56.21 57.36 58.64 61.43 61.07 66.72 68.54 69.27 70.66 71.87 72.35
40.64 43.55 41.10 40.60 38.62 39.74 36.03 40.76 39.50 37.74 36.15 32.90 40.79 31.80 39.38 42.67 43.25 44.39 46.16 46.38 46.61 46.58 46.63 46.70 46.80 46.99 47.61 48.08 49.99 50.50 50.37 50.64 52.23 54.28 54.55 56.08 56.75 58.02 62.91 67.65 68.68 68.98 71.19 71.60
38.34 39.57 38.67 37.45 38.46 40.85 37.70 40.87 38.15 37.71 35.85 35.18 35.56 32.20 37.65 42.07 40.73 43.20 43.77 43.60 44.40 45.26 44.86 44.09 44.12 44.51 45.47 46.72 47.03 47.45 47.78 48.32 50.13 51.54 52.11 53.25 55.37 58.08 60.92 62.29 67.86 68.36 69.90 70.54
40.32 42.94 40.67 40.14 41.09 40.08 40.73 38.03 37.43 36.80 34.23 27.54 34.43 34.44 35.61 39.24 38.41 40.04 40.95 41.85 42.40 43.08 43.04 42.55 42.81 42.38 42.32 44.05 44.17 44.11 44.77 46.12 47.65 48.45 49.05 49.66 51.86 55.27 57.93 61.01 63.72 65.99 67.76 68.94
38.95 39.27 41.29 40.18 37.72 40.49 38.35 35.01 28.48 27.42 27.97 27.46 37.25 34.95 36.02 40.24 40.12 38.84 38.63 39.99 40.95 41.02 40.52 39.77 38.96 38.29 38.54 39.15 40.36 40.01 40.63 41.37 43.75 45.10 46.03 46.55 48.29 51.82 55.32 57.99 61.32 65.49 66.19 67.17
32.10 30.06 38.88 40.76 37.81 36.17 36.68 35.82 29.02 21.93 24.47 28.74 36.10 30.77 36.35 41.01 41.71 40.93 39.68 39.34 38.43 37.57 37.52 36.08 35.62 35.63 35.52 35.79 36.61 36.60 36.69 37.88 40.24 41.17 42.19 43.66 45.56 48.56 53.44 57.76 61.25 61.67 66.88 67.95
31.72 32.02 38.36 38.36 39.67 37.97 34.79 31.87 36.55 29.50 30.53 26.62 30.87 35.11 39.62 39.89 38.58 37.79 36.62 36.75 34.83 34.99 34.32 33.94 34.25 33.69 33.08 33.68 33.98 34.71 33.93 35.57 37.09 37.44 39.15 40.35 43.94 47.01 50.60 57.33 62.81 64.33 66.61 68.47
34.78 28.07 36.74 37.23 38.27 38.63 35.50 37.53 28.66 29.66 19.87 20.63 29.24 32.17 29.76 29.39 30.73 33.23 33.03 33.83 33.57 33.56 32.27 32.35 31.96 31.96 32.50 32.74 33.33 34.38 32.52 33.31 34.12 36.26 38.15 40.67 43.48 47.44 50.80 58.27 63.01 65.56 66.96 68.38
36.41 32.95 32.52 34.44 33.06 31.94 33.94 31.08 31.86 32.37 30.38 24.42 23.95 28.08 31.30 28.06 29.37 30.04 32.79 34.05 33.58 32.48 31.79 32.53 32.12 31.30 31.33 32.39 31.82 31.83 31.39 32.02 33.94 35.37 37.98 40.14 45.18 47.57 51.68 59.44 64.36 66.48 66.75 66.31
36.77 32.78 28.14 31.24 36.95 38.20 36.55 34.36 33.55 26.28 25.82 29.33 28.63 28.91 31.71 30.32 31.62 31.51 30.67 32.25 33.57 32.82 32.05 32.96 32.10 31.11 31.18 30.91 31.31 30.59 30.87 31.04 32.93 34.39 37.30 41.82 42.97 45.44 48.07 55.63 63.48 65.88 65.31 65.68
36.25 30.61 24.10 27.95 32.78 36.61 33.88 35.62 35.15 34.38 32.94 27.61 24.86 28.06 32.04 31.51 30.67 30.19 29.49 31.43 31.63 31.29 31.03 31.01 31.23 30.93 30.77 30.96 30.83 29.98 30.38 30.23 31.86 34.30 35.97 39.29 39.69 41.29 41.31 44.18 47.55 50.04 60.72 61.27
37.19 31.50 28.08 25.07 27.26 33.31 30.11 32.96 34.56 32.94 27.55 28.81 29.65 28.79 27.57 28.20 27.55 28.70 28.85 30.06 30.09 30.01 29.24 29.53 29.17 30.16 31.47 31.22 30.91 30.66 29.75 30.41 31.35 33.29 34.09 36.14 36.92 37.62 38.98 40.04 40.58 43.26 44.68 44.12
34.94 27.54 30.42 30.66 32.40 32.89 31.71 31.76 32.58 30.39 31.69 27.42 30.28 26.66 25.88 26.96 27.34 27.86 28.91 28.58 28.05 27.68 27.42 27.99 28.59 29.32 30.54 31.35 31.75 31.94 30.58 30.24 30.90 31.29 31.76 33.29 34.80 35.96 35.82 36.64 36.49 37.75 38.68 38.62
36.62 27.99 30.44 26.67 32.95 33.23 30.92 32.41 32.39 31.64 30.45 27.39 27.97 24.99 28.85 29.41 29.36 27.79 27.09 27.06 25.76 25.97 25.99 26.88 27.91 28.21 28.75 29.75 32.20 32.92 31.36 30.74 30.86 30.72 30.84 31.64 32.72 33.05 33.70 33.37 33.67 34.68 34.45 34.05
33.39 31.26 28.73 26.49 31.71 29.72 26.85 29.32 29.50 29.58 28.32 30.18 26.63 26.98 29.23 27.29 26.55 25.39 26.08 26.24 24.69 25.27 25.27 25.40 26.86 27.58 28.12 30.32 31.62 32.27 32.50 32.05 30.51 30.34 30.80 31.20 31.44 31.11 31.25 31.82 31.86 31.10 31.25 32.27
33.65 31.23 31.41 27.89 29.15 21.38 27.46 32.29 31.96 29.77 29.78 31.22 29.50 29.47 29.54 27.80 27.14 27.11 27.00 25.43 24.66 24.35 24.65 24.72 25.96 26.71 27.78 30.27 30.04 31.84 32.28 31.29 29.78 30.02 30.13 30.90 30.93 30.76 31.45 31.34 30.95 30.49 30.61 29.96
36.92 33.14 29.56 26.78 27.13 27.55 27.04 29.26 29.55 27.88 26.72 32.25 30.33 29.83 29.68 29.32 29.58 25.97 26.92 26.57 24.88 24.44 24.83 24.78 25.83 26.90 26.90 27.91 29.12 28.94 29.43 29.37 28.53 28.10 29.28 29.96 30.83 30.30 30.21 30.64 30.91 31.33 31.47 30.65
35.27 34.82 29.92 29.85 24.73 22.18 29.44 33.41 35.96 34.72 25.75 32.30 33.14 31.17 30.29 30.92 28.75 25.41 26.05 26.24 25.39 24.60 24.57 23.73 24.05 25.43 24.38 26.01 27.62 25.91 25.47 26.11 26.58 28.20 28.56 30.55 30.76 30.25 30.29 30.71 31.15 31.55 32.02 31.65
29.95 30.57 27.88 28.07 27.59 27.81 32.47 33.38 34.64 25.53 26.28 32.84 33.96 33.50 32.36 29.19 27.23 26.53 26.77 25.39 25.96 24.82 23.40 24.25 23.37 22.85 24.16 25.40 26.31 24.46 24.14 23.93 27.08 28.37 29.56 28.90 29.90 29.39 29.52 30.12 30.90 31.67 31.57 31.13
30.84 29.82 29.23 30.23 27.91 24.70 32.03 32.84 28.04 30.83 33.07 33.85 33.02 31.16 27.61 26.69 25.65 25.02 24.73 24.51 24.76 24.40 24.27 24.08 22.58 22.94 24.75 25.66 25.28 23.72 23.83 25.83 27.09 27.81 27.44 28.51 27.62 29.10 28.79 27.11 28.52 29.35 28.88 29.45
28.85 32.73 30.08 29.20 27.31 29.41 31.73 32.58 34.89 34.99 32.44 32.10 30.52 29.69 28.00 25.97 25.66 25.91 25.27 25.68 24.93 24.47 25.19 25.78 23.88 23.41 24.73 26.12 25.71 23.59 25.31 27.05 26.52 27.61 26.88 27.60 29.00 27.06 27.55 26.83 24.53 24.83 26.71 26.31
31.74 33.21 32.06 29.27 28.00 28.00 30.10 32.56 34.43 34.51 32.04 31.98 31.71 29.79 28.77 25.76 25.91 25.00 25.90 25.72 25.26 25.63 24.92 26.25 25.76 24.13 23.40 25.83 26.55 26.58 26.55 27.92 27.57 26.73 27.68 28.74 27.50 28.77 26.67 26.45 26.13 22.45 21.88 22.82
34.21 33.02 30.04 27.38 27.90 28.55 29.73 31.01 31.43 30.62 30.77 29.83 30.25 29.65 27.57 27.07 25.69 25.28 24.92 25.15 25.36 25.57 25.79 26.02 25.30 24.98 24.22 25.36 26.64 27.22 27.87 27.73 28.43 28.40 28.14 29.02 28.41 28.40 28.40 24.57 23.71 23.01 22.29 21.58
34.92 32.89 30.20 30.55 30.90 31.30 29.14 29.88 30.87 29.11 28.44 29.17 28.36 27.46 28.59 27.85 26.33 27.32 27.00 27.89 27.79 26.92 27.54 26.95 26.63 26.17 25.80 25.66 25.57 26.57 27.12 27.43 26.57 26.44 27.22 26.93 27.40 27.37 27.41 26.73 26.33 24.62 23.66 22.74

GFSCGP_sfc_wetblb_120.txt.gz
Wetbulb
44.83 39.82 37.36 40.90 43.41 43.51 42.44 40.78 39.63 42.20 44.88 42.47 41.83 41.64 43.06 45.33 45.71 45.36 45.84 46.18 47.32 48.38 51.67 51.71 51.91 51.77 51.44 51.81 51.91 52.64 52.86 54.18 54.96 55.42 56.11 57.51 57.60 60.96 67.73 69.10 69.54 69.34 69.40 69.78
41.26 38.26 42.83 44.75 44.64 42.75 41.21 39.36 39.01 41.47 42.96 42.14 41.07 40.28 42.81 44.23 44.49 45.04 45.29 46.93 48.19 48.55 48.86 49.28 49.77 49.93 49.65 49.64 49.97 50.14 51.34 51.95 52.36 53.06 54.46 55.20 55.81 57.49 59.42 66.71 68.98 69.40 69.17 69.45
40.08 42.97 46.13 43.73 41.46 39.50 39.82 38.74 38.47 37.74 40.67 41.54 39.75 37.53 40.08 43.79 45.97 46.65 47.46 48.12 47.87 46.77 45.91 46.13 46.49 46.96 47.16 46.79 47.18 48.12 49.25 49.82 50.45 51.09 52.03 53.50 54.95 56.28 57.10 58.66 63.20 68.45 69.15 68.81
41.23 44.13 42.18 41.44 40.04 40.61 36.12 41.34 40.01 38.34 36.35 31.45 39.37 29.86 37.21 40.84 41.96 44.57 45.57 45.42 44.62 44.80 45.15 44.87 44.16 43.86 43.96 44.50 45.52 45.88 46.21 46.42 47.95 49.21 49.24 50.31 50.80 51.71 54.92 56.76 59.90 66.17 68.39 68.83
38.65 40.25 39.89 38.61 38.71 41.01 37.72 41.30 39.31 38.11 35.23 34.34 34.32 31.60 35.97 40.86 39.47 40.80 42.33 42.81 42.88 43.31 42.77 41.98 41.74 41.71 41.86 42.14 41.67 42.24 43.06 43.12 44.01 46.04 47.44 47.14 47.87 50.30 53.35 55.34 57.07 59.60 63.54 67.31
39.93 44.01 42.37 40.55 41.72 41.32 41.40 38.32 37.62 37.09 34.96 27.56 32.97 32.86 33.52 37.22 38.65 38.64 40.03 40.66 40.93 40.60 40.51 40.19 40.14 39.80 38.77 39.11 38.72 38.88 38.94 39.87 40.75 41.93 43.57 44.28 44.86 46.03 47.61 50.50 53.15 56.20 59.88 64.04
38.91 39.66 42.34 42.67 37.90 40.36 39.07 34.49 26.77 25.66 27.24 26.60 36.44 33.99 33.65 38.10 38.67 38.27 37.64 38.32 38.38 38.45 37.47 36.71 35.86 35.21 35.29 35.31 35.81 36.52 36.29 35.99 37.58 38.50 39.95 41.38 42.17 43.40 44.71 46.62 50.07 53.25 56.17 59.88
32.50 31.30 39.80 42.29 38.85 35.80 36.03 34.77 27.91 20.24 22.67 26.89 34.66 28.85 32.13 39.90 39.99 39.07 38.54 38.05 37.26 35.83 35.22 34.39 33.83 33.78 33.30 33.49 33.73 33.95 33.86 33.95 34.92 36.35 37.49 39.03 39.95 41.19 42.88 45.06 47.93 51.46 54.98 58.36
32.79 33.24 40.07 39.72 40.07 38.62 34.41 30.99 36.44 29.79 30.72 25.71 29.19 33.43 37.86 37.88 35.61 35.82 36.03 35.63 34.23 33.88 33.49 32.74 33.11 32.59 32.21 32.08 32.51 32.86 32.95 32.73 33.45 34.25 35.84 37.02 38.63 40.06 41.76 44.24 47.08 49.68 53.12 57.62
36.32 29.13 37.36 38.88 40.35 38.82 35.92 37.68 28.32 29.97 19.44 18.42 27.28 29.36 27.05 29.03 30.09 32.42 32.87 32.93 33.09 33.23 32.35 32.60 32.30 32.21 32.63 32.87 32.84 33.22 32.78 31.99 32.35 33.64 35.38 36.55 38.89 40.87 42.33 44.29 46.07 48.35 50.99 56.31
37.03 33.54 32.54 37.04 34.64 32.93 33.89 32.15 31.86 31.22 28.15 21.03 20.55 26.19 31.32 28.56 29.83 30.21 31.53 32.83 32.66 31.93 31.84 31.92 31.86 32.35 33.13 33.35 33.06 32.53 32.23 31.66 31.79 33.00 35.54 37.29 40.52 42.64 44.73 46.64 48.95 49.31 51.71 55.21
37.61 33.46 27.55 31.35 37.94 38.67 36.39 33.10 33.20 25.85 23.56 27.99 26.85 26.51 32.11 30.59 31.87 31.40 30.70 31.85 32.15 31.88 31.23 31.64 31.54 31.18 31.72 31.73 32.35 32.41 31.83 31.02 31.72 33.44 35.35 37.08 38.71 40.06 40.69 42.68 46.04 50.87 53.71 56.86
36.66 30.65 24.10 26.75 32.65 35.75 32.33 34.58 35.06 34.44 32.24 26.14 23.41 25.47 32.07 31.90 30.67 30.67 29.28 30.45 30.54 30.22 29.58 29.79 30.30 30.09 30.40 31.13 31.96 32.08 31.63 30.94 31.69 32.52 33.79 34.98 36.14 36.70 37.03 38.11 40.39 41.99 42.94 45.19
37.76 31.80 27.62 22.78 27.59 31.92 28.97 32.78 34.96 33.42 27.42 27.49 28.04 26.42 27.69 28.20 28.03 28.46 28.77 29.37 29.14 28.90 28.04 27.99 28.72 29.18 29.88 30.93 31.91 31.84 31.48 31.38 31.69 31.94 31.97 32.53 33.50 34.63 35.43 36.94 36.08 37.09 38.82 37.91
35.21 26.90 29.15 30.12 31.20 31.36 31.04 30.87 32.22 30.77 31.95 27.62 29.87 28.42 26.81 27.40 27.54 27.87 28.65 28.46 27.08 27.11 26.27 26.78 27.74 28.14 28.94 29.86 31.29 32.49 31.38 30.95 31.62 31.30 31.26 31.62 32.72 33.49 33.71 33.69 34.78 34.66 34.20 34.02
35.57 26.69 30.31 25.56 30.96 31.22 28.94 31.63 32.32 32.20 32.59 31.32 29.64 28.49 29.51 29.87 29.50 27.78 27.04 26.22 25.18 25.39 25.60 25.69 26.45 26.76 27.75 28.80 29.77 31.44 31.03 30.47 31.51 30.30 30.45 31.45 31.72 32.13 32.40 32.13 32.10 32.82 32.47 33.01
32.57 30.97 26.87 23.44 32.21 31.50 26.84 31.27 32.59 33.49 33.48 31.91 27.21 28.78 28.96 27.18 25.78 25.38 25.73 25.64 24.39 23.99 24.09 23.87 25.30 25.67 26.58 27.93 28.29 29.22 30.03 30.06 29.53 29.93 29.76 30.66 31.01 31.11 31.39 31.92 31.41 30.86 30.86 31.53
33.38 30.73 29.06 26.17 29.72 20.44 28.92 33.83 33.94 31.85 31.32 32.91 29.32 28.89 29.76 27.30 26.60 26.67 26.91 24.78 23.38 23.22 23.10 22.80 23.94 24.49 25.55 27.47 26.57 28.50 28.90 28.28 28.46 28.39 28.88 29.32 29.97 29.62 30.73 31.23 31.09 31.09 30.84 29.64
36.98 32.82 28.35 25.59 25.88 28.17 28.22 30.07 30.56 28.10 28.03 33.26 30.39 29.70 28.83 27.74 26.79 24.58 26.64 25.17 23.54 23.12 23.57 23.16 24.16 24.50 24.79 25.75 26.39 25.76 25.86 26.65 26.73 26.50 27.19 28.27 27.72 28.04 28.41 28.86 29.91 30.73 31.02 29.80
35.87 35.39 29.94 28.02 24.31 21.96 29.23 33.52 36.83 35.28 25.01 33.84 32.25 30.14 28.30 28.21 24.29 23.10 25.89 25.45 23.83 23.60 23.73 22.77 23.31 24.05 23.53 24.18 26.18 23.81 23.74 24.74 24.66 26.30 25.61 26.97 27.81 25.67 26.11 27.25 27.78 29.70 30.00 30.43
28.91 29.63 27.13 26.62 24.86 28.31 33.96 35.17 36.80 24.55 26.72 34.55 34.32 32.96 31.44 28.70 27.34 26.37 26.47 24.99 25.11 24.27 23.10 23.93 22.75 22.19 23.08 23.78 24.17 22.79 23.11 23.16 25.82 26.31 27.59 25.20 25.83 26.06 24.30 25.05 26.06 26.80 27.33 26.75
29.11 27.50 27.34 28.25 25.82 24.14 34.75 33.78 28.42 31.69 35.57 35.16 33.17 31.19 26.28 25.80 25.61 24.19 24.45 24.21 24.60 24.26 23.94 23.29 21.35 21.61 23.17 23.77 23.09 21.74 22.41 24.42 25.92 26.57 25.74 26.40 24.69 25.00 24.49 21.85 22.41 23.46 23.87 24.55
29.85 33.12 30.07 27.18 27.38 31.14 33.45 33.67 36.05 36.35 34.22 32.83 30.77 28.63 26.78 24.62 23.60 24.57 24.88 24.69 24.41 24.65 24.45 25.33 20.55 20.52 22.38 23.92 23.50 21.59 22.80 24.33 24.68 25.51 25.48 25.56 26.18 24.54 24.03 21.38 20.00 19.76 20.79 20.23
34.04 35.26 32.16 29.42 28.95 29.46 31.84 34.44 35.33 34.88 32.92 32.53 31.25 29.31 28.06 25.47 25.45 24.77 25.82 25.31 24.81 25.04 24.95 26.04 24.92 21.05 20.37 22.88 23.79 24.15 24.69 25.26 24.33 24.67 25.48 26.26 25.41 23.93 23.35 23.38 20.91 19.37 18.35 17.61
35.41 34.16 31.61 28.05 29.20 29.60 30.92 32.95 32.66 31.93 32.17 31.08 31.05 29.87 28.12 26.84 25.48 25.77 25.00 25.10 25.45 25.46 25.62 26.00 24.66 23.72 23.29 24.47 24.04 24.22 25.17 26.06 26.02 26.15 25.14 26.23 26.46 25.41 24.06 22.72 22.00 20.51 20.93 20.55
36.12 34.00 29.73 30.30 32.07 31.68 30.41 31.99 31.86 29.95 29.56 29.79 29.20 28.22 28.93 27.58 26.13 26.83 26.32 27.33 27.13 26.28 26.98 25.98 25.15 24.08 23.81 23.54 23.51 24.86 25.57 25.41 25.07 25.10 25.53 24.65 25.22 25.19 25.11 24.41 24.39 26.62 25.01 24.09

GFSCGP_sfc_wetblb_123.txt.gz
Wetbulb
40.91 34.33 31.29 34.61 37.00 38.32 38.16 37.21 35.12 37.31 41.68 39.66 37.84 37.38 38.10 40.88 39.52 38.89 40.29 40.22 44.14 44.00 45.74 45.78 45.49 44.61 44.35 44.46 44.74 45.50 45.90 47.23 48.26 48.41 48.22 48.34 49.05 51.59 53.24 56.19 59.33 66.82 67.49 68.30
36.67 33.03 38.86 41.19 40.97 39.92 38.83 35.71 34.70 38.41 41.60 39.66 36.42 35.35 37.81 39.01 39.59 40.32 41.61 42.04 41.89 41.99 42.64 43.54 42.80 42.11 41.74 41.89 41.95 42.39 42.76 43.39 44.19 45.72 46.75 47.65 48.36 50.36 52.30 54.57 56.49 58.21 63.39 67.51
34.84 38.45 43.43 41.84 39.80 38.66 36.74 35.07 34.84 34.88 37.27 35.84 34.41 33.14 35.57 39.64 41.02 43.81 42.59 41.94 41.32 40.05 39.23 39.88 39.93 38.64 38.89 38.35 38.40 39.30 39.49 40.22 41.35 42.59 43.42 45.13 47.15 48.03 49.02 51.18 53.42 56.13 59.38 64.76
37.72 42.13 41.35 39.25 37.35 38.35 32.39 38.54 37.98 36.42 32.42 26.08 33.69 23.74 33.16 37.22 38.81 40.13 39.50 38.34 37.74 37.79 38.32 38.05 36.90 36.31 35.91 35.82 36.58 36.99 37.54 37.50 39.34 40.09 39.40 39.34 40.57 42.69 46.01 47.70 50.43 51.85 55.06 58.28
35.74 37.52 36.92 36.01 37.18 39.18 35.06 39.33 36.30 34.92 30.14 28.65 31.01 24.16 31.28 36.56 34.52 35.45 36.43 36.72 35.94 36.26 35.84 35.38 34.93 34.53 35.11 35.12 34.55 34.95 35.38 36.47 36.78 36.76 37.43 36.98 37.67 41.84 44.03 45.27 45.97 48.09 51.19 55.23
37.39 40.28 38.26 37.41 40.09 39.17 39.38 35.90 34.28 32.71 28.81 21.62 29.62 27.78 26.52 30.71 33.36 34.27 35.76 35.42 35.10 34.09 33.63 33.58 33.87 34.05 33.03 33.07 32.91 32.82 33.34 34.01 34.95 35.50 35.53 35.34 35.57 38.20 40.22 42.01 42.29 44.39 47.32 50.89
35.14 36.38 39.23 40.72 35.42 37.51 35.15 29.68 19.84 19.41 19.58 20.67 32.89 30.12 31.93 33.54 34.51 34.64 34.16 34.05 34.27 33.11 31.97 31.43 31.57 31.39 31.04 30.90 31.33 32.19 32.98 32.67 33.38 33.21 33.43 34.20 35.83 36.99 37.93 39.25 41.31 42.34 44.44 47.46
27.60 25.39 36.59 40.09 36.09 32.75 32.82 30.99 23.34 17.90 17.53 21.07 31.10 25.23 28.93 34.48 36.00 36.45 35.62 34.44 33.58 31.89 31.83 31.14 31.13 30.24 30.45 31.19 31.26 32.13 32.27 32.36 32.62 32.52 32.58 34.04 35.31 36.41 37.58 39.12 40.53 41.95 43.51 45.58
28.60 29.95 37.72 38.51 38.39 36.27 32.62 26.19 33.93 27.22 26.57 22.01 24.99 28.97 32.87 34.34 32.38 33.69 33.10 32.92 30.44 30.05 30.24 30.27 30.14 30.18 30.50 31.09 31.44 32.40 32.66 32.09 32.50 32.68 33.49 34.45 35.82 36.75 37.52 39.08 40.74 41.89 43.61 45.62
33.64 24.96 35.64 37.36 38.24 36.64 33.12 35.32 22.67 23.97 17.24 16.28 21.99 26.15 27.30 28.14 29.13 31.54 31.28 30.77 30.06 29.75 29.08 29.22 29.30 29.61 30.61 31.42 32.51 33.85 32.48 31.66 31.89 33.15 34.27 35.72 37.05 39.03 40.44 41.44 41.60 42.74 44.24 45.94
33.26 29.04 29.26 34.64 31.86 30.40 31.28 27.30 29.38 27.68 24.16 16.55 13.34 15.00 30.54 26.85 29.69 29.51 30.39 31.15 29.88 29.09 27.83 27.87 28.33 29.85 30.49 31.96 32.24 33.10 31.99 31.54 31.66 33.25 34.22 35.62 36.82 38.73 39.28 40.39 42.15 43.43 45.95 46.46
33.82 29.48 22.14 28.11 35.26 36.79 33.58 30.70 30.47 19.26 21.22 24.53 22.96 19.11 30.80 29.54 31.63 30.50 29.60 30.40 29.89 29.17 27.25 27.47 28.10 29.11 29.51 30.62 30.96 31.64 31.50 30.90 31.81 33.19 33.84 34.45 35.19 36.33 37.58 37.34 38.84 41.03 42.39 46.94
33.46 26.02 18.96 22.80 28.53 33.67 30.65 33.20 33.59 32.16 27.88 23.60 18.10 18.18 31.43 31.71 29.77 29.80 28.21 28.75 28.41 27.72 26.57 27.81 28.05 27.43 28.09 29.76 30.07 31.56 30.83 30.32 31.51 32.38 32.77 33.10 33.58 33.82 34.50 35.77 36.23 37.18 38.07 39.15
36.06 28.52 23.52 19.30 24.26 28.86 24.93 29.60 32.53 31.80 25.72 22.08 21.05 19.10 27.28 28.63 28.03 27.58 27.56 27.59 27.15 26.53 26.21 26.76 26.45 26.62 27.58 28.93 29.03 30.52 29.65 30.49 31.07 31.21 31.70 31.79 32.30 33.28 33.18 33.98 34.13 34.60 35.25 35.23
31.10 23.71 22.63 26.51 29.85 29.65 27.92 27.24 28.99 24.83 28.38 22.04 21.60 24.04 25.70 28.19 27.28 26.98 27.46 26.98 26.01 24.91 24.40 25.24 25.07 25.27 25.99 26.48 26.97 28.66 28.70 29.40 30.07 29.61 29.60 30.35 31.62 32.98 33.10 32.60 32.45 32.72 33.17 33.48
32.08 22.46 21.31 16.85 29.09 28.90 25.82 27.75 28.64 26.24 27.63 24.08 24.89 24.58 28.80 29.18 28.82 26.60 25.82 25.17 23.86 23.64 23.08 23.62 23.91 23.71 24.05 25.08 24.68 25.99 26.73 27.76 28.44 28.14 27.45 28.91 29.78 31.28 31.75 32.11 31.45 31.04 30.50 31.11
27.27 22.93 17.65 17.73 28.96 30.08 21.32 24.44 26.59 28.01 30.86 30.67 26.26 27.04 28.36 26.56 25.73 24.98 24.74 24.21 22.77 22.57 22.06 21.99 22.31 22.65 23.23 24.18 24.61 24.12 25.52 26.68 26.06 26.04 26.68 26.00 27.79 27.98 29.43 31.07 31.08 29.42 28.63 29.12
26.18 23.69 24.90 20.44 23.74 17.34 22.97 32.43 32.60 30.19 31.83 29.78 27.69 27.55 28.01 26.12 25.27 25.41 25.90 23.21 21.96 21.89 21.22 21.29 22.18 22.47 23.02 24.54 24.27 24.63 25.65 25.31 25.33 23.51 24.83 25.00 24.42 24.88 26.76 27.90 28.31 29.70 28.39 27.09
32.64 26.84 21.27 19.00 21.30 25.09 27.26 29.44 29.64 27.14 28.19 31.57 28.73 28.71 26.38 25.68 24.86 23.78 24.54 23.61 22.05 21.86 21.77 21.66 22.76 23.33 23.13 23.22 24.33 23.70 24.07 25.10 24.76 23.58 23.02 24.55 22.96 22.78 23.20 24.08 25.70 25.67 27.13 25.88
32.97 30.78 23.80 24.98 22.31 20.26 26.74 33.27 36.13 34.68 22.65 33.50 30.85 27.30 25.54 25.28 23.17 21.12 24.51 23.48 22.12 22.18 21.05 20.55 21.49 23.16 22.07 22.28 23.45 20.77 21.46 22.80 23.17 24.82 23.45 24.03 23.61 21.72 21.27 22.18 22.80 24.83 23.50 23.19
28.60 28.06 24.37 23.24 22.80 25.45 31.86 34.45 37.06 22.52 22.77 32.53 31.22 28.63 26.70 24.80 24.85 23.53 24.45 22.84 22.91 20.31 18.61 20.32 18.99 17.77 18.60 19.70 19.63 19.30 18.38 20.21 20.96 23.06 25.29 23.73 23.25 22.29 21.08 20.95 21.47 21.94 22.73 21.79
26.77 23.42 23.19 25.15 24.06 21.53 33.20 32.67 27.48 29.14 31.80 32.46 31.87 29.83 26.08 23.25 22.70 21.97 21.81 20.93 22.23 21.08 18.81 17.15 15.24 15.69 18.43 18.90 18.08 18.01 19.45 18.37 19.60 20.07 20.26 21.92 22.23 22.34 20.95 19.70 19.80 19.51 19.43 19.24
26.59 28.37 24.95 26.84 23.44 28.98 30.90 29.48 33.24 33.43 30.28 29.18 28.14 26.81 24.26 21.30 21.09 21.45 21.84 22.54 21.83 19.72 18.84 18.19 14.34 12.78 16.27 18.46 19.17 19.79 19.90 18.07 18.72 21.16 19.44 18.07 20.01 20.43 20.11 18.67 18.35 18.35 18.12 17.27
30.34 33.95 26.43 25.20 26.12 29.00 30.99 32.52 33.04 32.85 30.08 28.82 27.92 25.84 24.50 21.25 22.06 21.28 22.66 22.71 21.73 21.01 19.56 21.52 17.76 15.08 16.36 15.78 18.39 19.31 21.61 21.71 18.79 19.98 19.67 20.59 16.54 18.78 17.42 18.94 19.12 18.52 17.57 17.02
29.07 30.21 27.17 25.17 27.10 28.04 30.69 31.61 30.79 30.31 30.39 28.17 27.64 26.08 24.48 24.12 22.92 21.91 20.57 21.08 20.63 19.93 20.10 20.50 19.99 19.88 18.51 20.00 18.28 19.08 21.68 22.21 22.55 21.07 21.31 20.91 22.55 19.58 17.16 19.83 18.79 19.48 21.20 20.44
29.80 25.17 23.36 20.77 27.78 26.98 26.36 30.37 31.37 29.09 28.45 28.69 27.21 25.63 25.94 25.31 23.61 23.60 22.18 23.20 23.25 21.87 22.04 21.07 19.78 19.28 19.00 19.34 19.58 21.56 23.29 22.18 21.51 22.39 22.29 20.82 21.43 20.99 21.46 20.23 19.74 25.83 24.75 24.44

GFSCGP_sfc_wetblb_126.txt.gz
Wetbulb
39.06 33.49 30.42 33.16 34.72 35.61 34.84 33.23 31.95 34.61 39.02 37.43 35.85 32.55 34.95 39.12 38.73 38.84 39.87 39.53 39.31 39.20 40.12 39.98 39.32 38.86 38.05 37.81 37.76 38.28 38.25 38.98 40.03 40.55 40.14 41.53 42.61 44.94 47.26 49.16 51.38 54.60 57.84 58.68
33.64 30.67 37.51 39.11 38.68 36.87 35.73 33.69 32.97 35.29 38.75 37.07 33.69 33.71 33.75 37.89 38.31 38.45 37.38 36.39 36.36 36.32 36.72 37.34 36.77 35.87 35.39 35.18 35.37 36.19 36.27 36.69 37.40 38.79 38.96 40.05 40.75 43.00 44.68 47.32 49.36 51.65 53.23 54.63
31.55 35.55 40.83 38.97 36.87 35.70 35.68 33.57 32.60 32.44 34.96 33.64 31.91 31.45 32.09 38.20 39.19 38.34 36.92 36.35 35.47 34.45 33.55 34.02 34.13 33.44 33.73 33.17 33.12 34.41 34.53 34.90 36.41 37.05 36.61 37.27 38.25 39.41 40.83 43.44 44.92 47.62 49.31 50.02
35.36 39.97 38.88 37.79 36.48 36.50 30.83 36.73 35.78 33.62 29.86 24.06 31.55 21.50 30.01 34.12 34.17 34.80 34.17 33.03 32.38 32.44 33.06 33.04 32.45 32.11 31.95 32.07 32.69 33.12 33.51 33.96 35.63 35.32 34.45 34.23 33.86 33.50 36.48 38.76 42.26 43.74 46.57 48.08
34.40 35.65 34.84 33.93 35.37 37.25 33.65 37.20 34.35 32.67 27.58 26.28 26.33 22.98 27.56 34.02 30.94 31.39 32.28 32.73 31.62 31.67 31.55 31.08 31.34 31.49 31.54 31.82 31.35 32.09 32.77 33.43 34.08 34.44 33.78 33.15 32.70 34.09 35.61 37.15 38.71 41.21 43.13 44.73
36.28 38.47 36.51 35.43 38.13 37.47 37.88 33.98 32.17 30.03 27.21 20.67 27.40 25.22 24.23 28.12 30.44 31.51 32.48 32.19 31.73 31.50 31.04 31.64 31.64 31.57 30.88 31.63 31.98 32.13 32.46 32.72 33.66 33.03 32.89 32.18 31.40 31.95 32.93 34.76 35.81 37.74 40.52 42.68
33.00 34.39 37.48 38.40 32.97 36.03 33.35 28.00 19.69 18.76 19.08 19.21 29.58 25.43 27.22 30.58 32.55 31.67 31.06 30.95 30.85 30.72 30.05 29.56 28.94 28.88 29.86 30.23 31.33 32.46 33.00 32.08 32.56 32.77 32.48 32.30 32.54 32.53 32.62 33.85 35.67 36.82 38.18 39.82
25.83 24.68 33.40 37.61 33.86 31.57 30.71 29.27 21.88 17.75 18.04 19.46 29.22 22.06 25.96 32.52 34.25 34.53 33.34 31.46 30.48 29.29 28.86 28.69 28.75 28.76 29.39 30.40 31.21 32.61 32.26 31.67 31.96 31.99 32.11 33.63 34.83 35.18 35.80 36.56 37.52 38.25 39.50 40.34
27.11 28.01 35.58 36.73 36.57 35.32 31.12 25.47 31.90 25.15 24.44 19.67 23.00 27.05 31.78 32.57 31.81 32.58 31.85 30.40 28.83 27.99 27.47 27.64 28.27 29.12 29.50 29.83 31.11 32.90 31.39 31.62 31.66 31.92 33.36 34.03 35.88 36.66 37.53 38.37 39.04 39.54 40.95 42.22
32.52 24.92 33.58 35.32 36.60 35.00 32.45 34.21 23.73 24.29 18.34 16.16 20.48 22.02 22.23 26.68 29.26 30.74 29.66 28.05 27.92 27.25 26.63 27.08 27.66 28.51 29.27 30.59 30.66 33.07 31.74 30.87 31.68 32.35 33.56 34.62 35.50 36.37 37.83 39.48 40.02 41.55 43.52 44.20
31.91 28.51 28.44 33.01 30.21 28.32 29.09 25.85 27.54 26.77 24.41 17.15 13.58 13.38 23.06 24.53 27.94 27.03 28.10 28.54 27.31 25.77 25.30 26.22 27.11 27.33 28.07 29.58 29.44 31.54 30.53 30.54 30.92 31.80 33.28 34.17 34.67 35.54 36.42 36.86 37.74 38.50 40.22 41.85
32.31 27.50 22.05 26.69 33.59 34.26 31.51 29.03 28.74 20.37 21.62 22.63 21.50 18.92 30.65 28.82 29.25 28.62 28.21 29.50 29.06 27.55 25.32 25.68 26.05 25.92 26.73 27.48 27.91 29.24 29.38 29.45 30.05 31.50 32.14 33.12 34.75 34.32 34.28 34.53 35.80 37.10 36.95 38.03
32.52 25.27 18.67 22.98 26.99 32.23 29.15 31.55 32.22 30.08 25.99 21.03 14.33 15.82 30.23 30.46 27.40 28.00 26.99 27.77 27.07 26.96 25.74 26.19 25.52 25.41 25.62 26.27 26.08 27.25 27.93 28.18 28.60 29.87 29.93 30.95 32.55 32.95 32.67 32.88 33.69 34.82 35.20 35.42
35.25 27.09 23.01 20.46 23.49 27.40 24.01 27.74 28.74 28.20 20.19 22.70 19.49 15.74 27.73 28.90 27.48 27.75 27.32 26.91 24.53 25.52 25.30 25.34 24.17 24.35 24.89 25.57 25.10 25.78 26.71 27.78 27.30 28.61 27.73 28.31 29.43 31.87 31.84 32.10 31.87 31.92 32.97 33.26
30.08 23.81 21.61 25.50 28.54 28.84 26.19 25.65 27.07 22.65 26.82 22.71 19.95 22.83 23.85 27.64 26.32 27.45 25.79 26.29 25.09 24.40 23.56 23.06 22.81 23.18 23.82 24.54 24.55 25.54 26.27 26.63 26.21 26.61 25.83 25.59 27.61 30.00 31.54 30.58 30.08 30.37 30.03 31.05
29.98 21.91 19.02 13.64 28.43 27.29 23.93 26.66 26.83 26.55 26.41 22.92 22.23 25.10 27.37 27.50 26.90 25.91 25.68 24.89 23.66 22.40 22.23 22.10 22.23 22.46 22.82 24.00 23.98 24.95 25.52 25.59 25.21 24.45 24.03 24.48 25.43 26.85 28.03 29.65 28.68 27.89 27.95 28.18
25.22 21.66 16.20 14.88 26.73 27.19 22.37 24.37 24.62 23.92 27.24 27.66 23.37 27.02 26.74 25.65 26.11 24.98 24.28 24.13 22.37 21.39 21.14 21.22 21.49 21.85 22.49 23.10 24.42 23.48 24.78 25.73 23.75 22.95 23.16 22.28 22.98 23.16 25.24 25.52 26.33 25.39 24.54 24.99
25.34 23.74 22.83 20.43 22.20 15.57 24.09 31.32 31.15 28.80 30.00 29.28 27.10 26.86 28.10 27.56 25.42 25.23 25.33 22.94 21.75 20.82 20.54 20.87 21.60 22.21 22.63 23.34 23.97 24.39 24.91 24.91 24.27 22.77 22.31 21.98 21.09 20.52 21.94 23.50 22.44 23.03 22.89 22.57
31.24 25.70 20.90 17.92 20.45 24.03 26.99 29.14 28.69 26.40 26.43 29.96 27.47 27.39 25.48 24.78 24.09 22.44 23.69 23.20 21.47 20.94 21.16 21.15 21.82 22.88 22.57 22.46 23.75 23.48 23.46 23.84 23.97 22.72 22.28 22.39 21.18 19.58 19.32 19.45 21.14 21.42 21.06 20.69
30.83 29.49 23.08 22.75 19.89 17.23 25.20 32.72 34.76 33.10 18.86 30.33 29.44 25.59 24.31 23.87 21.33 20.45 22.63 22.20 21.15 21.40 21.34 20.50 20.74 22.26 20.47 20.30 22.35 19.58 20.19 21.74 21.11 22.32 22.43 22.71 22.37 20.86 19.24 18.60 18.98 19.81 20.46 20.28
26.55 26.47 22.98 22.92 21.76 24.57 31.42 33.16 35.08 18.33 21.36 31.02 28.87 26.67 24.91 22.85 25.52 23.90 23.40 21.37 21.82 20.29 18.47 18.90 16.98 15.03 15.05 16.75 18.86 17.78 17.87 17.86 16.95 19.24 21.88 21.68 21.64 21.26 20.83 20.46 20.07 19.58 19.59 19.72
27.19 24.78 24.41 25.60 21.92 19.15 31.98 32.05 25.81 27.62 30.61 31.07 29.35 28.29 25.26 21.66 21.97 20.80 20.55 19.91 20.52 19.11 17.30 14.57 14.08 12.66 14.82 16.12 15.46 16.56 16.86 15.29 15.08 14.03 14.52 16.55 17.92 19.93 19.75 19.27 19.67 19.43 19.13 18.78
26.56 28.58 23.66 25.19 23.92 27.97 29.87 29.58 31.61 32.66 29.66 29.54 29.54 28.41 23.55 20.66 19.54 20.53 21.00 22.25 21.70 19.25 16.95 16.21 11.22 12.72 13.36 15.04 16.11 16.65 16.36 16.44 16.86 17.84 15.08 9.38 13.62 16.43 16.19 17.43 17.91 17.77 17.75 17.62
32.09 33.78 27.55 26.37 26.96 27.59 29.41 30.40 32.16 31.09 28.62 28.66 29.03 26.32 24.54 21.46 20.65 20.28 21.94 22.09 22.05 21.04 19.08 18.69 17.40 14.12 13.77 13.61 17.25 16.70 19.09 19.05 18.60 19.15 19.00 19.82 16.98 16.63 15.24 17.76 19.70 18.70 17.50 16.60
29.28 30.75 27.01 24.84 24.27 27.57 28.50 28.30 28.71 27.29 26.92 26.54 27.07 26.27 24.19 22.57 21.46 21.40 20.65 21.21 19.98 19.89 21.14 20.34 19.09 18.38 16.94 18.33 17.13 16.99 19.50 20.74 21.73 19.73 19.44 19.46 20.51 18.16 18.43 20.55 20.91 20.02 20.30 19.39
29.68 26.32 23.58 22.47 27.39 27.08 23.46 27.48 28.86 26.62 25.34 25.77 24.61 23.86 24.58 23.87 22.46 22.44 21.49 22.02 21.69 20.97 20.74 18.97 18.39 17.88 17.57 18.07 18.38 19.97 21.90 21.28 20.47 21.41 19.95 18.39 18.58 18.69 18.56 16.29 16.36 23.13 23.03 22.70

GFSCGP_sfc_wetblb_129.txt.gz
Wetbulb
36.87 31.82 29.64 31.78 33.15 33.86 32.42 30.46 28.92 31.32 36.89 34.86 33.70 32.21 33.25 37.73 36.25 34.45 34.38 34.19 34.04 34.12 35.93 35.93 35.51 34.87 34.19 34.17 33.67 34.24 34.20 34.89 35.46 36.32 35.04 36.36 37.26 37.69 41.63 42.16 45.53 48.98 51.17 53.46
32.09 29.75 36.03 37.14 36.49 34.84 33.23 30.60 30.30 33.70 36.78 34.91 31.25 29.96 32.49 35.02 34.00 33.86 32.92 32.06 32.14 32.44 32.98 34.09 33.81 33.03 32.31 32.32 32.50 33.19 32.99 33.54 34.22 35.08 34.49 35.11 35.52 37.05 38.39 41.13 43.57 45.00 47.74 48.84
30.33 34.05 38.48 36.69 34.51 33.55 32.69 30.82 30.82 31.43 32.64 31.85 29.83 28.07 30.75 34.74 35.25 34.89 33.61 32.81 32.16 31.24 30.47 31.63 32.00 31.04 31.02 30.83 31.19 32.33 32.73 33.02 33.68 34.49 34.25 34.08 34.46 35.41 35.92 36.84 37.40 40.43 42.70 44.48
34.35 38.81 37.19 35.28 34.11 34.85 29.57 35.12 34.41 31.61 28.63 23.76 29.42 20.58 29.19 32.18 31.14 32.06 31.35 29.98 29.53 30.01 30.82 31.14 30.35 29.92 30.00 30.66 31.66 32.26 32.96 32.95 34.09 34.17 32.73 31.62 30.63 30.24 32.89 33.86 35.72 37.30 40.31 42.32
33.31 34.49 33.56 32.46 34.34 35.96 32.19 35.98 33.22 31.49 26.48 24.14 24.21 21.76 23.67 31.07 28.85 29.22 29.77 30.28 29.54 29.75 29.92 29.43 29.43 29.78 30.36 30.86 31.30 32.78 34.15 33.19 33.45 32.96 32.67 31.97 30.97 31.82 32.68 33.50 33.90 35.72 37.75 39.89
35.05 37.28 35.93 35.27 36.82 36.45 36.78 32.49 30.51 27.69 25.55 20.23 25.59 24.02 21.54 26.83 28.97 29.55 30.55 30.13 29.55 29.23 29.08 29.33 29.76 29.91 29.46 30.81 32.07 32.85 33.73 31.73 33.16 33.02 32.97 32.40 31.66 31.91 32.65 33.69 33.87 34.53 36.60 38.63
31.30 33.29 35.64 37.27 32.40 34.15 32.00 27.81 20.08 18.79 18.58 18.90 27.63 23.95 25.19 29.16 30.98 31.26 29.81 28.90 28.58 28.56 27.73 27.44 27.17 28.26 29.15 29.95 30.97 31.70 31.75 30.94 32.05 32.10 32.24 32.36 32.48 33.55 34.50 35.02 35.54 36.23 37.54 39.02
24.83 24.35 31.85 35.69 32.59 30.41 28.82 28.34 21.57 17.12 17.55 20.85 27.15 21.33 24.82 31.45 32.95 32.84 31.24 29.80 29.01 27.58 26.54 26.40 27.12 28.12 28.38 29.28 29.54 30.60 30.74 30.64 31.38 32.11 32.31 33.43 34.41 35.11 35.86 37.00 37.78 38.05 38.46 39.53
24.97 26.28 34.07 35.03 34.86 34.23 29.62 25.16 29.53 24.56 23.81 19.04 21.91 25.53 29.69 31.21 30.91 31.24 30.11 28.99 26.78 25.56 25.44 25.87 27.47 27.97 28.08 29.21 28.59 30.56 30.07 29.76 30.23 31.47 32.12 33.08 34.38 35.16 35.54 36.81 38.36 38.93 40.93 41.97
31.06 25.03 32.16 33.85 35.02 33.56 31.35 33.31 23.37 24.52 18.65 16.78 20.41 21.23 21.52 26.18 28.80 30.55 27.98 26.42 25.84 25.17 24.91 25.42 27.03 26.80 27.49 28.14 27.56 29.25 29.31 29.16 30.20 30.80 30.82 32.17 33.40 34.97 35.58 36.01 35.99 37.21 38.75 39.93
31.92 28.53 27.92 31.60 29.02 27.76 28.21 25.58 27.22 27.11 23.91 17.64 17.15 15.50 22.85 25.61 28.56 27.14 26.71 26.47 24.82 23.87 23.16 23.58 23.99 25.63 25.94 26.76 26.80 28.06 28.29 27.98 27.79 29.35 29.48 30.52 31.55 33.57 34.39 34.02 34.74 35.51 36.82 36.94
31.91 27.75 22.16 26.87 31.79 32.44 30.13 28.04 27.93 20.70 20.94 21.99 20.39 20.59 30.25 26.29 27.34 27.26 26.73 27.45 26.42 24.27 23.96 23.70 22.53 21.18 23.33 25.52 26.17 26.56 27.16 26.77 27.09 28.71 28.72 29.12 30.39 32.89 31.86 32.04 32.57 34.13 34.62 35.73
31.72 25.37 18.80 23.43 26.53 30.13 27.04 30.07 29.93 28.95 25.40 21.81 14.86 18.09 28.98 28.02 26.52 27.00 25.42 25.76 24.77 24.70 23.68 23.05 22.15 22.04 22.51 24.84 24.92 25.60 25.94 25.39 25.97 27.34 27.26 27.31 27.56 30.24 30.24 29.88 30.75 30.93 31.81 33.28
34.76 26.50 23.93 22.49 24.31 26.64 24.35 27.43 29.75 26.00 19.08 21.71 20.80 20.81 26.31 26.65 24.84 25.39 25.39 25.44 23.06 22.96 22.64 21.21 21.94 23.27 23.61 24.50 24.45 24.75 25.20 24.97 24.72 25.66 24.96 24.70 25.33 27.41 28.71 28.73 28.10 28.95 29.73 29.86
30.12 24.65 21.07 25.36 27.40 27.73 26.41 25.67 26.71 22.46 25.54 19.79 23.32 22.86 23.13 27.42 26.33 25.22 25.58 25.00 23.97 22.84 22.26 22.01 21.91 22.18 23.58 24.09 24.19 24.96 25.28 24.36 23.73 23.36 22.66 22.79 24.28 26.15 25.85 26.88 26.20 26.31 26.88 28.14
29.04 22.33 18.39 13.52 26.50 26.62 23.53 25.60 25.98 23.81 24.81 23.56 21.32 24.47 27.05 27.42 26.21 24.76 25.16 24.66 23.13 21.85 21.49 21.66 22.06 22.28 22.59 22.99 23.66 24.77 24.65 24.28 24.11 22.41 20.78 21.52 22.08 22.67 24.08 23.58 23.97 23.90 24.18 24.93
25.05 19.30 15.67 15.29 25.33 25.18 19.02 24.96 24.93 24.52 26.91 26.57 22.35 25.96 26.02 24.90 26.07 24.96 24.39 24.15 22.62 21.66 21.13 21.08 21.39 21.81 22.59 22.76 23.92 23.39 24.25 25.00 23.07 22.25 21.03 20.27 19.71 19.28 20.20 21.73 21.60 21.63 21.57 23.16
22.25 20.00 21.74 17.25 21.80 12.09 23.31 30.36 29.76 27.42 28.53 28.44 26.79 25.09 27.62 26.58 25.86 26.03 25.30 23.08 22.23 21.30 21.13 21.21 21.23 21.90 22.29 23.17 23.45 24.38 24.40 23.36 22.59 22.03 21.28 20.64 19.49 18.11 18.22 18.96 19.04 19.46 20.71 21.27
28.00 24.83 20.16 19.84 18.79 21.87 27.02 29.15 28.41 27.22 26.06 29.36 26.46 27.84 24.77 23.94 23.45 21.76 25.10 24.08 21.65 19.97 20.42 18.59 20.32 22.23 21.88 22.06 23.41 23.01 22.70 21.97 21.55 20.93 21.10 21.45 20.50 18.64 17.67 17.12 18.08 18.99 19.08 19.86
29.03 27.62 23.85 22.45 16.24 15.42 25.40 31.97 33.77 31.81 18.06 28.67 28.61 25.45 23.42 23.28 19.11 17.90 23.30 22.25 21.16 20.85 20.27 18.95 19.84 21.03 19.88 19.31 22.13 18.15 18.58 20.13 18.93 20.08 20.60 21.25 21.54 20.26 18.43 17.86 18.04 19.20 19.52 19.04
23.68 22.90 22.06 22.87 21.49 24.40 30.29 32.18 33.89 17.39 20.67 29.15 28.00 25.64 23.63 22.11 21.44 22.33 23.18 21.40 21.28 19.92 19.38 19.53 17.47 16.07 14.35 14.55 18.89 16.15 14.10 13.69 14.05 18.39 20.08 19.60 19.39 20.06 19.63 19.14 19.17 19.48 19.76 19.78
25.29 22.91 22.33 24.74 21.96 19.05 32.32 31.30 25.78 27.09 28.61 28.89 27.35 26.13 23.02 21.78 21.13 20.14 20.44 19.62 20.13 19.27 18.50 14.23 15.42 12.28 11.35 14.39 16.51 15.39 14.78 11.05 12.44 12.74 13.90 14.70 15.29 17.50 17.18 17.42 17.75 18.21 18.53 18.72
26.83 29.09 25.71 26.90 25.59 28.90 30.09 28.60 30.59 30.88 29.51 28.25 27.30 27.16 22.78 20.61 18.52 19.00 19.09 20.25 20.27 19.32 18.23 16.66 13.92 12.35 11.76 14.21 12.04 14.74 11.67 13.23 14.99 13.66 12.28 8.54 12.45 14.61 13.72 14.92 16.38 16.40 17.03 17.38
31.11 33.24 28.23 29.32 28.75 28.89 29.34 29.73 30.41 30.27 29.39 29.08 28.72 24.84 23.61 21.10 19.24 18.83 20.43 20.51 19.97 19.84 17.50 16.92 16.23 12.26 10.84 9.07 14.47 12.49 14.46 14.59 14.33 13.55 13.69 14.66 13.50 14.85 16.54 15.88 17.60 16.27 15.89 17.10
29.42 32.64 30.54 27.61 25.61 28.01 28.99 29.35 29.70 27.03 27.73 28.01 26.61 25.44 23.53 21.90 20.79 21.20 21.29 21.62 20.46 19.73 19.90 19.38 18.90 18.49 16.27 17.37 15.71 13.53 16.85 18.94 19.24 18.06 17.26 16.68 18.29 13.05 13.43 16.39 18.62 16.83 17.30 19.55
31.56 30.17 26.61 24.85 29.18 29.37 24.93 25.97 28.31 25.94 25.01 26.66 25.51 24.18 23.85 23.42 21.87 22.36 21.71 22.11 21.56 20.75 20.43 18.71 18.60 18.19 17.73 18.62 18.66 19.96 21.08 21.17 19.62 19.31 18.41 16.73 16.97 16.11 16.01 13.08 12.22 20.73 21.22 21.83